<?xml version="1.0" encoding="UTF-8" standalone="no" ?>
<gpx xmlns="http://www.topografix.com/GPX/1/1" xmlns:xsi="http://www.w3.org/2001/XMLSchema-instance" xsi:schemaLocation="http://www.topografix.com/GPX/1/1 http://www.topografix.com/GPX/1/1/gpx.xsd" version="1.1" creator="VisuGPX - https://www.visugpx.com">
  <metadata>
    <name>Sortie Croix Régis - le ruisseau Morin 190512</name>
    <desc><![CDATA[Trace issue de VTTour, elle permet de parcourir le vallon d\'un ruisseau sauvage sur un quinzaine de km avec des passages très trialisants et parfois très glissants.
Un circuit plus usant qu\'il n\'y parait...]]></desc>
  </metadata>
  <trk>
    <name><![CDATA[TracÃ© actuel: 19 MAI 2012 07:43]]></name>
    <trkseg>
      <trkpt lat="45.56159" lon="4.8048">
        <ele>160</ele>
        <time>2012-05-19T05:43:25Z</time>
      </trkpt>
      <trkpt lat="45.56159" lon="4.8048">
        <ele>161</ele>
        <time>2012-05-19T05:43:35Z</time>
      </trkpt>
      <trkpt lat="45.56153" lon="4.80471">
        <ele>161</ele>
        <time>2012-05-19T05:43:42Z</time>
      </trkpt>
      <trkpt lat="45.56161" lon="4.80461">
        <ele>161</ele>
        <time>2012-05-19T05:43:47Z</time>
      </trkpt>
      <trkpt lat="45.56188" lon="4.8044">
        <ele>161</ele>
        <time>2012-05-19T05:43:57Z</time>
      </trkpt>
      <trkpt lat="45.56207" lon="4.80435">
        <ele>162</ele>
        <time>2012-05-19T05:44:03Z</time>
      </trkpt>
      <trkpt lat="45.56231" lon="4.80443">
        <ele>162</ele>
        <time>2012-05-19T05:44:10Z</time>
      </trkpt>
      <trkpt lat="45.56238" lon="4.80446">
        <ele>162</ele>
        <time>2012-05-19T05:44:12Z</time>
      </trkpt>
      <trkpt lat="45.56249" lon="4.8043">
        <ele>162</ele>
        <time>2012-05-19T05:44:17Z</time>
      </trkpt>
      <trkpt lat="45.56264" lon="4.80392">
        <ele>162</ele>
        <time>2012-05-19T05:44:25Z</time>
      </trkpt>
      <trkpt lat="45.56274" lon="4.80353">
        <ele>162</ele>
        <time>2012-05-19T05:44:33Z</time>
      </trkpt>
      <trkpt lat="45.56282" lon="4.80314">
        <ele>163</ele>
        <time>2012-05-19T05:44:41Z</time>
      </trkpt>
      <trkpt lat="45.56294" lon="4.80284">
        <ele>162</ele>
        <time>2012-05-19T05:44:48Z</time>
      </trkpt>
      <trkpt lat="45.56318" lon="4.8025">
        <ele>163</ele>
        <time>2012-05-19T05:44:57Z</time>
      </trkpt>
      <trkpt lat="45.56315" lon="4.80231">
        <ele>163</ele>
        <time>2012-05-19T05:45:01Z</time>
      </trkpt>
      <trkpt lat="45.56288" lon="4.80189">
        <ele>162</ele>
        <time>2012-05-19T05:45:12Z</time>
      </trkpt>
      <trkpt lat="45.56263" lon="4.80167">
        <ele>163</ele>
        <time>2012-05-19T05:45:21Z</time>
      </trkpt>
      <trkpt lat="45.5626" lon="4.8016">
        <ele>163</ele>
        <time>2012-05-19T05:45:23Z</time>
      </trkpt>
      <trkpt lat="45.56259" lon="4.80151">
        <ele>164</ele>
        <time>2012-05-19T05:45:25Z</time>
      </trkpt>
      <trkpt lat="45.56265" lon="4.80129">
        <ele>164</ele>
        <time>2012-05-19T05:45:30Z</time>
      </trkpt>
      <trkpt lat="45.56277" lon="4.80085">
        <ele>165</ele>
        <time>2012-05-19T05:45:41Z</time>
      </trkpt>
      <trkpt lat="45.56281" lon="4.80064">
        <ele>165</ele>
        <time>2012-05-19T05:45:47Z</time>
      </trkpt>
      <trkpt lat="45.56286" lon="4.80042">
        <ele>165</ele>
        <time>2012-05-19T05:45:53Z</time>
      </trkpt>
      <trkpt lat="45.56293" lon="4.80017">
        <ele>166</ele>
        <time>2012-05-19T05:46:01Z</time>
      </trkpt>
      <trkpt lat="45.56298" lon="4.79997">
        <ele>165</ele>
        <time>2012-05-19T05:46:06Z</time>
      </trkpt>
      <trkpt lat="45.56305" lon="4.79984">
        <ele>165</ele>
        <time>2012-05-19T05:46:12Z</time>
      </trkpt>
      <trkpt lat="45.56313" lon="4.79975">
        <ele>165</ele>
        <time>2012-05-19T05:46:19Z</time>
      </trkpt>
      <trkpt lat="45.56314" lon="4.79974">
        <ele>165</ele>
        <time>2012-05-19T05:46:20Z</time>
      </trkpt>
      <trkpt lat="45.56327" lon="4.79953">
        <ele>166</ele>
        <time>2012-05-19T05:46:29Z</time>
      </trkpt>
      <trkpt lat="45.56337" lon="4.7994">
        <ele>167</ele>
        <time>2012-05-19T05:46:36Z</time>
      </trkpt>
      <trkpt lat="45.56342" lon="4.7994">
        <ele>168</ele>
        <time>2012-05-19T05:46:44Z</time>
      </trkpt>
      <trkpt lat="45.56346" lon="4.79942">
        <ele>167</ele>
        <time>2012-05-19T05:46:51Z</time>
      </trkpt>
      <trkpt lat="45.56354" lon="4.79939">
        <ele>167</ele>
        <time>2012-05-19T05:46:57Z</time>
      </trkpt>
      <trkpt lat="45.56375" lon="4.7992">
        <ele>167</ele>
        <time>2012-05-19T05:47:06Z</time>
      </trkpt>
      <trkpt lat="45.56393" lon="4.79901">
        <ele>167</ele>
        <time>2012-05-19T05:47:14Z</time>
      </trkpt>
      <trkpt lat="45.5641" lon="4.79878">
        <ele>168</ele>
        <time>2012-05-19T05:47:22Z</time>
      </trkpt>
      <trkpt lat="45.5643" lon="4.79869">
        <ele>168</ele>
        <time>2012-05-19T05:47:29Z</time>
      </trkpt>
      <trkpt lat="45.56453" lon="4.79856">
        <ele>169</ele>
        <time>2012-05-19T05:47:37Z</time>
      </trkpt>
      <trkpt lat="45.56477" lon="4.79843">
        <ele>170</ele>
        <time>2012-05-19T05:47:45Z</time>
      </trkpt>
      <trkpt lat="45.56501" lon="4.79828">
        <ele>170</ele>
        <time>2012-05-19T05:47:54Z</time>
      </trkpt>
      <trkpt lat="45.56522" lon="4.79815">
        <ele>170</ele>
        <time>2012-05-19T05:48:01Z</time>
      </trkpt>
      <trkpt lat="45.56539" lon="4.79802">
        <ele>170</ele>
        <time>2012-05-19T05:48:06Z</time>
      </trkpt>
      <trkpt lat="45.56543" lon="4.798">
        <ele>170</ele>
        <time>2012-05-19T05:48:07Z</time>
      </trkpt>
      <trkpt lat="45.56546" lon="4.79799">
        <ele>170</ele>
        <time>2012-05-19T05:48:08Z</time>
      </trkpt>
      <trkpt lat="45.5655" lon="4.79797">
        <ele>170</ele>
        <time>2012-05-19T05:48:09Z</time>
      </trkpt>
      <trkpt lat="45.56553" lon="4.79794">
        <ele>170</ele>
        <time>2012-05-19T05:48:10Z</time>
      </trkpt>
      <trkpt lat="45.56556" lon="4.79792">
        <ele>170</ele>
        <time>2012-05-19T05:48:11Z</time>
      </trkpt>
      <trkpt lat="45.56583" lon="4.79779">
        <ele>170</ele>
        <time>2012-05-19T05:48:19Z</time>
      </trkpt>
      <trkpt lat="45.56601" lon="4.79766">
        <ele>171</ele>
        <time>2012-05-19T05:48:25Z</time>
      </trkpt>
      <trkpt lat="45.56622" lon="4.79749">
        <ele>171</ele>
        <time>2012-05-19T05:48:32Z</time>
      </trkpt>
      <trkpt lat="45.56655" lon="4.79721">
        <ele>171</ele>
        <time>2012-05-19T05:48:42Z</time>
      </trkpt>
      <trkpt lat="45.5668" lon="4.797">
        <ele>171</ele>
        <time>2012-05-19T05:48:50Z</time>
      </trkpt>
      <trkpt lat="45.56705" lon="4.7968">
        <ele>170</ele>
        <time>2012-05-19T05:48:58Z</time>
      </trkpt>
      <trkpt lat="45.56723" lon="4.79668">
        <ele>170</ele>
        <time>2012-05-19T05:49:03Z</time>
      </trkpt>
      <trkpt lat="45.56727" lon="4.79666">
        <ele>170</ele>
        <time>2012-05-19T05:49:04Z</time>
      </trkpt>
      <trkpt lat="45.56761" lon="4.79651">
        <ele>170</ele>
        <time>2012-05-19T05:49:13Z</time>
      </trkpt>
      <trkpt lat="45.56799" lon="4.79626">
        <ele>171</ele>
        <time>2012-05-19T05:49:23Z</time>
      </trkpt>
      <trkpt lat="45.56832" lon="4.79602">
        <ele>171</ele>
        <time>2012-05-19T05:49:32Z</time>
      </trkpt>
      <trkpt lat="45.56844" lon="4.79593">
        <ele>170</ele>
        <time>2012-05-19T05:49:35Z</time>
      </trkpt>
      <trkpt lat="45.56852" lon="4.79586">
        <ele>170</ele>
        <time>2012-05-19T05:49:37Z</time>
      </trkpt>
      <trkpt lat="45.56896" lon="4.79561">
        <ele>169</ele>
        <time>2012-05-19T05:49:47Z</time>
      </trkpt>
      <trkpt lat="45.56927" lon="4.79543">
        <ele>168</ele>
        <time>2012-05-19T05:49:54Z</time>
      </trkpt>
      <trkpt lat="45.56971" lon="4.79513">
        <ele>168</ele>
        <time>2012-05-19T05:50:04Z</time>
      </trkpt>
      <trkpt lat="45.56979" lon="4.79506">
        <ele>168</ele>
        <time>2012-05-19T05:50:06Z</time>
      </trkpt>
      <trkpt lat="45.57004" lon="4.79488">
        <ele>168</ele>
        <time>2012-05-19T05:50:12Z</time>
      </trkpt>
      <trkpt lat="45.57029" lon="4.79469">
        <ele>168</ele>
        <time>2012-05-19T05:50:18Z</time>
      </trkpt>
      <trkpt lat="45.5706" lon="4.79429">
        <ele>169</ele>
        <time>2012-05-19T05:50:27Z</time>
      </trkpt>
      <trkpt lat="45.57076" lon="4.79407">
        <ele>168</ele>
        <time>2012-05-19T05:50:32Z</time>
      </trkpt>
      <trkpt lat="45.57079" lon="4.79403">
        <ele>169</ele>
        <time>2012-05-19T05:50:33Z</time>
      </trkpt>
      <trkpt lat="45.57088" lon="4.79391">
        <ele>169</ele>
        <time>2012-05-19T05:50:36Z</time>
      </trkpt>
      <trkpt lat="45.57091" lon="4.79386">
        <ele>169</ele>
        <time>2012-05-19T05:50:37Z</time>
      </trkpt>
      <trkpt lat="45.57093" lon="4.79381">
        <ele>169</ele>
        <time>2012-05-19T05:50:38Z</time>
      </trkpt>
      <trkpt lat="45.57093" lon="4.79375">
        <ele>169</ele>
        <time>2012-05-19T05:50:39Z</time>
      </trkpt>
      <trkpt lat="45.57092" lon="4.7937">
        <ele>169</ele>
        <time>2012-05-19T05:50:40Z</time>
      </trkpt>
      <trkpt lat="45.57089" lon="4.79366">
        <ele>169</ele>
        <time>2012-05-19T05:50:41Z</time>
      </trkpt>
      <trkpt lat="45.57087" lon="4.79363">
        <ele>170</ele>
        <time>2012-05-19T05:50:42Z</time>
      </trkpt>
      <trkpt lat="45.57085" lon="4.7936">
        <ele>170</ele>
        <time>2012-05-19T05:50:43Z</time>
      </trkpt>
      <trkpt lat="45.57083" lon="4.79357">
        <ele>170</ele>
        <time>2012-05-19T05:50:44Z</time>
      </trkpt>
      <trkpt lat="45.57063" lon="4.79333">
        <ele>171</ele>
        <time>2012-05-19T05:50:53Z</time>
      </trkpt>
      <trkpt lat="45.57048" lon="4.7931">
        <ele>174</ele>
        <time>2012-05-19T05:51:01Z</time>
      </trkpt>
      <trkpt lat="45.57033" lon="4.79285">
        <ele>175</ele>
        <time>2012-05-19T05:51:10Z</time>
      </trkpt>
      <trkpt lat="45.57028" lon="4.79275">
        <ele>176</ele>
        <time>2012-05-19T05:51:14Z</time>
      </trkpt>
      <trkpt lat="45.57028" lon="4.79272">
        <ele>176</ele>
        <time>2012-05-19T05:51:15Z</time>
      </trkpt>
      <trkpt lat="45.57028" lon="4.7927">
        <ele>176</ele>
        <time>2012-05-19T05:51:16Z</time>
      </trkpt>
      <trkpt lat="45.57028" lon="4.79268">
        <ele>176</ele>
        <time>2012-05-19T05:51:17Z</time>
      </trkpt>
      <trkpt lat="45.57028" lon="4.79266">
        <ele>177</ele>
        <time>2012-05-19T05:51:18Z</time>
      </trkpt>
      <trkpt lat="45.57029" lon="4.79263">
        <ele>177</ele>
        <time>2012-05-19T05:51:19Z</time>
      </trkpt>
      <trkpt lat="45.57029" lon="4.79261">
        <ele>177</ele>
        <time>2012-05-19T05:51:20Z</time>
      </trkpt>
      <trkpt lat="45.5703" lon="4.79258">
        <ele>177</ele>
        <time>2012-05-19T05:51:21Z</time>
      </trkpt>
      <trkpt lat="45.5703" lon="4.79255">
        <ele>177</ele>
        <time>2012-05-19T05:51:22Z</time>
      </trkpt>
      <trkpt lat="45.57031" lon="4.79253">
        <ele>177</ele>
        <time>2012-05-19T05:51:23Z</time>
      </trkpt>
      <trkpt lat="45.57032" lon="4.79251">
        <ele>177</ele>
        <time>2012-05-19T05:51:24Z</time>
      </trkpt>
      <trkpt lat="45.57033" lon="4.79248">
        <ele>177</ele>
        <time>2012-05-19T05:51:25Z</time>
      </trkpt>
      <trkpt lat="45.57034" lon="4.79246">
        <ele>178</ele>
        <time>2012-05-19T05:51:26Z</time>
      </trkpt>
      <trkpt lat="45.57035" lon="4.79244">
        <ele>178</ele>
        <time>2012-05-19T05:51:27Z</time>
      </trkpt>
      <trkpt lat="45.57037" lon="4.79232">
        <ele>179</ele>
        <time>2012-05-19T05:51:32Z</time>
      </trkpt>
      <trkpt lat="45.57038" lon="4.79229">
        <ele>178</ele>
        <time>2012-05-19T05:51:33Z</time>
      </trkpt>
      <trkpt lat="45.57042" lon="4.79208">
        <ele>180</ele>
        <time>2012-05-19T05:51:42Z</time>
      </trkpt>
      <trkpt lat="45.57046" lon="4.79185">
        <ele>181</ele>
        <time>2012-05-19T05:51:50Z</time>
      </trkpt>
      <trkpt lat="45.57046" lon="4.79163">
        <ele>182</ele>
        <time>2012-05-19T05:51:57Z</time>
      </trkpt>
      <trkpt lat="45.57048" lon="4.79155">
        <ele>182</ele>
        <time>2012-05-19T05:52:00Z</time>
      </trkpt>
      <trkpt lat="45.5705" lon="4.79153">
        <ele>182</ele>
        <time>2012-05-19T05:52:01Z</time>
      </trkpt>
      <trkpt lat="45.57058" lon="4.79142">
        <ele>184</ele>
        <time>2012-05-19T05:52:08Z</time>
      </trkpt>
      <trkpt lat="45.57057" lon="4.7914">
        <ele>184</ele>
        <time>2012-05-19T05:52:09Z</time>
      </trkpt>
      <trkpt lat="45.57056" lon="4.79137">
        <ele>185</ele>
        <time>2012-05-19T05:52:10Z</time>
      </trkpt>
      <trkpt lat="45.57055" lon="4.79135">
        <ele>185</ele>
        <time>2012-05-19T05:52:11Z</time>
      </trkpt>
      <trkpt lat="45.57054" lon="4.79133">
        <ele>185</ele>
        <time>2012-05-19T05:52:12Z</time>
      </trkpt>
      <trkpt lat="45.57053" lon="4.79131">
        <ele>185</ele>
        <time>2012-05-19T05:52:13Z</time>
      </trkpt>
      <trkpt lat="45.57052" lon="4.79128">
        <ele>185</ele>
        <time>2012-05-19T05:52:14Z</time>
      </trkpt>
      <trkpt lat="45.57044" lon="4.79108">
        <ele>186</ele>
        <time>2012-05-19T05:52:22Z</time>
      </trkpt>
      <trkpt lat="45.57044" lon="4.79106">
        <ele>186</ele>
        <time>2012-05-19T05:52:23Z</time>
      </trkpt>
      <trkpt lat="45.57043" lon="4.79104">
        <ele>186</ele>
        <time>2012-05-19T05:52:24Z</time>
      </trkpt>
      <trkpt lat="45.57042" lon="4.79101">
        <ele>187</ele>
        <time>2012-05-19T05:52:25Z</time>
      </trkpt>
      <trkpt lat="45.57041" lon="4.79099">
        <ele>187</ele>
        <time>2012-05-19T05:52:26Z</time>
      </trkpt>
      <trkpt lat="45.5704" lon="4.79096">
        <ele>187</ele>
        <time>2012-05-19T05:52:27Z</time>
      </trkpt>
      <trkpt lat="45.57039" lon="4.79094">
        <ele>187</ele>
        <time>2012-05-19T05:52:28Z</time>
      </trkpt>
      <trkpt lat="45.57038" lon="4.79092">
        <ele>187</ele>
        <time>2012-05-19T05:52:29Z</time>
      </trkpt>
      <trkpt lat="45.57036" lon="4.7909">
        <ele>187</ele>
        <time>2012-05-19T05:52:30Z</time>
      </trkpt>
      <trkpt lat="45.57034" lon="4.79087">
        <ele>188</ele>
        <time>2012-05-19T05:52:32Z</time>
      </trkpt>
      <trkpt lat="45.57033" lon="4.79086">
        <ele>188</ele>
        <time>2012-05-19T05:52:33Z</time>
      </trkpt>
      <trkpt lat="45.57031" lon="4.79085">
        <ele>188</ele>
        <time>2012-05-19T05:52:34Z</time>
      </trkpt>
      <trkpt lat="45.57029" lon="4.79086">
        <ele>188</ele>
        <time>2012-05-19T05:52:35Z</time>
      </trkpt>
      <trkpt lat="45.57028" lon="4.79086">
        <ele>188</ele>
        <time>2012-05-19T05:52:36Z</time>
      </trkpt>
      <trkpt lat="45.57026" lon="4.79085">
        <ele>188</ele>
        <time>2012-05-19T05:52:37Z</time>
      </trkpt>
      <trkpt lat="45.57024" lon="4.79085">
        <ele>188</ele>
        <time>2012-05-19T05:52:38Z</time>
      </trkpt>
      <trkpt lat="45.57023" lon="4.79083">
        <ele>188</ele>
        <time>2012-05-19T05:52:39Z</time>
      </trkpt>
      <trkpt lat="45.57021" lon="4.79081">
        <ele>189</ele>
        <time>2012-05-19T05:52:40Z</time>
      </trkpt>
      <trkpt lat="45.5702" lon="4.79079">
        <ele>189</ele>
        <time>2012-05-19T05:52:41Z</time>
      </trkpt>
      <trkpt lat="45.57019" lon="4.79076">
        <ele>189</ele>
        <time>2012-05-19T05:52:42Z</time>
      </trkpt>
      <trkpt lat="45.57018" lon="4.79073">
        <ele>189</ele>
        <time>2012-05-19T05:52:43Z</time>
      </trkpt>
      <trkpt lat="45.57018" lon="4.7907">
        <ele>189</ele>
        <time>2012-05-19T05:52:44Z</time>
      </trkpt>
      <trkpt lat="45.57018" lon="4.79067">
        <ele>190</ele>
        <time>2012-05-19T05:52:45Z</time>
      </trkpt>
      <trkpt lat="45.57017" lon="4.79064">
        <ele>189</ele>
        <time>2012-05-19T05:52:46Z</time>
      </trkpt>
      <trkpt lat="45.57017" lon="4.79062">
        <ele>190</ele>
        <time>2012-05-19T05:52:47Z</time>
      </trkpt>
      <trkpt lat="45.57013" lon="4.79047">
        <ele>190</ele>
        <time>2012-05-19T05:52:53Z</time>
      </trkpt>
      <trkpt lat="45.57012" lon="4.79043">
        <ele>191</ele>
        <time>2012-05-19T05:52:55Z</time>
      </trkpt>
      <trkpt lat="45.57008" lon="4.79032">
        <ele>191</ele>
        <time>2012-05-19T05:53:01Z</time>
      </trkpt>
      <trkpt lat="45.57007" lon="4.79029">
        <ele>191</ele>
        <time>2012-05-19T05:53:02Z</time>
      </trkpt>
      <trkpt lat="45.57007" lon="4.79027">
        <ele>191</ele>
        <time>2012-05-19T05:53:03Z</time>
      </trkpt>
      <trkpt lat="45.57006" lon="4.79024">
        <ele>191</ele>
        <time>2012-05-19T05:53:04Z</time>
      </trkpt>
      <trkpt lat="45.56999" lon="4.79007">
        <ele>193</ele>
        <time>2012-05-19T05:53:11Z</time>
      </trkpt>
      <trkpt lat="45.56998" lon="4.79002">
        <ele>193</ele>
        <time>2012-05-19T05:53:13Z</time>
      </trkpt>
      <trkpt lat="45.56997" lon="4.79">
        <ele>194</ele>
        <time>2012-05-19T05:53:14Z</time>
      </trkpt>
      <trkpt lat="45.56996" lon="4.78998">
        <ele>194</ele>
        <time>2012-05-19T05:53:15Z</time>
      </trkpt>
      <trkpt lat="45.56995" lon="4.78993">
        <ele>194</ele>
        <time>2012-05-19T05:53:17Z</time>
      </trkpt>
      <trkpt lat="45.56995" lon="4.78991">
        <ele>194</ele>
        <time>2012-05-19T05:53:18Z</time>
      </trkpt>
      <trkpt lat="45.56993" lon="4.78988">
        <ele>195</ele>
        <time>2012-05-19T05:53:19Z</time>
      </trkpt>
      <trkpt lat="45.56993" lon="4.78987">
        <ele>195</ele>
        <time>2012-05-19T05:53:20Z</time>
      </trkpt>
      <trkpt lat="45.56992" lon="4.78984">
        <ele>195</ele>
        <time>2012-05-19T05:53:21Z</time>
      </trkpt>
      <trkpt lat="45.56986" lon="4.78962">
        <ele>197</ele>
        <time>2012-05-19T05:53:30Z</time>
      </trkpt>
      <trkpt lat="45.56982" lon="4.78953">
        <ele>197</ele>
        <time>2012-05-19T05:53:35Z</time>
      </trkpt>
      <trkpt lat="45.5698" lon="4.78948">
        <ele>197</ele>
        <time>2012-05-19T05:53:37Z</time>
      </trkpt>
      <trkpt lat="45.56975" lon="4.78939">
        <ele>198</ele>
        <time>2012-05-19T05:53:43Z</time>
      </trkpt>
      <trkpt lat="45.56973" lon="4.78933">
        <ele>198</ele>
        <time>2012-05-19T05:53:46Z</time>
      </trkpt>
      <trkpt lat="45.56968" lon="4.78923">
        <ele>199</ele>
        <time>2012-05-19T05:53:52Z</time>
      </trkpt>
      <trkpt lat="45.56967" lon="4.7892">
        <ele>199</ele>
        <time>2012-05-19T05:53:53Z</time>
      </trkpt>
      <trkpt lat="45.56965" lon="4.78908">
        <ele>200</ele>
        <time>2012-05-19T05:53:57Z</time>
      </trkpt>
      <trkpt lat="45.56964" lon="4.78906">
        <ele>200</ele>
        <time>2012-05-19T05:53:58Z</time>
      </trkpt>
      <trkpt lat="45.56962" lon="4.78903">
        <ele>200</ele>
        <time>2012-05-19T05:53:59Z</time>
      </trkpt>
      <trkpt lat="45.5695" lon="4.78885">
        <ele>202</ele>
        <time>2012-05-19T05:54:07Z</time>
      </trkpt>
      <trkpt lat="45.56946" lon="4.78874">
        <ele>202</ele>
        <time>2012-05-19T05:54:13Z</time>
      </trkpt>
      <trkpt lat="45.56945" lon="4.78871">
        <ele>202</ele>
        <time>2012-05-19T05:54:14Z</time>
      </trkpt>
      <trkpt lat="45.56944" lon="4.7887">
        <ele>202</ele>
        <time>2012-05-19T05:54:15Z</time>
      </trkpt>
      <trkpt lat="45.56943" lon="4.78867">
        <ele>202</ele>
        <time>2012-05-19T05:54:16Z</time>
      </trkpt>
      <trkpt lat="45.56942" lon="4.78865">
        <ele>202</ele>
        <time>2012-05-19T05:54:17Z</time>
      </trkpt>
      <trkpt lat="45.56941" lon="4.78862">
        <ele>202</ele>
        <time>2012-05-19T05:54:18Z</time>
      </trkpt>
      <trkpt lat="45.5694" lon="4.78859">
        <ele>202</ele>
        <time>2012-05-19T05:54:19Z</time>
      </trkpt>
      <trkpt lat="45.56938" lon="4.78856">
        <ele>203</ele>
        <time>2012-05-19T05:54:20Z</time>
      </trkpt>
      <trkpt lat="45.56937" lon="4.78853">
        <ele>203</ele>
        <time>2012-05-19T05:54:21Z</time>
      </trkpt>
      <trkpt lat="45.56935" lon="4.78851">
        <ele>203</ele>
        <time>2012-05-19T05:54:22Z</time>
      </trkpt>
      <trkpt lat="45.56934" lon="4.78849">
        <ele>203</ele>
        <time>2012-05-19T05:54:23Z</time>
      </trkpt>
      <trkpt lat="45.56932" lon="4.78846">
        <ele>203</ele>
        <time>2012-05-19T05:54:25Z</time>
      </trkpt>
      <trkpt lat="45.5693" lon="4.78844">
        <ele>204</ele>
        <time>2012-05-19T05:54:26Z</time>
      </trkpt>
      <trkpt lat="45.56929" lon="4.78843">
        <ele>203</ele>
        <time>2012-05-19T05:54:27Z</time>
      </trkpt>
      <trkpt lat="45.56928" lon="4.78842">
        <ele>204</ele>
        <time>2012-05-19T05:54:28Z</time>
      </trkpt>
      <trkpt lat="45.56927" lon="4.7884">
        <ele>204</ele>
        <time>2012-05-19T05:54:29Z</time>
      </trkpt>
      <trkpt lat="45.56925" lon="4.78839">
        <ele>204</ele>
        <time>2012-05-19T05:54:30Z</time>
      </trkpt>
      <trkpt lat="45.56924" lon="4.78838">
        <ele>204</ele>
        <time>2012-05-19T05:54:31Z</time>
      </trkpt>
      <trkpt lat="45.56923" lon="4.78836">
        <ele>204</ele>
        <time>2012-05-19T05:54:32Z</time>
      </trkpt>
      <trkpt lat="45.56923" lon="4.78834">
        <ele>204</ele>
        <time>2012-05-19T05:54:33Z</time>
      </trkpt>
      <trkpt lat="45.56921" lon="4.78833">
        <ele>204</ele>
        <time>2012-05-19T05:54:34Z</time>
      </trkpt>
      <trkpt lat="45.56915" lon="4.78828">
        <ele>205</ele>
        <time>2012-05-19T05:54:38Z</time>
      </trkpt>
      <trkpt lat="45.56914" lon="4.78826">
        <ele>205</ele>
        <time>2012-05-19T05:54:39Z</time>
      </trkpt>
      <trkpt lat="45.56912" lon="4.78825">
        <ele>206</ele>
        <time>2012-05-19T05:54:40Z</time>
      </trkpt>
      <trkpt lat="45.56911" lon="4.78824">
        <ele>206</ele>
        <time>2012-05-19T05:54:41Z</time>
      </trkpt>
      <trkpt lat="45.5691" lon="4.78823">
        <ele>206</ele>
        <time>2012-05-19T05:54:42Z</time>
      </trkpt>
      <trkpt lat="45.56908" lon="4.78822">
        <ele>206</ele>
        <time>2012-05-19T05:54:43Z</time>
      </trkpt>
      <trkpt lat="45.56907" lon="4.78821">
        <ele>206</ele>
        <time>2012-05-19T05:54:44Z</time>
      </trkpt>
      <trkpt lat="45.56906" lon="4.7882">
        <ele>206</ele>
        <time>2012-05-19T05:54:45Z</time>
      </trkpt>
      <trkpt lat="45.56904" lon="4.78819">
        <ele>206</ele>
        <time>2012-05-19T05:54:46Z</time>
      </trkpt>
      <trkpt lat="45.56902" lon="4.78817">
        <ele>207</ele>
        <time>2012-05-19T05:54:48Z</time>
      </trkpt>
      <trkpt lat="45.569" lon="4.78816">
        <ele>207</ele>
        <time>2012-05-19T05:54:49Z</time>
      </trkpt>
      <trkpt lat="45.56898" lon="4.78815">
        <ele>207</ele>
        <time>2012-05-19T05:54:51Z</time>
      </trkpt>
      <trkpt lat="45.56897" lon="4.78814">
        <ele>207</ele>
        <time>2012-05-19T05:54:52Z</time>
      </trkpt>
      <trkpt lat="45.56893" lon="4.7881">
        <ele>208</ele>
        <time>2012-05-19T05:54:56Z</time>
      </trkpt>
      <trkpt lat="45.56892" lon="4.78809">
        <ele>208</ele>
        <time>2012-05-19T05:54:57Z</time>
      </trkpt>
      <trkpt lat="45.56891" lon="4.78808">
        <ele>208</ele>
        <time>2012-05-19T05:54:58Z</time>
      </trkpt>
      <trkpt lat="45.56889" lon="4.78808">
        <ele>208</ele>
        <time>2012-05-19T05:54:59Z</time>
      </trkpt>
      <trkpt lat="45.56881" lon="4.78804">
        <ele>209</ele>
        <time>2012-05-19T05:55:05Z</time>
      </trkpt>
      <trkpt lat="45.56876" lon="4.788">
        <ele>210</ele>
        <time>2012-05-19T05:55:10Z</time>
      </trkpt>
      <trkpt lat="45.56873" lon="4.78799">
        <ele>210</ele>
        <time>2012-05-19T05:55:13Z</time>
      </trkpt>
      <trkpt lat="45.56871" lon="4.78799">
        <ele>211</ele>
        <time>2012-05-19T05:55:14Z</time>
      </trkpt>
      <trkpt lat="45.56863" lon="4.78796">
        <ele>212</ele>
        <time>2012-05-19T05:55:19Z</time>
      </trkpt>
      <trkpt lat="45.56854" lon="4.78794">
        <ele>213</ele>
        <time>2012-05-19T05:55:25Z</time>
      </trkpt>
      <trkpt lat="45.56846" lon="4.78793">
        <ele>214</ele>
        <time>2012-05-19T05:55:31Z</time>
      </trkpt>
      <trkpt lat="45.56838" lon="4.78792">
        <ele>216</ele>
        <time>2012-05-19T05:55:38Z</time>
      </trkpt>
      <trkpt lat="45.56831" lon="4.78795">
        <ele>217</ele>
        <time>2012-05-19T05:55:44Z</time>
      </trkpt>
      <trkpt lat="45.56823" lon="4.78793">
        <ele>219</ele>
        <time>2012-05-19T05:55:53Z</time>
      </trkpt>
      <trkpt lat="45.56819" lon="4.78791">
        <ele>220</ele>
        <time>2012-05-19T05:55:55Z</time>
      </trkpt>
      <trkpt lat="45.56817" lon="4.78789">
        <ele>220</ele>
        <time>2012-05-19T05:55:56Z</time>
      </trkpt>
      <trkpt lat="45.56812" lon="4.78785">
        <ele>221</ele>
        <time>2012-05-19T05:55:59Z</time>
      </trkpt>
      <trkpt lat="45.5681" lon="4.78784">
        <ele>221</ele>
        <time>2012-05-19T05:56:00Z</time>
      </trkpt>
      <trkpt lat="45.56804" lon="4.78779">
        <ele>222</ele>
        <time>2012-05-19T05:56:05Z</time>
      </trkpt>
      <trkpt lat="45.56796" lon="4.78773">
        <ele>224</ele>
        <time>2012-05-19T05:56:12Z</time>
      </trkpt>
      <trkpt lat="45.56786" lon="4.78762">
        <ele>225</ele>
        <time>2012-05-19T05:56:20Z</time>
      </trkpt>
      <trkpt lat="45.56784" lon="4.7876">
        <ele>225</ele>
        <time>2012-05-19T05:56:22Z</time>
      </trkpt>
      <trkpt lat="45.56777" lon="4.7875">
        <ele>227</ele>
        <time>2012-05-19T05:56:29Z</time>
      </trkpt>
      <trkpt lat="45.56775" lon="4.78749">
        <ele>227</ele>
        <time>2012-05-19T05:56:30Z</time>
      </trkpt>
      <trkpt lat="45.56774" lon="4.78748">
        <ele>227</ele>
        <time>2012-05-19T05:56:31Z</time>
      </trkpt>
      <trkpt lat="45.56769" lon="4.78743">
        <ele>227</ele>
        <time>2012-05-19T05:56:35Z</time>
      </trkpt>
      <trkpt lat="45.56767" lon="4.78742">
        <ele>228</ele>
        <time>2012-05-19T05:56:36Z</time>
      </trkpt>
      <trkpt lat="45.56766" lon="4.7874">
        <ele>228</ele>
        <time>2012-05-19T05:56:37Z</time>
      </trkpt>
      <trkpt lat="45.56757" lon="4.78727">
        <ele>229</ele>
        <time>2012-05-19T05:56:46Z</time>
      </trkpt>
      <trkpt lat="45.56748" lon="4.78715">
        <ele>230</ele>
        <time>2012-05-19T05:56:54Z</time>
      </trkpt>
      <trkpt lat="45.56745" lon="4.7871">
        <ele>230</ele>
        <time>2012-05-19T05:56:58Z</time>
      </trkpt>
      <trkpt lat="45.56736" lon="4.787">
        <ele>232</ele>
        <time>2012-05-19T05:57:07Z</time>
      </trkpt>
      <trkpt lat="45.5673" lon="4.78696">
        <ele>232</ele>
        <time>2012-05-19T05:57:13Z</time>
      </trkpt>
      <trkpt lat="45.56721" lon="4.7869">
        <ele>233</ele>
        <time>2012-05-19T05:57:19Z</time>
      </trkpt>
      <trkpt lat="45.56718" lon="4.78687">
        <ele>234</ele>
        <time>2012-05-19T05:57:22Z</time>
      </trkpt>
      <trkpt lat="45.56714" lon="4.78683">
        <ele>234</ele>
        <time>2012-05-19T05:57:27Z</time>
      </trkpt>
      <trkpt lat="45.56713" lon="4.7868">
        <ele>235</ele>
        <time>2012-05-19T05:57:29Z</time>
      </trkpt>
      <trkpt lat="45.56711" lon="4.78679">
        <ele>235</ele>
        <time>2012-05-19T05:57:30Z</time>
      </trkpt>
      <trkpt lat="45.56709" lon="4.78676">
        <ele>234</ele>
        <time>2012-05-19T05:57:31Z</time>
      </trkpt>
      <trkpt lat="45.5669" lon="4.78662">
        <ele>233</ele>
        <time>2012-05-19T05:57:38Z</time>
      </trkpt>
      <trkpt lat="45.56678" lon="4.78655">
        <ele>234</ele>
        <time>2012-05-19T05:57:45Z</time>
      </trkpt>
      <trkpt lat="45.56674" lon="4.7865">
        <ele>234</ele>
        <time>2012-05-19T05:57:51Z</time>
      </trkpt>
      <trkpt lat="45.5667" lon="4.78646">
        <ele>235</ele>
        <time>2012-05-19T05:57:54Z</time>
      </trkpt>
      <trkpt lat="45.56668" lon="4.78645">
        <ele>234</ele>
        <time>2012-05-19T05:57:55Z</time>
      </trkpt>
      <trkpt lat="45.56655" lon="4.78638">
        <ele>236</ele>
        <time>2012-05-19T05:58:02Z</time>
      </trkpt>
      <trkpt lat="45.56643" lon="4.78632">
        <ele>238</ele>
        <time>2012-05-19T05:58:09Z</time>
      </trkpt>
      <trkpt lat="45.56642" lon="4.78631">
        <ele>238</ele>
        <time>2012-05-19T05:58:10Z</time>
      </trkpt>
      <trkpt lat="45.56634" lon="4.78626">
        <ele>239</ele>
        <time>2012-05-19T05:58:16Z</time>
      </trkpt>
      <trkpt lat="45.56629" lon="4.78622">
        <ele>240</ele>
        <time>2012-05-19T05:58:20Z</time>
      </trkpt>
      <trkpt lat="45.56621" lon="4.78618">
        <ele>242</ele>
        <time>2012-05-19T05:58:25Z</time>
      </trkpt>
      <trkpt lat="45.56619" lon="4.78614">
        <ele>243</ele>
        <time>2012-05-19T05:58:28Z</time>
      </trkpt>
      <trkpt lat="45.56613" lon="4.78604">
        <ele>244</ele>
        <time>2012-05-19T05:58:35Z</time>
      </trkpt>
      <trkpt lat="45.56603" lon="4.78592">
        <ele>244</ele>
        <time>2012-05-19T05:58:43Z</time>
      </trkpt>
      <trkpt lat="45.56598" lon="4.78581">
        <ele>245</ele>
        <time>2012-05-19T05:58:48Z</time>
      </trkpt>
      <trkpt lat="45.56597" lon="4.78577">
        <ele>245</ele>
        <time>2012-05-19T05:58:49Z</time>
      </trkpt>
      <trkpt lat="45.56596" lon="4.78571">
        <ele>244</ele>
        <time>2012-05-19T05:58:51Z</time>
      </trkpt>
      <trkpt lat="45.56597" lon="4.78567">
        <ele>245</ele>
        <time>2012-05-19T05:58:52Z</time>
      </trkpt>
      <trkpt lat="45.56598" lon="4.78562">
        <ele>245</ele>
        <time>2012-05-19T05:58:53Z</time>
      </trkpt>
      <trkpt lat="45.56599" lon="4.7856">
        <ele>245</ele>
        <time>2012-05-19T05:58:54Z</time>
      </trkpt>
      <trkpt lat="45.56599" lon="4.78557">
        <ele>245</ele>
        <time>2012-05-19T05:58:55Z</time>
      </trkpt>
      <trkpt lat="45.56599" lon="4.78548">
        <ele>246</ele>
        <time>2012-05-19T05:58:58Z</time>
      </trkpt>
      <trkpt lat="45.56598" lon="4.78546">
        <ele>246</ele>
        <time>2012-05-19T05:58:59Z</time>
      </trkpt>
      <trkpt lat="45.56597" lon="4.78542">
        <ele>247</ele>
        <time>2012-05-19T05:59:01Z</time>
      </trkpt>
      <trkpt lat="45.56595" lon="4.78535">
        <ele>248</ele>
        <time>2012-05-19T05:59:06Z</time>
      </trkpt>
      <trkpt lat="45.56594" lon="4.78533">
        <ele>248</ele>
        <time>2012-05-19T05:59:07Z</time>
      </trkpt>
      <trkpt lat="45.56593" lon="4.78531">
        <ele>248</ele>
        <time>2012-05-19T05:59:08Z</time>
      </trkpt>
      <trkpt lat="45.56593" lon="4.78529">
        <ele>249</ele>
        <time>2012-05-19T05:59:09Z</time>
      </trkpt>
      <trkpt lat="45.56592" lon="4.78528">
        <ele>249</ele>
        <time>2012-05-19T05:59:10Z</time>
      </trkpt>
      <trkpt lat="45.56589" lon="4.78518">
        <ele>250</ele>
        <time>2012-05-19T05:59:15Z</time>
      </trkpt>
      <trkpt lat="45.56588" lon="4.78515">
        <ele>251</ele>
        <time>2012-05-19T05:59:17Z</time>
      </trkpt>
      <trkpt lat="45.56589" lon="4.78513">
        <ele>251</ele>
        <time>2012-05-19T05:59:18Z</time>
      </trkpt>
      <trkpt lat="45.56589" lon="4.78511">
        <ele>252</ele>
        <time>2012-05-19T05:59:19Z</time>
      </trkpt>
      <trkpt lat="45.56587" lon="4.78505">
        <ele>252</ele>
        <time>2012-05-19T05:59:23Z</time>
      </trkpt>
      <trkpt lat="45.56588" lon="4.78498">
        <ele>253</ele>
        <time>2012-05-19T05:59:27Z</time>
      </trkpt>
      <trkpt lat="45.56585" lon="4.78492">
        <ele>254</ele>
        <time>2012-05-19T05:59:30Z</time>
      </trkpt>
      <trkpt lat="45.5658" lon="4.78482">
        <ele>255</ele>
        <time>2012-05-19T05:59:36Z</time>
      </trkpt>
      <trkpt lat="45.5658" lon="4.7848">
        <ele>255</ele>
        <time>2012-05-19T05:59:37Z</time>
      </trkpt>
      <trkpt lat="45.56578" lon="4.78466">
        <ele>256</ele>
        <time>2012-05-19T05:59:45Z</time>
      </trkpt>
      <trkpt lat="45.56578" lon="4.78455">
        <ele>258</ele>
        <time>2012-05-19T05:59:52Z</time>
      </trkpt>
      <trkpt lat="45.56573" lon="4.78447">
        <ele>258</ele>
        <time>2012-05-19T05:59:58Z</time>
      </trkpt>
      <trkpt lat="45.56567" lon="4.78435">
        <ele>257</ele>
        <time>2012-05-19T06:00:05Z</time>
      </trkpt>
      <trkpt lat="45.56564" lon="4.78421">
        <ele>258</ele>
        <time>2012-05-19T06:00:11Z</time>
      </trkpt>
      <trkpt lat="45.56558" lon="4.78411">
        <ele>259</ele>
        <time>2012-05-19T06:00:17Z</time>
      </trkpt>
      <trkpt lat="45.56552" lon="4.78404">
        <ele>261</ele>
        <time>2012-05-19T06:00:24Z</time>
      </trkpt>
      <trkpt lat="45.56549" lon="4.78398">
        <ele>262</ele>
        <time>2012-05-19T06:00:29Z</time>
      </trkpt>
      <trkpt lat="45.56543" lon="4.78392">
        <ele>263</ele>
        <time>2012-05-19T06:00:35Z</time>
      </trkpt>
      <trkpt lat="45.5654" lon="4.78391">
        <ele>263</ele>
        <time>2012-05-19T06:00:37Z</time>
      </trkpt>
      <trkpt lat="45.56538" lon="4.78388">
        <ele>264</ele>
        <time>2012-05-19T06:00:39Z</time>
      </trkpt>
      <trkpt lat="45.56533" lon="4.78381">
        <ele>265</ele>
        <time>2012-05-19T06:00:45Z</time>
      </trkpt>
      <trkpt lat="45.5653" lon="4.78377">
        <ele>266</ele>
        <time>2012-05-19T06:00:49Z</time>
      </trkpt>
      <trkpt lat="45.56527" lon="4.78372">
        <ele>267</ele>
        <time>2012-05-19T06:00:52Z</time>
      </trkpt>
      <trkpt lat="45.56525" lon="4.7837">
        <ele>267</ele>
        <time>2012-05-19T06:00:53Z</time>
      </trkpt>
      <trkpt lat="45.56524" lon="4.78369">
        <ele>267</ele>
        <time>2012-05-19T06:00:54Z</time>
      </trkpt>
      <trkpt lat="45.56523" lon="4.78367">
        <ele>267</ele>
        <time>2012-05-19T06:00:55Z</time>
      </trkpt>
      <trkpt lat="45.56521" lon="4.78365">
        <ele>268</ele>
        <time>2012-05-19T06:00:56Z</time>
      </trkpt>
      <trkpt lat="45.56519" lon="4.78362">
        <ele>268</ele>
        <time>2012-05-19T06:00:58Z</time>
      </trkpt>
      <trkpt lat="45.56514" lon="4.78358">
        <ele>269</ele>
        <time>2012-05-19T06:01:04Z</time>
      </trkpt>
      <trkpt lat="45.56508" lon="4.78353">
        <ele>271</ele>
        <time>2012-05-19T06:01:09Z</time>
      </trkpt>
      <trkpt lat="45.56503" lon="4.78348">
        <ele>271</ele>
        <time>2012-05-19T06:01:14Z</time>
      </trkpt>
      <trkpt lat="45.56496" lon="4.78338">
        <ele>275</ele>
        <time>2012-05-19T06:01:23Z</time>
      </trkpt>
      <trkpt lat="45.56491" lon="4.78333">
        <ele>276</ele>
        <time>2012-05-19T06:01:29Z</time>
      </trkpt>
      <trkpt lat="45.56486" lon="4.78327">
        <ele>277</ele>
        <time>2012-05-19T06:01:34Z</time>
      </trkpt>
      <trkpt lat="45.5648" lon="4.78323">
        <ele>277</ele>
        <time>2012-05-19T06:01:39Z</time>
      </trkpt>
      <trkpt lat="45.56476" lon="4.78315">
        <ele>277</ele>
        <time>2012-05-19T06:01:46Z</time>
      </trkpt>
      <trkpt lat="45.5647" lon="4.7831">
        <ele>278</ele>
        <time>2012-05-19T06:01:52Z</time>
      </trkpt>
      <trkpt lat="45.56464" lon="4.78303">
        <ele>278</ele>
        <time>2012-05-19T06:01:58Z</time>
      </trkpt>
      <trkpt lat="45.56461" lon="4.78298">
        <ele>279</ele>
        <time>2012-05-19T06:02:03Z</time>
      </trkpt>
      <trkpt lat="45.56449" lon="4.7829">
        <ele>281</ele>
        <time>2012-05-19T06:02:11Z</time>
      </trkpt>
      <trkpt lat="45.56447" lon="4.78289">
        <ele>281</ele>
        <time>2012-05-19T06:02:12Z</time>
      </trkpt>
      <trkpt lat="45.56446" lon="4.78287">
        <ele>281</ele>
        <time>2012-05-19T06:02:13Z</time>
      </trkpt>
      <trkpt lat="45.56444" lon="4.78285">
        <ele>281</ele>
        <time>2012-05-19T06:02:14Z</time>
      </trkpt>
      <trkpt lat="45.5644" lon="4.7828">
        <ele>282</ele>
        <time>2012-05-19T06:02:18Z</time>
      </trkpt>
      <trkpt lat="45.56433" lon="4.78271">
        <ele>283</ele>
        <time>2012-05-19T06:02:25Z</time>
      </trkpt>
      <trkpt lat="45.56428" lon="4.78265">
        <ele>284</ele>
        <time>2012-05-19T06:02:29Z</time>
      </trkpt>
      <trkpt lat="45.56423" lon="4.78256">
        <ele>285</ele>
        <time>2012-05-19T06:02:34Z</time>
      </trkpt>
      <trkpt lat="45.56419" lon="4.78251">
        <ele>286</ele>
        <time>2012-05-19T06:02:39Z</time>
      </trkpt>
      <trkpt lat="45.56413" lon="4.78243">
        <ele>287</ele>
        <time>2012-05-19T06:02:44Z</time>
      </trkpt>
      <trkpt lat="45.56412" lon="4.78242">
        <ele>287</ele>
        <time>2012-05-19T06:02:45Z</time>
      </trkpt>
      <trkpt lat="45.56411" lon="4.78241">
        <ele>287</ele>
        <time>2012-05-19T06:02:46Z</time>
      </trkpt>
      <trkpt lat="45.5641" lon="4.78239">
        <ele>287</ele>
        <time>2012-05-19T06:02:47Z</time>
      </trkpt>
      <trkpt lat="45.56406" lon="4.78231">
        <ele>288</ele>
        <time>2012-05-19T06:02:53Z</time>
      </trkpt>
      <trkpt lat="45.56395" lon="4.78222">
        <ele>289</ele>
        <time>2012-05-19T06:03:00Z</time>
      </trkpt>
      <trkpt lat="45.5638" lon="4.78207">
        <ele>292</ele>
        <time>2012-05-19T06:03:08Z</time>
      </trkpt>
      <trkpt lat="45.56375" lon="4.78193">
        <ele>294</ele>
        <time>2012-05-19T06:03:16Z</time>
      </trkpt>
      <trkpt lat="45.56374" lon="4.78181">
        <ele>295</ele>
        <time>2012-05-19T06:03:24Z</time>
      </trkpt>
      <trkpt lat="45.56374" lon="4.78179">
        <ele>296</ele>
        <time>2012-05-19T06:03:25Z</time>
      </trkpt>
      <trkpt lat="45.56375" lon="4.78177">
        <ele>296</ele>
        <time>2012-05-19T06:03:26Z</time>
      </trkpt>
      <trkpt lat="45.56375" lon="4.78175">
        <ele>297</ele>
        <time>2012-05-19T06:03:27Z</time>
      </trkpt>
      <trkpt lat="45.56373" lon="4.78167">
        <ele>298</ele>
        <time>2012-05-19T06:03:31Z</time>
      </trkpt>
      <trkpt lat="45.56371" lon="4.78166">
        <ele>298</ele>
        <time>2012-05-19T06:03:32Z</time>
      </trkpt>
      <trkpt lat="45.5637" lon="4.78163">
        <ele>298</ele>
        <time>2012-05-19T06:03:34Z</time>
      </trkpt>
      <trkpt lat="45.56369" lon="4.78162">
        <ele>298</ele>
        <time>2012-05-19T06:03:35Z</time>
      </trkpt>
      <trkpt lat="45.56369" lon="4.78161">
        <ele>299</ele>
        <time>2012-05-19T06:03:36Z</time>
      </trkpt>
      <trkpt lat="45.56368" lon="4.78161">
        <ele>299</ele>
        <time>2012-05-19T06:03:37Z</time>
      </trkpt>
      <trkpt lat="45.56366" lon="4.78158">
        <ele>300</ele>
        <time>2012-05-19T06:03:40Z</time>
      </trkpt>
      <trkpt lat="45.56366" lon="4.78156">
        <ele>300</ele>
        <time>2012-05-19T06:03:41Z</time>
      </trkpt>
      <trkpt lat="45.56365" lon="4.78155">
        <ele>300</ele>
        <time>2012-05-19T06:03:42Z</time>
      </trkpt>
      <trkpt lat="45.56365" lon="4.78153">
        <ele>300</ele>
        <time>2012-05-19T06:03:43Z</time>
      </trkpt>
      <trkpt lat="45.56365" lon="4.78151">
        <ele>301</ele>
        <time>2012-05-19T06:03:44Z</time>
      </trkpt>
      <trkpt lat="45.56365" lon="4.7815">
        <ele>301</ele>
        <time>2012-05-19T06:03:45Z</time>
      </trkpt>
      <trkpt lat="45.56364" lon="4.78148">
        <ele>301</ele>
        <time>2012-05-19T06:03:46Z</time>
      </trkpt>
      <trkpt lat="45.56364" lon="4.78146">
        <ele>301</ele>
        <time>2012-05-19T06:03:47Z</time>
      </trkpt>
      <trkpt lat="45.56364" lon="4.78144">
        <ele>301</ele>
        <time>2012-05-19T06:03:48Z</time>
      </trkpt>
      <trkpt lat="45.56364" lon="4.78142">
        <ele>301</ele>
        <time>2012-05-19T06:03:49Z</time>
      </trkpt>
      <trkpt lat="45.56363" lon="4.78138">
        <ele>302</ele>
        <time>2012-05-19T06:03:51Z</time>
      </trkpt>
      <trkpt lat="45.56361" lon="4.78123">
        <ele>304</ele>
        <time>2012-05-19T06:04:00Z</time>
      </trkpt>
      <trkpt lat="45.56361" lon="4.78121">
        <ele>305</ele>
        <time>2012-05-19T06:04:01Z</time>
      </trkpt>
      <trkpt lat="45.56361" lon="4.78112">
        <ele>307</ele>
        <time>2012-05-19T06:04:08Z</time>
      </trkpt>
      <trkpt lat="45.56364" lon="4.78101">
        <ele>308</ele>
        <time>2012-05-19T06:04:15Z</time>
      </trkpt>
      <trkpt lat="45.56361" lon="4.78085">
        <ele>310</ele>
        <time>2012-05-19T06:04:23Z</time>
      </trkpt>
      <trkpt lat="45.56359" lon="4.78071">
        <ele>313</ele>
        <time>2012-05-19T06:04:31Z</time>
      </trkpt>
      <trkpt lat="45.56358" lon="4.78059">
        <ele>314</ele>
        <time>2012-05-19T06:04:38Z</time>
      </trkpt>
      <trkpt lat="45.56356" lon="4.78046">
        <ele>316</ele>
        <time>2012-05-19T06:04:46Z</time>
      </trkpt>
      <trkpt lat="45.56353" lon="4.78032">
        <ele>319</ele>
        <time>2012-05-19T06:04:54Z</time>
      </trkpt>
      <trkpt lat="45.56351" lon="4.78025">
        <ele>320</ele>
        <time>2012-05-19T06:05:00Z</time>
      </trkpt>
      <trkpt lat="45.5635" lon="4.78019">
        <ele>321</ele>
        <time>2012-05-19T06:05:03Z</time>
      </trkpt>
      <trkpt lat="45.56351" lon="4.78008">
        <ele>323</ele>
        <time>2012-05-19T06:05:07Z</time>
      </trkpt>
      <trkpt lat="45.56352" lon="4.78006">
        <ele>322</ele>
        <time>2012-05-19T06:05:08Z</time>
      </trkpt>
      <trkpt lat="45.56352" lon="4.78003">
        <ele>322</ele>
        <time>2012-05-19T06:05:09Z</time>
      </trkpt>
      <trkpt lat="45.56352" lon="4.78">
        <ele>323</ele>
        <time>2012-05-19T06:05:10Z</time>
      </trkpt>
      <trkpt lat="45.56352" lon="4.77998">
        <ele>323</ele>
        <time>2012-05-19T06:05:11Z</time>
      </trkpt>
      <trkpt lat="45.56353" lon="4.77996">
        <ele>323</ele>
        <time>2012-05-19T06:05:12Z</time>
      </trkpt>
      <trkpt lat="45.56354" lon="4.77994">
        <ele>324</ele>
        <time>2012-05-19T06:05:13Z</time>
      </trkpt>
      <trkpt lat="45.56354" lon="4.77992">
        <ele>324</ele>
        <time>2012-05-19T06:05:14Z</time>
      </trkpt>
      <trkpt lat="45.56355" lon="4.7799">
        <ele>324</ele>
        <time>2012-05-19T06:05:15Z</time>
      </trkpt>
      <trkpt lat="45.56355" lon="4.77988">
        <ele>324</ele>
        <time>2012-05-19T06:05:16Z</time>
      </trkpt>
      <trkpt lat="45.56355" lon="4.77986">
        <ele>324</ele>
        <time>2012-05-19T06:05:17Z</time>
      </trkpt>
      <trkpt lat="45.56355" lon="4.77984">
        <ele>324</ele>
        <time>2012-05-19T06:05:18Z</time>
      </trkpt>
      <trkpt lat="45.56355" lon="4.77982">
        <ele>324</ele>
        <time>2012-05-19T06:05:19Z</time>
      </trkpt>
      <trkpt lat="45.56356" lon="4.7798">
        <ele>325</ele>
        <time>2012-05-19T06:05:20Z</time>
      </trkpt>
      <trkpt lat="45.56356" lon="4.77963">
        <ele>326</ele>
        <time>2012-05-19T06:05:29Z</time>
      </trkpt>
      <trkpt lat="45.56352" lon="4.77948">
        <ele>326</ele>
        <time>2012-05-19T06:05:37Z</time>
      </trkpt>
      <trkpt lat="45.56351" lon="4.77945">
        <ele>327</ele>
        <time>2012-05-19T06:05:39Z</time>
      </trkpt>
      <trkpt lat="45.5635" lon="4.77943">
        <ele>327</ele>
        <time>2012-05-19T06:05:40Z</time>
      </trkpt>
      <trkpt lat="45.5635" lon="4.77941">
        <ele>327</ele>
        <time>2012-05-19T06:05:41Z</time>
      </trkpt>
      <trkpt lat="45.56344" lon="4.77927">
        <ele>327</ele>
        <time>2012-05-19T06:05:49Z</time>
      </trkpt>
      <trkpt lat="45.56336" lon="4.7791">
        <ele>328</ele>
        <time>2012-05-19T06:05:59Z</time>
      </trkpt>
      <trkpt lat="45.56334" lon="4.77898">
        <ele>329</ele>
        <time>2012-05-19T06:06:04Z</time>
      </trkpt>
      <trkpt lat="45.56334" lon="4.77896">
        <ele>329</ele>
        <time>2012-05-19T06:06:05Z</time>
      </trkpt>
      <trkpt lat="45.56335" lon="4.77894">
        <ele>329</ele>
        <time>2012-05-19T06:06:06Z</time>
      </trkpt>
      <trkpt lat="45.56335" lon="4.77892">
        <ele>329</ele>
        <time>2012-05-19T06:06:07Z</time>
      </trkpt>
      <trkpt lat="45.56336" lon="4.7789">
        <ele>329</ele>
        <time>2012-05-19T06:06:08Z</time>
      </trkpt>
      <trkpt lat="45.56337" lon="4.77889">
        <ele>329</ele>
        <time>2012-05-19T06:06:09Z</time>
      </trkpt>
      <trkpt lat="45.56338" lon="4.77887">
        <ele>329</ele>
        <time>2012-05-19T06:06:10Z</time>
      </trkpt>
      <trkpt lat="45.56339" lon="4.77885">
        <ele>330</ele>
        <time>2012-05-19T06:06:11Z</time>
      </trkpt>
      <trkpt lat="45.5634" lon="4.77884">
        <ele>329</ele>
        <time>2012-05-19T06:06:12Z</time>
      </trkpt>
      <trkpt lat="45.56341" lon="4.77882">
        <ele>330</ele>
        <time>2012-05-19T06:06:13Z</time>
      </trkpt>
      <trkpt lat="45.56342" lon="4.7788">
        <ele>330</ele>
        <time>2012-05-19T06:06:14Z</time>
      </trkpt>
      <trkpt lat="45.56343" lon="4.77878">
        <ele>330</ele>
        <time>2012-05-19T06:06:15Z</time>
      </trkpt>
      <trkpt lat="45.56345" lon="4.77877">
        <ele>330</ele>
        <time>2012-05-19T06:06:16Z</time>
      </trkpt>
      <trkpt lat="45.56346" lon="4.77875">
        <ele>331</ele>
        <time>2012-05-19T06:06:17Z</time>
      </trkpt>
      <trkpt lat="45.56358" lon="4.77859">
        <ele>332</ele>
        <time>2012-05-19T06:06:27Z</time>
      </trkpt>
      <trkpt lat="45.56371" lon="4.77842">
        <ele>334</ele>
        <time>2012-05-19T06:06:38Z</time>
      </trkpt>
      <trkpt lat="45.56379" lon="4.77832">
        <ele>335</ele>
        <time>2012-05-19T06:06:46Z</time>
      </trkpt>
      <trkpt lat="45.56389" lon="4.7782">
        <ele>336</ele>
        <time>2012-05-19T06:06:55Z</time>
      </trkpt>
      <trkpt lat="45.564" lon="4.77807">
        <ele>338</ele>
        <time>2012-05-19T06:07:05Z</time>
      </trkpt>
      <trkpt lat="45.56411" lon="4.77789">
        <ele>339</ele>
        <time>2012-05-19T06:07:16Z</time>
      </trkpt>
      <trkpt lat="45.56419" lon="4.77775">
        <ele>340</ele>
        <time>2012-05-19T06:07:23Z</time>
      </trkpt>
      <trkpt lat="45.56428" lon="4.77751">
        <ele>340</ele>
        <time>2012-05-19T06:07:34Z</time>
      </trkpt>
      <trkpt lat="45.56428" lon="4.77752">
        <ele>340</ele>
        <time>2012-05-19T06:07:43Z</time>
      </trkpt>
      <trkpt lat="45.56428" lon="4.77753">
        <ele>340</ele>
        <time>2012-05-19T06:08:06Z</time>
      </trkpt>
      <trkpt lat="45.56427" lon="4.77753">
        <ele>340</ele>
        <time>2012-05-19T06:08:30Z</time>
      </trkpt>
      <trkpt lat="45.56427" lon="4.77752">
        <ele>340</ele>
        <time>2012-05-19T06:08:57Z</time>
      </trkpt>
      <trkpt lat="45.56427" lon="4.77753">
        <ele>340</ele>
        <time>2012-05-19T06:09:24Z</time>
      </trkpt>
      <trkpt lat="45.56427" lon="4.77752">
        <ele>340</ele>
        <time>2012-05-19T06:09:48Z</time>
      </trkpt>
      <trkpt lat="45.56427" lon="4.77752">
        <ele>340</ele>
        <time>2012-05-19T06:10:11Z</time>
      </trkpt>
      <trkpt lat="45.56428" lon="4.77752">
        <ele>341</ele>
        <time>2012-05-19T06:10:29Z</time>
      </trkpt>
      <trkpt lat="45.56428" lon="4.77751">
        <ele>340</ele>
        <time>2012-05-19T06:10:44Z</time>
      </trkpt>
      <trkpt lat="45.56429" lon="4.77748">
        <ele>340</ele>
        <time>2012-05-19T06:10:53Z</time>
      </trkpt>
      <trkpt lat="45.56433" lon="4.77735">
        <ele>341</ele>
        <time>2012-05-19T06:11:00Z</time>
      </trkpt>
      <trkpt lat="45.56441" lon="4.77711">
        <ele>341</ele>
        <time>2012-05-19T06:11:08Z</time>
      </trkpt>
      <trkpt lat="45.56441" lon="4.77687">
        <ele>341</ele>
        <time>2012-05-19T06:11:15Z</time>
      </trkpt>
      <trkpt lat="45.56431" lon="4.77667">
        <ele>342</ele>
        <time>2012-05-19T06:11:22Z</time>
      </trkpt>
      <trkpt lat="45.5642" lon="4.77648">
        <ele>343</ele>
        <time>2012-05-19T06:11:29Z</time>
      </trkpt>
      <trkpt lat="45.5641" lon="4.77632">
        <ele>344</ele>
        <time>2012-05-19T06:11:35Z</time>
      </trkpt>
      <trkpt lat="45.56395" lon="4.77607">
        <ele>344</ele>
        <time>2012-05-19T06:11:44Z</time>
      </trkpt>
      <trkpt lat="45.56394" lon="4.77588">
        <ele>345</ele>
        <time>2012-05-19T06:11:50Z</time>
      </trkpt>
      <trkpt lat="45.56401" lon="4.77566">
        <ele>346</ele>
        <time>2012-05-19T06:11:57Z</time>
      </trkpt>
      <trkpt lat="45.56407" lon="4.77548">
        <ele>347</ele>
        <time>2012-05-19T06:12:03Z</time>
      </trkpt>
      <trkpt lat="45.56406" lon="4.77545">
        <ele>347</ele>
        <time>2012-05-19T06:12:04Z</time>
      </trkpt>
      <trkpt lat="45.56405" lon="4.77542">
        <ele>347</ele>
        <time>2012-05-19T06:12:05Z</time>
      </trkpt>
      <trkpt lat="45.56403" lon="4.7754">
        <ele>347</ele>
        <time>2012-05-19T06:12:06Z</time>
      </trkpt>
      <trkpt lat="45.56401" lon="4.77538">
        <ele>347</ele>
        <time>2012-05-19T06:12:07Z</time>
      </trkpt>
      <trkpt lat="45.56399" lon="4.77537">
        <ele>347</ele>
        <time>2012-05-19T06:12:08Z</time>
      </trkpt>
      <trkpt lat="45.56396" lon="4.77537">
        <ele>348</ele>
        <time>2012-05-19T06:12:09Z</time>
      </trkpt>
      <trkpt lat="45.56394" lon="4.77536">
        <ele>348</ele>
        <time>2012-05-19T06:12:10Z</time>
      </trkpt>
      <trkpt lat="45.56376" lon="4.77531">
        <ele>349</ele>
        <time>2012-05-19T06:12:17Z</time>
      </trkpt>
      <trkpt lat="45.56355" lon="4.77524">
        <ele>350</ele>
        <time>2012-05-19T06:12:25Z</time>
      </trkpt>
      <trkpt lat="45.56337" lon="4.77515">
        <ele>351</ele>
        <time>2012-05-19T06:12:32Z</time>
      </trkpt>
      <trkpt lat="45.56317" lon="4.77494">
        <ele>352</ele>
        <time>2012-05-19T06:12:41Z</time>
      </trkpt>
      <trkpt lat="45.56303" lon="4.77457">
        <ele>353</ele>
        <time>2012-05-19T06:12:51Z</time>
      </trkpt>
      <trkpt lat="45.56297" lon="4.77412">
        <ele>354</ele>
        <time>2012-05-19T06:13:01Z</time>
      </trkpt>
      <trkpt lat="45.56291" lon="4.77365">
        <ele>355</ele>
        <time>2012-05-19T06:13:11Z</time>
      </trkpt>
      <trkpt lat="45.56286" lon="4.77328">
        <ele>355</ele>
        <time>2012-05-19T06:13:19Z</time>
      </trkpt>
      <trkpt lat="45.56278" lon="4.77299">
        <ele>355</ele>
        <time>2012-05-19T06:13:26Z</time>
      </trkpt>
      <trkpt lat="45.56265" lon="4.77273">
        <ele>355</ele>
        <time>2012-05-19T06:13:33Z</time>
      </trkpt>
      <trkpt lat="45.56245" lon="4.77247">
        <ele>356</ele>
        <time>2012-05-19T06:13:41Z</time>
      </trkpt>
      <trkpt lat="45.56219" lon="4.77227">
        <ele>355</ele>
        <time>2012-05-19T06:13:49Z</time>
      </trkpt>
      <trkpt lat="45.56217" lon="4.77223">
        <ele>355</ele>
        <time>2012-05-19T06:13:50Z</time>
      </trkpt>
      <trkpt lat="45.56218" lon="4.77218">
        <ele>355</ele>
        <time>2012-05-19T06:13:51Z</time>
      </trkpt>
      <trkpt lat="45.5622" lon="4.77215">
        <ele>355</ele>
        <time>2012-05-19T06:13:52Z</time>
      </trkpt>
      <trkpt lat="45.56223" lon="4.77213">
        <ele>355</ele>
        <time>2012-05-19T06:13:53Z</time>
      </trkpt>
      <trkpt lat="45.56226" lon="4.77212">
        <ele>356</ele>
        <time>2012-05-19T06:13:54Z</time>
      </trkpt>
      <trkpt lat="45.5623" lon="4.77213">
        <ele>356</ele>
        <time>2012-05-19T06:13:55Z</time>
      </trkpt>
      <trkpt lat="45.56233" lon="4.77214">
        <ele>356</ele>
        <time>2012-05-19T06:13:56Z</time>
      </trkpt>
      <trkpt lat="45.56237" lon="4.77215">
        <ele>356</ele>
        <time>2012-05-19T06:13:57Z</time>
      </trkpt>
      <trkpt lat="45.56269" lon="4.7722">
        <ele>357</ele>
        <time>2012-05-19T06:14:06Z</time>
      </trkpt>
      <trkpt lat="45.56297" lon="4.77226">
        <ele>358</ele>
        <time>2012-05-19T06:14:15Z</time>
      </trkpt>
      <trkpt lat="45.56322" lon="4.77231">
        <ele>359</ele>
        <time>2012-05-19T06:14:23Z</time>
      </trkpt>
      <trkpt lat="45.56337" lon="4.77213">
        <ele>359</ele>
        <time>2012-05-19T06:14:29Z</time>
      </trkpt>
      <trkpt lat="45.56356" lon="4.77174">
        <ele>358</ele>
        <time>2012-05-19T06:14:38Z</time>
      </trkpt>
      <trkpt lat="45.56378" lon="4.77128">
        <ele>358</ele>
        <time>2012-05-19T06:14:47Z</time>
      </trkpt>
      <trkpt lat="45.56379" lon="4.77123">
        <ele>358</ele>
        <time>2012-05-19T06:14:48Z</time>
      </trkpt>
      <trkpt lat="45.56381" lon="4.77117">
        <ele>359</ele>
        <time>2012-05-19T06:14:49Z</time>
      </trkpt>
      <trkpt lat="45.56384" lon="4.77112">
        <ele>358</ele>
        <time>2012-05-19T06:14:50Z</time>
      </trkpt>
      <trkpt lat="45.56405" lon="4.77074">
        <ele>360</ele>
        <time>2012-05-19T06:14:59Z</time>
      </trkpt>
      <trkpt lat="45.56424" lon="4.77047">
        <ele>362</ele>
        <time>2012-05-19T06:15:07Z</time>
      </trkpt>
      <trkpt lat="45.56441" lon="4.77027">
        <ele>363</ele>
        <time>2012-05-19T06:15:14Z</time>
      </trkpt>
      <trkpt lat="45.56461" lon="4.77004">
        <ele>364</ele>
        <time>2012-05-19T06:15:22Z</time>
      </trkpt>
      <trkpt lat="45.56486" lon="4.76981">
        <ele>364</ele>
        <time>2012-05-19T06:15:31Z</time>
      </trkpt>
      <trkpt lat="45.56513" lon="4.76947">
        <ele>363</ele>
        <time>2012-05-19T06:15:41Z</time>
      </trkpt>
      <trkpt lat="45.56525" lon="4.76931">
        <ele>363</ele>
        <time>2012-05-19T06:15:45Z</time>
      </trkpt>
      <trkpt lat="45.56528" lon="4.76927">
        <ele>362</ele>
        <time>2012-05-19T06:15:46Z</time>
      </trkpt>
      <trkpt lat="45.56532" lon="4.76922">
        <ele>362</ele>
        <time>2012-05-19T06:15:47Z</time>
      </trkpt>
      <trkpt lat="45.56555" lon="4.76886">
        <ele>360</ele>
        <time>2012-05-19T06:15:54Z</time>
      </trkpt>
      <trkpt lat="45.56588" lon="4.76841">
        <ele>357</ele>
        <time>2012-05-19T06:16:03Z</time>
      </trkpt>
      <trkpt lat="45.56591" lon="4.76836">
        <ele>356</ele>
        <time>2012-05-19T06:16:04Z</time>
      </trkpt>
      <trkpt lat="45.56593" lon="4.7683">
        <ele>356</ele>
        <time>2012-05-19T06:16:05Z</time>
      </trkpt>
      <trkpt lat="45.56595" lon="4.76824">
        <ele>356</ele>
        <time>2012-05-19T06:16:06Z</time>
      </trkpt>
      <trkpt lat="45.56596" lon="4.76817">
        <ele>356</ele>
        <time>2012-05-19T06:16:07Z</time>
      </trkpt>
      <trkpt lat="45.56597" lon="4.7681">
        <ele>355</ele>
        <time>2012-05-19T06:16:08Z</time>
      </trkpt>
      <trkpt lat="45.56596" lon="4.76802">
        <ele>355</ele>
        <time>2012-05-19T06:16:09Z</time>
      </trkpt>
      <trkpt lat="45.56594" lon="4.76795">
        <ele>355</ele>
        <time>2012-05-19T06:16:10Z</time>
      </trkpt>
      <trkpt lat="45.56592" lon="4.76788">
        <ele>355</ele>
        <time>2012-05-19T06:16:11Z</time>
      </trkpt>
      <trkpt lat="45.56589" lon="4.76781">
        <ele>355</ele>
        <time>2012-05-19T06:16:12Z</time>
      </trkpt>
      <trkpt lat="45.56583" lon="4.76768">
        <ele>354</ele>
        <time>2012-05-19T06:16:14Z</time>
      </trkpt>
      <trkpt lat="45.56581" lon="4.7676">
        <ele>354</ele>
        <time>2012-05-19T06:16:15Z</time>
      </trkpt>
      <trkpt lat="45.56581" lon="4.76753">
        <ele>354</ele>
        <time>2012-05-19T06:16:16Z</time>
      </trkpt>
      <trkpt lat="45.56583" lon="4.76745">
        <ele>353</ele>
        <time>2012-05-19T06:16:17Z</time>
      </trkpt>
      <trkpt lat="45.56587" lon="4.76739">
        <ele>353</ele>
        <time>2012-05-19T06:16:18Z</time>
      </trkpt>
      <trkpt lat="45.56592" lon="4.76734">
        <ele>352</ele>
        <time>2012-05-19T06:16:19Z</time>
      </trkpt>
      <trkpt lat="45.56598" lon="4.7673">
        <ele>352</ele>
        <time>2012-05-19T06:16:20Z</time>
      </trkpt>
      <trkpt lat="45.56603" lon="4.76726">
        <ele>351</ele>
        <time>2012-05-19T06:16:21Z</time>
      </trkpt>
      <trkpt lat="45.56656" lon="4.76673">
        <ele>349</ele>
        <time>2012-05-19T06:16:31Z</time>
      </trkpt>
      <trkpt lat="45.56682" lon="4.76647">
        <ele>348</ele>
        <time>2012-05-19T06:16:36Z</time>
      </trkpt>
      <trkpt lat="45.56685" lon="4.7664">
        <ele>348</ele>
        <time>2012-05-19T06:16:37Z</time>
      </trkpt>
      <trkpt lat="45.56685" lon="4.76633">
        <ele>347</ele>
        <time>2012-05-19T06:16:38Z</time>
      </trkpt>
      <trkpt lat="45.56683" lon="4.76618">
        <ele>347</ele>
        <time>2012-05-19T06:16:40Z</time>
      </trkpt>
      <trkpt lat="45.56684" lon="4.76611">
        <ele>347</ele>
        <time>2012-05-19T06:16:41Z</time>
      </trkpt>
      <trkpt lat="45.56686" lon="4.76604">
        <ele>346</ele>
        <time>2012-05-19T06:16:42Z</time>
      </trkpt>
      <trkpt lat="45.56689" lon="4.766">
        <ele>347</ele>
        <time>2012-05-19T06:16:43Z</time>
      </trkpt>
      <trkpt lat="45.56694" lon="4.76599">
        <ele>346</ele>
        <time>2012-05-19T06:16:44Z</time>
      </trkpt>
      <trkpt lat="45.56699" lon="4.76598">
        <ele>346</ele>
        <time>2012-05-19T06:16:45Z</time>
      </trkpt>
      <trkpt lat="45.56704" lon="4.76597">
        <ele>347</ele>
        <time>2012-05-19T06:16:46Z</time>
      </trkpt>
      <trkpt lat="45.56709" lon="4.76595">
        <ele>347</ele>
        <time>2012-05-19T06:16:47Z</time>
      </trkpt>
      <trkpt lat="45.56724" lon="4.76593">
        <ele>348</ele>
        <time>2012-05-19T06:16:50Z</time>
      </trkpt>
      <trkpt lat="45.5675" lon="4.76594">
        <ele>348</ele>
        <time>2012-05-19T06:16:56Z</time>
      </trkpt>
      <trkpt lat="45.56754" lon="4.76595">
        <ele>348</ele>
        <time>2012-05-19T06:16:57Z</time>
      </trkpt>
      <trkpt lat="45.56763" lon="4.76597">
        <ele>348</ele>
        <time>2012-05-19T06:16:59Z</time>
      </trkpt>
      <trkpt lat="45.56767" lon="4.76597">
        <ele>348</ele>
        <time>2012-05-19T06:17:00Z</time>
      </trkpt>
      <trkpt lat="45.56776" lon="4.76597">
        <ele>348</ele>
        <time>2012-05-19T06:17:02Z</time>
      </trkpt>
      <trkpt lat="45.56785" lon="4.76597">
        <ele>348</ele>
        <time>2012-05-19T06:17:04Z</time>
      </trkpt>
      <trkpt lat="45.56789" lon="4.76597">
        <ele>348</ele>
        <time>2012-05-19T06:17:05Z</time>
      </trkpt>
      <trkpt lat="45.56793" lon="4.76597">
        <ele>348</ele>
        <time>2012-05-19T06:17:06Z</time>
      </trkpt>
      <trkpt lat="45.56796" lon="4.76595">
        <ele>348</ele>
        <time>2012-05-19T06:17:07Z</time>
      </trkpt>
      <trkpt lat="45.56799" lon="4.76592">
        <ele>348</ele>
        <time>2012-05-19T06:17:08Z</time>
      </trkpt>
      <trkpt lat="45.56803" lon="4.76588">
        <ele>347</ele>
        <time>2012-05-19T06:17:09Z</time>
      </trkpt>
      <trkpt lat="45.56805" lon="4.76582">
        <ele>347</ele>
        <time>2012-05-19T06:17:10Z</time>
      </trkpt>
      <trkpt lat="45.56814" lon="4.76561">
        <ele>347</ele>
        <time>2012-05-19T06:17:14Z</time>
      </trkpt>
      <trkpt lat="45.56819" lon="4.7655">
        <ele>347</ele>
        <time>2012-05-19T06:17:16Z</time>
      </trkpt>
      <trkpt lat="45.56831" lon="4.7652">
        <ele>346</ele>
        <time>2012-05-19T06:17:21Z</time>
      </trkpt>
      <trkpt lat="45.56835" lon="4.76515">
        <ele>345</ele>
        <time>2012-05-19T06:17:22Z</time>
      </trkpt>
      <trkpt lat="45.56839" lon="4.76509">
        <ele>345</ele>
        <time>2012-05-19T06:17:23Z</time>
      </trkpt>
      <trkpt lat="45.56863" lon="4.76487">
        <ele>344</ele>
        <time>2012-05-19T06:17:28Z</time>
      </trkpt>
      <trkpt lat="45.56895" lon="4.7646">
        <ele>342</ele>
        <time>2012-05-19T06:17:34Z</time>
      </trkpt>
      <trkpt lat="45.569" lon="4.76454">
        <ele>342</ele>
        <time>2012-05-19T06:17:35Z</time>
      </trkpt>
      <trkpt lat="45.56905" lon="4.76448">
        <ele>341</ele>
        <time>2012-05-19T06:17:36Z</time>
      </trkpt>
      <trkpt lat="45.5691" lon="4.7644">
        <ele>341</ele>
        <time>2012-05-19T06:17:37Z</time>
      </trkpt>
      <trkpt lat="45.56943" lon="4.76382">
        <ele>339</ele>
        <time>2012-05-19T06:17:44Z</time>
      </trkpt>
      <trkpt lat="45.56953" lon="4.76365">
        <ele>337</ele>
        <time>2012-05-19T06:17:46Z</time>
      </trkpt>
      <trkpt lat="45.56984" lon="4.76302">
        <ele>335</ele>
        <time>2012-05-19T06:17:53Z</time>
      </trkpt>
      <trkpt lat="45.56996" lon="4.76277">
        <ele>333</ele>
        <time>2012-05-19T06:17:56Z</time>
      </trkpt>
      <trkpt lat="45.57005" lon="4.76254">
        <ele>331</ele>
        <time>2012-05-19T06:17:59Z</time>
      </trkpt>
      <trkpt lat="45.57014" lon="4.76238">
        <ele>330</ele>
        <time>2012-05-19T06:18:02Z</time>
      </trkpt>
      <trkpt lat="45.57016" lon="4.76229">
        <ele>328</ele>
        <time>2012-05-19T06:18:04Z</time>
      </trkpt>
      <trkpt lat="45.57014" lon="4.76224">
        <ele>328</ele>
        <time>2012-05-19T06:18:05Z</time>
      </trkpt>
      <trkpt lat="45.57012" lon="4.7622">
        <ele>328</ele>
        <time>2012-05-19T06:18:06Z</time>
      </trkpt>
      <trkpt lat="45.57008" lon="4.76218">
        <ele>327</ele>
        <time>2012-05-19T06:18:07Z</time>
      </trkpt>
      <trkpt lat="45.57005" lon="4.76216">
        <ele>328</ele>
        <time>2012-05-19T06:18:08Z</time>
      </trkpt>
      <trkpt lat="45.5699" lon="4.76209">
        <ele>328</ele>
        <time>2012-05-19T06:18:14Z</time>
      </trkpt>
      <trkpt lat="45.56988" lon="4.76209">
        <ele>329</ele>
        <time>2012-05-19T06:18:20Z</time>
      </trkpt>
      <trkpt lat="45.5697" lon="4.76202">
        <ele>329</ele>
        <time>2012-05-19T06:18:26Z</time>
      </trkpt>
      <trkpt lat="45.56938" lon="4.76195">
        <ele>330</ele>
        <time>2012-05-19T06:18:33Z</time>
      </trkpt>
      <trkpt lat="45.56904" lon="4.76188">
        <ele>332</ele>
        <time>2012-05-19T06:18:41Z</time>
      </trkpt>
      <trkpt lat="45.56872" lon="4.76177">
        <ele>332</ele>
        <time>2012-05-19T06:18:50Z</time>
      </trkpt>
      <trkpt lat="45.5686" lon="4.76164">
        <ele>331</ele>
        <time>2012-05-19T06:18:55Z</time>
      </trkpt>
      <trkpt lat="45.56857" lon="4.76161">
        <ele>330</ele>
        <time>2012-05-19T06:18:56Z</time>
      </trkpt>
      <trkpt lat="45.56853" lon="4.76159">
        <ele>330</ele>
        <time>2012-05-19T06:18:57Z</time>
      </trkpt>
      <trkpt lat="45.5685" lon="4.76157">
        <ele>330</ele>
        <time>2012-05-19T06:18:58Z</time>
      </trkpt>
      <trkpt lat="45.56847" lon="4.76157">
        <ele>330</ele>
        <time>2012-05-19T06:18:59Z</time>
      </trkpt>
      <trkpt lat="45.56845" lon="4.76156">
        <ele>329</ele>
        <time>2012-05-19T06:19:00Z</time>
      </trkpt>
      <trkpt lat="45.56843" lon="4.76155">
        <ele>329</ele>
        <time>2012-05-19T06:19:01Z</time>
      </trkpt>
      <trkpt lat="45.56842" lon="4.76154">
        <ele>329</ele>
        <time>2012-05-19T06:19:02Z</time>
      </trkpt>
      <trkpt lat="45.56826" lon="4.76148">
        <ele>328</ele>
        <time>2012-05-19T06:19:08Z</time>
      </trkpt>
      <trkpt lat="45.56811" lon="4.76145">
        <ele>326</ele>
        <time>2012-05-19T06:19:11Z</time>
      </trkpt>
      <trkpt lat="45.56805" lon="4.76145">
        <ele>326</ele>
        <time>2012-05-19T06:19:12Z</time>
      </trkpt>
      <trkpt lat="45.56796" lon="4.76142">
        <ele>324</ele>
        <time>2012-05-19T06:19:14Z</time>
      </trkpt>
      <trkpt lat="45.56792" lon="4.76139">
        <ele>323</ele>
        <time>2012-05-19T06:19:15Z</time>
      </trkpt>
      <trkpt lat="45.56788" lon="4.76137">
        <ele>323</ele>
        <time>2012-05-19T06:19:16Z</time>
      </trkpt>
      <trkpt lat="45.56769" lon="4.7612">
        <ele>319</ele>
        <time>2012-05-19T06:19:22Z</time>
      </trkpt>
      <trkpt lat="45.56757" lon="4.76111">
        <ele>315</ele>
        <time>2012-05-19T06:19:26Z</time>
      </trkpt>
      <trkpt lat="45.56752" lon="4.76109">
        <ele>314</ele>
        <time>2012-05-19T06:19:28Z</time>
      </trkpt>
      <trkpt lat="45.5675" lon="4.7611">
        <ele>314</ele>
        <time>2012-05-19T06:19:29Z</time>
      </trkpt>
      <trkpt lat="45.56748" lon="4.76113">
        <ele>313</ele>
        <time>2012-05-19T06:19:30Z</time>
      </trkpt>
      <trkpt lat="45.56746" lon="4.76117">
        <ele>312</ele>
        <time>2012-05-19T06:19:31Z</time>
      </trkpt>
      <trkpt lat="45.56745" lon="4.7612">
        <ele>311</ele>
        <time>2012-05-19T06:19:32Z</time>
      </trkpt>
      <trkpt lat="45.56742" lon="4.76124">
        <ele>310</ele>
        <time>2012-05-19T06:19:34Z</time>
      </trkpt>
      <trkpt lat="45.5674" lon="4.76124">
        <ele>309</ele>
        <time>2012-05-19T06:19:35Z</time>
      </trkpt>
      <trkpt lat="45.56738" lon="4.76124">
        <ele>309</ele>
        <time>2012-05-19T06:19:36Z</time>
      </trkpt>
      <trkpt lat="45.56736" lon="4.76123">
        <ele>308</ele>
        <time>2012-05-19T06:19:37Z</time>
      </trkpt>
      <trkpt lat="45.56735" lon="4.76123">
        <ele>308</ele>
        <time>2012-05-19T06:19:38Z</time>
      </trkpt>
      <trkpt lat="45.56733" lon="4.76122">
        <ele>308</ele>
        <time>2012-05-19T06:19:39Z</time>
      </trkpt>
      <trkpt lat="45.56731" lon="4.76121">
        <ele>307</ele>
        <time>2012-05-19T06:19:40Z</time>
      </trkpt>
      <trkpt lat="45.56722" lon="4.76118">
        <ele>305</ele>
        <time>2012-05-19T06:19:44Z</time>
      </trkpt>
      <trkpt lat="45.56718" lon="4.76116">
        <ele>304</ele>
        <time>2012-05-19T06:19:47Z</time>
      </trkpt>
      <trkpt lat="45.56716" lon="4.76116">
        <ele>304</ele>
        <time>2012-05-19T06:19:48Z</time>
      </trkpt>
      <trkpt lat="45.56713" lon="4.76115">
        <ele>303</ele>
        <time>2012-05-19T06:19:49Z</time>
      </trkpt>
      <trkpt lat="45.56711" lon="4.76113">
        <ele>302</ele>
        <time>2012-05-19T06:19:50Z</time>
      </trkpt>
      <trkpt lat="45.5671" lon="4.76113">
        <ele>302</ele>
        <time>2012-05-19T06:19:51Z</time>
      </trkpt>
      <trkpt lat="45.56708" lon="4.76113">
        <ele>302</ele>
        <time>2012-05-19T06:19:52Z</time>
      </trkpt>
      <trkpt lat="45.56706" lon="4.76112">
        <ele>302</ele>
        <time>2012-05-19T06:19:53Z</time>
      </trkpt>
      <trkpt lat="45.56704" lon="4.76112">
        <ele>301</ele>
        <time>2012-05-19T06:19:54Z</time>
      </trkpt>
      <trkpt lat="45.56699" lon="4.76109">
        <ele>301</ele>
        <time>2012-05-19T06:19:57Z</time>
      </trkpt>
      <trkpt lat="45.56696" lon="4.76108">
        <ele>300</ele>
        <time>2012-05-19T06:19:58Z</time>
      </trkpt>
      <trkpt lat="45.56691" lon="4.76106">
        <ele>299</ele>
        <time>2012-05-19T06:20:00Z</time>
      </trkpt>
      <trkpt lat="45.56689" lon="4.76104">
        <ele>298</ele>
        <time>2012-05-19T06:20:01Z</time>
      </trkpt>
      <trkpt lat="45.56687" lon="4.76104">
        <ele>298</ele>
        <time>2012-05-19T06:20:02Z</time>
      </trkpt>
      <trkpt lat="45.56686" lon="4.76104">
        <ele>297</ele>
        <time>2012-05-19T06:20:03Z</time>
      </trkpt>
      <trkpt lat="45.56684" lon="4.76103">
        <ele>297</ele>
        <time>2012-05-19T06:20:04Z</time>
      </trkpt>
      <trkpt lat="45.56681" lon="4.76102">
        <ele>297</ele>
        <time>2012-05-19T06:20:05Z</time>
      </trkpt>
      <trkpt lat="45.56672" lon="4.76099">
        <ele>294</ele>
        <time>2012-05-19T06:20:09Z</time>
      </trkpt>
      <trkpt lat="45.5667" lon="4.76099">
        <ele>293</ele>
        <time>2012-05-19T06:20:10Z</time>
      </trkpt>
      <trkpt lat="45.56668" lon="4.76098">
        <ele>292</ele>
        <time>2012-05-19T06:20:11Z</time>
      </trkpt>
      <trkpt lat="45.56666" lon="4.76097">
        <ele>292</ele>
        <time>2012-05-19T06:20:12Z</time>
      </trkpt>
      <trkpt lat="45.5665" lon="4.76094">
        <ele>290</ele>
        <time>2012-05-19T06:20:18Z</time>
      </trkpt>
      <trkpt lat="45.56634" lon="4.76093">
        <ele>288</ele>
        <time>2012-05-19T06:20:24Z</time>
      </trkpt>
      <trkpt lat="45.56619" lon="4.76089">
        <ele>288</ele>
        <time>2012-05-19T06:20:30Z</time>
      </trkpt>
      <trkpt lat="45.56611" lon="4.76088">
        <ele>289</ele>
        <time>2012-05-19T06:20:34Z</time>
      </trkpt>
      <trkpt lat="45.56609" lon="4.76087">
        <ele>290</ele>
        <time>2012-05-19T06:20:35Z</time>
      </trkpt>
      <trkpt lat="45.56607" lon="4.76087">
        <ele>290</ele>
        <time>2012-05-19T06:20:36Z</time>
      </trkpt>
      <trkpt lat="45.56596" lon="4.76084">
        <ele>292</ele>
        <time>2012-05-19T06:20:42Z</time>
      </trkpt>
      <trkpt lat="45.56595" lon="4.76086">
        <ele>293</ele>
        <time>2012-05-19T06:20:51Z</time>
      </trkpt>
      <trkpt lat="45.56595" lon="4.76086">
        <ele>293</ele>
        <time>2012-05-19T06:21:00Z</time>
      </trkpt>
      <trkpt lat="45.56594" lon="4.76085">
        <ele>293</ele>
        <time>2012-05-19T06:21:11Z</time>
      </trkpt>
      <trkpt lat="45.56594" lon="4.76085">
        <ele>292</ele>
        <time>2012-05-19T06:21:17Z</time>
      </trkpt>
      <trkpt lat="45.56594" lon="4.76084">
        <ele>292</ele>
        <time>2012-05-19T06:21:31Z</time>
      </trkpt>
      <trkpt lat="45.56594" lon="4.76083">
        <ele>293</ele>
        <time>2012-05-19T06:21:41Z</time>
      </trkpt>
      <trkpt lat="45.56595" lon="4.76083">
        <ele>292</ele>
        <time>2012-05-19T06:21:42Z</time>
      </trkpt>
      <trkpt lat="45.56599" lon="4.76082">
        <ele>293</ele>
        <time>2012-05-19T06:21:48Z</time>
      </trkpt>
      <trkpt lat="45.56599" lon="4.7608">
        <ele>294</ele>
        <time>2012-05-19T06:21:54Z</time>
      </trkpt>
      <trkpt lat="45.566" lon="4.76078">
        <ele>295</ele>
        <time>2012-05-19T06:21:58Z</time>
      </trkpt>
      <trkpt lat="45.566" lon="4.76076">
        <ele>296</ele>
        <time>2012-05-19T06:22:03Z</time>
      </trkpt>
      <trkpt lat="45.56601" lon="4.76073">
        <ele>298</ele>
        <time>2012-05-19T06:22:11Z</time>
      </trkpt>
      <trkpt lat="45.566" lon="4.76073">
        <ele>299</ele>
        <time>2012-05-19T06:22:20Z</time>
      </trkpt>
      <trkpt lat="45.566" lon="4.76072">
        <ele>298</ele>
        <time>2012-05-19T06:22:27Z</time>
      </trkpt>
      <trkpt lat="45.56599" lon="4.76072">
        <ele>298</ele>
        <time>2012-05-19T06:22:34Z</time>
      </trkpt>
      <trkpt lat="45.56598" lon="4.76073">
        <ele>298</ele>
        <time>2012-05-19T06:22:41Z</time>
      </trkpt>
      <trkpt lat="45.56596" lon="4.76073">
        <ele>296</ele>
        <time>2012-05-19T06:22:47Z</time>
      </trkpt>
      <trkpt lat="45.56595" lon="4.76072">
        <ele>295</ele>
        <time>2012-05-19T06:22:53Z</time>
      </trkpt>
      <trkpt lat="45.56593" lon="4.76074">
        <ele>295</ele>
        <time>2012-05-19T06:23:08Z</time>
      </trkpt>
      <trkpt lat="45.56591" lon="4.76072">
        <ele>295</ele>
        <time>2012-05-19T06:23:24Z</time>
      </trkpt>
      <trkpt lat="45.5659" lon="4.76072">
        <ele>295</ele>
        <time>2012-05-19T06:23:44Z</time>
      </trkpt>
      <trkpt lat="45.56589" lon="4.76072">
        <ele>295</ele>
        <time>2012-05-19T06:24:01Z</time>
      </trkpt>
      <trkpt lat="45.56587" lon="4.76072">
        <ele>296</ele>
        <time>2012-05-19T06:24:08Z</time>
      </trkpt>
      <trkpt lat="45.56586" lon="4.76071">
        <ele>296</ele>
        <time>2012-05-19T06:24:17Z</time>
      </trkpt>
      <trkpt lat="45.56585" lon="4.76071">
        <ele>296</ele>
        <time>2012-05-19T06:24:22Z</time>
      </trkpt>
      <trkpt lat="45.56584" lon="4.7607">
        <ele>296</ele>
        <time>2012-05-19T06:24:23Z</time>
      </trkpt>
      <trkpt lat="45.5658" lon="4.76068">
        <ele>296</ele>
        <time>2012-05-19T06:24:27Z</time>
      </trkpt>
      <trkpt lat="45.56572" lon="4.76065">
        <ele>297</ele>
        <time>2012-05-19T06:24:33Z</time>
      </trkpt>
      <trkpt lat="45.56562" lon="4.76062">
        <ele>299</ele>
        <time>2012-05-19T06:24:40Z</time>
      </trkpt>
      <trkpt lat="45.56551" lon="4.76057">
        <ele>301</ele>
        <time>2012-05-19T06:24:47Z</time>
      </trkpt>
      <trkpt lat="45.56549" lon="4.76056">
        <ele>301</ele>
        <time>2012-05-19T06:24:49Z</time>
      </trkpt>
      <trkpt lat="45.56547" lon="4.76056">
        <ele>301</ele>
        <time>2012-05-19T06:24:50Z</time>
      </trkpt>
      <trkpt lat="45.56535" lon="4.76051">
        <ele>303</ele>
        <time>2012-05-19T06:24:58Z</time>
      </trkpt>
      <trkpt lat="45.56524" lon="4.76048">
        <ele>305</ele>
        <time>2012-05-19T06:25:04Z</time>
      </trkpt>
      <trkpt lat="45.56515" lon="4.76046">
        <ele>307</ele>
        <time>2012-05-19T06:25:10Z</time>
      </trkpt>
      <trkpt lat="45.56507" lon="4.76044">
        <ele>308</ele>
        <time>2012-05-19T06:25:17Z</time>
      </trkpt>
      <trkpt lat="45.56498" lon="4.76042">
        <ele>310</ele>
        <time>2012-05-19T06:25:25Z</time>
      </trkpt>
      <trkpt lat="45.56496" lon="4.76042">
        <ele>309</ele>
        <time>2012-05-19T06:25:26Z</time>
      </trkpt>
      <trkpt lat="45.56495" lon="4.76041">
        <ele>309</ele>
        <time>2012-05-19T06:25:27Z</time>
      </trkpt>
      <trkpt lat="45.56492" lon="4.76041">
        <ele>310</ele>
        <time>2012-05-19T06:25:29Z</time>
      </trkpt>
      <trkpt lat="45.56487" lon="4.7604">
        <ele>311</ele>
        <time>2012-05-19T06:25:34Z</time>
      </trkpt>
      <trkpt lat="45.56485" lon="4.7604">
        <ele>312</ele>
        <time>2012-05-19T06:25:36Z</time>
      </trkpt>
      <trkpt lat="45.56478" lon="4.76037">
        <ele>313</ele>
        <time>2012-05-19T06:25:42Z</time>
      </trkpt>
      <trkpt lat="45.56472" lon="4.76034">
        <ele>314</ele>
        <time>2012-05-19T06:25:48Z</time>
      </trkpt>
      <trkpt lat="45.56466" lon="4.76031">
        <ele>315</ele>
        <time>2012-05-19T06:25:55Z</time>
      </trkpt>
      <trkpt lat="45.56465" lon="4.7603">
        <ele>315</ele>
        <time>2012-05-19T06:25:56Z</time>
      </trkpt>
      <trkpt lat="45.56456" lon="4.76026">
        <ele>317</ele>
        <time>2012-05-19T06:26:03Z</time>
      </trkpt>
      <trkpt lat="45.56449" lon="4.76021">
        <ele>317</ele>
        <time>2012-05-19T06:26:09Z</time>
      </trkpt>
      <trkpt lat="45.56439" lon="4.76016">
        <ele>319</ele>
        <time>2012-05-19T06:26:17Z</time>
      </trkpt>
      <trkpt lat="45.56432" lon="4.76011">
        <ele>320</ele>
        <time>2012-05-19T06:26:23Z</time>
      </trkpt>
      <trkpt lat="45.56424" lon="4.76004">
        <ele>321</ele>
        <time>2012-05-19T06:26:31Z</time>
      </trkpt>
      <trkpt lat="45.56418" lon="4.75998">
        <ele>321</ele>
        <time>2012-05-19T06:26:35Z</time>
      </trkpt>
      <trkpt lat="45.56417" lon="4.75997">
        <ele>322</ele>
        <time>2012-05-19T06:26:36Z</time>
      </trkpt>
      <trkpt lat="45.56415" lon="4.75995">
        <ele>321</ele>
        <time>2012-05-19T06:26:37Z</time>
      </trkpt>
      <trkpt lat="45.56414" lon="4.75994">
        <ele>322</ele>
        <time>2012-05-19T06:26:38Z</time>
      </trkpt>
      <trkpt lat="45.56413" lon="4.75993">
        <ele>322</ele>
        <time>2012-05-19T06:26:39Z</time>
      </trkpt>
      <trkpt lat="45.56412" lon="4.75991">
        <ele>322</ele>
        <time>2012-05-19T06:26:40Z</time>
      </trkpt>
      <trkpt lat="45.56411" lon="4.7599">
        <ele>322</ele>
        <time>2012-05-19T06:26:41Z</time>
      </trkpt>
      <trkpt lat="45.5641" lon="4.75988">
        <ele>322</ele>
        <time>2012-05-19T06:26:42Z</time>
      </trkpt>
      <trkpt lat="45.56409" lon="4.75987">
        <ele>323</ele>
        <time>2012-05-19T06:26:43Z</time>
      </trkpt>
      <trkpt lat="45.56401" lon="4.75974">
        <ele>324</ele>
        <time>2012-05-19T06:26:51Z</time>
      </trkpt>
      <trkpt lat="45.56393" lon="4.75965">
        <ele>326</ele>
        <time>2012-05-19T06:26:58Z</time>
      </trkpt>
      <trkpt lat="45.56387" lon="4.7596">
        <ele>326</ele>
        <time>2012-05-19T06:27:02Z</time>
      </trkpt>
      <trkpt lat="45.56373" lon="4.75947">
        <ele>328</ele>
        <time>2012-05-19T06:27:11Z</time>
      </trkpt>
      <trkpt lat="45.56366" lon="4.75939">
        <ele>329</ele>
        <time>2012-05-19T06:27:16Z</time>
      </trkpt>
      <trkpt lat="45.56365" lon="4.75938">
        <ele>329</ele>
        <time>2012-05-19T06:27:17Z</time>
      </trkpt>
      <trkpt lat="45.56364" lon="4.75937">
        <ele>329</ele>
        <time>2012-05-19T06:27:18Z</time>
      </trkpt>
      <trkpt lat="45.56363" lon="4.75936">
        <ele>329</ele>
        <time>2012-05-19T06:27:19Z</time>
      </trkpt>
      <trkpt lat="45.56361" lon="4.75935">
        <ele>330</ele>
        <time>2012-05-19T06:27:20Z</time>
      </trkpt>
      <trkpt lat="45.5636" lon="4.75934">
        <ele>330</ele>
        <time>2012-05-19T06:27:21Z</time>
      </trkpt>
      <trkpt lat="45.56358" lon="4.75933">
        <ele>329</ele>
        <time>2012-05-19T06:27:22Z</time>
      </trkpt>
      <trkpt lat="45.56357" lon="4.75932">
        <ele>330</ele>
        <time>2012-05-19T06:27:23Z</time>
      </trkpt>
      <trkpt lat="45.56355" lon="4.75931">
        <ele>330</ele>
        <time>2012-05-19T06:27:24Z</time>
      </trkpt>
      <trkpt lat="45.56353" lon="4.75929">
        <ele>329</ele>
        <time>2012-05-19T06:27:25Z</time>
      </trkpt>
      <trkpt lat="45.56351" lon="4.75927">
        <ele>329</ele>
        <time>2012-05-19T06:27:26Z</time>
      </trkpt>
      <trkpt lat="45.56337" lon="4.75912">
        <ele>330</ele>
        <time>2012-05-19T06:27:34Z</time>
      </trkpt>
      <trkpt lat="45.56323" lon="4.75899">
        <ele>331</ele>
        <time>2012-05-19T06:27:42Z</time>
      </trkpt>
      <trkpt lat="45.56304" lon="4.75883">
        <ele>332</ele>
        <time>2012-05-19T06:27:52Z</time>
      </trkpt>
      <trkpt lat="45.56288" lon="4.75869">
        <ele>333</ele>
        <time>2012-05-19T06:28:00Z</time>
      </trkpt>
      <trkpt lat="45.56271" lon="4.75855">
        <ele>333</ele>
        <time>2012-05-19T06:28:08Z</time>
      </trkpt>
      <trkpt lat="45.56255" lon="4.7584">
        <ele>334</ele>
        <time>2012-05-19T06:28:16Z</time>
      </trkpt>
      <trkpt lat="45.56237" lon="4.75823">
        <ele>335</ele>
        <time>2012-05-19T06:28:25Z</time>
      </trkpt>
      <trkpt lat="45.56222" lon="4.75813">
        <ele>336</ele>
        <time>2012-05-19T06:28:32Z</time>
      </trkpt>
      <trkpt lat="45.56202" lon="4.75801">
        <ele>336</ele>
        <time>2012-05-19T06:28:40Z</time>
      </trkpt>
      <trkpt lat="45.5618" lon="4.75788">
        <ele>337</ele>
        <time>2012-05-19T06:28:49Z</time>
      </trkpt>
      <trkpt lat="45.56158" lon="4.75774">
        <ele>338</ele>
        <time>2012-05-19T06:28:58Z</time>
      </trkpt>
      <trkpt lat="45.56139" lon="4.75763">
        <ele>340</ele>
        <time>2012-05-19T06:29:06Z</time>
      </trkpt>
      <trkpt lat="45.56116" lon="4.7576">
        <ele>341</ele>
        <time>2012-05-19T06:29:15Z</time>
      </trkpt>
      <trkpt lat="45.56094" lon="4.75753">
        <ele>341</ele>
        <time>2012-05-19T06:29:23Z</time>
      </trkpt>
      <trkpt lat="45.56063" lon="4.75736">
        <ele>342</ele>
        <time>2012-05-19T06:29:34Z</time>
      </trkpt>
      <trkpt lat="45.56037" lon="4.75721">
        <ele>343</ele>
        <time>2012-05-19T06:29:43Z</time>
      </trkpt>
      <trkpt lat="45.56017" lon="4.75711">
        <ele>343</ele>
        <time>2012-05-19T06:29:50Z</time>
      </trkpt>
      <trkpt lat="45.55987" lon="4.75695">
        <ele>344</ele>
        <time>2012-05-19T06:30:00Z</time>
      </trkpt>
      <trkpt lat="45.55979" lon="4.75678">
        <ele>345</ele>
        <time>2012-05-19T06:30:05Z</time>
      </trkpt>
      <trkpt lat="45.55978" lon="4.75637">
        <ele>346</ele>
        <time>2012-05-19T06:30:14Z</time>
      </trkpt>
      <trkpt lat="45.55978" lon="4.75607">
        <ele>347</ele>
        <time>2012-05-19T06:30:21Z</time>
      </trkpt>
      <trkpt lat="45.55975" lon="4.75574">
        <ele>347</ele>
        <time>2012-05-19T06:30:28Z</time>
      </trkpt>
      <trkpt lat="45.5596" lon="4.75525">
        <ele>345</ele>
        <time>2012-05-19T06:30:36Z</time>
      </trkpt>
      <trkpt lat="45.55956" lon="4.75511">
        <ele>345</ele>
        <time>2012-05-19T06:30:38Z</time>
      </trkpt>
      <trkpt lat="45.55953" lon="4.75503">
        <ele>345</ele>
        <time>2012-05-19T06:30:39Z</time>
      </trkpt>
      <trkpt lat="45.55928" lon="4.75426">
        <ele>342</ele>
        <time>2012-05-19T06:30:48Z</time>
      </trkpt>
      <trkpt lat="45.55914" lon="4.75381">
        <ele>340</ele>
        <time>2012-05-19T06:30:53Z</time>
      </trkpt>
      <trkpt lat="45.55913" lon="4.75371">
        <ele>340</ele>
        <time>2012-05-19T06:30:54Z</time>
      </trkpt>
      <trkpt lat="45.55912" lon="4.75362">
        <ele>340</ele>
        <time>2012-05-19T06:30:55Z</time>
      </trkpt>
      <trkpt lat="45.55912" lon="4.75354">
        <ele>340</ele>
        <time>2012-05-19T06:30:56Z</time>
      </trkpt>
      <trkpt lat="45.55912" lon="4.75346">
        <ele>341</ele>
        <time>2012-05-19T06:30:57Z</time>
      </trkpt>
      <trkpt lat="45.55913" lon="4.75338">
        <ele>340</ele>
        <time>2012-05-19T06:30:58Z</time>
      </trkpt>
      <trkpt lat="45.55913" lon="4.75306">
        <ele>341</ele>
        <time>2012-05-19T06:31:04Z</time>
      </trkpt>
      <trkpt lat="45.55908" lon="4.7527">
        <ele>340</ele>
        <time>2012-05-19T06:31:11Z</time>
      </trkpt>
      <trkpt lat="45.55904" lon="4.75258">
        <ele>340</ele>
        <time>2012-05-19T06:31:13Z</time>
      </trkpt>
      <trkpt lat="45.55899" lon="4.75244">
        <ele>339</ele>
        <time>2012-05-19T06:31:15Z</time>
      </trkpt>
      <trkpt lat="45.55881" lon="4.75191">
        <ele>338</ele>
        <time>2012-05-19T06:31:22Z</time>
      </trkpt>
      <trkpt lat="45.55861" lon="4.75142">
        <ele>337</ele>
        <time>2012-05-19T06:31:29Z</time>
      </trkpt>
      <trkpt lat="45.5585" lon="4.75109">
        <ele>339</ele>
        <time>2012-05-19T06:31:36Z</time>
      </trkpt>
      <trkpt lat="45.5585" lon="4.75083">
        <ele>340</ele>
        <time>2012-05-19T06:31:43Z</time>
      </trkpt>
      <trkpt lat="45.55858" lon="4.75046">
        <ele>342</ele>
        <time>2012-05-19T06:31:53Z</time>
      </trkpt>
      <trkpt lat="45.55873" lon="4.75018">
        <ele>344</ele>
        <time>2012-05-19T06:32:02Z</time>
      </trkpt>
      <trkpt lat="45.55888" lon="4.74992">
        <ele>346</ele>
        <time>2012-05-19T06:32:11Z</time>
      </trkpt>
      <trkpt lat="45.55906" lon="4.74962">
        <ele>347</ele>
        <time>2012-05-19T06:32:21Z</time>
      </trkpt>
      <trkpt lat="45.55918" lon="4.74941">
        <ele>349</ele>
        <time>2012-05-19T06:32:28Z</time>
      </trkpt>
      <trkpt lat="45.55936" lon="4.74912">
        <ele>350</ele>
        <time>2012-05-19T06:32:37Z</time>
      </trkpt>
      <trkpt lat="45.55954" lon="4.74885">
        <ele>350</ele>
        <time>2012-05-19T06:32:45Z</time>
      </trkpt>
      <trkpt lat="45.55972" lon="4.74856">
        <ele>351</ele>
        <time>2012-05-19T06:32:53Z</time>
      </trkpt>
      <trkpt lat="45.55983" lon="4.74824">
        <ele>351</ele>
        <time>2012-05-19T06:33:00Z</time>
      </trkpt>
      <trkpt lat="45.55992" lon="4.74781">
        <ele>351</ele>
        <time>2012-05-19T06:33:08Z</time>
      </trkpt>
      <trkpt lat="45.55997" lon="4.74751">
        <ele>351</ele>
        <time>2012-05-19T06:33:14Z</time>
      </trkpt>
      <trkpt lat="45.55994" lon="4.74718">
        <ele>352</ele>
        <time>2012-05-19T06:33:20Z</time>
      </trkpt>
      <trkpt lat="45.55979" lon="4.74696">
        <ele>354</ele>
        <time>2012-05-19T06:33:27Z</time>
      </trkpt>
      <trkpt lat="45.55971" lon="4.74672">
        <ele>355</ele>
        <time>2012-05-19T06:33:34Z</time>
      </trkpt>
      <trkpt lat="45.55967" lon="4.7465">
        <ele>356</ele>
        <time>2012-05-19T06:33:40Z</time>
      </trkpt>
      <trkpt lat="45.55962" lon="4.74621">
        <ele>359</ele>
        <time>2012-05-19T06:33:48Z</time>
      </trkpt>
      <trkpt lat="45.55957" lon="4.74597">
        <ele>359</ele>
        <time>2012-05-19T06:33:55Z</time>
      </trkpt>
      <trkpt lat="45.55953" lon="4.7457">
        <ele>361</ele>
        <time>2012-05-19T06:34:03Z</time>
      </trkpt>
      <trkpt lat="45.55949" lon="4.74545">
        <ele>362</ele>
        <time>2012-05-19T06:34:11Z</time>
      </trkpt>
      <trkpt lat="45.55944" lon="4.74519">
        <ele>364</ele>
        <time>2012-05-19T06:34:19Z</time>
      </trkpt>
      <trkpt lat="45.5594" lon="4.74496">
        <ele>364</ele>
        <time>2012-05-19T06:34:26Z</time>
      </trkpt>
      <trkpt lat="45.55934" lon="4.74469">
        <ele>365</ele>
        <time>2012-05-19T06:34:34Z</time>
      </trkpt>
      <trkpt lat="45.55925" lon="4.74437">
        <ele>367</ele>
        <time>2012-05-19T06:34:44Z</time>
      </trkpt>
      <trkpt lat="45.55919" lon="4.74412">
        <ele>368</ele>
        <time>2012-05-19T06:34:52Z</time>
      </trkpt>
      <trkpt lat="45.55913" lon="4.74389">
        <ele>370</ele>
        <time>2012-05-19T06:34:59Z</time>
      </trkpt>
      <trkpt lat="45.55909" lon="4.74364">
        <ele>370</ele>
        <time>2012-05-19T06:35:06Z</time>
      </trkpt>
      <trkpt lat="45.55904" lon="4.74326">
        <ele>372</ele>
        <time>2012-05-19T06:35:16Z</time>
      </trkpt>
      <trkpt lat="45.55897" lon="4.74288">
        <ele>373</ele>
        <time>2012-05-19T06:35:26Z</time>
      </trkpt>
      <trkpt lat="45.55888" lon="4.74259">
        <ele>374</ele>
        <time>2012-05-19T06:35:34Z</time>
      </trkpt>
      <trkpt lat="45.55877" lon="4.7423">
        <ele>375</ele>
        <time>2012-05-19T06:35:42Z</time>
      </trkpt>
      <trkpt lat="45.55865" lon="4.74194">
        <ele>376</ele>
        <time>2012-05-19T06:35:52Z</time>
      </trkpt>
      <trkpt lat="45.55854" lon="4.74162">
        <ele>376</ele>
        <time>2012-05-19T06:36:01Z</time>
      </trkpt>
      <trkpt lat="45.55845" lon="4.74138">
        <ele>376</ele>
        <time>2012-05-19T06:36:08Z</time>
      </trkpt>
      <trkpt lat="45.55834" lon="4.7411">
        <ele>376</ele>
        <time>2012-05-19T06:36:16Z</time>
      </trkpt>
      <trkpt lat="45.55827" lon="4.74098">
        <ele>376</ele>
        <time>2012-05-19T06:36:20Z</time>
      </trkpt>
      <trkpt lat="45.55825" lon="4.74096">
        <ele>376</ele>
        <time>2012-05-19T06:36:21Z</time>
      </trkpt>
      <trkpt lat="45.55822" lon="4.74096">
        <ele>376</ele>
        <time>2012-05-19T06:36:22Z</time>
      </trkpt>
      <trkpt lat="45.55819" lon="4.74098">
        <ele>376</ele>
        <time>2012-05-19T06:36:23Z</time>
      </trkpt>
      <trkpt lat="45.55817" lon="4.741">
        <ele>376</ele>
        <time>2012-05-19T06:36:24Z</time>
      </trkpt>
      <trkpt lat="45.55815" lon="4.74103">
        <ele>376</ele>
        <time>2012-05-19T06:36:25Z</time>
      </trkpt>
      <trkpt lat="45.55813" lon="4.74106">
        <ele>376</ele>
        <time>2012-05-19T06:36:26Z</time>
      </trkpt>
      <trkpt lat="45.5579" lon="4.74139">
        <ele>377</ele>
        <time>2012-05-19T06:36:38Z</time>
      </trkpt>
      <trkpt lat="45.55775" lon="4.74156">
        <ele>379</ele>
        <time>2012-05-19T06:36:46Z</time>
      </trkpt>
      <trkpt lat="45.55757" lon="4.74174">
        <ele>381</ele>
        <time>2012-05-19T06:36:55Z</time>
      </trkpt>
      <trkpt lat="45.55737" lon="4.74198">
        <ele>383</ele>
        <time>2012-05-19T06:37:06Z</time>
      </trkpt>
      <trkpt lat="45.55719" lon="4.74219">
        <ele>384</ele>
        <time>2012-05-19T06:37:16Z</time>
      </trkpt>
      <trkpt lat="45.55698" lon="4.74242">
        <ele>387</ele>
        <time>2012-05-19T06:37:27Z</time>
      </trkpt>
      <trkpt lat="45.5568" lon="4.74259">
        <ele>388</ele>
        <time>2012-05-19T06:37:36Z</time>
      </trkpt>
      <trkpt lat="45.55662" lon="4.74274">
        <ele>390</ele>
        <time>2012-05-19T06:37:45Z</time>
      </trkpt>
      <trkpt lat="45.55648" lon="4.74283">
        <ele>391</ele>
        <time>2012-05-19T06:37:53Z</time>
      </trkpt>
      <trkpt lat="45.55634" lon="4.74291">
        <ele>392</ele>
        <time>2012-05-19T06:38:01Z</time>
      </trkpt>
      <trkpt lat="45.55618" lon="4.74298">
        <ele>394</ele>
        <time>2012-05-19T06:38:10Z</time>
      </trkpt>
      <trkpt lat="45.55603" lon="4.74305">
        <ele>395</ele>
        <time>2012-05-19T06:38:18Z</time>
      </trkpt>
      <trkpt lat="45.55589" lon="4.74311">
        <ele>396</ele>
        <time>2012-05-19T06:38:25Z</time>
      </trkpt>
      <trkpt lat="45.5557" lon="4.7432">
        <ele>397</ele>
        <time>2012-05-19T06:38:34Z</time>
      </trkpt>
      <trkpt lat="45.55548" lon="4.74329">
        <ele>398</ele>
        <time>2012-05-19T06:38:44Z</time>
      </trkpt>
      <trkpt lat="45.55531" lon="4.74336">
        <ele>398</ele>
        <time>2012-05-19T06:38:51Z</time>
      </trkpt>
      <trkpt lat="45.55503" lon="4.74343">
        <ele>398</ele>
        <time>2012-05-19T06:39:01Z</time>
      </trkpt>
      <trkpt lat="45.55481" lon="4.74346">
        <ele>397</ele>
        <time>2012-05-19T06:39:08Z</time>
      </trkpt>
      <trkpt lat="45.55459" lon="4.74348">
        <ele>398</ele>
        <time>2012-05-19T06:39:15Z</time>
      </trkpt>
      <trkpt lat="45.55434" lon="4.74349">
        <ele>398</ele>
        <time>2012-05-19T06:39:23Z</time>
      </trkpt>
      <trkpt lat="45.55412" lon="4.7435">
        <ele>398</ele>
        <time>2012-05-19T06:39:30Z</time>
      </trkpt>
      <trkpt lat="45.5538" lon="4.74351">
        <ele>399</ele>
        <time>2012-05-19T06:39:40Z</time>
      </trkpt>
      <trkpt lat="45.55345" lon="4.74355">
        <ele>400</ele>
        <time>2012-05-19T06:39:51Z</time>
      </trkpt>
      <trkpt lat="45.55315" lon="4.74362">
        <ele>401</ele>
        <time>2012-05-19T06:40:01Z</time>
      </trkpt>
      <trkpt lat="45.55286" lon="4.74375">
        <ele>401</ele>
        <time>2012-05-19T06:40:11Z</time>
      </trkpt>
      <trkpt lat="45.55256" lon="4.74388">
        <ele>403</ele>
        <time>2012-05-19T06:40:21Z</time>
      </trkpt>
      <trkpt lat="45.55234" lon="4.74402">
        <ele>405</ele>
        <time>2012-05-19T06:40:29Z</time>
      </trkpt>
      <trkpt lat="45.55232" lon="4.74403">
        <ele>404</ele>
        <time>2012-05-19T06:40:30Z</time>
      </trkpt>
      <trkpt lat="45.55229" lon="4.74402">
        <ele>405</ele>
        <time>2012-05-19T06:40:31Z</time>
      </trkpt>
      <trkpt lat="45.55227" lon="4.744">
        <ele>404</ele>
        <time>2012-05-19T06:40:32Z</time>
      </trkpt>
      <trkpt lat="45.55226" lon="4.74396">
        <ele>404</ele>
        <time>2012-05-19T06:40:33Z</time>
      </trkpt>
      <trkpt lat="45.55225" lon="4.74392">
        <ele>405</ele>
        <time>2012-05-19T06:40:34Z</time>
      </trkpt>
      <trkpt lat="45.55224" lon="4.74388">
        <ele>405</ele>
        <time>2012-05-19T06:40:35Z</time>
      </trkpt>
      <trkpt lat="45.55219" lon="4.74356">
        <ele>405</ele>
        <time>2012-05-19T06:40:42Z</time>
      </trkpt>
      <trkpt lat="45.55212" lon="4.74314">
        <ele>405</ele>
        <time>2012-05-19T06:40:50Z</time>
      </trkpt>
      <trkpt lat="45.55207" lon="4.74279">
        <ele>405</ele>
        <time>2012-05-19T06:40:57Z</time>
      </trkpt>
      <trkpt lat="45.55193" lon="4.74249">
        <ele>406</ele>
        <time>2012-05-19T06:41:04Z</time>
      </trkpt>
      <trkpt lat="45.55172" lon="4.7423">
        <ele>406</ele>
        <time>2012-05-19T06:41:11Z</time>
      </trkpt>
      <trkpt lat="45.55151" lon="4.74216">
        <ele>407</ele>
        <time>2012-05-19T06:41:18Z</time>
      </trkpt>
      <trkpt lat="45.55131" lon="4.742">
        <ele>407</ele>
        <time>2012-05-19T06:41:25Z</time>
      </trkpt>
      <trkpt lat="45.55118" lon="4.74189">
        <ele>408</ele>
        <time>2012-05-19T06:41:31Z</time>
      </trkpt>
      <trkpt lat="45.55104" lon="4.74172">
        <ele>409</ele>
        <time>2012-05-19T06:41:39Z</time>
      </trkpt>
      <trkpt lat="45.55087" lon="4.74151">
        <ele>409</ele>
        <time>2012-05-19T06:41:48Z</time>
      </trkpt>
      <trkpt lat="45.55073" lon="4.74134">
        <ele>411</ele>
        <time>2012-05-19T06:41:56Z</time>
      </trkpt>
      <trkpt lat="45.55062" lon="4.7412">
        <ele>413</ele>
        <time>2012-05-19T06:42:02Z</time>
      </trkpt>
      <trkpt lat="45.55047" lon="4.74099">
        <ele>414</ele>
        <time>2012-05-19T06:42:11Z</time>
      </trkpt>
      <trkpt lat="45.55031" lon="4.74077">
        <ele>416</ele>
        <time>2012-05-19T06:42:20Z</time>
      </trkpt>
      <trkpt lat="45.55016" lon="4.74056">
        <ele>415</ele>
        <time>2012-05-19T06:42:28Z</time>
      </trkpt>
      <trkpt lat="45.55005" lon="4.74042">
        <ele>414</ele>
        <time>2012-05-19T06:42:32Z</time>
      </trkpt>
      <trkpt lat="45.55002" lon="4.74039">
        <ele>414</ele>
        <time>2012-05-19T06:42:33Z</time>
      </trkpt>
      <trkpt lat="45.54998" lon="4.74036">
        <ele>414</ele>
        <time>2012-05-19T06:42:34Z</time>
      </trkpt>
      <trkpt lat="45.54994" lon="4.74034">
        <ele>413</ele>
        <time>2012-05-19T06:42:35Z</time>
      </trkpt>
      <trkpt lat="45.5499" lon="4.74033">
        <ele>413</ele>
        <time>2012-05-19T06:42:36Z</time>
      </trkpt>
      <trkpt lat="45.54986" lon="4.74033">
        <ele>413</ele>
        <time>2012-05-19T06:42:37Z</time>
      </trkpt>
      <trkpt lat="45.54983" lon="4.74034">
        <ele>413</ele>
        <time>2012-05-19T06:42:38Z</time>
      </trkpt>
      <trkpt lat="45.5498" lon="4.74034">
        <ele>413</ele>
        <time>2012-05-19T06:42:39Z</time>
      </trkpt>
      <trkpt lat="45.54961" lon="4.74039">
        <ele>413</ele>
        <time>2012-05-19T06:42:46Z</time>
      </trkpt>
      <trkpt lat="45.54945" lon="4.74044">
        <ele>413</ele>
        <time>2012-05-19T06:42:52Z</time>
      </trkpt>
      <trkpt lat="45.54931" lon="4.74051">
        <ele>413</ele>
        <time>2012-05-19T06:42:59Z</time>
      </trkpt>
      <trkpt lat="45.5493" lon="4.74052">
        <ele>413</ele>
        <time>2012-05-19T06:43:00Z</time>
      </trkpt>
      <trkpt lat="45.54928" lon="4.74053">
        <ele>413</ele>
        <time>2012-05-19T06:43:01Z</time>
      </trkpt>
      <trkpt lat="45.54927" lon="4.74053">
        <ele>413</ele>
        <time>2012-05-19T06:43:02Z</time>
      </trkpt>
      <trkpt lat="45.54925" lon="4.74054">
        <ele>413</ele>
        <time>2012-05-19T06:43:03Z</time>
      </trkpt>
      <trkpt lat="45.54923" lon="4.74054">
        <ele>413</ele>
        <time>2012-05-19T06:43:04Z</time>
      </trkpt>
      <trkpt lat="45.54911" lon="4.74054">
        <ele>413</ele>
        <time>2012-05-19T06:43:11Z</time>
      </trkpt>
      <trkpt lat="45.54903" lon="4.74042">
        <ele>414</ele>
        <time>2012-05-19T06:43:17Z</time>
      </trkpt>
      <trkpt lat="45.54903" lon="4.74029">
        <ele>414</ele>
        <time>2012-05-19T06:43:22Z</time>
      </trkpt>
      <trkpt lat="45.54896" lon="4.73996">
        <ele>414</ele>
        <time>2012-05-19T06:43:30Z</time>
      </trkpt>
      <trkpt lat="45.54898" lon="4.73973">
        <ele>414</ele>
        <time>2012-05-19T06:43:35Z</time>
      </trkpt>
      <trkpt lat="45.54909" lon="4.73948">
        <ele>413</ele>
        <time>2012-05-19T06:43:42Z</time>
      </trkpt>
      <trkpt lat="45.54919" lon="4.73925">
        <ele>413</ele>
        <time>2012-05-19T06:43:49Z</time>
      </trkpt>
      <trkpt lat="45.54925" lon="4.73897">
        <ele>412</ele>
        <time>2012-05-19T06:43:55Z</time>
      </trkpt>
      <trkpt lat="45.54923" lon="4.73871">
        <ele>412</ele>
        <time>2012-05-19T06:44:00Z</time>
      </trkpt>
      <trkpt lat="45.54921" lon="4.7386">
        <ele>411</ele>
        <time>2012-05-19T06:44:04Z</time>
      </trkpt>
      <trkpt lat="45.5492" lon="4.73858">
        <ele>412</ele>
        <time>2012-05-19T06:44:05Z</time>
      </trkpt>
      <trkpt lat="45.54918" lon="4.73855">
        <ele>412</ele>
        <time>2012-05-19T06:44:06Z</time>
      </trkpt>
      <trkpt lat="45.54917" lon="4.73851">
        <ele>412</ele>
        <time>2012-05-19T06:44:07Z</time>
      </trkpt>
      <trkpt lat="45.54917" lon="4.73848">
        <ele>412</ele>
        <time>2012-05-19T06:44:08Z</time>
      </trkpt>
      <trkpt lat="45.54917" lon="4.73844">
        <ele>412</ele>
        <time>2012-05-19T06:44:09Z</time>
      </trkpt>
      <trkpt lat="45.54916" lon="4.7384">
        <ele>411</ele>
        <time>2012-05-19T06:44:10Z</time>
      </trkpt>
      <trkpt lat="45.54915" lon="4.73837">
        <ele>411</ele>
        <time>2012-05-19T06:44:11Z</time>
      </trkpt>
      <trkpt lat="45.54909" lon="4.73815">
        <ele>411</ele>
        <time>2012-05-19T06:44:17Z</time>
      </trkpt>
      <trkpt lat="45.54907" lon="4.73809">
        <ele>411</ele>
        <time>2012-05-19T06:44:18Z</time>
      </trkpt>
      <trkpt lat="45.54905" lon="4.73805">
        <ele>411</ele>
        <time>2012-05-19T06:44:19Z</time>
      </trkpt>
      <trkpt lat="45.54891" lon="4.7379">
        <ele>412</ele>
        <time>2012-05-19T06:44:26Z</time>
      </trkpt>
      <trkpt lat="45.54873" lon="4.73776">
        <ele>413</ele>
        <time>2012-05-19T06:44:34Z</time>
      </trkpt>
      <trkpt lat="45.54858" lon="4.73765">
        <ele>413</ele>
        <time>2012-05-19T06:44:40Z</time>
      </trkpt>
      <trkpt lat="45.54838" lon="4.73747">
        <ele>414</ele>
        <time>2012-05-19T06:44:49Z</time>
      </trkpt>
      <trkpt lat="45.54824" lon="4.73728">
        <ele>416</ele>
        <time>2012-05-19T06:44:57Z</time>
      </trkpt>
      <trkpt lat="45.54816" lon="4.73721">
        <ele>416</ele>
        <time>2012-05-19T06:45:01Z</time>
      </trkpt>
      <trkpt lat="45.54815" lon="4.73721">
        <ele>416</ele>
        <time>2012-05-19T06:45:02Z</time>
      </trkpt>
      <trkpt lat="45.54813" lon="4.73723">
        <ele>416</ele>
        <time>2012-05-19T06:45:03Z</time>
      </trkpt>
      <trkpt lat="45.54811" lon="4.73726">
        <ele>416</ele>
        <time>2012-05-19T06:45:04Z</time>
      </trkpt>
      <trkpt lat="45.5481" lon="4.73728">
        <ele>417</ele>
        <time>2012-05-19T06:45:05Z</time>
      </trkpt>
      <trkpt lat="45.54808" lon="4.7373">
        <ele>417</ele>
        <time>2012-05-19T06:45:06Z</time>
      </trkpt>
      <trkpt lat="45.54806" lon="4.73732">
        <ele>417</ele>
        <time>2012-05-19T06:45:07Z</time>
      </trkpt>
      <trkpt lat="45.54801" lon="4.73734">
        <ele>418</ele>
        <time>2012-05-19T06:45:09Z</time>
      </trkpt>
      <trkpt lat="45.54799" lon="4.73734">
        <ele>418</ele>
        <time>2012-05-19T06:45:10Z</time>
      </trkpt>
      <trkpt lat="45.54796" lon="4.73733">
        <ele>418</ele>
        <time>2012-05-19T06:45:11Z</time>
      </trkpt>
      <trkpt lat="45.54794" lon="4.73731">
        <ele>418</ele>
        <time>2012-05-19T06:45:12Z</time>
      </trkpt>
      <trkpt lat="45.54792" lon="4.73729">
        <ele>418</ele>
        <time>2012-05-19T06:45:13Z</time>
      </trkpt>
      <trkpt lat="45.5479" lon="4.73726">
        <ele>419</ele>
        <time>2012-05-19T06:45:14Z</time>
      </trkpt>
      <trkpt lat="45.54789" lon="4.73724">
        <ele>419</ele>
        <time>2012-05-19T06:45:15Z</time>
      </trkpt>
      <trkpt lat="45.54787" lon="4.73722">
        <ele>419</ele>
        <time>2012-05-19T06:45:16Z</time>
      </trkpt>
      <trkpt lat="45.54785" lon="4.73721">
        <ele>419</ele>
        <time>2012-05-19T06:45:17Z</time>
      </trkpt>
      <trkpt lat="45.54783" lon="4.7372">
        <ele>419</ele>
        <time>2012-05-19T06:45:18Z</time>
      </trkpt>
      <trkpt lat="45.54782" lon="4.73722">
        <ele>419</ele>
        <time>2012-05-19T06:45:20Z</time>
      </trkpt>
      <trkpt lat="45.54783" lon="4.73724">
        <ele>419</ele>
        <time>2012-05-19T06:45:21Z</time>
      </trkpt>
      <trkpt lat="45.54787" lon="4.7374">
        <ele>421</ele>
        <time>2012-05-19T06:45:28Z</time>
      </trkpt>
      <trkpt lat="45.5479" lon="4.73748">
        <ele>423</ele>
        <time>2012-05-19T06:45:32Z</time>
      </trkpt>
      <trkpt lat="45.54794" lon="4.73755">
        <ele>423</ele>
        <time>2012-05-19T06:45:36Z</time>
      </trkpt>
      <trkpt lat="45.54794" lon="4.73757">
        <ele>424</ele>
        <time>2012-05-19T06:45:37Z</time>
      </trkpt>
      <trkpt lat="45.54797" lon="4.73763">
        <ele>424</ele>
        <time>2012-05-19T06:45:41Z</time>
      </trkpt>
      <trkpt lat="45.54798" lon="4.73765">
        <ele>424</ele>
        <time>2012-05-19T06:45:42Z</time>
      </trkpt>
      <trkpt lat="45.54798" lon="4.73767">
        <ele>424</ele>
        <time>2012-05-19T06:45:43Z</time>
      </trkpt>
      <trkpt lat="45.54799" lon="4.73769">
        <ele>424</ele>
        <time>2012-05-19T06:45:44Z</time>
      </trkpt>
      <trkpt lat="45.548" lon="4.73771">
        <ele>424</ele>
        <time>2012-05-19T06:45:45Z</time>
      </trkpt>
      <trkpt lat="45.54807" lon="4.73783">
        <ele>425</ele>
        <time>2012-05-19T06:45:52Z</time>
      </trkpt>
      <trkpt lat="45.54811" lon="4.73793">
        <ele>425</ele>
        <time>2012-05-19T06:45:57Z</time>
      </trkpt>
      <trkpt lat="45.54818" lon="4.73808">
        <ele>426</ele>
        <time>2012-05-19T06:46:03Z</time>
      </trkpt>
      <trkpt lat="45.54826" lon="4.73826">
        <ele>426</ele>
        <time>2012-05-19T06:46:10Z</time>
      </trkpt>
      <trkpt lat="45.54827" lon="4.73831">
        <ele>426</ele>
        <time>2012-05-19T06:46:12Z</time>
      </trkpt>
      <trkpt lat="45.5483" lon="4.73849">
        <ele>426</ele>
        <time>2012-05-19T06:46:18Z</time>
      </trkpt>
      <trkpt lat="45.54831" lon="4.73868">
        <ele>428</ele>
        <time>2012-05-19T06:46:24Z</time>
      </trkpt>
      <trkpt lat="45.5483" lon="4.73871">
        <ele>427</ele>
        <time>2012-05-19T06:46:25Z</time>
      </trkpt>
      <trkpt lat="45.54829" lon="4.73874">
        <ele>428</ele>
        <time>2012-05-19T06:46:26Z</time>
      </trkpt>
      <trkpt lat="45.54828" lon="4.73878">
        <ele>427</ele>
        <time>2012-05-19T06:46:27Z</time>
      </trkpt>
      <trkpt lat="45.54827" lon="4.73881">
        <ele>428</ele>
        <time>2012-05-19T06:46:28Z</time>
      </trkpt>
      <trkpt lat="45.54826" lon="4.73885">
        <ele>428</ele>
        <time>2012-05-19T06:46:29Z</time>
      </trkpt>
      <trkpt lat="45.54826" lon="4.73888">
        <ele>428</ele>
        <time>2012-05-19T06:46:30Z</time>
      </trkpt>
      <trkpt lat="45.54825" lon="4.73891">
        <ele>428</ele>
        <time>2012-05-19T06:46:31Z</time>
      </trkpt>
      <trkpt lat="45.54824" lon="4.73894">
        <ele>428</ele>
        <time>2012-05-19T06:46:32Z</time>
      </trkpt>
      <trkpt lat="45.54823" lon="4.73896">
        <ele>428</ele>
        <time>2012-05-19T06:46:33Z</time>
      </trkpt>
      <trkpt lat="45.54823" lon="4.73898">
        <ele>429</ele>
        <time>2012-05-19T06:46:34Z</time>
      </trkpt>
      <trkpt lat="45.54822" lon="4.73901">
        <ele>429</ele>
        <time>2012-05-19T06:46:35Z</time>
      </trkpt>
      <trkpt lat="45.54821" lon="4.73903">
        <ele>429</ele>
        <time>2012-05-19T06:46:36Z</time>
      </trkpt>
      <trkpt lat="45.54819" lon="4.73905">
        <ele>428</ele>
        <time>2012-05-19T06:46:37Z</time>
      </trkpt>
      <trkpt lat="45.54819" lon="4.73907">
        <ele>429</ele>
        <time>2012-05-19T06:46:38Z</time>
      </trkpt>
      <trkpt lat="45.54817" lon="4.73912">
        <ele>429</ele>
        <time>2012-05-19T06:46:40Z</time>
      </trkpt>
      <trkpt lat="45.54816" lon="4.73914">
        <ele>429</ele>
        <time>2012-05-19T06:46:41Z</time>
      </trkpt>
      <trkpt lat="45.54815" lon="4.73916">
        <ele>429</ele>
        <time>2012-05-19T06:46:42Z</time>
      </trkpt>
      <trkpt lat="45.54814" lon="4.7392">
        <ele>430</ele>
        <time>2012-05-19T06:46:44Z</time>
      </trkpt>
      <trkpt lat="45.54811" lon="4.73928">
        <ele>430</ele>
        <time>2012-05-19T06:46:49Z</time>
      </trkpt>
      <trkpt lat="45.54809" lon="4.73931">
        <ele>431</ele>
        <time>2012-05-19T06:46:51Z</time>
      </trkpt>
      <trkpt lat="45.54804" lon="4.73941">
        <ele>432</ele>
        <time>2012-05-19T06:46:56Z</time>
      </trkpt>
      <trkpt lat="45.548" lon="4.73947">
        <ele>433</ele>
        <time>2012-05-19T06:47:00Z</time>
      </trkpt>
      <trkpt lat="45.54797" lon="4.7395">
        <ele>434</ele>
        <time>2012-05-19T06:47:02Z</time>
      </trkpt>
      <trkpt lat="45.54796" lon="4.73953">
        <ele>434</ele>
        <time>2012-05-19T06:47:04Z</time>
      </trkpt>
      <trkpt lat="45.54794" lon="4.73957">
        <ele>435</ele>
        <time>2012-05-19T06:47:06Z</time>
      </trkpt>
      <trkpt lat="45.54793" lon="4.7396">
        <ele>435</ele>
        <time>2012-05-19T06:47:07Z</time>
      </trkpt>
      <trkpt lat="45.54791" lon="4.73962">
        <ele>435</ele>
        <time>2012-05-19T06:47:08Z</time>
      </trkpt>
      <trkpt lat="45.5479" lon="4.73964">
        <ele>435</ele>
        <time>2012-05-19T06:47:09Z</time>
      </trkpt>
      <trkpt lat="45.54788" lon="4.73966">
        <ele>435</ele>
        <time>2012-05-19T06:47:10Z</time>
      </trkpt>
      <trkpt lat="45.54785" lon="4.73979">
        <ele>436</ele>
        <time>2012-05-19T06:47:16Z</time>
      </trkpt>
      <trkpt lat="45.54781" lon="4.73989">
        <ele>437</ele>
        <time>2012-05-19T06:47:23Z</time>
      </trkpt>
      <trkpt lat="45.5478" lon="4.73991">
        <ele>438</ele>
        <time>2012-05-19T06:47:31Z</time>
      </trkpt>
      <trkpt lat="45.54777" lon="4.74002">
        <ele>438</ele>
        <time>2012-05-19T06:47:37Z</time>
      </trkpt>
      <trkpt lat="45.54774" lon="4.74013">
        <ele>439</ele>
        <time>2012-05-19T06:47:44Z</time>
      </trkpt>
      <trkpt lat="45.54768" lon="4.74024">
        <ele>441</ele>
        <time>2012-05-19T06:47:51Z</time>
      </trkpt>
      <trkpt lat="45.54763" lon="4.74032">
        <ele>442</ele>
        <time>2012-05-19T06:47:57Z</time>
      </trkpt>
      <trkpt lat="45.54762" lon="4.74034">
        <ele>442</ele>
        <time>2012-05-19T06:47:58Z</time>
      </trkpt>
      <trkpt lat="45.54761" lon="4.74036">
        <ele>442</ele>
        <time>2012-05-19T06:48:04Z</time>
      </trkpt>
      <trkpt lat="45.5476" lon="4.74036">
        <ele>442</ele>
        <time>2012-05-19T06:48:11Z</time>
      </trkpt>
      <trkpt lat="45.54759" lon="4.7404">
        <ele>443</ele>
        <time>2012-05-19T06:48:17Z</time>
      </trkpt>
      <trkpt lat="45.54758" lon="4.74041">
        <ele>443</ele>
        <time>2012-05-19T06:48:25Z</time>
      </trkpt>
      <trkpt lat="45.54758" lon="4.74041">
        <ele>443</ele>
        <time>2012-05-19T06:48:33Z</time>
      </trkpt>
      <trkpt lat="45.54758" lon="4.74043">
        <ele>443</ele>
        <time>2012-05-19T06:48:39Z</time>
      </trkpt>
      <trkpt lat="45.54756" lon="4.74045">
        <ele>443</ele>
        <time>2012-05-19T06:48:49Z</time>
      </trkpt>
      <trkpt lat="45.54756" lon="4.74048">
        <ele>444</ele>
        <time>2012-05-19T06:48:54Z</time>
      </trkpt>
      <trkpt lat="45.5475" lon="4.74057">
        <ele>445</ele>
        <time>2012-05-19T06:49:01Z</time>
      </trkpt>
      <trkpt lat="45.54748" lon="4.74063">
        <ele>446</ele>
        <time>2012-05-19T06:49:04Z</time>
      </trkpt>
      <trkpt lat="45.54747" lon="4.74064">
        <ele>447</ele>
        <time>2012-05-19T06:49:05Z</time>
      </trkpt>
      <trkpt lat="45.54745" lon="4.74069">
        <ele>447</ele>
        <time>2012-05-19T06:49:09Z</time>
      </trkpt>
      <trkpt lat="45.54744" lon="4.74072">
        <ele>448</ele>
        <time>2012-05-19T06:49:10Z</time>
      </trkpt>
      <trkpt lat="45.54738" lon="4.74083">
        <ele>449</ele>
        <time>2012-05-19T06:49:17Z</time>
      </trkpt>
      <trkpt lat="45.54732" lon="4.74094">
        <ele>450</ele>
        <time>2012-05-19T06:49:23Z</time>
      </trkpt>
      <trkpt lat="45.54731" lon="4.74098">
        <ele>451</ele>
        <time>2012-05-19T06:49:25Z</time>
      </trkpt>
      <trkpt lat="45.5473" lon="4.74101">
        <ele>451</ele>
        <time>2012-05-19T06:49:27Z</time>
      </trkpt>
      <trkpt lat="45.54727" lon="4.74104">
        <ele>451</ele>
        <time>2012-05-19T06:49:29Z</time>
      </trkpt>
      <trkpt lat="45.54726" lon="4.74105">
        <ele>451</ele>
        <time>2012-05-19T06:49:30Z</time>
      </trkpt>
      <trkpt lat="45.54722" lon="4.74113">
        <ele>451</ele>
        <time>2012-05-19T06:49:36Z</time>
      </trkpt>
      <trkpt lat="45.54719" lon="4.74117">
        <ele>452</ele>
        <time>2012-05-19T06:49:41Z</time>
      </trkpt>
      <trkpt lat="45.54718" lon="4.74119">
        <ele>452</ele>
        <time>2012-05-19T06:49:42Z</time>
      </trkpt>
      <trkpt lat="45.54717" lon="4.74122">
        <ele>452</ele>
        <time>2012-05-19T06:49:43Z</time>
      </trkpt>
      <trkpt lat="45.54712" lon="4.74132">
        <ele>452</ele>
        <time>2012-05-19T06:49:50Z</time>
      </trkpt>
      <trkpt lat="45.54711" lon="4.74135">
        <ele>453</ele>
        <time>2012-05-19T06:49:51Z</time>
      </trkpt>
      <trkpt lat="45.54709" lon="4.74138">
        <ele>453</ele>
        <time>2012-05-19T06:49:53Z</time>
      </trkpt>
      <trkpt lat="45.54708" lon="4.74141">
        <ele>453</ele>
        <time>2012-05-19T06:49:54Z</time>
      </trkpt>
      <trkpt lat="45.54701" lon="4.74154">
        <ele>454</ele>
        <time>2012-05-19T06:50:00Z</time>
      </trkpt>
      <trkpt lat="45.547" lon="4.74156">
        <ele>454</ele>
        <time>2012-05-19T06:50:01Z</time>
      </trkpt>
      <trkpt lat="45.54699" lon="4.74162">
        <ele>454</ele>
        <time>2012-05-19T06:50:04Z</time>
      </trkpt>
      <trkpt lat="45.54698" lon="4.74164">
        <ele>456</ele>
        <time>2012-05-19T06:50:05Z</time>
      </trkpt>
      <trkpt lat="45.54698" lon="4.74167">
        <ele>455</ele>
        <time>2012-05-19T06:50:06Z</time>
      </trkpt>
      <trkpt lat="45.54698" lon="4.7417">
        <ele>456</ele>
        <time>2012-05-19T06:50:07Z</time>
      </trkpt>
      <trkpt lat="45.54698" lon="4.74172">
        <ele>456</ele>
        <time>2012-05-19T06:50:08Z</time>
      </trkpt>
      <trkpt lat="45.54698" lon="4.74174">
        <ele>456</ele>
        <time>2012-05-19T06:50:09Z</time>
      </trkpt>
      <trkpt lat="45.54698" lon="4.74177">
        <ele>456</ele>
        <time>2012-05-19T06:50:10Z</time>
      </trkpt>
      <trkpt lat="45.54698" lon="4.7418">
        <ele>457</ele>
        <time>2012-05-19T06:50:12Z</time>
      </trkpt>
      <trkpt lat="45.54698" lon="4.74183">
        <ele>457</ele>
        <time>2012-05-19T06:50:13Z</time>
      </trkpt>
      <trkpt lat="45.54698" lon="4.74185">
        <ele>457</ele>
        <time>2012-05-19T06:50:14Z</time>
      </trkpt>
      <trkpt lat="45.54698" lon="4.74186">
        <ele>457</ele>
        <time>2012-05-19T06:50:15Z</time>
      </trkpt>
      <trkpt lat="45.54699" lon="4.74188">
        <ele>458</ele>
        <time>2012-05-19T06:50:16Z</time>
      </trkpt>
      <trkpt lat="45.54701" lon="4.74189">
        <ele>458</ele>
        <time>2012-05-19T06:50:17Z</time>
      </trkpt>
      <trkpt lat="45.54701" lon="4.74191">
        <ele>458</ele>
        <time>2012-05-19T06:50:18Z</time>
      </trkpt>
      <trkpt lat="45.54701" lon="4.74194">
        <ele>458</ele>
        <time>2012-05-19T06:50:19Z</time>
      </trkpt>
      <trkpt lat="45.54702" lon="4.74202">
        <ele>459</ele>
        <time>2012-05-19T06:50:22Z</time>
      </trkpt>
      <trkpt lat="45.54702" lon="4.74204">
        <ele>459</ele>
        <time>2012-05-19T06:50:23Z</time>
      </trkpt>
      <trkpt lat="45.54705" lon="4.74216">
        <ele>461</ele>
        <time>2012-05-19T06:50:29Z</time>
      </trkpt>
      <trkpt lat="45.54705" lon="4.74229">
        <ele>463</ele>
        <time>2012-05-19T06:50:37Z</time>
      </trkpt>
      <trkpt lat="45.54704" lon="4.74233">
        <ele>463</ele>
        <time>2012-05-19T06:50:39Z</time>
      </trkpt>
      <trkpt lat="45.54705" lon="4.74235">
        <ele>463</ele>
        <time>2012-05-19T06:50:40Z</time>
      </trkpt>
      <trkpt lat="45.54705" lon="4.74237">
        <ele>463</ele>
        <time>2012-05-19T06:50:41Z</time>
      </trkpt>
      <trkpt lat="45.54705" lon="4.74246">
        <ele>464</ele>
        <time>2012-05-19T06:50:46Z</time>
      </trkpt>
      <trkpt lat="45.54707" lon="4.74254">
        <ele>464</ele>
        <time>2012-05-19T06:50:50Z</time>
      </trkpt>
      <trkpt lat="45.54707" lon="4.74256">
        <ele>465</ele>
        <time>2012-05-19T06:50:51Z</time>
      </trkpt>
      <trkpt lat="45.54707" lon="4.74258">
        <ele>465</ele>
        <time>2012-05-19T06:50:52Z</time>
      </trkpt>
      <trkpt lat="45.54708" lon="4.74271">
        <ele>467</ele>
        <time>2012-05-19T06:50:59Z</time>
      </trkpt>
      <trkpt lat="45.54708" lon="4.74274">
        <ele>467</ele>
        <time>2012-05-19T06:51:00Z</time>
      </trkpt>
      <trkpt lat="45.54707" lon="4.74276">
        <ele>467</ele>
        <time>2012-05-19T06:51:01Z</time>
      </trkpt>
      <trkpt lat="45.54706" lon="4.74279">
        <ele>467</ele>
        <time>2012-05-19T06:51:02Z</time>
      </trkpt>
      <trkpt lat="45.54706" lon="4.74284">
        <ele>467</ele>
        <time>2012-05-19T06:51:04Z</time>
      </trkpt>
      <trkpt lat="45.54705" lon="4.74286">
        <ele>468</ele>
        <time>2012-05-19T06:51:05Z</time>
      </trkpt>
      <trkpt lat="45.54705" lon="4.74288">
        <ele>468</ele>
        <time>2012-05-19T06:51:06Z</time>
      </trkpt>
      <trkpt lat="45.54704" lon="4.74294">
        <ele>469</ele>
        <time>2012-05-19T06:51:10Z</time>
      </trkpt>
      <trkpt lat="45.54704" lon="4.74297">
        <ele>469</ele>
        <time>2012-05-19T06:51:11Z</time>
      </trkpt>
      <trkpt lat="45.54703" lon="4.74312">
        <ele>469</ele>
        <time>2012-05-19T06:51:17Z</time>
      </trkpt>
      <trkpt lat="45.54703" lon="4.74313">
        <ele>469</ele>
        <time>2012-05-19T06:51:18Z</time>
      </trkpt>
      <trkpt lat="45.54699" lon="4.74317">
        <ele>470</ele>
        <time>2012-05-19T06:51:23Z</time>
      </trkpt>
      <trkpt lat="45.54698" lon="4.74316">
        <ele>470</ele>
        <time>2012-05-19T06:51:24Z</time>
      </trkpt>
      <trkpt lat="45.54694" lon="4.74314">
        <ele>470</ele>
        <time>2012-05-19T06:51:29Z</time>
      </trkpt>
      <trkpt lat="45.54693" lon="4.74314">
        <ele>470</ele>
        <time>2012-05-19T06:51:36Z</time>
      </trkpt>
      <trkpt lat="45.54693" lon="4.74313">
        <ele>470</ele>
        <time>2012-05-19T06:51:49Z</time>
      </trkpt>
      <trkpt lat="45.54691" lon="4.74318">
        <ele>471</ele>
        <time>2012-05-19T06:51:56Z</time>
      </trkpt>
      <trkpt lat="45.54687" lon="4.74321">
        <ele>472</ele>
        <time>2012-05-19T06:52:02Z</time>
      </trkpt>
      <trkpt lat="45.54687" lon="4.74321">
        <ele>472</ele>
        <time>2012-05-19T06:52:13Z</time>
      </trkpt>
      <trkpt lat="45.54685" lon="4.74324">
        <ele>472</ele>
        <time>2012-05-19T06:52:32Z</time>
      </trkpt>
      <trkpt lat="45.54684" lon="4.74324">
        <ele>473</ele>
        <time>2012-05-19T06:52:50Z</time>
      </trkpt>
      <trkpt lat="45.54684" lon="4.74323">
        <ele>473</ele>
        <time>2012-05-19T06:53:10Z</time>
      </trkpt>
      <trkpt lat="45.54683" lon="4.74323">
        <ele>473</ele>
        <time>2012-05-19T06:53:26Z</time>
      </trkpt>
      <trkpt lat="45.54683" lon="4.74324">
        <ele>473</ele>
        <time>2012-05-19T06:53:44Z</time>
      </trkpt>
      <trkpt lat="45.54684" lon="4.74324">
        <ele>473</ele>
        <time>2012-05-19T06:54:04Z</time>
      </trkpt>
      <trkpt lat="45.54684" lon="4.74324">
        <ele>474</ele>
        <time>2012-05-19T06:54:21Z</time>
      </trkpt>
      <trkpt lat="45.54685" lon="4.74324">
        <ele>474</ele>
        <time>2012-05-19T06:54:43Z</time>
      </trkpt>
      <trkpt lat="45.54685" lon="4.74325">
        <ele>474</ele>
        <time>2012-05-19T06:55:02Z</time>
      </trkpt>
      <trkpt lat="45.54685" lon="4.74325">
        <ele>474</ele>
        <time>2012-05-19T06:55:18Z</time>
      </trkpt>
      <trkpt lat="45.54686" lon="4.74326">
        <ele>474</ele>
        <time>2012-05-19T06:55:37Z</time>
      </trkpt>
      <trkpt lat="45.54686" lon="4.74326">
        <ele>474</ele>
        <time>2012-05-19T06:55:53Z</time>
      </trkpt>
      <trkpt lat="45.54685" lon="4.74326">
        <ele>474</ele>
        <time>2012-05-19T06:56:13Z</time>
      </trkpt>
      <trkpt lat="45.54685" lon="4.74328">
        <ele>474</ele>
        <time>2012-05-19T06:56:33Z</time>
      </trkpt>
      <trkpt lat="45.54685" lon="4.74328">
        <ele>474</ele>
        <time>2012-05-19T06:56:55Z</time>
      </trkpt>
      <trkpt lat="45.54685" lon="4.74328">
        <ele>474</ele>
        <time>2012-05-19T06:57:14Z</time>
      </trkpt>
      <trkpt lat="45.54685" lon="4.74328">
        <ele>475</ele>
        <time>2012-05-19T06:57:31Z</time>
      </trkpt>
      <trkpt lat="45.54685" lon="4.74327">
        <ele>475</ele>
        <time>2012-05-19T06:57:49Z</time>
      </trkpt>
      <trkpt lat="45.54684" lon="4.74327">
        <ele>475</ele>
        <time>2012-05-19T06:58:10Z</time>
      </trkpt>
      <trkpt lat="45.54685" lon="4.74327">
        <ele>474</ele>
        <time>2012-05-19T06:58:29Z</time>
      </trkpt>
      <trkpt lat="45.54686" lon="4.74326">
        <ele>475</ele>
        <time>2012-05-19T06:58:48Z</time>
      </trkpt>
      <trkpt lat="45.54686" lon="4.74326">
        <ele>474</ele>
        <time>2012-05-19T06:59:05Z</time>
      </trkpt>
      <trkpt lat="45.54685" lon="4.74325">
        <ele>474</ele>
        <time>2012-05-19T06:59:24Z</time>
      </trkpt>
      <trkpt lat="45.54685" lon="4.74324">
        <ele>475</ele>
        <time>2012-05-19T06:59:43Z</time>
      </trkpt>
      <trkpt lat="45.54685" lon="4.74324">
        <ele>475</ele>
        <time>2012-05-19T07:00:00Z</time>
      </trkpt>
      <trkpt lat="45.54685" lon="4.74324">
        <ele>475</ele>
        <time>2012-05-19T07:00:17Z</time>
      </trkpt>
      <trkpt lat="45.54686" lon="4.74324">
        <ele>474</ele>
        <time>2012-05-19T07:00:22Z</time>
      </trkpt>
      <trkpt lat="45.54687" lon="4.7432">
        <ele>475</ele>
        <time>2012-05-19T07:00:27Z</time>
      </trkpt>
      <trkpt lat="45.54687" lon="4.74307">
        <ele>474</ele>
        <time>2012-05-19T07:00:32Z</time>
      </trkpt>
      <trkpt lat="45.54687" lon="4.74294">
        <ele>474</ele>
        <time>2012-05-19T07:00:35Z</time>
      </trkpt>
      <trkpt lat="45.54685" lon="4.74289">
        <ele>473</ele>
        <time>2012-05-19T07:00:36Z</time>
      </trkpt>
      <trkpt lat="45.54673" lon="4.74266">
        <ele>473</ele>
        <time>2012-05-19T07:00:42Z</time>
      </trkpt>
      <trkpt lat="45.54663" lon="4.74257">
        <ele>473</ele>
        <time>2012-05-19T07:00:47Z</time>
      </trkpt>
      <trkpt lat="45.54637" lon="4.74242">
        <ele>474</ele>
        <time>2012-05-19T07:00:54Z</time>
      </trkpt>
      <trkpt lat="45.5463" lon="4.74236">
        <ele>474</ele>
        <time>2012-05-19T07:00:56Z</time>
      </trkpt>
      <trkpt lat="45.5461" lon="4.74219">
        <ele>475</ele>
        <time>2012-05-19T07:01:02Z</time>
      </trkpt>
      <trkpt lat="45.54595" lon="4.74195">
        <ele>476</ele>
        <time>2012-05-19T07:01:08Z</time>
      </trkpt>
      <trkpt lat="45.5458" lon="4.74166">
        <ele>476</ele>
        <time>2012-05-19T07:01:15Z</time>
      </trkpt>
      <trkpt lat="45.54574" lon="4.74153">
        <ele>476</ele>
        <time>2012-05-19T07:01:18Z</time>
      </trkpt>
      <trkpt lat="45.54572" lon="4.74149">
        <ele>476</ele>
        <time>2012-05-19T07:01:19Z</time>
      </trkpt>
      <trkpt lat="45.5457" lon="4.74144">
        <ele>476</ele>
        <time>2012-05-19T07:01:20Z</time>
      </trkpt>
      <trkpt lat="45.54558" lon="4.74118">
        <ele>476</ele>
        <time>2012-05-19T07:01:27Z</time>
      </trkpt>
      <trkpt lat="45.54544" lon="4.74092">
        <ele>475</ele>
        <time>2012-05-19T07:01:33Z</time>
      </trkpt>
      <trkpt lat="45.54542" lon="4.74087">
        <ele>475</ele>
        <time>2012-05-19T07:01:34Z</time>
      </trkpt>
      <trkpt lat="45.54539" lon="4.74081">
        <ele>475</ele>
        <time>2012-05-19T07:01:35Z</time>
      </trkpt>
      <trkpt lat="45.54525" lon="4.74039">
        <ele>473</ele>
        <time>2012-05-19T07:01:42Z</time>
      </trkpt>
      <trkpt lat="45.54503" lon="4.73992">
        <ele>471</ele>
        <time>2012-05-19T07:01:49Z</time>
      </trkpt>
      <trkpt lat="45.54492" lon="4.73972">
        <ele>470</ele>
        <time>2012-05-19T07:01:52Z</time>
      </trkpt>
      <trkpt lat="45.54489" lon="4.73964">
        <ele>470</ele>
        <time>2012-05-19T07:01:53Z</time>
      </trkpt>
      <trkpt lat="45.5448" lon="4.73934">
        <ele>470</ele>
        <time>2012-05-19T07:01:57Z</time>
      </trkpt>
      <trkpt lat="45.54478" lon="4.73927">
        <ele>470</ele>
        <time>2012-05-19T07:01:58Z</time>
      </trkpt>
      <trkpt lat="45.54473" lon="4.73913">
        <ele>469</ele>
        <time>2012-05-19T07:02:00Z</time>
      </trkpt>
      <trkpt lat="45.54471" lon="4.73906">
        <ele>469</ele>
        <time>2012-05-19T07:02:01Z</time>
      </trkpt>
      <trkpt lat="45.54466" lon="4.73893">
        <ele>469</ele>
        <time>2012-05-19T07:02:03Z</time>
      </trkpt>
      <trkpt lat="45.54459" lon="4.73875">
        <ele>469</ele>
        <time>2012-05-19T07:02:06Z</time>
      </trkpt>
      <trkpt lat="45.54457" lon="4.73868">
        <ele>468</ele>
        <time>2012-05-19T07:02:07Z</time>
      </trkpt>
      <trkpt lat="45.54442" lon="4.73815">
        <ele>466</ele>
        <time>2012-05-19T07:02:14Z</time>
      </trkpt>
      <trkpt lat="45.54436" lon="4.73797">
        <ele>465</ele>
        <time>2012-05-19T07:02:16Z</time>
      </trkpt>
      <trkpt lat="45.54425" lon="4.73756">
        <ele>463</ele>
        <time>2012-05-19T07:02:20Z</time>
      </trkpt>
      <trkpt lat="45.54413" lon="4.73713">
        <ele>461</ele>
        <time>2012-05-19T07:02:24Z</time>
      </trkpt>
      <trkpt lat="45.5441" lon="4.73703">
        <ele>461</ele>
        <time>2012-05-19T07:02:25Z</time>
      </trkpt>
      <trkpt lat="45.54406" lon="4.73693">
        <ele>461</ele>
        <time>2012-05-19T07:02:26Z</time>
      </trkpt>
      <trkpt lat="45.54401" lon="4.73685">
        <ele>460</ele>
        <time>2012-05-19T07:02:27Z</time>
      </trkpt>
      <trkpt lat="45.54394" lon="4.73679">
        <ele>460</ele>
        <time>2012-05-19T07:02:28Z</time>
      </trkpt>
      <trkpt lat="45.54388" lon="4.73675">
        <ele>459</ele>
        <time>2012-05-19T07:02:29Z</time>
      </trkpt>
      <trkpt lat="45.54381" lon="4.73672">
        <ele>460</ele>
        <time>2012-05-19T07:02:30Z</time>
      </trkpt>
      <trkpt lat="45.54375" lon="4.7367">
        <ele>459</ele>
        <time>2012-05-19T07:02:31Z</time>
      </trkpt>
      <trkpt lat="45.54369" lon="4.73665">
        <ele>459</ele>
        <time>2012-05-19T07:02:32Z</time>
      </trkpt>
      <trkpt lat="45.54365" lon="4.73659">
        <ele>459</ele>
        <time>2012-05-19T07:02:33Z</time>
      </trkpt>
      <trkpt lat="45.54361" lon="4.73654">
        <ele>459</ele>
        <time>2012-05-19T07:02:34Z</time>
      </trkpt>
      <trkpt lat="45.54352" lon="4.73641">
        <ele>460</ele>
        <time>2012-05-19T07:02:37Z</time>
      </trkpt>
      <trkpt lat="45.54349" lon="4.73637">
        <ele>460</ele>
        <time>2012-05-19T07:02:38Z</time>
      </trkpt>
      <trkpt lat="45.54347" lon="4.73633">
        <ele>460</ele>
        <time>2012-05-19T07:02:39Z</time>
      </trkpt>
      <trkpt lat="45.54345" lon="4.73629">
        <ele>461</ele>
        <time>2012-05-19T07:02:40Z</time>
      </trkpt>
      <trkpt lat="45.54343" lon="4.73626">
        <ele>461</ele>
        <time>2012-05-19T07:02:41Z</time>
      </trkpt>
      <trkpt lat="45.5434" lon="4.73622">
        <ele>461</ele>
        <time>2012-05-19T07:02:42Z</time>
      </trkpt>
      <trkpt lat="45.54337" lon="4.73618">
        <ele>461</ele>
        <time>2012-05-19T07:02:43Z</time>
      </trkpt>
      <trkpt lat="45.54324" lon="4.73598">
        <ele>463</ele>
        <time>2012-05-19T07:02:48Z</time>
      </trkpt>
      <trkpt lat="45.54309" lon="4.73569">
        <ele>465</ele>
        <time>2012-05-19T07:02:54Z</time>
      </trkpt>
      <trkpt lat="45.54297" lon="4.73541">
        <ele>465</ele>
        <time>2012-05-19T07:03:00Z</time>
      </trkpt>
      <trkpt lat="45.54287" lon="4.73524">
        <ele>465</ele>
        <time>2012-05-19T07:03:05Z</time>
      </trkpt>
      <trkpt lat="45.54286" lon="4.73521">
        <ele>465</ele>
        <time>2012-05-19T07:03:06Z</time>
      </trkpt>
      <trkpt lat="45.54285" lon="4.73517">
        <ele>465</ele>
        <time>2012-05-19T07:03:07Z</time>
      </trkpt>
      <trkpt lat="45.54283" lon="4.73514">
        <ele>465</ele>
        <time>2012-05-19T07:03:08Z</time>
      </trkpt>
      <trkpt lat="45.54282" lon="4.73512">
        <ele>465</ele>
        <time>2012-05-19T07:03:09Z</time>
      </trkpt>
      <trkpt lat="45.54275" lon="4.73494">
        <ele>464</ele>
        <time>2012-05-19T07:03:14Z</time>
      </trkpt>
      <trkpt lat="45.54274" lon="4.7349">
        <ele>465</ele>
        <time>2012-05-19T07:03:15Z</time>
      </trkpt>
      <trkpt lat="45.54267" lon="4.73462">
        <ele>464</ele>
        <time>2012-05-19T07:03:21Z</time>
      </trkpt>
      <trkpt lat="45.54259" lon="4.73441">
        <ele>463</ele>
        <time>2012-05-19T07:03:25Z</time>
      </trkpt>
      <trkpt lat="45.54258" lon="4.73435">
        <ele>463</ele>
        <time>2012-05-19T07:03:26Z</time>
      </trkpt>
      <trkpt lat="45.54257" lon="4.73429">
        <ele>463</ele>
        <time>2012-05-19T07:03:27Z</time>
      </trkpt>
      <trkpt lat="45.54249" lon="4.73396">
        <ele>461</ele>
        <time>2012-05-19T07:03:32Z</time>
      </trkpt>
      <trkpt lat="45.54247" lon="4.73389">
        <ele>460</ele>
        <time>2012-05-19T07:03:33Z</time>
      </trkpt>
      <trkpt lat="45.54236" lon="4.73359">
        <ele>458</ele>
        <time>2012-05-19T07:03:37Z</time>
      </trkpt>
      <trkpt lat="45.54229" lon="4.73324">
        <ele>457</ele>
        <time>2012-05-19T07:03:41Z</time>
      </trkpt>
      <trkpt lat="45.54221" lon="4.73293">
        <ele>454</ele>
        <time>2012-05-19T07:03:45Z</time>
      </trkpt>
      <trkpt lat="45.54206" lon="4.73248">
        <ele>451</ele>
        <time>2012-05-19T07:03:50Z</time>
      </trkpt>
      <trkpt lat="45.54203" lon="4.73237">
        <ele>450</ele>
        <time>2012-05-19T07:03:51Z</time>
      </trkpt>
      <trkpt lat="45.54201" lon="4.73226">
        <ele>449</ele>
        <time>2012-05-19T07:03:52Z</time>
      </trkpt>
      <trkpt lat="45.542" lon="4.73215">
        <ele>449</ele>
        <time>2012-05-19T07:03:53Z</time>
      </trkpt>
      <trkpt lat="45.54199" lon="4.73204">
        <ele>448</ele>
        <time>2012-05-19T07:03:54Z</time>
      </trkpt>
      <trkpt lat="45.54198" lon="4.73193">
        <ele>447</ele>
        <time>2012-05-19T07:03:55Z</time>
      </trkpt>
      <trkpt lat="45.54199" lon="4.73181">
        <ele>445</ele>
        <time>2012-05-19T07:03:56Z</time>
      </trkpt>
      <trkpt lat="45.54199" lon="4.73156">
        <ele>444</ele>
        <time>2012-05-19T07:03:58Z</time>
      </trkpt>
      <trkpt lat="45.54198" lon="4.73128">
        <ele>442</ele>
        <time>2012-05-19T07:04:00Z</time>
      </trkpt>
      <trkpt lat="45.54192" lon="4.73084">
        <ele>438</ele>
        <time>2012-05-19T07:04:03Z</time>
      </trkpt>
      <trkpt lat="45.54185" lon="4.73039">
        <ele>436</ele>
        <time>2012-05-19T07:04:07Z</time>
      </trkpt>
      <trkpt lat="45.54184" lon="4.73024">
        <ele>436</ele>
        <time>2012-05-19T07:04:09Z</time>
      </trkpt>
      <trkpt lat="45.54185" lon="4.73017">
        <ele>435</ele>
        <time>2012-05-19T07:04:10Z</time>
      </trkpt>
      <trkpt lat="45.54188" lon="4.7301">
        <ele>435</ele>
        <time>2012-05-19T07:04:11Z</time>
      </trkpt>
      <trkpt lat="45.54197" lon="4.72991">
        <ele>435</ele>
        <time>2012-05-19T07:04:14Z</time>
      </trkpt>
      <trkpt lat="45.54198" lon="4.72983">
        <ele>435</ele>
        <time>2012-05-19T07:04:15Z</time>
      </trkpt>
      <trkpt lat="45.54197" lon="4.72976">
        <ele>435</ele>
        <time>2012-05-19T07:04:16Z</time>
      </trkpt>
      <trkpt lat="45.54195" lon="4.7297">
        <ele>435</ele>
        <time>2012-05-19T07:04:17Z</time>
      </trkpt>
      <trkpt lat="45.54192" lon="4.72964">
        <ele>435</ele>
        <time>2012-05-19T07:04:18Z</time>
      </trkpt>
      <trkpt lat="45.54189" lon="4.72959">
        <ele>434</ele>
        <time>2012-05-19T07:04:19Z</time>
      </trkpt>
      <trkpt lat="45.54186" lon="4.72954">
        <ele>434</ele>
        <time>2012-05-19T07:04:20Z</time>
      </trkpt>
      <trkpt lat="45.54155" lon="4.72912">
        <ele>435</ele>
        <time>2012-05-19T07:04:29Z</time>
      </trkpt>
      <trkpt lat="45.54148" lon="4.72903">
        <ele>435</ele>
        <time>2012-05-19T07:04:31Z</time>
      </trkpt>
      <trkpt lat="45.54145" lon="4.72898">
        <ele>436</ele>
        <time>2012-05-19T07:04:32Z</time>
      </trkpt>
      <trkpt lat="45.54123" lon="4.72857">
        <ele>438</ele>
        <time>2012-05-19T07:04:40Z</time>
      </trkpt>
      <trkpt lat="45.54105" lon="4.72808">
        <ele>440</ele>
        <time>2012-05-19T07:04:50Z</time>
      </trkpt>
      <trkpt lat="45.54085" lon="4.72754">
        <ele>441</ele>
        <time>2012-05-19T07:05:01Z</time>
      </trkpt>
      <trkpt lat="45.5407" lon="4.72713">
        <ele>441</ele>
        <time>2012-05-19T07:05:09Z</time>
      </trkpt>
      <trkpt lat="45.54058" lon="4.72681">
        <ele>440</ele>
        <time>2012-05-19T07:05:14Z</time>
      </trkpt>
      <trkpt lat="45.54053" lon="4.72666">
        <ele>439</ele>
        <time>2012-05-19T07:05:16Z</time>
      </trkpt>
      <trkpt lat="45.5405" lon="4.72659">
        <ele>439</ele>
        <time>2012-05-19T07:05:17Z</time>
      </trkpt>
      <trkpt lat="45.54047" lon="4.72653">
        <ele>439</ele>
        <time>2012-05-19T07:05:18Z</time>
      </trkpt>
      <trkpt lat="45.54043" lon="4.72651">
        <ele>438</ele>
        <time>2012-05-19T07:05:19Z</time>
      </trkpt>
      <trkpt lat="45.54038" lon="4.72652">
        <ele>439</ele>
        <time>2012-05-19T07:05:20Z</time>
      </trkpt>
      <trkpt lat="45.54034" lon="4.72656">
        <ele>438</ele>
        <time>2012-05-19T07:05:21Z</time>
      </trkpt>
      <trkpt lat="45.5403" lon="4.72661">
        <ele>438</ele>
        <time>2012-05-19T07:05:22Z</time>
      </trkpt>
      <trkpt lat="45.54004" lon="4.72689">
        <ele>436</ele>
        <time>2012-05-19T07:05:28Z</time>
      </trkpt>
      <trkpt lat="45.53999" lon="4.72693">
        <ele>436</ele>
        <time>2012-05-19T07:05:29Z</time>
      </trkpt>
      <trkpt lat="45.53994" lon="4.72698">
        <ele>435</ele>
        <time>2012-05-19T07:05:30Z</time>
      </trkpt>
      <trkpt lat="45.53988" lon="4.72703">
        <ele>435</ele>
        <time>2012-05-19T07:05:31Z</time>
      </trkpt>
      <trkpt lat="45.53981" lon="4.72708">
        <ele>434</ele>
        <time>2012-05-19T07:05:32Z</time>
      </trkpt>
      <trkpt lat="45.53975" lon="4.72712">
        <ele>434</ele>
        <time>2012-05-19T07:05:33Z</time>
      </trkpt>
      <trkpt lat="45.53962" lon="4.72721">
        <ele>433</ele>
        <time>2012-05-19T07:05:35Z</time>
      </trkpt>
      <trkpt lat="45.53954" lon="4.72724">
        <ele>432</ele>
        <time>2012-05-19T07:05:36Z</time>
      </trkpt>
      <trkpt lat="45.53931" lon="4.72735">
        <ele>430</ele>
        <time>2012-05-19T07:05:39Z</time>
      </trkpt>
      <trkpt lat="45.53892" lon="4.72753">
        <ele>427</ele>
        <time>2012-05-19T07:05:44Z</time>
      </trkpt>
      <trkpt lat="45.53867" lon="4.72765">
        <ele>425</ele>
        <time>2012-05-19T07:05:47Z</time>
      </trkpt>
      <trkpt lat="45.53859" lon="4.7277">
        <ele>425</ele>
        <time>2012-05-19T07:05:48Z</time>
      </trkpt>
      <trkpt lat="45.53851" lon="4.72776">
        <ele>424</ele>
        <time>2012-05-19T07:05:49Z</time>
      </trkpt>
      <trkpt lat="45.53843" lon="4.72781">
        <ele>423</ele>
        <time>2012-05-19T07:05:50Z</time>
      </trkpt>
      <trkpt lat="45.53835" lon="4.72786">
        <ele>422</ele>
        <time>2012-05-19T07:05:51Z</time>
      </trkpt>
      <trkpt lat="45.53828" lon="4.72792">
        <ele>422</ele>
        <time>2012-05-19T07:05:52Z</time>
      </trkpt>
      <trkpt lat="45.53821" lon="4.72801">
        <ele>420</ele>
        <time>2012-05-19T07:05:53Z</time>
      </trkpt>
      <trkpt lat="45.53815" lon="4.72809">
        <ele>419</ele>
        <time>2012-05-19T07:05:54Z</time>
      </trkpt>
      <trkpt lat="45.53808" lon="4.72818">
        <ele>419</ele>
        <time>2012-05-19T07:05:55Z</time>
      </trkpt>
      <trkpt lat="45.53801" lon="4.72825">
        <ele>418</ele>
        <time>2012-05-19T07:05:56Z</time>
      </trkpt>
      <trkpt lat="45.53793" lon="4.7283">
        <ele>417</ele>
        <time>2012-05-19T07:05:57Z</time>
      </trkpt>
      <trkpt lat="45.53784" lon="4.72834">
        <ele>416</ele>
        <time>2012-05-19T07:05:58Z</time>
      </trkpt>
      <trkpt lat="45.53767" lon="4.72842">
        <ele>416</ele>
        <time>2012-05-19T07:06:00Z</time>
      </trkpt>
      <trkpt lat="45.53743" lon="4.72857">
        <ele>413</ele>
        <time>2012-05-19T07:06:03Z</time>
      </trkpt>
      <trkpt lat="45.53735" lon="4.72863">
        <ele>413</ele>
        <time>2012-05-19T07:06:04Z</time>
      </trkpt>
      <trkpt lat="45.53728" lon="4.72871">
        <ele>412</ele>
        <time>2012-05-19T07:06:05Z</time>
      </trkpt>
      <trkpt lat="45.53715" lon="4.72887">
        <ele>411</ele>
        <time>2012-05-19T07:06:07Z</time>
      </trkpt>
      <trkpt lat="45.53701" lon="4.72899">
        <ele>409</ele>
        <time>2012-05-19T07:06:09Z</time>
      </trkpt>
      <trkpt lat="45.53692" lon="4.72904">
        <ele>409</ele>
        <time>2012-05-19T07:06:10Z</time>
      </trkpt>
      <trkpt lat="45.53683" lon="4.7291">
        <ele>408</ele>
        <time>2012-05-19T07:06:11Z</time>
      </trkpt>
      <trkpt lat="45.53675" lon="4.72916">
        <ele>407</ele>
        <time>2012-05-19T07:06:12Z</time>
      </trkpt>
      <trkpt lat="45.53666" lon="4.72922">
        <ele>406</ele>
        <time>2012-05-19T07:06:13Z</time>
      </trkpt>
      <trkpt lat="45.53657" lon="4.72927">
        <ele>406</ele>
        <time>2012-05-19T07:06:14Z</time>
      </trkpt>
      <trkpt lat="45.53623" lon="4.72949">
        <ele>402</ele>
        <time>2012-05-19T07:06:18Z</time>
      </trkpt>
      <trkpt lat="45.53588" lon="4.72973">
        <ele>399</ele>
        <time>2012-05-19T07:06:22Z</time>
      </trkpt>
      <trkpt lat="45.5357" lon="4.72981">
        <ele>398</ele>
        <time>2012-05-19T07:06:24Z</time>
      </trkpt>
      <trkpt lat="45.53542" lon="4.72992">
        <ele>396</ele>
        <time>2012-05-19T07:06:27Z</time>
      </trkpt>
      <trkpt lat="45.53496" lon="4.73013">
        <ele>392</ele>
        <time>2012-05-19T07:06:32Z</time>
      </trkpt>
      <trkpt lat="45.53478" lon="4.73021">
        <ele>391</ele>
        <time>2012-05-19T07:06:34Z</time>
      </trkpt>
      <trkpt lat="45.53443" lon="4.73037">
        <ele>388</ele>
        <time>2012-05-19T07:06:38Z</time>
      </trkpt>
      <trkpt lat="45.53435" lon="4.73041">
        <ele>386</ele>
        <time>2012-05-19T07:06:39Z</time>
      </trkpt>
      <trkpt lat="45.53427" lon="4.73045">
        <ele>386</ele>
        <time>2012-05-19T07:06:40Z</time>
      </trkpt>
      <trkpt lat="45.53419" lon="4.73049">
        <ele>385</ele>
        <time>2012-05-19T07:06:41Z</time>
      </trkpt>
      <trkpt lat="45.53413" lon="4.73054">
        <ele>385</ele>
        <time>2012-05-19T07:06:42Z</time>
      </trkpt>
      <trkpt lat="45.53407" lon="4.7306">
        <ele>383</ele>
        <time>2012-05-19T07:06:43Z</time>
      </trkpt>
      <trkpt lat="45.53404" lon="4.73066">
        <ele>383</ele>
        <time>2012-05-19T07:06:44Z</time>
      </trkpt>
      <trkpt lat="45.53401" lon="4.73075">
        <ele>382</ele>
        <time>2012-05-19T07:06:45Z</time>
      </trkpt>
      <trkpt lat="45.53401" lon="4.73085">
        <ele>382</ele>
        <time>2012-05-19T07:06:46Z</time>
      </trkpt>
      <trkpt lat="45.53403" lon="4.73095">
        <ele>381</ele>
        <time>2012-05-19T07:06:47Z</time>
      </trkpt>
      <trkpt lat="45.53405" lon="4.73105">
        <ele>380</ele>
        <time>2012-05-19T07:06:48Z</time>
      </trkpt>
      <trkpt lat="45.53407" lon="4.73116">
        <ele>380</ele>
        <time>2012-05-19T07:06:49Z</time>
      </trkpt>
      <trkpt lat="45.53415" lon="4.73146">
        <ele>378</ele>
        <time>2012-05-19T07:06:52Z</time>
      </trkpt>
      <trkpt lat="45.53428" lon="4.73177">
        <ele>376</ele>
        <time>2012-05-19T07:06:55Z</time>
      </trkpt>
      <trkpt lat="45.53433" lon="4.73187">
        <ele>376</ele>
        <time>2012-05-19T07:06:56Z</time>
      </trkpt>
      <trkpt lat="45.53443" lon="4.73206">
        <ele>375</ele>
        <time>2012-05-19T07:06:58Z</time>
      </trkpt>
      <trkpt lat="45.53451" lon="4.73224">
        <ele>374</ele>
        <time>2012-05-19T07:07:00Z</time>
      </trkpt>
      <trkpt lat="45.53459" lon="4.73245">
        <ele>373</ele>
        <time>2012-05-19T07:07:02Z</time>
      </trkpt>
      <trkpt lat="45.53472" lon="4.73292">
        <ele>371</ele>
        <time>2012-05-19T07:07:07Z</time>
      </trkpt>
      <trkpt lat="45.53474" lon="4.733">
        <ele>371</ele>
        <time>2012-05-19T07:07:08Z</time>
      </trkpt>
      <trkpt lat="45.53477" lon="4.73306">
        <ele>371</ele>
        <time>2012-05-19T07:07:09Z</time>
      </trkpt>
      <trkpt lat="45.5348" lon="4.7331">
        <ele>371</ele>
        <time>2012-05-19T07:07:10Z</time>
      </trkpt>
      <trkpt lat="45.53482" lon="4.73312">
        <ele>372</ele>
        <time>2012-05-19T07:07:11Z</time>
      </trkpt>
      <trkpt lat="45.53482" lon="4.7331">
        <ele>373</ele>
        <time>2012-05-19T07:07:12Z</time>
      </trkpt>
      <trkpt lat="45.53482" lon="4.73308">
        <ele>373</ele>
        <time>2012-05-19T07:07:13Z</time>
      </trkpt>
      <trkpt lat="45.53482" lon="4.73306">
        <ele>373</ele>
        <time>2012-05-19T07:07:14Z</time>
      </trkpt>
      <trkpt lat="45.53471" lon="4.73297">
        <ele>373</ele>
        <time>2012-05-19T07:07:15Z</time>
      </trkpt>
      <trkpt lat="45.53441" lon="4.73276">
        <ele>374</ele>
        <time>2012-05-19T07:07:18Z</time>
      </trkpt>
      <trkpt lat="45.53432" lon="4.7327">
        <ele>373</ele>
        <time>2012-05-19T07:07:19Z</time>
      </trkpt>
      <trkpt lat="45.53397" lon="4.73249">
        <ele>375</ele>
        <time>2012-05-19T07:07:25Z</time>
      </trkpt>
      <trkpt lat="45.53375" lon="4.73252">
        <ele>376</ele>
        <time>2012-05-19T07:07:30Z</time>
      </trkpt>
      <trkpt lat="45.53363" lon="4.73273">
        <ele>376</ele>
        <time>2012-05-19T07:07:35Z</time>
      </trkpt>
      <trkpt lat="45.53355" lon="4.73293">
        <ele>376</ele>
        <time>2012-05-19T07:07:40Z</time>
      </trkpt>
      <trkpt lat="45.53351" lon="4.73316">
        <ele>377</ele>
        <time>2012-05-19T07:07:45Z</time>
      </trkpt>
      <trkpt lat="45.53347" lon="4.73334">
        <ele>378</ele>
        <time>2012-05-19T07:07:49Z</time>
      </trkpt>
      <trkpt lat="45.53347" lon="4.73339">
        <ele>378</ele>
        <time>2012-05-19T07:07:50Z</time>
      </trkpt>
      <trkpt lat="45.53346" lon="4.73343">
        <ele>378</ele>
        <time>2012-05-19T07:07:51Z</time>
      </trkpt>
      <trkpt lat="45.53345" lon="4.73348">
        <ele>379</ele>
        <time>2012-05-19T07:07:52Z</time>
      </trkpt>
      <trkpt lat="45.53344" lon="4.73352">
        <ele>379</ele>
        <time>2012-05-19T07:07:53Z</time>
      </trkpt>
      <trkpt lat="45.53343" lon="4.73356">
        <ele>379</ele>
        <time>2012-05-19T07:07:54Z</time>
      </trkpt>
      <trkpt lat="45.53343" lon="4.73359">
        <ele>379</ele>
        <time>2012-05-19T07:07:55Z</time>
      </trkpt>
      <trkpt lat="45.53342" lon="4.73376">
        <ele>379</ele>
        <time>2012-05-19T07:07:59Z</time>
      </trkpt>
      <trkpt lat="45.53341" lon="4.73379">
        <ele>379</ele>
        <time>2012-05-19T07:08:00Z</time>
      </trkpt>
      <trkpt lat="45.5334" lon="4.73383">
        <ele>380</ele>
        <time>2012-05-19T07:08:01Z</time>
      </trkpt>
      <trkpt lat="45.53337" lon="4.73399">
        <ele>380</ele>
        <time>2012-05-19T07:08:05Z</time>
      </trkpt>
      <trkpt lat="45.53334" lon="4.734">
        <ele>380</ele>
        <time>2012-05-19T07:08:06Z</time>
      </trkpt>
      <trkpt lat="45.53331" lon="4.73401">
        <ele>380</ele>
        <time>2012-05-19T07:08:07Z</time>
      </trkpt>
      <trkpt lat="45.53327" lon="4.73401">
        <ele>380</ele>
        <time>2012-05-19T07:08:08Z</time>
      </trkpt>
      <trkpt lat="45.53324" lon="4.73401">
        <ele>380</ele>
        <time>2012-05-19T07:08:09Z</time>
      </trkpt>
      <trkpt lat="45.5332" lon="4.73398">
        <ele>380</ele>
        <time>2012-05-19T07:08:10Z</time>
      </trkpt>
      <trkpt lat="45.53318" lon="4.73395">
        <ele>380</ele>
        <time>2012-05-19T07:08:11Z</time>
      </trkpt>
      <trkpt lat="45.53316" lon="4.73392">
        <ele>381</ele>
        <time>2012-05-19T07:08:12Z</time>
      </trkpt>
      <trkpt lat="45.53315" lon="4.73389">
        <ele>381</ele>
        <time>2012-05-19T07:08:13Z</time>
      </trkpt>
      <trkpt lat="45.53315" lon="4.73385">
        <ele>381</ele>
        <time>2012-05-19T07:08:14Z</time>
      </trkpt>
      <trkpt lat="45.53315" lon="4.73381">
        <ele>381</ele>
        <time>2012-05-19T07:08:15Z</time>
      </trkpt>
      <trkpt lat="45.53315" lon="4.73378">
        <ele>382</ele>
        <time>2012-05-19T07:08:16Z</time>
      </trkpt>
      <trkpt lat="45.53314" lon="4.73374">
        <ele>381</ele>
        <time>2012-05-19T07:08:17Z</time>
      </trkpt>
      <trkpt lat="45.53314" lon="4.73371">
        <ele>382</ele>
        <time>2012-05-19T07:08:18Z</time>
      </trkpt>
      <trkpt lat="45.53313" lon="4.73356">
        <ele>383</ele>
        <time>2012-05-19T07:08:23Z</time>
      </trkpt>
      <trkpt lat="45.53311" lon="4.73334">
        <ele>384</ele>
        <time>2012-05-19T07:08:30Z</time>
      </trkpt>
      <trkpt lat="45.53308" lon="4.73314">
        <ele>386</ele>
        <time>2012-05-19T07:08:37Z</time>
      </trkpt>
      <trkpt lat="45.53307" lon="4.73302">
        <ele>386</ele>
        <time>2012-05-19T07:08:41Z</time>
      </trkpt>
      <trkpt lat="45.53306" lon="4.73299">
        <ele>387</ele>
        <time>2012-05-19T07:08:42Z</time>
      </trkpt>
      <trkpt lat="45.53305" lon="4.73296">
        <ele>387</ele>
        <time>2012-05-19T07:08:43Z</time>
      </trkpt>
      <trkpt lat="45.53304" lon="4.73293">
        <ele>387</ele>
        <time>2012-05-19T07:08:44Z</time>
      </trkpt>
      <trkpt lat="45.53305" lon="4.73288">
        <ele>388</ele>
        <time>2012-05-19T07:08:45Z</time>
      </trkpt>
      <trkpt lat="45.53305" lon="4.73284">
        <ele>387</ele>
        <time>2012-05-19T07:08:46Z</time>
      </trkpt>
      <trkpt lat="45.53306" lon="4.73279">
        <ele>388</ele>
        <time>2012-05-19T07:08:47Z</time>
      </trkpt>
      <trkpt lat="45.53306" lon="4.73275">
        <ele>388</ele>
        <time>2012-05-19T07:08:48Z</time>
      </trkpt>
      <trkpt lat="45.53306" lon="4.73271">
        <ele>388</ele>
        <time>2012-05-19T07:08:49Z</time>
      </trkpt>
      <trkpt lat="45.53306" lon="4.73267">
        <ele>388</ele>
        <time>2012-05-19T07:08:50Z</time>
      </trkpt>
      <trkpt lat="45.53306" lon="4.73263">
        <ele>388</ele>
        <time>2012-05-19T07:08:51Z</time>
      </trkpt>
      <trkpt lat="45.53305" lon="4.73248">
        <ele>389</ele>
        <time>2012-05-19T07:08:55Z</time>
      </trkpt>
      <trkpt lat="45.53304" lon="4.73244">
        <ele>389</ele>
        <time>2012-05-19T07:08:56Z</time>
      </trkpt>
      <trkpt lat="45.53299" lon="4.73224">
        <ele>390</ele>
        <time>2012-05-19T07:09:02Z</time>
      </trkpt>
      <trkpt lat="45.53288" lon="4.7322">
        <ele>391</ele>
        <time>2012-05-19T07:09:07Z</time>
      </trkpt>
      <trkpt lat="45.53273" lon="4.7323">
        <ele>393</ele>
        <time>2012-05-19T07:09:14Z</time>
      </trkpt>
      <trkpt lat="45.53268" lon="4.73236">
        <ele>394</ele>
        <time>2012-05-19T07:09:17Z</time>
      </trkpt>
      <trkpt lat="45.53267" lon="4.73238">
        <ele>394</ele>
        <time>2012-05-19T07:09:18Z</time>
      </trkpt>
      <trkpt lat="45.53265" lon="4.7324">
        <ele>394</ele>
        <time>2012-05-19T07:09:19Z</time>
      </trkpt>
      <trkpt lat="45.53264" lon="4.73241">
        <ele>394</ele>
        <time>2012-05-19T07:09:20Z</time>
      </trkpt>
      <trkpt lat="45.53262" lon="4.73242">
        <ele>394</ele>
        <time>2012-05-19T07:09:21Z</time>
      </trkpt>
      <trkpt lat="45.5326" lon="4.73243">
        <ele>394</ele>
        <time>2012-05-19T07:09:22Z</time>
      </trkpt>
      <trkpt lat="45.53242" lon="4.73243">
        <ele>396</ele>
        <time>2012-05-19T07:09:29Z</time>
      </trkpt>
      <trkpt lat="45.53229" lon="4.73235">
        <ele>397</ele>
        <time>2012-05-19T07:09:35Z</time>
      </trkpt>
      <trkpt lat="45.53216" lon="4.73227">
        <ele>398</ele>
        <time>2012-05-19T07:09:41Z</time>
      </trkpt>
      <trkpt lat="45.53209" lon="4.73228">
        <ele>399</ele>
        <time>2012-05-19T07:09:45Z</time>
      </trkpt>
      <trkpt lat="45.53207" lon="4.7323">
        <ele>399</ele>
        <time>2012-05-19T07:09:46Z</time>
      </trkpt>
      <trkpt lat="45.53205" lon="4.73231">
        <ele>399</ele>
        <time>2012-05-19T07:09:47Z</time>
      </trkpt>
      <trkpt lat="45.53204" lon="4.73233">
        <ele>399</ele>
        <time>2012-05-19T07:09:48Z</time>
      </trkpt>
      <trkpt lat="45.53203" lon="4.73235">
        <ele>400</ele>
        <time>2012-05-19T07:09:49Z</time>
      </trkpt>
      <trkpt lat="45.53202" lon="4.73237">
        <ele>400</ele>
        <time>2012-05-19T07:09:50Z</time>
      </trkpt>
      <trkpt lat="45.53201" lon="4.73238">
        <ele>400</ele>
        <time>2012-05-19T07:09:51Z</time>
      </trkpt>
      <trkpt lat="45.53199" lon="4.73241">
        <ele>400</ele>
        <time>2012-05-19T07:09:54Z</time>
      </trkpt>
      <trkpt lat="45.53197" lon="4.73242">
        <ele>400</ele>
        <time>2012-05-19T07:09:55Z</time>
      </trkpt>
      <trkpt lat="45.53187" lon="4.73252">
        <ele>402</ele>
        <time>2012-05-19T07:10:04Z</time>
      </trkpt>
      <trkpt lat="45.53181" lon="4.73259">
        <ele>404</ele>
        <time>2012-05-19T07:10:10Z</time>
      </trkpt>
      <trkpt lat="45.5318" lon="4.7326">
        <ele>404</ele>
        <time>2012-05-19T07:10:11Z</time>
      </trkpt>
      <trkpt lat="45.53179" lon="4.73261">
        <ele>404</ele>
        <time>2012-05-19T07:10:12Z</time>
      </trkpt>
      <trkpt lat="45.53177" lon="4.73262">
        <ele>404</ele>
        <time>2012-05-19T07:10:13Z</time>
      </trkpt>
      <trkpt lat="45.53176" lon="4.73263">
        <ele>404</ele>
        <time>2012-05-19T07:10:14Z</time>
      </trkpt>
      <trkpt lat="45.53175" lon="4.73263">
        <ele>405</ele>
        <time>2012-05-19T07:10:15Z</time>
      </trkpt>
      <trkpt lat="45.53174" lon="4.73265">
        <ele>405</ele>
        <time>2012-05-19T07:10:16Z</time>
      </trkpt>
      <trkpt lat="45.53173" lon="4.73266">
        <ele>405</ele>
        <time>2012-05-19T07:10:17Z</time>
      </trkpt>
      <trkpt lat="45.53163" lon="4.73274">
        <ele>407</ele>
        <time>2012-05-19T07:10:25Z</time>
      </trkpt>
      <trkpt lat="45.53153" lon="4.73283">
        <ele>408</ele>
        <time>2012-05-19T07:10:33Z</time>
      </trkpt>
      <trkpt lat="45.53149" lon="4.73286">
        <ele>409</ele>
        <time>2012-05-19T07:10:36Z</time>
      </trkpt>
      <trkpt lat="45.53141" lon="4.73295">
        <ele>410</ele>
        <time>2012-05-19T07:10:43Z</time>
      </trkpt>
      <trkpt lat="45.5314" lon="4.73296">
        <ele>411</ele>
        <time>2012-05-19T07:10:44Z</time>
      </trkpt>
      <trkpt lat="45.53138" lon="4.73297">
        <ele>411</ele>
        <time>2012-05-19T07:10:45Z</time>
      </trkpt>
      <trkpt lat="45.53137" lon="4.73298">
        <ele>411</ele>
        <time>2012-05-19T07:10:46Z</time>
      </trkpt>
      <trkpt lat="45.53136" lon="4.73299">
        <ele>412</ele>
        <time>2012-05-19T07:10:47Z</time>
      </trkpt>
      <trkpt lat="45.53134" lon="4.733">
        <ele>412</ele>
        <time>2012-05-19T07:10:48Z</time>
      </trkpt>
      <trkpt lat="45.53132" lon="4.73304">
        <ele>412</ele>
        <time>2012-05-19T07:10:51Z</time>
      </trkpt>
      <trkpt lat="45.53131" lon="4.73305">
        <ele>413</ele>
        <time>2012-05-19T07:10:52Z</time>
      </trkpt>
      <trkpt lat="45.5313" lon="4.73306">
        <ele>413</ele>
        <time>2012-05-19T07:10:53Z</time>
      </trkpt>
      <trkpt lat="45.53118" lon="4.73318">
        <ele>414</ele>
        <time>2012-05-19T07:11:03Z</time>
      </trkpt>
      <trkpt lat="45.53111" lon="4.73325">
        <ele>416</ele>
        <time>2012-05-19T07:11:10Z</time>
      </trkpt>
      <trkpt lat="45.531" lon="4.73338">
        <ele>418</ele>
        <time>2012-05-19T07:11:20Z</time>
      </trkpt>
      <trkpt lat="45.53096" lon="4.73341">
        <ele>418</ele>
        <time>2012-05-19T07:11:23Z</time>
      </trkpt>
      <trkpt lat="45.53095" lon="4.73342">
        <ele>418</ele>
        <time>2012-05-19T07:11:24Z</time>
      </trkpt>
      <trkpt lat="45.53094" lon="4.73344">
        <ele>419</ele>
        <time>2012-05-19T07:11:25Z</time>
      </trkpt>
      <trkpt lat="45.53084" lon="4.73354">
        <ele>419</ele>
        <time>2012-05-19T07:11:33Z</time>
      </trkpt>
      <trkpt lat="45.53074" lon="4.73366">
        <ele>421</ele>
        <time>2012-05-19T07:11:41Z</time>
      </trkpt>
      <trkpt lat="45.53064" lon="4.73379">
        <ele>421</ele>
        <time>2012-05-19T07:11:49Z</time>
      </trkpt>
      <trkpt lat="45.53047" lon="4.73397">
        <ele>420</ele>
        <time>2012-05-19T07:11:57Z</time>
      </trkpt>
      <trkpt lat="45.53028" lon="4.73418">
        <ele>420</ele>
        <time>2012-05-19T07:12:04Z</time>
      </trkpt>
      <trkpt lat="45.53004" lon="4.73442">
        <ele>420</ele>
        <time>2012-05-19T07:12:14Z</time>
      </trkpt>
      <trkpt lat="45.52988" lon="4.73461">
        <ele>421</ele>
        <time>2012-05-19T07:12:21Z</time>
      </trkpt>
      <trkpt lat="45.52974" lon="4.73479">
        <ele>422</ele>
        <time>2012-05-19T07:12:28Z</time>
      </trkpt>
      <trkpt lat="45.52964" lon="4.73501">
        <ele>423</ele>
        <time>2012-05-19T07:12:35Z</time>
      </trkpt>
      <trkpt lat="45.52959" lon="4.73523">
        <ele>425</ele>
        <time>2012-05-19T07:12:42Z</time>
      </trkpt>
      <trkpt lat="45.52956" lon="4.73546">
        <ele>426</ele>
        <time>2012-05-19T07:12:49Z</time>
      </trkpt>
      <trkpt lat="45.52952" lon="4.73576">
        <ele>426</ele>
        <time>2012-05-19T07:12:58Z</time>
      </trkpt>
      <trkpt lat="45.52949" lon="4.73604">
        <ele>427</ele>
        <time>2012-05-19T07:13:06Z</time>
      </trkpt>
      <trkpt lat="45.5294" lon="4.73637">
        <ele>426</ele>
        <time>2012-05-19T07:13:15Z</time>
      </trkpt>
      <trkpt lat="45.52923" lon="4.73658">
        <ele>427</ele>
        <time>2012-05-19T07:13:22Z</time>
      </trkpt>
      <trkpt lat="45.52905" lon="4.73677">
        <ele>429</ele>
        <time>2012-05-19T07:13:30Z</time>
      </trkpt>
      <trkpt lat="45.52889" lon="4.73698">
        <ele>431</ele>
        <time>2012-05-19T07:13:39Z</time>
      </trkpt>
      <trkpt lat="45.52878" lon="4.73721">
        <ele>432</ele>
        <time>2012-05-19T07:13:47Z</time>
      </trkpt>
      <trkpt lat="45.52871" lon="4.73741">
        <ele>433</ele>
        <time>2012-05-19T07:13:54Z</time>
      </trkpt>
      <trkpt lat="45.5286" lon="4.73766">
        <ele>436</ele>
        <time>2012-05-19T07:14:03Z</time>
      </trkpt>
      <trkpt lat="45.52854" lon="4.73786">
        <ele>436</ele>
        <time>2012-05-19T07:14:10Z</time>
      </trkpt>
      <trkpt lat="45.52844" lon="4.73808">
        <ele>437</ele>
        <time>2012-05-19T07:14:18Z</time>
      </trkpt>
      <trkpt lat="45.52835" lon="4.73826">
        <ele>438</ele>
        <time>2012-05-19T07:14:25Z</time>
      </trkpt>
      <trkpt lat="45.52825" lon="4.73844">
        <ele>440</ele>
        <time>2012-05-19T07:14:33Z</time>
      </trkpt>
      <trkpt lat="45.52815" lon="4.73866">
        <ele>443</ele>
        <time>2012-05-19T07:14:43Z</time>
      </trkpt>
      <trkpt lat="45.52802" lon="4.73893">
        <ele>444</ele>
        <time>2012-05-19T07:14:55Z</time>
      </trkpt>
      <trkpt lat="45.52792" lon="4.73911">
        <ele>446</ele>
        <time>2012-05-19T07:15:04Z</time>
      </trkpt>
      <trkpt lat="45.52786" lon="4.73922">
        <ele>447</ele>
        <time>2012-05-19T07:15:10Z</time>
      </trkpt>
      <trkpt lat="45.52786" lon="4.73925">
        <ele>448</ele>
        <time>2012-05-19T07:15:11Z</time>
      </trkpt>
      <trkpt lat="45.52787" lon="4.73926">
        <ele>448</ele>
        <time>2012-05-19T07:15:12Z</time>
      </trkpt>
      <trkpt lat="45.52787" lon="4.73927">
        <ele>448</ele>
        <time>2012-05-19T07:15:13Z</time>
      </trkpt>
      <trkpt lat="45.52789" lon="4.73927">
        <ele>448</ele>
        <time>2012-05-19T07:15:14Z</time>
      </trkpt>
      <trkpt lat="45.52791" lon="4.73927">
        <ele>448</ele>
        <time>2012-05-19T07:15:15Z</time>
      </trkpt>
      <trkpt lat="45.52804" lon="4.73925">
        <ele>451</ele>
        <time>2012-05-19T07:15:23Z</time>
      </trkpt>
      <trkpt lat="45.52807" lon="4.73925">
        <ele>451</ele>
        <time>2012-05-19T07:15:25Z</time>
      </trkpt>
      <trkpt lat="45.52808" lon="4.73925">
        <ele>451</ele>
        <time>2012-05-19T07:15:26Z</time>
      </trkpt>
      <trkpt lat="45.5281" lon="4.73926">
        <ele>451</ele>
        <time>2012-05-19T07:15:27Z</time>
      </trkpt>
      <trkpt lat="45.52811" lon="4.73926">
        <ele>451</ele>
        <time>2012-05-19T07:15:28Z</time>
      </trkpt>
      <trkpt lat="45.52813" lon="4.73926">
        <ele>451</ele>
        <time>2012-05-19T07:15:29Z</time>
      </trkpt>
      <trkpt lat="45.52827" lon="4.73925">
        <ele>453</ele>
        <time>2012-05-19T07:15:38Z</time>
      </trkpt>
      <trkpt lat="45.52838" lon="4.73926">
        <ele>455</ele>
        <time>2012-05-19T07:15:45Z</time>
      </trkpt>
      <trkpt lat="45.52851" lon="4.73927">
        <ele>457</ele>
        <time>2012-05-19T07:15:54Z</time>
      </trkpt>
      <trkpt lat="45.5286" lon="4.73928">
        <ele>459</ele>
        <time>2012-05-19T07:16:00Z</time>
      </trkpt>
      <trkpt lat="45.52861" lon="4.73929">
        <ele>459</ele>
        <time>2012-05-19T07:16:01Z</time>
      </trkpt>
      <trkpt lat="45.52863" lon="4.73929">
        <ele>459</ele>
        <time>2012-05-19T07:16:02Z</time>
      </trkpt>
      <trkpt lat="45.52878" lon="4.73937">
        <ele>462</ele>
        <time>2012-05-19T07:16:12Z</time>
      </trkpt>
      <trkpt lat="45.52887" lon="4.73951">
        <ele>464</ele>
        <time>2012-05-19T07:16:20Z</time>
      </trkpt>
      <trkpt lat="45.52896" lon="4.73968">
        <ele>466</ele>
        <time>2012-05-19T07:16:29Z</time>
      </trkpt>
      <trkpt lat="45.52906" lon="4.73981">
        <ele>467</ele>
        <time>2012-05-19T07:16:38Z</time>
      </trkpt>
      <trkpt lat="45.52919" lon="4.73997">
        <ele>468</ele>
        <time>2012-05-19T07:16:47Z</time>
      </trkpt>
      <trkpt lat="45.52931" lon="4.74014">
        <ele>469</ele>
        <time>2012-05-19T07:16:56Z</time>
      </trkpt>
      <trkpt lat="45.52939" lon="4.74028">
        <ele>469</ele>
        <time>2012-05-19T07:17:03Z</time>
      </trkpt>
      <trkpt lat="45.5295" lon="4.74049">
        <ele>468</ele>
        <time>2012-05-19T07:17:11Z</time>
      </trkpt>
      <trkpt lat="45.52951" lon="4.74051">
        <ele>467</ele>
        <time>2012-05-19T07:17:16Z</time>
      </trkpt>
      <trkpt lat="45.52951" lon="4.74052">
        <ele>468</ele>
        <time>2012-05-19T07:17:30Z</time>
      </trkpt>
      <trkpt lat="45.52951" lon="4.74052">
        <ele>467</ele>
        <time>2012-05-19T07:17:42Z</time>
      </trkpt>
      <trkpt lat="45.52951" lon="4.74055">
        <ele>468</ele>
        <time>2012-05-19T07:17:56Z</time>
      </trkpt>
      <trkpt lat="45.52952" lon="4.74057">
        <ele>468</ele>
        <time>2012-05-19T07:17:57Z</time>
      </trkpt>
      <trkpt lat="45.52954" lon="4.7406">
        <ele>468</ele>
        <time>2012-05-19T07:17:58Z</time>
      </trkpt>
      <trkpt lat="45.52965" lon="4.74086">
        <ele>466</ele>
        <time>2012-05-19T07:18:04Z</time>
      </trkpt>
      <trkpt lat="45.52967" lon="4.74091">
        <ele>466</ele>
        <time>2012-05-19T07:18:05Z</time>
      </trkpt>
      <trkpt lat="45.5298" lon="4.74123">
        <ele>465</ele>
        <time>2012-05-19T07:18:11Z</time>
      </trkpt>
      <trkpt lat="45.52984" lon="4.74127">
        <ele>464</ele>
        <time>2012-05-19T07:18:12Z</time>
      </trkpt>
      <trkpt lat="45.52998" lon="4.74139">
        <ele>464</ele>
        <time>2012-05-19T07:18:16Z</time>
      </trkpt>
      <trkpt lat="45.53023" lon="4.74159">
        <ele>463</ele>
        <time>2012-05-19T07:18:24Z</time>
      </trkpt>
      <trkpt lat="45.53046" lon="4.74189">
        <ele>463</ele>
        <time>2012-05-19T07:18:33Z</time>
      </trkpt>
      <trkpt lat="45.53063" lon="4.74214">
        <ele>464</ele>
        <time>2012-05-19T07:18:41Z</time>
      </trkpt>
      <trkpt lat="45.53079" lon="4.74245">
        <ele>463</ele>
        <time>2012-05-19T07:18:49Z</time>
      </trkpt>
      <trkpt lat="45.53088" lon="4.74273">
        <ele>463</ele>
        <time>2012-05-19T07:18:56Z</time>
      </trkpt>
      <trkpt lat="45.5309" lon="4.74276">
        <ele>463</ele>
        <time>2012-05-19T07:18:57Z</time>
      </trkpt>
      <trkpt lat="45.53092" lon="4.74279">
        <ele>463</ele>
        <time>2012-05-19T07:18:58Z</time>
      </trkpt>
      <trkpt lat="45.53095" lon="4.74281">
        <ele>463</ele>
        <time>2012-05-19T07:18:59Z</time>
      </trkpt>
      <trkpt lat="45.53097" lon="4.74283">
        <ele>463</ele>
        <time>2012-05-19T07:19:00Z</time>
      </trkpt>
      <trkpt lat="45.53117" lon="4.74292">
        <ele>463</ele>
        <time>2012-05-19T07:19:07Z</time>
      </trkpt>
      <trkpt lat="45.5312" lon="4.74295">
        <ele>464</ele>
        <time>2012-05-19T07:19:08Z</time>
      </trkpt>
      <trkpt lat="45.53122" lon="4.74297">
        <ele>463</ele>
        <time>2012-05-19T07:19:09Z</time>
      </trkpt>
      <trkpt lat="45.53124" lon="4.74301">
        <ele>463</ele>
        <time>2012-05-19T07:19:10Z</time>
      </trkpt>
      <trkpt lat="45.53126" lon="4.74304">
        <ele>463</ele>
        <time>2012-05-19T07:19:11Z</time>
      </trkpt>
      <trkpt lat="45.53128" lon="4.74307">
        <ele>464</ele>
        <time>2012-05-19T07:19:12Z</time>
      </trkpt>
      <trkpt lat="45.5313" lon="4.7431">
        <ele>464</ele>
        <time>2012-05-19T07:19:13Z</time>
      </trkpt>
      <trkpt lat="45.53132" lon="4.74314">
        <ele>464</ele>
        <time>2012-05-19T07:19:14Z</time>
      </trkpt>
      <trkpt lat="45.53134" lon="4.74317">
        <ele>464</ele>
        <time>2012-05-19T07:19:15Z</time>
      </trkpt>
      <trkpt lat="45.53145" lon="4.74335">
        <ele>464</ele>
        <time>2012-05-19T07:19:21Z</time>
      </trkpt>
      <trkpt lat="45.53158" lon="4.74349">
        <ele>465</ele>
        <time>2012-05-19T07:19:27Z</time>
      </trkpt>
      <trkpt lat="45.53175" lon="4.74355">
        <ele>465</ele>
        <time>2012-05-19T07:19:33Z</time>
      </trkpt>
      <trkpt lat="45.53194" lon="4.74355">
        <ele>466</ele>
        <time>2012-05-19T07:19:39Z</time>
      </trkpt>
      <trkpt lat="45.53215" lon="4.74356">
        <ele>466</ele>
        <time>2012-05-19T07:19:45Z</time>
      </trkpt>
      <trkpt lat="45.53231" lon="4.74355">
        <ele>466</ele>
        <time>2012-05-19T07:19:50Z</time>
      </trkpt>
      <trkpt lat="45.53251" lon="4.74344">
        <ele>467</ele>
        <time>2012-05-19T07:19:57Z</time>
      </trkpt>
      <trkpt lat="45.53264" lon="4.74338">
        <ele>468</ele>
        <time>2012-05-19T07:20:02Z</time>
      </trkpt>
      <trkpt lat="45.53286" lon="4.74338">
        <ele>469</ele>
        <time>2012-05-19T07:20:09Z</time>
      </trkpt>
      <trkpt lat="45.53299" lon="4.74346">
        <ele>470</ele>
        <time>2012-05-19T07:20:14Z</time>
      </trkpt>
      <trkpt lat="45.53315" lon="4.74365">
        <ele>471</ele>
        <time>2012-05-19T07:20:22Z</time>
      </trkpt>
      <trkpt lat="45.53316" lon="4.74385">
        <ele>472</ele>
        <time>2012-05-19T07:20:29Z</time>
      </trkpt>
      <trkpt lat="45.53312" lon="4.74399">
        <ele>474</ele>
        <time>2012-05-19T07:20:36Z</time>
      </trkpt>
      <trkpt lat="45.5331" lon="4.74403">
        <ele>474</ele>
        <time>2012-05-19T07:20:38Z</time>
      </trkpt>
      <trkpt lat="45.53309" lon="4.74405">
        <ele>475</ele>
        <time>2012-05-19T07:20:39Z</time>
      </trkpt>
      <trkpt lat="45.53308" lon="4.74407">
        <ele>475</ele>
        <time>2012-05-19T07:20:40Z</time>
      </trkpt>
      <trkpt lat="45.53304" lon="4.74412">
        <ele>475</ele>
        <time>2012-05-19T07:20:44Z</time>
      </trkpt>
      <trkpt lat="45.53303" lon="4.74413">
        <ele>476</ele>
        <time>2012-05-19T07:20:45Z</time>
      </trkpt>
      <trkpt lat="45.53296" lon="4.74426">
        <ele>477</ele>
        <time>2012-05-19T07:20:51Z</time>
      </trkpt>
      <trkpt lat="45.53295" lon="4.74427">
        <ele>477</ele>
        <time>2012-05-19T07:20:52Z</time>
      </trkpt>
      <trkpt lat="45.53293" lon="4.74429">
        <ele>477</ele>
        <time>2012-05-19T07:20:53Z</time>
      </trkpt>
      <trkpt lat="45.53292" lon="4.7443">
        <ele>477</ele>
        <time>2012-05-19T07:20:54Z</time>
      </trkpt>
      <trkpt lat="45.53291" lon="4.74432">
        <ele>478</ele>
        <time>2012-05-19T07:20:55Z</time>
      </trkpt>
      <trkpt lat="45.5329" lon="4.74434">
        <ele>478</ele>
        <time>2012-05-19T07:20:56Z</time>
      </trkpt>
      <trkpt lat="45.53289" lon="4.74436">
        <ele>478</ele>
        <time>2012-05-19T07:20:57Z</time>
      </trkpt>
      <trkpt lat="45.53282" lon="4.74446">
        <ele>479</ele>
        <time>2012-05-19T07:21:04Z</time>
      </trkpt>
      <trkpt lat="45.53281" lon="4.74449">
        <ele>479</ele>
        <time>2012-05-19T07:21:05Z</time>
      </trkpt>
      <trkpt lat="45.53279" lon="4.7445">
        <ele>479</ele>
        <time>2012-05-19T07:21:06Z</time>
      </trkpt>
      <trkpt lat="45.53278" lon="4.74452">
        <ele>479</ele>
        <time>2012-05-19T07:21:07Z</time>
      </trkpt>
      <trkpt lat="45.53275" lon="4.74457">
        <ele>480</ele>
        <time>2012-05-19T07:21:11Z</time>
      </trkpt>
      <trkpt lat="45.53274" lon="4.74459">
        <ele>480</ele>
        <time>2012-05-19T07:21:12Z</time>
      </trkpt>
      <trkpt lat="45.53273" lon="4.74461">
        <ele>480</ele>
        <time>2012-05-19T07:21:13Z</time>
      </trkpt>
      <trkpt lat="45.53272" lon="4.74464">
        <ele>481</ele>
        <time>2012-05-19T07:21:14Z</time>
      </trkpt>
      <trkpt lat="45.53271" lon="4.74467">
        <ele>480</ele>
        <time>2012-05-19T07:21:15Z</time>
      </trkpt>
      <trkpt lat="45.5327" lon="4.74468">
        <ele>480</ele>
        <time>2012-05-19T07:21:16Z</time>
      </trkpt>
      <trkpt lat="45.53268" lon="4.74471">
        <ele>481</ele>
        <time>2012-05-19T07:21:17Z</time>
      </trkpt>
      <trkpt lat="45.53265" lon="4.74477">
        <ele>482</ele>
        <time>2012-05-19T07:21:20Z</time>
      </trkpt>
      <trkpt lat="45.53264" lon="4.74479">
        <ele>482</ele>
        <time>2012-05-19T07:21:21Z</time>
      </trkpt>
      <trkpt lat="45.53262" lon="4.74481">
        <ele>482</ele>
        <time>2012-05-19T07:21:22Z</time>
      </trkpt>
      <trkpt lat="45.53261" lon="4.74483">
        <ele>482</ele>
        <time>2012-05-19T07:21:23Z</time>
      </trkpt>
      <trkpt lat="45.5326" lon="4.74484">
        <ele>482</ele>
        <time>2012-05-19T07:21:24Z</time>
      </trkpt>
      <trkpt lat="45.53258" lon="4.74487">
        <ele>482</ele>
        <time>2012-05-19T07:21:25Z</time>
      </trkpt>
      <trkpt lat="45.53256" lon="4.7449">
        <ele>483</ele>
        <time>2012-05-19T07:21:27Z</time>
      </trkpt>
      <trkpt lat="45.53254" lon="4.74491">
        <ele>483</ele>
        <time>2012-05-19T07:21:28Z</time>
      </trkpt>
      <trkpt lat="45.5325" lon="4.74495">
        <ele>483</ele>
        <time>2012-05-19T07:21:30Z</time>
      </trkpt>
      <trkpt lat="45.53248" lon="4.74497">
        <ele>483</ele>
        <time>2012-05-19T07:21:32Z</time>
      </trkpt>
      <trkpt lat="45.53246" lon="4.74499">
        <ele>484</ele>
        <time>2012-05-19T07:21:33Z</time>
      </trkpt>
      <trkpt lat="45.53244" lon="4.745">
        <ele>484</ele>
        <time>2012-05-19T07:21:34Z</time>
      </trkpt>
      <trkpt lat="45.53241" lon="4.74502">
        <ele>484</ele>
        <time>2012-05-19T07:21:36Z</time>
      </trkpt>
      <trkpt lat="45.53232" lon="4.74507">
        <ele>485</ele>
        <time>2012-05-19T07:21:43Z</time>
      </trkpt>
      <trkpt lat="45.53223" lon="4.74511">
        <ele>487</ele>
        <time>2012-05-19T07:21:49Z</time>
      </trkpt>
      <trkpt lat="45.53218" lon="4.74515">
        <ele>487</ele>
        <time>2012-05-19T07:21:54Z</time>
      </trkpt>
      <trkpt lat="45.5321" lon="4.74516">
        <ele>488</ele>
        <time>2012-05-19T07:21:59Z</time>
      </trkpt>
      <trkpt lat="45.53209" lon="4.74517">
        <ele>488</ele>
        <time>2012-05-19T07:22:00Z</time>
      </trkpt>
      <trkpt lat="45.53202" lon="4.74518">
        <ele>489</ele>
        <time>2012-05-19T07:22:04Z</time>
      </trkpt>
      <trkpt lat="45.53201" lon="4.74519">
        <ele>489</ele>
        <time>2012-05-19T07:22:05Z</time>
      </trkpt>
      <trkpt lat="45.53199" lon="4.7452">
        <ele>489</ele>
        <time>2012-05-19T07:22:06Z</time>
      </trkpt>
      <trkpt lat="45.53197" lon="4.74522">
        <ele>490</ele>
        <time>2012-05-19T07:22:08Z</time>
      </trkpt>
      <trkpt lat="45.53196" lon="4.74524">
        <ele>490</ele>
        <time>2012-05-19T07:22:09Z</time>
      </trkpt>
      <trkpt lat="45.53194" lon="4.74525">
        <ele>490</ele>
        <time>2012-05-19T07:22:10Z</time>
      </trkpt>
      <trkpt lat="45.53185" lon="4.74533">
        <ele>491</ele>
        <time>2012-05-19T07:22:16Z</time>
      </trkpt>
      <trkpt lat="45.53183" lon="4.74535">
        <ele>492</ele>
        <time>2012-05-19T07:22:18Z</time>
      </trkpt>
      <trkpt lat="45.53182" lon="4.74536">
        <ele>492</ele>
        <time>2012-05-19T07:22:19Z</time>
      </trkpt>
      <trkpt lat="45.53177" lon="4.74541">
        <ele>493</ele>
        <time>2012-05-19T07:22:24Z</time>
      </trkpt>
      <trkpt lat="45.53176" lon="4.74542">
        <ele>493</ele>
        <time>2012-05-19T07:22:25Z</time>
      </trkpt>
      <trkpt lat="45.53173" lon="4.74548">
        <ele>494</ele>
        <time>2012-05-19T07:22:29Z</time>
      </trkpt>
      <trkpt lat="45.53172" lon="4.74549">
        <ele>494</ele>
        <time>2012-05-19T07:22:30Z</time>
      </trkpt>
      <trkpt lat="45.5317" lon="4.74552">
        <ele>494</ele>
        <time>2012-05-19T07:22:32Z</time>
      </trkpt>
      <trkpt lat="45.5317" lon="4.74553">
        <ele>495</ele>
        <time>2012-05-19T07:22:33Z</time>
      </trkpt>
      <trkpt lat="45.53169" lon="4.74555">
        <ele>496</ele>
        <time>2012-05-19T07:22:34Z</time>
      </trkpt>
      <trkpt lat="45.53168" lon="4.74557">
        <ele>496</ele>
        <time>2012-05-19T07:22:35Z</time>
      </trkpt>
      <trkpt lat="45.53163" lon="4.7457">
        <ele>498</ele>
        <time>2012-05-19T07:22:42Z</time>
      </trkpt>
      <trkpt lat="45.5316" lon="4.74584">
        <ele>499</ele>
        <time>2012-05-19T07:22:49Z</time>
      </trkpt>
      <trkpt lat="45.53159" lon="4.74586">
        <ele>498</ele>
        <time>2012-05-19T07:22:50Z</time>
      </trkpt>
      <trkpt lat="45.53158" lon="4.74588">
        <ele>498</ele>
        <time>2012-05-19T07:22:51Z</time>
      </trkpt>
      <trkpt lat="45.53158" lon="4.7459">
        <ele>499</ele>
        <time>2012-05-19T07:22:52Z</time>
      </trkpt>
      <trkpt lat="45.53158" lon="4.74596">
        <ele>499</ele>
        <time>2012-05-19T07:22:55Z</time>
      </trkpt>
      <trkpt lat="45.53157" lon="4.74598">
        <ele>499</ele>
        <time>2012-05-19T07:22:56Z</time>
      </trkpt>
      <trkpt lat="45.53157" lon="4.74601">
        <ele>499</ele>
        <time>2012-05-19T07:22:57Z</time>
      </trkpt>
      <trkpt lat="45.53156" lon="4.74603">
        <ele>500</ele>
        <time>2012-05-19T07:22:58Z</time>
      </trkpt>
      <trkpt lat="45.53155" lon="4.74605">
        <ele>500</ele>
        <time>2012-05-19T07:22:59Z</time>
      </trkpt>
      <trkpt lat="45.53155" lon="4.74609">
        <ele>500</ele>
        <time>2012-05-19T07:23:01Z</time>
      </trkpt>
      <trkpt lat="45.53154" lon="4.7461">
        <ele>500</ele>
        <time>2012-05-19T07:23:02Z</time>
      </trkpt>
      <trkpt lat="45.53154" lon="4.74612">
        <ele>500</ele>
        <time>2012-05-19T07:23:03Z</time>
      </trkpt>
      <trkpt lat="45.53153" lon="4.74614">
        <ele>500</ele>
        <time>2012-05-19T07:23:04Z</time>
      </trkpt>
      <trkpt lat="45.53152" lon="4.74616">
        <ele>500</ele>
        <time>2012-05-19T07:23:05Z</time>
      </trkpt>
      <trkpt lat="45.53151" lon="4.74618">
        <ele>500</ele>
        <time>2012-05-19T07:23:06Z</time>
      </trkpt>
      <trkpt lat="45.53151" lon="4.7462">
        <ele>500</ele>
        <time>2012-05-19T07:23:07Z</time>
      </trkpt>
      <trkpt lat="45.53146" lon="4.74629">
        <ele>501</ele>
        <time>2012-05-19T07:23:12Z</time>
      </trkpt>
      <trkpt lat="45.53141" lon="4.74639">
        <ele>502</ele>
        <time>2012-05-19T07:23:18Z</time>
      </trkpt>
      <trkpt lat="45.5314" lon="4.7464">
        <ele>502</ele>
        <time>2012-05-19T07:23:19Z</time>
      </trkpt>
      <trkpt lat="45.53139" lon="4.74643">
        <ele>502</ele>
        <time>2012-05-19T07:23:20Z</time>
      </trkpt>
      <trkpt lat="45.53138" lon="4.74644">
        <ele>503</ele>
        <time>2012-05-19T07:23:21Z</time>
      </trkpt>
      <trkpt lat="45.53138" lon="4.74646">
        <ele>502</ele>
        <time>2012-05-19T07:23:22Z</time>
      </trkpt>
      <trkpt lat="45.53137" lon="4.74648">
        <ele>503</ele>
        <time>2012-05-19T07:23:23Z</time>
      </trkpt>
      <trkpt lat="45.53136" lon="4.74649">
        <ele>503</ele>
        <time>2012-05-19T07:23:24Z</time>
      </trkpt>
      <trkpt lat="45.53135" lon="4.74651">
        <ele>503</ele>
        <time>2012-05-19T07:23:25Z</time>
      </trkpt>
      <trkpt lat="45.53134" lon="4.74653">
        <ele>503</ele>
        <time>2012-05-19T07:23:26Z</time>
      </trkpt>
      <trkpt lat="45.5313" lon="4.74661">
        <ele>503</ele>
        <time>2012-05-19T07:23:31Z</time>
      </trkpt>
      <trkpt lat="45.53129" lon="4.74663">
        <ele>504</ele>
        <time>2012-05-19T07:23:32Z</time>
      </trkpt>
      <trkpt lat="45.53128" lon="4.74665">
        <ele>504</ele>
        <time>2012-05-19T07:23:33Z</time>
      </trkpt>
      <trkpt lat="45.53126" lon="4.74666">
        <ele>504</ele>
        <time>2012-05-19T07:23:34Z</time>
      </trkpt>
      <trkpt lat="45.53125" lon="4.74668">
        <ele>504</ele>
        <time>2012-05-19T07:23:35Z</time>
      </trkpt>
      <trkpt lat="45.53124" lon="4.74669">
        <ele>504</ele>
        <time>2012-05-19T07:23:36Z</time>
      </trkpt>
      <trkpt lat="45.53123" lon="4.74671">
        <ele>504</ele>
        <time>2012-05-19T07:23:37Z</time>
      </trkpt>
      <trkpt lat="45.53116" lon="4.74683">
        <ele>503</ele>
        <time>2012-05-19T07:23:43Z</time>
      </trkpt>
      <trkpt lat="45.53101" lon="4.74701">
        <ele>503</ele>
        <time>2012-05-19T07:23:50Z</time>
      </trkpt>
      <trkpt lat="45.531" lon="4.74703">
        <ele>503</ele>
        <time>2012-05-19T07:23:51Z</time>
      </trkpt>
      <trkpt lat="45.53098" lon="4.74704">
        <ele>503</ele>
        <time>2012-05-19T07:23:52Z</time>
      </trkpt>
      <trkpt lat="45.53098" lon="4.74706">
        <ele>504</ele>
        <time>2012-05-19T07:23:53Z</time>
      </trkpt>
      <trkpt lat="45.53097" lon="4.74708">
        <ele>504</ele>
        <time>2012-05-19T07:23:54Z</time>
      </trkpt>
      <trkpt lat="45.53096" lon="4.74709">
        <ele>504</ele>
        <time>2012-05-19T07:23:55Z</time>
      </trkpt>
      <trkpt lat="45.53092" lon="4.74712">
        <ele>505</ele>
        <time>2012-05-19T07:23:58Z</time>
      </trkpt>
      <trkpt lat="45.53091" lon="4.74712">
        <ele>505</ele>
        <time>2012-05-19T07:23:59Z</time>
      </trkpt>
      <trkpt lat="45.5309" lon="4.74712">
        <ele>506</ele>
        <time>2012-05-19T07:24:00Z</time>
      </trkpt>
      <trkpt lat="45.53088" lon="4.74713">
        <ele>506</ele>
        <time>2012-05-19T07:24:01Z</time>
      </trkpt>
      <trkpt lat="45.53086" lon="4.74714">
        <ele>506</ele>
        <time>2012-05-19T07:24:02Z</time>
      </trkpt>
      <trkpt lat="45.5308" lon="4.74717">
        <ele>508</ele>
        <time>2012-05-19T07:24:08Z</time>
      </trkpt>
      <trkpt lat="45.53078" lon="4.7472">
        <ele>509</ele>
        <time>2012-05-19T07:24:10Z</time>
      </trkpt>
      <trkpt lat="45.53078" lon="4.74722">
        <ele>510</ele>
        <time>2012-05-19T07:24:11Z</time>
      </trkpt>
      <trkpt lat="45.53077" lon="4.74727">
        <ele>511</ele>
        <time>2012-05-19T07:24:13Z</time>
      </trkpt>
      <trkpt lat="45.53077" lon="4.74729">
        <ele>511</ele>
        <time>2012-05-19T07:24:14Z</time>
      </trkpt>
      <trkpt lat="45.53076" lon="4.74734">
        <ele>513</ele>
        <time>2012-05-19T07:24:17Z</time>
      </trkpt>
      <trkpt lat="45.53075" lon="4.74736">
        <ele>513</ele>
        <time>2012-05-19T07:24:23Z</time>
      </trkpt>
      <trkpt lat="45.53075" lon="4.74739">
        <ele>513</ele>
        <time>2012-05-19T07:24:29Z</time>
      </trkpt>
      <trkpt lat="45.53072" lon="4.74736">
        <ele>514</ele>
        <time>2012-05-19T07:24:38Z</time>
      </trkpt>
      <trkpt lat="45.53071" lon="4.74741">
        <ele>515</ele>
        <time>2012-05-19T07:24:47Z</time>
      </trkpt>
      <trkpt lat="45.53068" lon="4.74743">
        <ele>517</ele>
        <time>2012-05-19T07:24:56Z</time>
      </trkpt>
      <trkpt lat="45.53062" lon="4.74754">
        <ele>519</ele>
        <time>2012-05-19T07:25:05Z</time>
      </trkpt>
      <trkpt lat="45.53058" lon="4.74763">
        <ele>521</ele>
        <time>2012-05-19T07:25:15Z</time>
      </trkpt>
      <trkpt lat="45.53054" lon="4.7477">
        <ele>523</ele>
        <time>2012-05-19T07:25:24Z</time>
      </trkpt>
      <trkpt lat="45.53052" lon="4.74772">
        <ele>524</ele>
        <time>2012-05-19T07:25:30Z</time>
      </trkpt>
      <trkpt lat="45.53046" lon="4.74781">
        <ele>526</ele>
        <time>2012-05-19T07:25:40Z</time>
      </trkpt>
      <trkpt lat="45.53044" lon="4.74785">
        <ele>527</ele>
        <time>2012-05-19T07:25:47Z</time>
      </trkpt>
      <trkpt lat="45.53039" lon="4.74788">
        <ele>529</ele>
        <time>2012-05-19T07:25:54Z</time>
      </trkpt>
      <trkpt lat="45.53032" lon="4.74791">
        <ele>531</ele>
        <time>2012-05-19T07:26:04Z</time>
      </trkpt>
      <trkpt lat="45.5303" lon="4.74791">
        <ele>532</ele>
        <time>2012-05-19T07:26:11Z</time>
      </trkpt>
      <trkpt lat="45.53028" lon="4.74791">
        <ele>532</ele>
        <time>2012-05-19T07:26:13Z</time>
      </trkpt>
      <trkpt lat="45.53022" lon="4.74786">
        <ele>532</ele>
        <time>2012-05-19T07:26:19Z</time>
      </trkpt>
      <trkpt lat="45.53017" lon="4.74784">
        <ele>533</ele>
        <time>2012-05-19T07:26:23Z</time>
      </trkpt>
      <trkpt lat="45.53015" lon="4.74784">
        <ele>532</ele>
        <time>2012-05-19T07:26:24Z</time>
      </trkpt>
      <trkpt lat="45.53014" lon="4.74783">
        <ele>533</ele>
        <time>2012-05-19T07:26:25Z</time>
      </trkpt>
      <trkpt lat="45.53013" lon="4.74781">
        <ele>533</ele>
        <time>2012-05-19T07:26:26Z</time>
      </trkpt>
      <trkpt lat="45.53012" lon="4.7478">
        <ele>532</ele>
        <time>2012-05-19T07:26:27Z</time>
      </trkpt>
      <trkpt lat="45.53007" lon="4.74775">
        <ele>533</ele>
        <time>2012-05-19T07:26:32Z</time>
      </trkpt>
      <trkpt lat="45.53006" lon="4.74774">
        <ele>533</ele>
        <time>2012-05-19T07:26:33Z</time>
      </trkpt>
      <trkpt lat="45.53003" lon="4.74771">
        <ele>533</ele>
        <time>2012-05-19T07:26:36Z</time>
      </trkpt>
      <trkpt lat="45.53" lon="4.74769">
        <ele>534</ele>
        <time>2012-05-19T07:26:43Z</time>
      </trkpt>
      <trkpt lat="45.52998" lon="4.74769">
        <ele>534</ele>
        <time>2012-05-19T07:26:57Z</time>
      </trkpt>
      <trkpt lat="45.52998" lon="4.74769">
        <ele>534</ele>
        <time>2012-05-19T07:26:59Z</time>
      </trkpt>
      <trkpt lat="45.52996" lon="4.74767">
        <ele>534</ele>
        <time>2012-05-19T07:27:01Z</time>
      </trkpt>
      <trkpt lat="45.52993" lon="4.74762">
        <ele>535</ele>
        <time>2012-05-19T07:27:05Z</time>
      </trkpt>
      <trkpt lat="45.52992" lon="4.74761">
        <ele>536</ele>
        <time>2012-05-19T07:27:06Z</time>
      </trkpt>
      <trkpt lat="45.52991" lon="4.74759">
        <ele>536</ele>
        <time>2012-05-19T07:27:07Z</time>
      </trkpt>
      <trkpt lat="45.5299" lon="4.74757">
        <ele>536</ele>
        <time>2012-05-19T07:27:08Z</time>
      </trkpt>
      <trkpt lat="45.52985" lon="4.74753">
        <ele>537</ele>
        <time>2012-05-19T07:27:12Z</time>
      </trkpt>
      <trkpt lat="45.52982" lon="4.74748">
        <ele>538</ele>
        <time>2012-05-19T07:27:15Z</time>
      </trkpt>
      <trkpt lat="45.52981" lon="4.74746">
        <ele>538</ele>
        <time>2012-05-19T07:27:16Z</time>
      </trkpt>
      <trkpt lat="45.5298" lon="4.74745">
        <ele>538</ele>
        <time>2012-05-19T07:27:17Z</time>
      </trkpt>
      <trkpt lat="45.52979" lon="4.74743">
        <ele>538</ele>
        <time>2012-05-19T07:27:18Z</time>
      </trkpt>
      <trkpt lat="45.52977" lon="4.74741">
        <ele>538</ele>
        <time>2012-05-19T07:27:19Z</time>
      </trkpt>
      <trkpt lat="45.52976" lon="4.74739">
        <ele>538</ele>
        <time>2012-05-19T07:27:20Z</time>
      </trkpt>
      <trkpt lat="45.52969" lon="4.74728">
        <ele>540</ele>
        <time>2012-05-19T07:27:27Z</time>
      </trkpt>
      <trkpt lat="45.52968" lon="4.74727">
        <ele>540</ele>
        <time>2012-05-19T07:27:28Z</time>
      </trkpt>
      <trkpt lat="45.52967" lon="4.74723">
        <ele>541</ele>
        <time>2012-05-19T07:27:30Z</time>
      </trkpt>
      <trkpt lat="45.52962" lon="4.74717">
        <ele>542</ele>
        <time>2012-05-19T07:27:34Z</time>
      </trkpt>
      <trkpt lat="45.5296" lon="4.74716">
        <ele>542</ele>
        <time>2012-05-19T07:27:35Z</time>
      </trkpt>
      <trkpt lat="45.52957" lon="4.74712">
        <ele>543</ele>
        <time>2012-05-19T07:27:38Z</time>
      </trkpt>
      <trkpt lat="45.52956" lon="4.74711">
        <ele>543</ele>
        <time>2012-05-19T07:27:39Z</time>
      </trkpt>
      <trkpt lat="45.52955" lon="4.74709">
        <ele>543</ele>
        <time>2012-05-19T07:27:40Z</time>
      </trkpt>
      <trkpt lat="45.52954" lon="4.74707">
        <ele>543</ele>
        <time>2012-05-19T07:27:46Z</time>
      </trkpt>
      <trkpt lat="45.52953" lon="4.74706">
        <ele>543</ele>
        <time>2012-05-19T07:28:00Z</time>
      </trkpt>
      <trkpt lat="45.52952" lon="4.74705">
        <ele>542</ele>
        <time>2012-05-19T07:28:18Z</time>
      </trkpt>
      <trkpt lat="45.52951" lon="4.74703">
        <ele>542</ele>
        <time>2012-05-19T07:28:33Z</time>
      </trkpt>
      <trkpt lat="45.52948" lon="4.74698">
        <ele>542</ele>
        <time>2012-05-19T07:28:39Z</time>
      </trkpt>
      <trkpt lat="45.52945" lon="4.74693">
        <ele>543</ele>
        <time>2012-05-19T07:28:43Z</time>
      </trkpt>
      <trkpt lat="45.52938" lon="4.74681">
        <ele>543</ele>
        <time>2012-05-19T07:28:49Z</time>
      </trkpt>
      <trkpt lat="45.52937" lon="4.7468">
        <ele>543</ele>
        <time>2012-05-19T07:28:50Z</time>
      </trkpt>
      <trkpt lat="45.52935" lon="4.7468">
        <ele>543</ele>
        <time>2012-05-19T07:28:51Z</time>
      </trkpt>
      <trkpt lat="45.52933" lon="4.74678">
        <ele>543</ele>
        <time>2012-05-19T07:28:52Z</time>
      </trkpt>
      <trkpt lat="45.52926" lon="4.74666">
        <ele>543</ele>
        <time>2012-05-19T07:28:58Z</time>
      </trkpt>
      <trkpt lat="45.52915" lon="4.74648">
        <ele>543</ele>
        <time>2012-05-19T07:29:05Z</time>
      </trkpt>
      <trkpt lat="45.52903" lon="4.74634">
        <ele>542</ele>
        <time>2012-05-19T07:29:10Z</time>
      </trkpt>
      <trkpt lat="45.52886" lon="4.74617">
        <ele>541</ele>
        <time>2012-05-19T07:29:16Z</time>
      </trkpt>
      <trkpt lat="45.52872" lon="4.74599">
        <ele>541</ele>
        <time>2012-05-19T07:29:22Z</time>
      </trkpt>
      <trkpt lat="45.52865" lon="4.74587">
        <ele>541</ele>
        <time>2012-05-19T07:29:25Z</time>
      </trkpt>
      <trkpt lat="45.52862" lon="4.74584">
        <ele>541</ele>
        <time>2012-05-19T07:29:26Z</time>
      </trkpt>
      <trkpt lat="45.52858" lon="4.7458">
        <ele>542</ele>
        <time>2012-05-19T07:29:27Z</time>
      </trkpt>
      <trkpt lat="45.52856" lon="4.74577">
        <ele>541</ele>
        <time>2012-05-19T07:29:28Z</time>
      </trkpt>
      <trkpt lat="45.52853" lon="4.74574">
        <ele>542</ele>
        <time>2012-05-19T07:29:29Z</time>
      </trkpt>
      <trkpt lat="45.52852" lon="4.74571">
        <ele>542</ele>
        <time>2012-05-19T07:29:30Z</time>
      </trkpt>
      <trkpt lat="45.52838" lon="4.7455">
        <ele>542</ele>
        <time>2012-05-19T07:29:36Z</time>
      </trkpt>
      <trkpt lat="45.5282" lon="4.7453">
        <ele>541</ele>
        <time>2012-05-19T07:29:43Z</time>
      </trkpt>
      <trkpt lat="45.52811" lon="4.74517">
        <ele>541</ele>
        <time>2012-05-19T07:29:47Z</time>
      </trkpt>
      <trkpt lat="45.52809" lon="4.74513">
        <ele>541</ele>
        <time>2012-05-19T07:29:48Z</time>
      </trkpt>
      <trkpt lat="45.52807" lon="4.74511">
        <ele>541</ele>
        <time>2012-05-19T07:29:49Z</time>
      </trkpt>
      <trkpt lat="45.52793" lon="4.74495">
        <ele>541</ele>
        <time>2012-05-19T07:29:54Z</time>
      </trkpt>
      <trkpt lat="45.52777" lon="4.7448">
        <ele>539</ele>
        <time>2012-05-19T07:29:59Z</time>
      </trkpt>
      <trkpt lat="45.52754" lon="4.74464">
        <ele>539</ele>
        <time>2012-05-19T07:30:06Z</time>
      </trkpt>
      <trkpt lat="45.52733" lon="4.74452">
        <ele>540</ele>
        <time>2012-05-19T07:30:12Z</time>
      </trkpt>
      <trkpt lat="45.52713" lon="4.74441">
        <ele>540</ele>
        <time>2012-05-19T07:30:18Z</time>
      </trkpt>
      <trkpt lat="45.52696" lon="4.74435">
        <ele>540</ele>
        <time>2012-05-19T07:30:24Z</time>
      </trkpt>
      <trkpt lat="45.52692" lon="4.74435">
        <ele>540</ele>
        <time>2012-05-19T07:30:25Z</time>
      </trkpt>
      <trkpt lat="45.52689" lon="4.74436">
        <ele>540</ele>
        <time>2012-05-19T07:30:26Z</time>
      </trkpt>
      <trkpt lat="45.52686" lon="4.74435">
        <ele>540</ele>
        <time>2012-05-19T07:30:27Z</time>
      </trkpt>
      <trkpt lat="45.52683" lon="4.74435">
        <ele>540</ele>
        <time>2012-05-19T07:30:28Z</time>
      </trkpt>
      <trkpt lat="45.5268" lon="4.74435">
        <ele>540</ele>
        <time>2012-05-19T07:30:29Z</time>
      </trkpt>
      <trkpt lat="45.52677" lon="4.74435">
        <ele>541</ele>
        <time>2012-05-19T07:30:30Z</time>
      </trkpt>
      <trkpt lat="45.52655" lon="4.74433">
        <ele>541</ele>
        <time>2012-05-19T07:30:37Z</time>
      </trkpt>
      <trkpt lat="45.52636" lon="4.74431">
        <ele>541</ele>
        <time>2012-05-19T07:30:43Z</time>
      </trkpt>
      <trkpt lat="45.52621" lon="4.74427">
        <ele>541</ele>
        <time>2012-05-19T07:30:48Z</time>
      </trkpt>
      <trkpt lat="45.52619" lon="4.74427">
        <ele>541</ele>
        <time>2012-05-19T07:30:49Z</time>
      </trkpt>
      <trkpt lat="45.52617" lon="4.74428">
        <ele>541</ele>
        <time>2012-05-19T07:30:50Z</time>
      </trkpt>
      <trkpt lat="45.52614" lon="4.74429">
        <ele>542</ele>
        <time>2012-05-19T07:30:51Z</time>
      </trkpt>
      <trkpt lat="45.52611" lon="4.7443">
        <ele>542</ele>
        <time>2012-05-19T07:30:52Z</time>
      </trkpt>
      <trkpt lat="45.52608" lon="4.74432">
        <ele>542</ele>
        <time>2012-05-19T07:30:53Z</time>
      </trkpt>
      <trkpt lat="45.52605" lon="4.74434">
        <ele>542</ele>
        <time>2012-05-19T07:30:54Z</time>
      </trkpt>
      <trkpt lat="45.52602" lon="4.74436">
        <ele>542</ele>
        <time>2012-05-19T07:30:55Z</time>
      </trkpt>
      <trkpt lat="45.52587" lon="4.74445">
        <ele>544</ele>
        <time>2012-05-19T07:31:01Z</time>
      </trkpt>
      <trkpt lat="45.52584" lon="4.74447">
        <ele>545</ele>
        <time>2012-05-19T07:31:02Z</time>
      </trkpt>
      <trkpt lat="45.52575" lon="4.74451">
        <ele>545</ele>
        <time>2012-05-19T07:31:06Z</time>
      </trkpt>
      <trkpt lat="45.52573" lon="4.74452">
        <ele>545</ele>
        <time>2012-05-19T07:31:07Z</time>
      </trkpt>
      <trkpt lat="45.52572" lon="4.74453">
        <ele>545</ele>
        <time>2012-05-19T07:31:08Z</time>
      </trkpt>
      <trkpt lat="45.52569" lon="4.74455">
        <ele>545</ele>
        <time>2012-05-19T07:31:09Z</time>
      </trkpt>
      <trkpt lat="45.52567" lon="4.74457">
        <ele>545</ele>
        <time>2012-05-19T07:31:10Z</time>
      </trkpt>
      <trkpt lat="45.52565" lon="4.74458">
        <ele>545</ele>
        <time>2012-05-19T07:31:11Z</time>
      </trkpt>
      <trkpt lat="45.52549" lon="4.74467">
        <ele>545</ele>
        <time>2012-05-19T07:31:17Z</time>
      </trkpt>
      <trkpt lat="45.52531" lon="4.7448">
        <ele>545</ele>
        <time>2012-05-19T07:31:24Z</time>
      </trkpt>
      <trkpt lat="45.52516" lon="4.74498">
        <ele>544</ele>
        <time>2012-05-19T07:31:30Z</time>
      </trkpt>
      <trkpt lat="45.52499" lon="4.74518">
        <ele>543</ele>
        <time>2012-05-19T07:31:36Z</time>
      </trkpt>
      <trkpt lat="45.52486" lon="4.74533">
        <ele>541</ele>
        <time>2012-05-19T07:31:39Z</time>
      </trkpt>
      <trkpt lat="45.52481" lon="4.74539">
        <ele>541</ele>
        <time>2012-05-19T07:31:40Z</time>
      </trkpt>
      <trkpt lat="45.52468" lon="4.74555">
        <ele>538</ele>
        <time>2012-05-19T07:31:43Z</time>
      </trkpt>
      <trkpt lat="45.52465" lon="4.7456">
        <ele>537</ele>
        <time>2012-05-19T07:31:44Z</time>
      </trkpt>
      <trkpt lat="45.52463" lon="4.74564">
        <ele>536</ele>
        <time>2012-05-19T07:31:45Z</time>
      </trkpt>
      <trkpt lat="45.5246" lon="4.74566">
        <ele>536</ele>
        <time>2012-05-19T07:31:46Z</time>
      </trkpt>
      <trkpt lat="45.52456" lon="4.74567">
        <ele>535</ele>
        <time>2012-05-19T07:31:47Z</time>
      </trkpt>
      <trkpt lat="45.52451" lon="4.74567">
        <ele>535</ele>
        <time>2012-05-19T07:31:48Z</time>
      </trkpt>
      <trkpt lat="45.52446" lon="4.74567">
        <ele>534</ele>
        <time>2012-05-19T07:31:49Z</time>
      </trkpt>
      <trkpt lat="45.52423" lon="4.74569">
        <ele>532</ele>
        <time>2012-05-19T07:31:52Z</time>
      </trkpt>
      <trkpt lat="45.52388" lon="4.74565">
        <ele>528</ele>
        <time>2012-05-19T07:31:56Z</time>
      </trkpt>
      <trkpt lat="45.5235" lon="4.74558">
        <ele>525</ele>
        <time>2012-05-19T07:32:00Z</time>
      </trkpt>
      <trkpt lat="45.52332" lon="4.74552">
        <ele>523</ele>
        <time>2012-05-19T07:32:02Z</time>
      </trkpt>
      <trkpt lat="45.52323" lon="4.74547">
        <ele>523</ele>
        <time>2012-05-19T07:32:03Z</time>
      </trkpt>
      <trkpt lat="45.52315" lon="4.74541">
        <ele>522</ele>
        <time>2012-05-19T07:32:04Z</time>
      </trkpt>
      <trkpt lat="45.52284" lon="4.74513">
        <ele>518</ele>
        <time>2012-05-19T07:32:08Z</time>
      </trkpt>
      <trkpt lat="45.52272" lon="4.74498">
        <ele>516</ele>
        <time>2012-05-19T07:32:10Z</time>
      </trkpt>
      <trkpt lat="45.52268" lon="4.74492">
        <ele>515</ele>
        <time>2012-05-19T07:32:11Z</time>
      </trkpt>
      <trkpt lat="45.52257" lon="4.7448">
        <ele>513</ele>
        <time>2012-05-19T07:32:13Z</time>
      </trkpt>
      <trkpt lat="45.52254" lon="4.74472">
        <ele>512</ele>
        <time>2012-05-19T07:32:14Z</time>
      </trkpt>
      <trkpt lat="45.52251" lon="4.74463">
        <ele>512</ele>
        <time>2012-05-19T07:32:15Z</time>
      </trkpt>
      <trkpt lat="45.52248" lon="4.74456">
        <ele>512</ele>
        <time>2012-05-19T07:32:16Z</time>
      </trkpt>
      <trkpt lat="45.52245" lon="4.74451">
        <ele>511</ele>
        <time>2012-05-19T07:32:17Z</time>
      </trkpt>
      <trkpt lat="45.52241" lon="4.74446">
        <ele>510</ele>
        <time>2012-05-19T07:32:18Z</time>
      </trkpt>
      <trkpt lat="45.52238" lon="4.74439">
        <ele>510</ele>
        <time>2012-05-19T07:32:19Z</time>
      </trkpt>
      <trkpt lat="45.52235" lon="4.74433">
        <ele>509</ele>
        <time>2012-05-19T07:32:20Z</time>
      </trkpt>
      <trkpt lat="45.52232" lon="4.74427">
        <ele>509</ele>
        <time>2012-05-19T07:32:21Z</time>
      </trkpt>
      <trkpt lat="45.52229" lon="4.74422">
        <ele>509</ele>
        <time>2012-05-19T07:32:22Z</time>
      </trkpt>
      <trkpt lat="45.52226" lon="4.74417">
        <ele>509</ele>
        <time>2012-05-19T07:32:23Z</time>
      </trkpt>
      <trkpt lat="45.52213" lon="4.74402">
        <ele>508</ele>
        <time>2012-05-19T07:32:27Z</time>
      </trkpt>
      <trkpt lat="45.52197" lon="4.74391">
        <ele>508</ele>
        <time>2012-05-19T07:32:31Z</time>
      </trkpt>
      <trkpt lat="45.52169" lon="4.7436">
        <ele>508</ele>
        <time>2012-05-19T07:32:39Z</time>
      </trkpt>
      <trkpt lat="45.52169" lon="4.74352">
        <ele>507</ele>
        <time>2012-05-19T07:32:44Z</time>
      </trkpt>
      <trkpt lat="45.52159" lon="4.74345">
        <ele>508</ele>
        <time>2012-05-19T07:32:50Z</time>
      </trkpt>
      <trkpt lat="45.52156" lon="4.74345">
        <ele>506</ele>
        <time>2012-05-19T07:32:51Z</time>
      </trkpt>
      <trkpt lat="45.52151" lon="4.74345">
        <ele>507</ele>
        <time>2012-05-19T07:32:52Z</time>
      </trkpt>
      <trkpt lat="45.52146" lon="4.74344">
        <ele>506</ele>
        <time>2012-05-19T07:32:53Z</time>
      </trkpt>
      <trkpt lat="45.52141" lon="4.74343">
        <ele>507</ele>
        <time>2012-05-19T07:32:54Z</time>
      </trkpt>
      <trkpt lat="45.52099" lon="4.74336">
        <ele>503</ele>
        <time>2012-05-19T07:33:00Z</time>
      </trkpt>
      <trkpt lat="45.52057" lon="4.74332">
        <ele>500</ele>
        <time>2012-05-19T07:33:05Z</time>
      </trkpt>
      <trkpt lat="45.52001" lon="4.74327">
        <ele>496</ele>
        <time>2012-05-19T07:33:11Z</time>
      </trkpt>
      <trkpt lat="45.51972" lon="4.74331">
        <ele>493</ele>
        <time>2012-05-19T07:33:14Z</time>
      </trkpt>
      <trkpt lat="45.51933" lon="4.74343">
        <ele>489</ele>
        <time>2012-05-19T07:33:18Z</time>
      </trkpt>
      <trkpt lat="45.51923" lon="4.74346">
        <ele>488</ele>
        <time>2012-05-19T07:33:19Z</time>
      </trkpt>
      <trkpt lat="45.51914" lon="4.74347">
        <ele>488</ele>
        <time>2012-05-19T07:33:20Z</time>
      </trkpt>
      <trkpt lat="45.51904" lon="4.74345">
        <ele>488</ele>
        <time>2012-05-19T07:33:21Z</time>
      </trkpt>
      <trkpt lat="45.51894" lon="4.74342">
        <ele>487</ele>
        <time>2012-05-19T07:33:22Z</time>
      </trkpt>
      <trkpt lat="45.51885" lon="4.74339">
        <ele>487</ele>
        <time>2012-05-19T07:33:23Z</time>
      </trkpt>
      <trkpt lat="45.51875" lon="4.74338">
        <ele>486</ele>
        <time>2012-05-19T07:33:24Z</time>
      </trkpt>
      <trkpt lat="45.51866" lon="4.7434">
        <ele>485</ele>
        <time>2012-05-19T07:33:25Z</time>
      </trkpt>
      <trkpt lat="45.51858" lon="4.74347">
        <ele>485</ele>
        <time>2012-05-19T07:33:26Z</time>
      </trkpt>
      <trkpt lat="45.51852" lon="4.74356">
        <ele>484</ele>
        <time>2012-05-19T07:33:27Z</time>
      </trkpt>
      <trkpt lat="45.51846" lon="4.74367">
        <ele>484</ele>
        <time>2012-05-19T07:33:28Z</time>
      </trkpt>
      <trkpt lat="45.51842" lon="4.74378">
        <ele>484</ele>
        <time>2012-05-19T07:33:29Z</time>
      </trkpt>
      <trkpt lat="45.51837" lon="4.74389">
        <ele>482</ele>
        <time>2012-05-19T07:33:30Z</time>
      </trkpt>
      <trkpt lat="45.51828" lon="4.74409">
        <ele>481</ele>
        <time>2012-05-19T07:33:32Z</time>
      </trkpt>
      <trkpt lat="45.51822" lon="4.74418">
        <ele>481</ele>
        <time>2012-05-19T07:33:33Z</time>
      </trkpt>
      <trkpt lat="45.51815" lon="4.74424">
        <ele>481</ele>
        <time>2012-05-19T07:33:34Z</time>
      </trkpt>
      <trkpt lat="45.51807" lon="4.74427">
        <ele>481</ele>
        <time>2012-05-19T07:33:35Z</time>
      </trkpt>
      <trkpt lat="45.51799" lon="4.74429">
        <ele>481</ele>
        <time>2012-05-19T07:33:36Z</time>
      </trkpt>
      <trkpt lat="45.51791" lon="4.7443">
        <ele>480</ele>
        <time>2012-05-19T07:33:37Z</time>
      </trkpt>
      <trkpt lat="45.51783" lon="4.7443">
        <ele>479</ele>
        <time>2012-05-19T07:33:38Z</time>
      </trkpt>
      <trkpt lat="45.51761" lon="4.7443">
        <ele>479</ele>
        <time>2012-05-19T07:33:41Z</time>
      </trkpt>
      <trkpt lat="45.51754" lon="4.74433">
        <ele>479</ele>
        <time>2012-05-19T07:33:42Z</time>
      </trkpt>
      <trkpt lat="45.51748" lon="4.74437">
        <ele>479</ele>
        <time>2012-05-19T07:33:43Z</time>
      </trkpt>
      <trkpt lat="45.51742" lon="4.74443">
        <ele>478</ele>
        <time>2012-05-19T07:33:44Z</time>
      </trkpt>
      <trkpt lat="45.51738" lon="4.74451">
        <ele>478</ele>
        <time>2012-05-19T07:33:45Z</time>
      </trkpt>
      <trkpt lat="45.51733" lon="4.74458">
        <ele>478</ele>
        <time>2012-05-19T07:33:46Z</time>
      </trkpt>
      <trkpt lat="45.51729" lon="4.74467">
        <ele>478</ele>
        <time>2012-05-19T07:33:47Z</time>
      </trkpt>
      <trkpt lat="45.51725" lon="4.74475">
        <ele>477</ele>
        <time>2012-05-19T07:33:48Z</time>
      </trkpt>
      <trkpt lat="45.51706" lon="4.74511">
        <ele>476</ele>
        <time>2012-05-19T07:33:53Z</time>
      </trkpt>
      <trkpt lat="45.51703" lon="4.74517">
        <ele>476</ele>
        <time>2012-05-19T07:33:54Z</time>
      </trkpt>
      <trkpt lat="45.51698" lon="4.74528">
        <ele>476</ele>
        <time>2012-05-19T07:33:56Z</time>
      </trkpt>
      <trkpt lat="45.51695" lon="4.74532">
        <ele>476</ele>
        <time>2012-05-19T07:33:57Z</time>
      </trkpt>
      <trkpt lat="45.51691" lon="4.74536">
        <ele>476</ele>
        <time>2012-05-19T07:33:58Z</time>
      </trkpt>
      <trkpt lat="45.51688" lon="4.74541">
        <ele>475</ele>
        <time>2012-05-19T07:33:59Z</time>
      </trkpt>
      <trkpt lat="45.51685" lon="4.74549">
        <ele>474</ele>
        <time>2012-05-19T07:34:00Z</time>
      </trkpt>
      <trkpt lat="45.51683" lon="4.74558">
        <ele>473</ele>
        <time>2012-05-19T07:34:01Z</time>
      </trkpt>
      <trkpt lat="45.51683" lon="4.74568">
        <ele>472</ele>
        <time>2012-05-19T07:34:02Z</time>
      </trkpt>
      <trkpt lat="45.51683" lon="4.74578">
        <ele>471</ele>
        <time>2012-05-19T07:34:03Z</time>
      </trkpt>
      <trkpt lat="45.51683" lon="4.74587">
        <ele>470</ele>
        <time>2012-05-19T07:34:04Z</time>
      </trkpt>
      <trkpt lat="45.51682" lon="4.74596">
        <ele>468</ele>
        <time>2012-05-19T07:34:05Z</time>
      </trkpt>
      <trkpt lat="45.51681" lon="4.74605">
        <ele>467</ele>
        <time>2012-05-19T07:34:06Z</time>
      </trkpt>
      <trkpt lat="45.51679" lon="4.7464">
        <ele>463</ele>
        <time>2012-05-19T07:34:09Z</time>
      </trkpt>
      <trkpt lat="45.51679" lon="4.74652">
        <ele>463</ele>
        <time>2012-05-19T07:34:10Z</time>
      </trkpt>
      <trkpt lat="45.51679" lon="4.74664">
        <ele>461</ele>
        <time>2012-05-19T07:34:11Z</time>
      </trkpt>
      <trkpt lat="45.51679" lon="4.74677">
        <ele>460</ele>
        <time>2012-05-19T07:34:12Z</time>
      </trkpt>
      <trkpt lat="45.51678" lon="4.74689">
        <ele>459</ele>
        <time>2012-05-19T07:34:13Z</time>
      </trkpt>
      <trkpt lat="45.51677" lon="4.74701">
        <ele>458</ele>
        <time>2012-05-19T07:34:14Z</time>
      </trkpt>
      <trkpt lat="45.51675" lon="4.74713">
        <ele>455</ele>
        <time>2012-05-19T07:34:15Z</time>
      </trkpt>
      <trkpt lat="45.51668" lon="4.7476">
        <ele>451</ele>
        <time>2012-05-19T07:34:19Z</time>
      </trkpt>
      <trkpt lat="45.51663" lon="4.74784">
        <ele>450</ele>
        <time>2012-05-19T07:34:21Z</time>
      </trkpt>
      <trkpt lat="45.51656" lon="4.74808">
        <ele>448</ele>
        <time>2012-05-19T07:34:23Z</time>
      </trkpt>
      <trkpt lat="45.51642" lon="4.74853">
        <ele>445</ele>
        <time>2012-05-19T07:34:27Z</time>
      </trkpt>
      <trkpt lat="45.51638" lon="4.74862">
        <ele>444</ele>
        <time>2012-05-19T07:34:28Z</time>
      </trkpt>
      <trkpt lat="45.51633" lon="4.74869">
        <ele>443</ele>
        <time>2012-05-19T07:34:29Z</time>
      </trkpt>
      <trkpt lat="45.51626" lon="4.74875">
        <ele>442</ele>
        <time>2012-05-19T07:34:30Z</time>
      </trkpt>
      <trkpt lat="45.51599" lon="4.74893">
        <ele>439</ele>
        <time>2012-05-19T07:34:34Z</time>
      </trkpt>
      <trkpt lat="45.5158" lon="4.74911">
        <ele>437</ele>
        <time>2012-05-19T07:34:37Z</time>
      </trkpt>
      <trkpt lat="45.51568" lon="4.74926">
        <ele>435</ele>
        <time>2012-05-19T07:34:39Z</time>
      </trkpt>
      <trkpt lat="45.51541" lon="4.74963">
        <ele>433</ele>
        <time>2012-05-19T07:34:44Z</time>
      </trkpt>
      <trkpt lat="45.51535" lon="4.74969">
        <ele>431</ele>
        <time>2012-05-19T07:34:45Z</time>
      </trkpt>
      <trkpt lat="45.51488" lon="4.75009">
        <ele>429</ele>
        <time>2012-05-19T07:34:53Z</time>
      </trkpt>
      <trkpt lat="45.51443" lon="4.75049">
        <ele>428</ele>
        <time>2012-05-19T07:35:03Z</time>
      </trkpt>
      <trkpt lat="45.51415" lon="4.75077">
        <ele>427</ele>
        <time>2012-05-19T07:35:11Z</time>
      </trkpt>
      <trkpt lat="45.51412" lon="4.7508">
        <ele>426</ele>
        <time>2012-05-19T07:35:15Z</time>
      </trkpt>
      <trkpt lat="45.51412" lon="4.75079">
        <ele>427</ele>
        <time>2012-05-19T07:35:26Z</time>
      </trkpt>
      <trkpt lat="45.51412" lon="4.7508">
        <ele>427</ele>
        <time>2012-05-19T07:35:39Z</time>
      </trkpt>
      <trkpt lat="45.51412" lon="4.7508">
        <ele>427</ele>
        <time>2012-05-19T07:35:54Z</time>
      </trkpt>
      <trkpt lat="45.51412" lon="4.7508">
        <ele>426</ele>
        <time>2012-05-19T07:36:09Z</time>
      </trkpt>
      <trkpt lat="45.51412" lon="4.7508">
        <ele>426</ele>
        <time>2012-05-19T07:36:32Z</time>
      </trkpt>
      <trkpt lat="45.51405" lon="4.75088">
        <ele>426</ele>
        <time>2012-05-19T07:36:37Z</time>
      </trkpt>
      <trkpt lat="45.51381" lon="4.75114">
        <ele>425</ele>
        <time>2012-05-19T07:36:44Z</time>
      </trkpt>
      <trkpt lat="45.51359" lon="4.7514">
        <ele>423</ele>
        <time>2012-05-19T07:36:49Z</time>
      </trkpt>
      <trkpt lat="45.5135" lon="4.75151">
        <ele>422</ele>
        <time>2012-05-19T07:36:51Z</time>
      </trkpt>
      <trkpt lat="45.51346" lon="4.75156">
        <ele>421</ele>
        <time>2012-05-19T07:36:52Z</time>
      </trkpt>
      <trkpt lat="45.51342" lon="4.7516">
        <ele>420</ele>
        <time>2012-05-19T07:36:53Z</time>
      </trkpt>
      <trkpt lat="45.51339" lon="4.75161">
        <ele>417</ele>
        <time>2012-05-19T07:36:55Z</time>
      </trkpt>
      <trkpt lat="45.51339" lon="4.75161">
        <ele>417</ele>
        <time>2012-05-19T07:36:56Z</time>
      </trkpt>
      <trkpt lat="45.51339" lon="4.75161">
        <ele>417</ele>
        <time>2012-05-19T07:37:12Z</time>
      </trkpt>
      <trkpt lat="45.51339" lon="4.75162">
        <ele>418</ele>
        <time>2012-05-19T07:37:24Z</time>
      </trkpt>
      <trkpt lat="45.51339" lon="4.75163">
        <ele>418</ele>
        <time>2012-05-19T07:37:30Z</time>
      </trkpt>
      <trkpt lat="45.5134" lon="4.75163">
        <ele>418</ele>
        <time>2012-05-19T07:37:37Z</time>
      </trkpt>
      <trkpt lat="45.5134" lon="4.75163">
        <ele>418</ele>
        <time>2012-05-19T07:37:46Z</time>
      </trkpt>
      <trkpt lat="45.51341" lon="4.75162">
        <ele>417</ele>
        <time>2012-05-19T07:37:54Z</time>
      </trkpt>
      <trkpt lat="45.51341" lon="4.75161">
        <ele>417</ele>
        <time>2012-05-19T07:38:13Z</time>
      </trkpt>
      <trkpt lat="45.51341" lon="4.75161">
        <ele>417</ele>
        <time>2012-05-19T07:38:33Z</time>
      </trkpt>
      <trkpt lat="45.51341" lon="4.7516">
        <ele>417</ele>
        <time>2012-05-19T07:38:53Z</time>
      </trkpt>
      <trkpt lat="45.5134" lon="4.7516">
        <ele>417</ele>
        <time>2012-05-19T07:39:16Z</time>
      </trkpt>
      <trkpt lat="45.5134" lon="4.75161">
        <ele>418</ele>
        <time>2012-05-19T07:39:27Z</time>
      </trkpt>
      <trkpt lat="45.51341" lon="4.75162">
        <ele>418</ele>
        <time>2012-05-19T07:39:42Z</time>
      </trkpt>
      <trkpt lat="45.51341" lon="4.75162">
        <ele>418</ele>
        <time>2012-05-19T07:39:50Z</time>
      </trkpt>
      <trkpt lat="45.51342" lon="4.75161">
        <ele>418</ele>
        <time>2012-05-19T07:39:59Z</time>
      </trkpt>
      <trkpt lat="45.51342" lon="4.75162">
        <ele>418</ele>
        <time>2012-05-19T07:40:09Z</time>
      </trkpt>
      <trkpt lat="45.51342" lon="4.75161">
        <ele>418</ele>
        <time>2012-05-19T07:40:18Z</time>
      </trkpt>
      <trkpt lat="45.51337" lon="4.75163">
        <ele>417</ele>
        <time>2012-05-19T07:40:26Z</time>
      </trkpt>
      <trkpt lat="45.51326" lon="4.75177">
        <ele>415</ele>
        <time>2012-05-19T07:40:31Z</time>
      </trkpt>
      <trkpt lat="45.5131" lon="4.75196">
        <ele>413</ele>
        <time>2012-05-19T07:40:36Z</time>
      </trkpt>
      <trkpt lat="45.51303" lon="4.75206">
        <ele>412</ele>
        <time>2012-05-19T07:40:38Z</time>
      </trkpt>
      <trkpt lat="45.51287" lon="4.75225">
        <ele>408</ele>
        <time>2012-05-19T07:40:43Z</time>
      </trkpt>
      <trkpt lat="45.51283" lon="4.75229">
        <ele>408</ele>
        <time>2012-05-19T07:40:44Z</time>
      </trkpt>
      <trkpt lat="45.51275" lon="4.75234">
        <ele>407</ele>
        <time>2012-05-19T07:40:46Z</time>
      </trkpt>
      <trkpt lat="45.51271" lon="4.75237">
        <ele>406</ele>
        <time>2012-05-19T07:40:47Z</time>
      </trkpt>
      <trkpt lat="45.51264" lon="4.75241">
        <ele>405</ele>
        <time>2012-05-19T07:40:49Z</time>
      </trkpt>
      <trkpt lat="45.51256" lon="4.7525">
        <ele>403</ele>
        <time>2012-05-19T07:40:53Z</time>
      </trkpt>
      <trkpt lat="45.51256" lon="4.75253">
        <ele>403</ele>
        <time>2012-05-19T07:40:54Z</time>
      </trkpt>
      <trkpt lat="45.51256" lon="4.75256">
        <ele>403</ele>
        <time>2012-05-19T07:40:55Z</time>
      </trkpt>
      <trkpt lat="45.51257" lon="4.75258">
        <ele>402</ele>
        <time>2012-05-19T07:40:56Z</time>
      </trkpt>
      <trkpt lat="45.51259" lon="4.7526">
        <ele>403</ele>
        <time>2012-05-19T07:40:57Z</time>
      </trkpt>
      <trkpt lat="45.51273" lon="4.7528">
        <ele>401</ele>
        <time>2012-05-19T07:41:03Z</time>
      </trkpt>
      <trkpt lat="45.51277" lon="4.75283">
        <ele>401</ele>
        <time>2012-05-19T07:41:04Z</time>
      </trkpt>
      <trkpt lat="45.51281" lon="4.75286">
        <ele>401</ele>
        <time>2012-05-19T07:41:05Z</time>
      </trkpt>
      <trkpt lat="45.51295" lon="4.75296">
        <ele>400</ele>
        <time>2012-05-19T07:41:08Z</time>
      </trkpt>
      <trkpt lat="45.51309" lon="4.75302">
        <ele>398</ele>
        <time>2012-05-19T07:41:11Z</time>
      </trkpt>
      <trkpt lat="45.51315" lon="4.75304">
        <ele>398</ele>
        <time>2012-05-19T07:41:12Z</time>
      </trkpt>
      <trkpt lat="45.51333" lon="4.75307">
        <ele>396</ele>
        <time>2012-05-19T07:41:15Z</time>
      </trkpt>
      <trkpt lat="45.51338" lon="4.75309">
        <ele>396</ele>
        <time>2012-05-19T07:41:16Z</time>
      </trkpt>
      <trkpt lat="45.51345" lon="4.7531">
        <ele>395</ele>
        <time>2012-05-19T07:41:17Z</time>
      </trkpt>
      <trkpt lat="45.51351" lon="4.75311">
        <ele>395</ele>
        <time>2012-05-19T07:41:18Z</time>
      </trkpt>
      <trkpt lat="45.51358" lon="4.75312">
        <ele>394</ele>
        <time>2012-05-19T07:41:19Z</time>
      </trkpt>
      <trkpt lat="45.51364" lon="4.75314">
        <ele>393</ele>
        <time>2012-05-19T07:41:20Z</time>
      </trkpt>
      <trkpt lat="45.51404" lon="4.75322">
        <ele>390</ele>
        <time>2012-05-19T07:41:26Z</time>
      </trkpt>
      <trkpt lat="45.51409" lon="4.75323">
        <ele>390</ele>
        <time>2012-05-19T07:41:27Z</time>
      </trkpt>
      <trkpt lat="45.51414" lon="4.75327">
        <ele>389</ele>
        <time>2012-05-19T07:41:28Z</time>
      </trkpt>
      <trkpt lat="45.51418" lon="4.75332">
        <ele>389</ele>
        <time>2012-05-19T07:41:29Z</time>
      </trkpt>
      <trkpt lat="45.51422" lon="4.75339">
        <ele>388</ele>
        <time>2012-05-19T07:41:30Z</time>
      </trkpt>
      <trkpt lat="45.51426" lon="4.75346">
        <ele>388</ele>
        <time>2012-05-19T07:41:31Z</time>
      </trkpt>
      <trkpt lat="45.5143" lon="4.75353">
        <ele>387</ele>
        <time>2012-05-19T07:41:32Z</time>
      </trkpt>
      <trkpt lat="45.51435" lon="4.75359">
        <ele>388</ele>
        <time>2012-05-19T07:41:33Z</time>
      </trkpt>
      <trkpt lat="45.5144" lon="4.75364">
        <ele>387</ele>
        <time>2012-05-19T07:41:34Z</time>
      </trkpt>
      <trkpt lat="45.51446" lon="4.75367">
        <ele>386</ele>
        <time>2012-05-19T07:41:35Z</time>
      </trkpt>
      <trkpt lat="45.51453" lon="4.7537">
        <ele>385</ele>
        <time>2012-05-19T07:41:36Z</time>
      </trkpt>
      <trkpt lat="45.51461" lon="4.75372">
        <ele>385</ele>
        <time>2012-05-19T07:41:37Z</time>
      </trkpt>
      <trkpt lat="45.51469" lon="4.75373">
        <ele>384</ele>
        <time>2012-05-19T07:41:38Z</time>
      </trkpt>
      <trkpt lat="45.51495" lon="4.75375">
        <ele>382</ele>
        <time>2012-05-19T07:41:41Z</time>
      </trkpt>
      <trkpt lat="45.51504" lon="4.75377">
        <ele>381</ele>
        <time>2012-05-19T07:41:42Z</time>
      </trkpt>
      <trkpt lat="45.51513" lon="4.7538">
        <ele>381</ele>
        <time>2012-05-19T07:41:43Z</time>
      </trkpt>
      <trkpt lat="45.51529" lon="4.75383">
        <ele>380</ele>
        <time>2012-05-19T07:41:45Z</time>
      </trkpt>
      <trkpt lat="45.51536" lon="4.75384">
        <ele>380</ele>
        <time>2012-05-19T07:41:46Z</time>
      </trkpt>
      <trkpt lat="45.51549" lon="4.75383">
        <ele>379</ele>
        <time>2012-05-19T07:41:48Z</time>
      </trkpt>
      <trkpt lat="45.51561" lon="4.75383">
        <ele>378</ele>
        <time>2012-05-19T07:41:50Z</time>
      </trkpt>
      <trkpt lat="45.51566" lon="4.75387">
        <ele>378</ele>
        <time>2012-05-19T07:41:51Z</time>
      </trkpt>
      <trkpt lat="45.5157" lon="4.7539">
        <ele>377</ele>
        <time>2012-05-19T07:41:52Z</time>
      </trkpt>
      <trkpt lat="45.51572" lon="4.75394">
        <ele>377</ele>
        <time>2012-05-19T07:41:53Z</time>
      </trkpt>
      <trkpt lat="45.51573" lon="4.754">
        <ele>377</ele>
        <time>2012-05-19T07:41:54Z</time>
      </trkpt>
      <trkpt lat="45.51573" lon="4.75405">
        <ele>377</ele>
        <time>2012-05-19T07:41:55Z</time>
      </trkpt>
      <trkpt lat="45.51571" lon="4.75408">
        <ele>377</ele>
        <time>2012-05-19T07:41:56Z</time>
      </trkpt>
      <trkpt lat="45.51569" lon="4.75411">
        <ele>377</ele>
        <time>2012-05-19T07:41:57Z</time>
      </trkpt>
      <trkpt lat="45.51568" lon="4.75413">
        <ele>377</ele>
        <time>2012-05-19T07:41:58Z</time>
      </trkpt>
      <trkpt lat="45.51566" lon="4.75414">
        <ele>377</ele>
        <time>2012-05-19T07:41:59Z</time>
      </trkpt>
      <trkpt lat="45.51565" lon="4.75415">
        <ele>377</ele>
        <time>2012-05-19T07:42:00Z</time>
      </trkpt>
      <trkpt lat="45.51563" lon="4.75417">
        <ele>377</ele>
        <time>2012-05-19T07:42:05Z</time>
      </trkpt>
      <trkpt lat="45.51562" lon="4.75417">
        <ele>377</ele>
        <time>2012-05-19T07:42:16Z</time>
      </trkpt>
      <trkpt lat="45.51562" lon="4.75418">
        <ele>378</ele>
        <time>2012-05-19T07:42:29Z</time>
      </trkpt>
      <trkpt lat="45.51563" lon="4.75418">
        <ele>377</ele>
        <time>2012-05-19T07:42:41Z</time>
      </trkpt>
      <trkpt lat="45.51562" lon="4.75417">
        <ele>377</ele>
        <time>2012-05-19T07:42:55Z</time>
      </trkpt>
      <trkpt lat="45.51562" lon="4.75419">
        <ele>377</ele>
        <time>2012-05-19T07:43:03Z</time>
      </trkpt>
      <trkpt lat="45.51562" lon="4.75419">
        <ele>377</ele>
        <time>2012-05-19T07:43:15Z</time>
      </trkpt>
      <trkpt lat="45.51562" lon="4.75419">
        <ele>377</ele>
        <time>2012-05-19T07:43:27Z</time>
      </trkpt>
      <trkpt lat="45.51561" lon="4.7542">
        <ele>378</ele>
        <time>2012-05-19T07:43:40Z</time>
      </trkpt>
      <trkpt lat="45.51562" lon="4.7542">
        <ele>377</ele>
        <time>2012-05-19T07:43:55Z</time>
      </trkpt>
      <trkpt lat="45.51562" lon="4.7542">
        <ele>378</ele>
        <time>2012-05-19T07:44:05Z</time>
      </trkpt>
      <trkpt lat="45.51562" lon="4.7542">
        <ele>378</ele>
        <time>2012-05-19T07:44:13Z</time>
      </trkpt>
      <trkpt lat="45.51562" lon="4.7542">
        <ele>378</ele>
        <time>2012-05-19T07:44:23Z</time>
      </trkpt>
      <trkpt lat="45.51562" lon="4.7542">
        <ele>378</ele>
        <time>2012-05-19T07:44:31Z</time>
      </trkpt>
      <trkpt lat="45.51562" lon="4.7542">
        <ele>378</ele>
        <time>2012-05-19T07:44:39Z</time>
      </trkpt>
      <trkpt lat="45.51562" lon="4.7542">
        <ele>378</ele>
        <time>2012-05-19T07:44:51Z</time>
      </trkpt>
      <trkpt lat="45.51562" lon="4.75421">
        <ele>378</ele>
        <time>2012-05-19T07:45:03Z</time>
      </trkpt>
      <trkpt lat="45.51562" lon="4.75421">
        <ele>378</ele>
        <time>2012-05-19T07:45:17Z</time>
      </trkpt>
      <trkpt lat="45.51562" lon="4.75421">
        <ele>378</ele>
        <time>2012-05-19T07:45:27Z</time>
      </trkpt>
      <trkpt lat="45.51562" lon="4.75421">
        <ele>378</ele>
        <time>2012-05-19T07:45:41Z</time>
      </trkpt>
      <trkpt lat="45.51561" lon="4.75422">
        <ele>378</ele>
        <time>2012-05-19T07:45:54Z</time>
      </trkpt>
      <trkpt lat="45.51561" lon="4.75422">
        <ele>378</ele>
        <time>2012-05-19T07:46:05Z</time>
      </trkpt>
      <trkpt lat="45.51561" lon="4.75422">
        <ele>378</ele>
        <time>2012-05-19T07:46:18Z</time>
      </trkpt>
      <trkpt lat="45.51561" lon="4.75421">
        <ele>378</ele>
        <time>2012-05-19T07:46:28Z</time>
      </trkpt>
      <trkpt lat="45.51561" lon="4.7542">
        <ele>378</ele>
        <time>2012-05-19T07:46:43Z</time>
      </trkpt>
      <trkpt lat="45.51562" lon="4.7542">
        <ele>378</ele>
        <time>2012-05-19T07:46:52Z</time>
      </trkpt>
      <trkpt lat="45.51562" lon="4.7542">
        <ele>378</ele>
        <time>2012-05-19T07:47:01Z</time>
      </trkpt>
      <trkpt lat="45.51562" lon="4.75421">
        <ele>377</ele>
        <time>2012-05-19T07:47:15Z</time>
      </trkpt>
      <trkpt lat="45.51562" lon="4.75421">
        <ele>378</ele>
        <time>2012-05-19T07:47:24Z</time>
      </trkpt>
      <trkpt lat="45.51561" lon="4.75418">
        <ele>378</ele>
        <time>2012-05-19T07:47:40Z</time>
      </trkpt>
      <trkpt lat="45.51561" lon="4.75418">
        <ele>377</ele>
        <time>2012-05-19T07:47:55Z</time>
      </trkpt>
      <trkpt lat="45.51561" lon="4.75418">
        <ele>377</ele>
        <time>2012-05-19T07:48:06Z</time>
      </trkpt>
      <trkpt lat="45.51561" lon="4.75417">
        <ele>377</ele>
        <time>2012-05-19T07:48:19Z</time>
      </trkpt>
      <trkpt lat="45.51561" lon="4.75418">
        <ele>377</ele>
        <time>2012-05-19T07:48:33Z</time>
      </trkpt>
      <trkpt lat="45.51561" lon="4.7542">
        <ele>378</ele>
        <time>2012-05-19T07:48:49Z</time>
      </trkpt>
      <trkpt lat="45.51562" lon="4.7542">
        <ele>378</ele>
        <time>2012-05-19T07:49:06Z</time>
      </trkpt>
      <trkpt lat="45.51562" lon="4.7542">
        <ele>378</ele>
        <time>2012-05-19T07:49:19Z</time>
      </trkpt>
      <trkpt lat="45.51562" lon="4.75419">
        <ele>378</ele>
        <time>2012-05-19T07:49:37Z</time>
      </trkpt>
      <trkpt lat="45.51562" lon="4.7542">
        <ele>378</ele>
        <time>2012-05-19T07:49:51Z</time>
      </trkpt>
      <trkpt lat="45.51563" lon="4.7542">
        <ele>378</ele>
        <time>2012-05-19T07:50:07Z</time>
      </trkpt>
      <trkpt lat="45.51565" lon="4.7542">
        <ele>378</ele>
        <time>2012-05-19T07:50:22Z</time>
      </trkpt>
      <trkpt lat="45.51565" lon="4.75419">
        <ele>378</ele>
        <time>2012-05-19T07:50:34Z</time>
      </trkpt>
      <trkpt lat="45.51565" lon="4.75418">
        <ele>378</ele>
        <time>2012-05-19T07:50:51Z</time>
      </trkpt>
      <trkpt lat="45.51565" lon="4.75417">
        <ele>378</ele>
        <time>2012-05-19T07:51:12Z</time>
      </trkpt>
      <trkpt lat="45.51564" lon="4.75416">
        <ele>378</ele>
        <time>2012-05-19T07:51:24Z</time>
      </trkpt>
      <trkpt lat="45.51561" lon="4.75418">
        <ele>379</ele>
        <time>2012-05-19T07:51:30Z</time>
      </trkpt>
      <trkpt lat="45.51558" lon="4.75419">
        <ele>379</ele>
        <time>2012-05-19T07:51:34Z</time>
      </trkpt>
      <trkpt lat="45.51557" lon="4.7542">
        <ele>379</ele>
        <time>2012-05-19T07:51:35Z</time>
      </trkpt>
      <trkpt lat="45.51556" lon="4.75421">
        <ele>379</ele>
        <time>2012-05-19T07:51:36Z</time>
      </trkpt>
      <trkpt lat="45.51553" lon="4.75423">
        <ele>379</ele>
        <time>2012-05-19T07:51:38Z</time>
      </trkpt>
      <trkpt lat="45.51552" lon="4.75424">
        <ele>379</ele>
        <time>2012-05-19T07:51:39Z</time>
      </trkpt>
      <trkpt lat="45.5155" lon="4.75426">
        <ele>380</ele>
        <time>2012-05-19T07:51:40Z</time>
      </trkpt>
      <trkpt lat="45.51549" lon="4.75427">
        <ele>379</ele>
        <time>2012-05-19T07:51:41Z</time>
      </trkpt>
      <trkpt lat="45.51547" lon="4.75428">
        <ele>380</ele>
        <time>2012-05-19T07:51:42Z</time>
      </trkpt>
      <trkpt lat="45.51545" lon="4.7543">
        <ele>380</ele>
        <time>2012-05-19T07:51:43Z</time>
      </trkpt>
      <trkpt lat="45.51543" lon="4.75431">
        <ele>380</ele>
        <time>2012-05-19T07:51:44Z</time>
      </trkpt>
      <trkpt lat="45.5153" lon="4.75444">
        <ele>381</ele>
        <time>2012-05-19T07:51:51Z</time>
      </trkpt>
      <trkpt lat="45.51514" lon="4.75459">
        <ele>383</ele>
        <time>2012-05-19T07:51:59Z</time>
      </trkpt>
      <trkpt lat="45.5151" lon="4.75461">
        <ele>383</ele>
        <time>2012-05-19T07:52:02Z</time>
      </trkpt>
      <trkpt lat="45.51508" lon="4.75462">
        <ele>384</ele>
        <time>2012-05-19T07:52:03Z</time>
      </trkpt>
      <trkpt lat="45.51507" lon="4.75463">
        <ele>383</ele>
        <time>2012-05-19T07:52:04Z</time>
      </trkpt>
      <trkpt lat="45.5149" lon="4.75475">
        <ele>384</ele>
        <time>2012-05-19T07:52:11Z</time>
      </trkpt>
      <trkpt lat="45.51479" lon="4.75484">
        <ele>386</ele>
        <time>2012-05-19T07:52:18Z</time>
      </trkpt>
      <trkpt lat="45.51477" lon="4.75486">
        <ele>386</ele>
        <time>2012-05-19T07:52:19Z</time>
      </trkpt>
      <trkpt lat="45.51468" lon="4.75492">
        <ele>386</ele>
        <time>2012-05-19T07:52:23Z</time>
      </trkpt>
      <trkpt lat="45.51466" lon="4.75493">
        <ele>387</ele>
        <time>2012-05-19T07:52:24Z</time>
      </trkpt>
      <trkpt lat="45.51465" lon="4.75495">
        <ele>387</ele>
        <time>2012-05-19T07:52:25Z</time>
      </trkpt>
      <trkpt lat="45.51464" lon="4.75496">
        <ele>387</ele>
        <time>2012-05-19T07:52:26Z</time>
      </trkpt>
      <trkpt lat="45.51462" lon="4.75498">
        <ele>387</ele>
        <time>2012-05-19T07:52:27Z</time>
      </trkpt>
      <trkpt lat="45.51461" lon="4.755">
        <ele>387</ele>
        <time>2012-05-19T07:52:28Z</time>
      </trkpt>
      <trkpt lat="45.51459" lon="4.75501">
        <ele>387</ele>
        <time>2012-05-19T07:52:29Z</time>
      </trkpt>
      <trkpt lat="45.51448" lon="4.75512">
        <ele>388</ele>
        <time>2012-05-19T07:52:35Z</time>
      </trkpt>
      <trkpt lat="45.51435" lon="4.75525">
        <ele>389</ele>
        <time>2012-05-19T07:52:42Z</time>
      </trkpt>
      <trkpt lat="45.51422" lon="4.75537">
        <ele>389</ele>
        <time>2012-05-19T07:52:48Z</time>
      </trkpt>
      <trkpt lat="45.51406" lon="4.75548">
        <ele>391</ele>
        <time>2012-05-19T07:52:55Z</time>
      </trkpt>
      <trkpt lat="45.51393" lon="4.75555">
        <ele>392</ele>
        <time>2012-05-19T07:53:01Z</time>
      </trkpt>
      <trkpt lat="45.51374" lon="4.75563">
        <ele>393</ele>
        <time>2012-05-19T07:53:09Z</time>
      </trkpt>
      <trkpt lat="45.51361" lon="4.7557">
        <ele>394</ele>
        <time>2012-05-19T07:53:15Z</time>
      </trkpt>
      <trkpt lat="45.51346" lon="4.75578">
        <ele>395</ele>
        <time>2012-05-19T07:53:22Z</time>
      </trkpt>
      <trkpt lat="45.51329" lon="4.75588">
        <ele>397</ele>
        <time>2012-05-19T07:53:30Z</time>
      </trkpt>
      <trkpt lat="45.51317" lon="4.75597">
        <ele>398</ele>
        <time>2012-05-19T07:53:36Z</time>
      </trkpt>
      <trkpt lat="45.51308" lon="4.75608">
        <ele>399</ele>
        <time>2012-05-19T07:53:42Z</time>
      </trkpt>
      <trkpt lat="45.51299" lon="4.75621">
        <ele>400</ele>
        <time>2012-05-19T07:53:48Z</time>
      </trkpt>
      <trkpt lat="45.51296" lon="4.75625">
        <ele>400</ele>
        <time>2012-05-19T07:53:50Z</time>
      </trkpt>
      <trkpt lat="45.51286" lon="4.75646">
        <ele>401</ele>
        <time>2012-05-19T07:53:57Z</time>
      </trkpt>
      <trkpt lat="45.51276" lon="4.75657">
        <ele>402</ele>
        <time>2012-05-19T07:54:02Z</time>
      </trkpt>
      <trkpt lat="45.5126" lon="4.75674">
        <ele>403</ele>
        <time>2012-05-19T07:54:10Z</time>
      </trkpt>
      <trkpt lat="45.51242" lon="4.75694">
        <ele>404</ele>
        <time>2012-05-19T07:54:18Z</time>
      </trkpt>
      <trkpt lat="45.51234" lon="4.75717">
        <ele>405</ele>
        <time>2012-05-19T07:54:25Z</time>
      </trkpt>
      <trkpt lat="45.51225" lon="4.75732">
        <ele>405</ele>
        <time>2012-05-19T07:54:30Z</time>
      </trkpt>
      <trkpt lat="45.51201" lon="4.75759">
        <ele>405</ele>
        <time>2012-05-19T07:54:38Z</time>
      </trkpt>
      <trkpt lat="45.51178" lon="4.75802">
        <ele>404</ele>
        <time>2012-05-19T07:54:46Z</time>
      </trkpt>
      <trkpt lat="45.5116" lon="4.7583">
        <ele>404</ele>
        <time>2012-05-19T07:54:52Z</time>
      </trkpt>
      <trkpt lat="45.51157" lon="4.75833">
        <ele>403</ele>
        <time>2012-05-19T07:54:53Z</time>
      </trkpt>
      <trkpt lat="45.51124" lon="4.75864">
        <ele>403</ele>
        <time>2012-05-19T07:55:02Z</time>
      </trkpt>
      <trkpt lat="45.51112" lon="4.75881">
        <ele>404</ele>
        <time>2012-05-19T07:55:06Z</time>
      </trkpt>
      <trkpt lat="45.51109" lon="4.75886">
        <ele>403</ele>
        <time>2012-05-19T07:55:07Z</time>
      </trkpt>
      <trkpt lat="45.51091" lon="4.7592">
        <ele>404</ele>
        <time>2012-05-19T07:55:15Z</time>
      </trkpt>
      <trkpt lat="45.51068" lon="4.7595">
        <ele>406</ele>
        <time>2012-05-19T07:55:23Z</time>
      </trkpt>
      <trkpt lat="45.51054" lon="4.75959">
        <ele>406</ele>
        <time>2012-05-19T07:55:28Z</time>
      </trkpt>
      <trkpt lat="45.51043" lon="4.75949">
        <ele>407</ele>
        <time>2012-05-19T07:55:32Z</time>
      </trkpt>
      <trkpt lat="45.51029" lon="4.75922">
        <ele>408</ele>
        <time>2012-05-19T07:55:41Z</time>
      </trkpt>
      <trkpt lat="45.51025" lon="4.75921">
        <ele>408</ele>
        <time>2012-05-19T07:55:44Z</time>
      </trkpt>
      <trkpt lat="45.51024" lon="4.75924">
        <ele>408</ele>
        <time>2012-05-19T07:55:47Z</time>
      </trkpt>
      <trkpt lat="45.51023" lon="4.75926">
        <ele>408</ele>
        <time>2012-05-19T07:55:53Z</time>
      </trkpt>
      <trkpt lat="45.51023" lon="4.75927">
        <ele>408</ele>
        <time>2012-05-19T07:56:05Z</time>
      </trkpt>
      <trkpt lat="45.51023" lon="4.75926">
        <ele>409</ele>
        <time>2012-05-19T07:56:18Z</time>
      </trkpt>
      <trkpt lat="45.51023" lon="4.75926">
        <ele>409</ele>
        <time>2012-05-19T07:56:26Z</time>
      </trkpt>
      <trkpt lat="45.51023" lon="4.75926">
        <ele>409</ele>
        <time>2012-05-19T07:56:35Z</time>
      </trkpt>
      <trkpt lat="45.51023" lon="4.75926">
        <ele>409</ele>
        <time>2012-05-19T07:56:43Z</time>
      </trkpt>
      <trkpt lat="45.51023" lon="4.75926">
        <ele>408</ele>
        <time>2012-05-19T07:57:01Z</time>
      </trkpt>
      <trkpt lat="45.51026" lon="4.75924">
        <ele>409</ele>
        <time>2012-05-19T07:57:06Z</time>
      </trkpt>
      <trkpt lat="45.51027" lon="4.75923">
        <ele>409</ele>
        <time>2012-05-19T07:57:09Z</time>
      </trkpt>
      <trkpt lat="45.51028" lon="4.75923">
        <ele>409</ele>
        <time>2012-05-19T07:57:10Z</time>
      </trkpt>
      <trkpt lat="45.5103" lon="4.75923">
        <ele>409</ele>
        <time>2012-05-19T07:57:11Z</time>
      </trkpt>
      <trkpt lat="45.51032" lon="4.75925">
        <ele>409</ele>
        <time>2012-05-19T07:57:12Z</time>
      </trkpt>
      <trkpt lat="45.51033" lon="4.75927">
        <ele>409</ele>
        <time>2012-05-19T07:57:13Z</time>
      </trkpt>
      <trkpt lat="45.51035" lon="4.75929">
        <ele>409</ele>
        <time>2012-05-19T07:57:14Z</time>
      </trkpt>
      <trkpt lat="45.51036" lon="4.75933">
        <ele>409</ele>
        <time>2012-05-19T07:57:15Z</time>
      </trkpt>
      <trkpt lat="45.51048" lon="4.75957">
        <ele>408</ele>
        <time>2012-05-19T07:57:22Z</time>
      </trkpt>
      <trkpt lat="45.51058" lon="4.7596">
        <ele>408</ele>
        <time>2012-05-19T07:57:27Z</time>
      </trkpt>
      <trkpt lat="45.51064" lon="4.7596">
        <ele>407</ele>
        <time>2012-05-19T07:57:29Z</time>
      </trkpt>
      <trkpt lat="45.51067" lon="4.75961">
        <ele>407</ele>
        <time>2012-05-19T07:57:30Z</time>
      </trkpt>
      <trkpt lat="45.51069" lon="4.75964">
        <ele>407</ele>
        <time>2012-05-19T07:57:31Z</time>
      </trkpt>
      <trkpt lat="45.51071" lon="4.75967">
        <ele>406</ele>
        <time>2012-05-19T07:57:32Z</time>
      </trkpt>
      <trkpt lat="45.51072" lon="4.75969">
        <ele>406</ele>
        <time>2012-05-19T07:57:33Z</time>
      </trkpt>
      <trkpt lat="45.51073" lon="4.75972">
        <ele>406</ele>
        <time>2012-05-19T07:57:34Z</time>
      </trkpt>
      <trkpt lat="45.51074" lon="4.75974">
        <ele>406</ele>
        <time>2012-05-19T07:57:35Z</time>
      </trkpt>
      <trkpt lat="45.51075" lon="4.75976">
        <ele>406</ele>
        <time>2012-05-19T07:57:36Z</time>
      </trkpt>
      <trkpt lat="45.51075" lon="4.75977">
        <ele>405</ele>
        <time>2012-05-19T07:57:37Z</time>
      </trkpt>
      <trkpt lat="45.51075" lon="4.75979">
        <ele>406</ele>
        <time>2012-05-19T07:57:38Z</time>
      </trkpt>
      <trkpt lat="45.51075" lon="4.75985">
        <ele>404</ele>
        <time>2012-05-19T07:57:44Z</time>
      </trkpt>
      <trkpt lat="45.51075" lon="4.75985">
        <ele>405</ele>
        <time>2012-05-19T07:57:53Z</time>
      </trkpt>
      <trkpt lat="45.51075" lon="4.75985">
        <ele>405</ele>
        <time>2012-05-19T07:58:09Z</time>
      </trkpt>
      <trkpt lat="45.51074" lon="4.75985">
        <ele>405</ele>
        <time>2012-05-19T07:58:28Z</time>
      </trkpt>
      <trkpt lat="45.51074" lon="4.75985">
        <ele>404</ele>
        <time>2012-05-19T07:58:39Z</time>
      </trkpt>
      <trkpt lat="45.51075" lon="4.75985">
        <ele>405</ele>
        <time>2012-05-19T07:58:57Z</time>
      </trkpt>
      <trkpt lat="45.51075" lon="4.75985">
        <ele>405</ele>
        <time>2012-05-19T07:59:11Z</time>
      </trkpt>
      <trkpt lat="45.51076" lon="4.75983">
        <ele>405</ele>
        <time>2012-05-19T07:59:16Z</time>
      </trkpt>
      <trkpt lat="45.51076" lon="4.75982">
        <ele>405</ele>
        <time>2012-05-19T07:59:29Z</time>
      </trkpt>
      <trkpt lat="45.51076" lon="4.75982">
        <ele>405</ele>
        <time>2012-05-19T07:59:45Z</time>
      </trkpt>
      <trkpt lat="45.51076" lon="4.75983">
        <ele>405</ele>
        <time>2012-05-19T08:00:09Z</time>
      </trkpt>
      <trkpt lat="45.51076" lon="4.75983">
        <ele>405</ele>
        <time>2012-05-19T08:00:17Z</time>
      </trkpt>
      <trkpt lat="45.51075" lon="4.75984">
        <ele>405</ele>
        <time>2012-05-19T08:00:35Z</time>
      </trkpt>
      <trkpt lat="45.51075" lon="4.75984">
        <ele>405</ele>
        <time>2012-05-19T08:00:50Z</time>
      </trkpt>
      <trkpt lat="45.51075" lon="4.75985">
        <ele>406</ele>
        <time>2012-05-19T08:01:09Z</time>
      </trkpt>
      <trkpt lat="45.51075" lon="4.75984">
        <ele>406</ele>
        <time>2012-05-19T08:01:24Z</time>
      </trkpt>
      <trkpt lat="45.51075" lon="4.75984">
        <ele>406</ele>
        <time>2012-05-19T08:01:39Z</time>
      </trkpt>
      <trkpt lat="45.51074" lon="4.75984">
        <ele>406</ele>
        <time>2012-05-19T08:01:54Z</time>
      </trkpt>
      <trkpt lat="45.51074" lon="4.75983">
        <ele>406</ele>
        <time>2012-05-19T08:02:15Z</time>
      </trkpt>
      <trkpt lat="45.51074" lon="4.75983">
        <ele>406</ele>
        <time>2012-05-19T08:02:25Z</time>
      </trkpt>
      <trkpt lat="45.51074" lon="4.75983">
        <ele>406</ele>
        <time>2012-05-19T08:02:43Z</time>
      </trkpt>
      <trkpt lat="45.51074" lon="4.75983">
        <ele>406</ele>
        <time>2012-05-19T08:03:05Z</time>
      </trkpt>
      <trkpt lat="45.51074" lon="4.75983">
        <ele>406</ele>
        <time>2012-05-19T08:03:24Z</time>
      </trkpt>
      <trkpt lat="45.51074" lon="4.75983">
        <ele>406</ele>
        <time>2012-05-19T08:03:42Z</time>
      </trkpt>
      <trkpt lat="45.51076" lon="4.75982">
        <ele>407</ele>
        <time>2012-05-19T08:04:02Z</time>
      </trkpt>
      <trkpt lat="45.51076" lon="4.75981">
        <ele>407</ele>
        <time>2012-05-19T08:04:11Z</time>
      </trkpt>
      <trkpt lat="45.51075" lon="4.7598">
        <ele>407</ele>
        <time>2012-05-19T08:04:12Z</time>
      </trkpt>
      <trkpt lat="45.51075" lon="4.75977">
        <ele>407</ele>
        <time>2012-05-19T08:04:18Z</time>
      </trkpt>
      <trkpt lat="45.51072" lon="4.75973">
        <ele>408</ele>
        <time>2012-05-19T08:04:28Z</time>
      </trkpt>
      <trkpt lat="45.51071" lon="4.75968">
        <ele>408</ele>
        <time>2012-05-19T08:04:34Z</time>
      </trkpt>
      <trkpt lat="45.51065" lon="4.75959">
        <ele>408</ele>
        <time>2012-05-19T08:04:38Z</time>
      </trkpt>
      <trkpt lat="45.51063" lon="4.75958">
        <ele>408</ele>
        <time>2012-05-19T08:04:39Z</time>
      </trkpt>
      <trkpt lat="45.5106" lon="4.75958">
        <ele>409</ele>
        <time>2012-05-19T08:04:40Z</time>
      </trkpt>
      <trkpt lat="45.51058" lon="4.75958">
        <ele>409</ele>
        <time>2012-05-19T08:04:41Z</time>
      </trkpt>
      <trkpt lat="45.51055" lon="4.75958">
        <ele>409</ele>
        <time>2012-05-19T08:04:42Z</time>
      </trkpt>
      <trkpt lat="45.51052" lon="4.75958">
        <ele>409</ele>
        <time>2012-05-19T08:04:43Z</time>
      </trkpt>
      <trkpt lat="45.51049" lon="4.75957">
        <ele>409</ele>
        <time>2012-05-19T08:04:44Z</time>
      </trkpt>
      <trkpt lat="45.51047" lon="4.75955">
        <ele>409</ele>
        <time>2012-05-19T08:04:45Z</time>
      </trkpt>
      <trkpt lat="45.51044" lon="4.75952">
        <ele>410</ele>
        <time>2012-05-19T08:04:46Z</time>
      </trkpt>
      <trkpt lat="45.51042" lon="4.75949">
        <ele>410</ele>
        <time>2012-05-19T08:04:47Z</time>
      </trkpt>
      <trkpt lat="45.5104" lon="4.75945">
        <ele>410</ele>
        <time>2012-05-19T08:04:48Z</time>
      </trkpt>
      <trkpt lat="45.51038" lon="4.75942">
        <ele>410</ele>
        <time>2012-05-19T08:04:49Z</time>
      </trkpt>
      <trkpt lat="45.51037" lon="4.75938">
        <ele>411</ele>
        <time>2012-05-19T08:04:50Z</time>
      </trkpt>
      <trkpt lat="45.51028" lon="4.75925">
        <ele>410</ele>
        <time>2012-05-19T08:04:55Z</time>
      </trkpt>
      <trkpt lat="45.51025" lon="4.75925">
        <ele>411</ele>
        <time>2012-05-19T08:04:56Z</time>
      </trkpt>
      <trkpt lat="45.51024" lon="4.75925">
        <ele>411</ele>
        <time>2012-05-19T08:04:57Z</time>
      </trkpt>
      <trkpt lat="45.51021" lon="4.75927">
        <ele>411</ele>
        <time>2012-05-19T08:05:00Z</time>
      </trkpt>
      <trkpt lat="45.51019" lon="4.75929">
        <ele>412</ele>
        <time>2012-05-19T08:05:06Z</time>
      </trkpt>
      <trkpt lat="45.51019" lon="4.75929">
        <ele>411</ele>
        <time>2012-05-19T08:05:18Z</time>
      </trkpt>
      <trkpt lat="45.51018" lon="4.75929">
        <ele>412</ele>
        <time>2012-05-19T08:05:31Z</time>
      </trkpt>
      <trkpt lat="45.51018" lon="4.75929">
        <ele>411</ele>
        <time>2012-05-19T08:05:33Z</time>
      </trkpt>
      <trkpt lat="45.51009" lon="4.75933">
        <ele>411</ele>
        <time>2012-05-19T08:05:38Z</time>
      </trkpt>
      <trkpt lat="45.50996" lon="4.75942">
        <ele>413</ele>
        <time>2012-05-19T08:05:44Z</time>
      </trkpt>
      <trkpt lat="45.50974" lon="4.7596">
        <ele>415</ele>
        <time>2012-05-19T08:05:52Z</time>
      </trkpt>
      <trkpt lat="45.50955" lon="4.7598">
        <ele>416</ele>
        <time>2012-05-19T08:06:00Z</time>
      </trkpt>
      <trkpt lat="45.5094" lon="4.75995">
        <ele>416</ele>
        <time>2012-05-19T08:06:07Z</time>
      </trkpt>
      <trkpt lat="45.50925" lon="4.76025">
        <ele>414</ele>
        <time>2012-05-19T08:06:15Z</time>
      </trkpt>
      <trkpt lat="45.50928" lon="4.76049">
        <ele>414</ele>
        <time>2012-05-19T08:06:20Z</time>
      </trkpt>
      <trkpt lat="45.50935" lon="4.7607">
        <ele>414</ele>
        <time>2012-05-19T08:06:25Z</time>
      </trkpt>
      <trkpt lat="45.50946" lon="4.76093">
        <ele>413</ele>
        <time>2012-05-19T08:06:30Z</time>
      </trkpt>
      <trkpt lat="45.50948" lon="4.76099">
        <ele>413</ele>
        <time>2012-05-19T08:06:31Z</time>
      </trkpt>
      <trkpt lat="45.50949" lon="4.76105">
        <ele>413</ele>
        <time>2012-05-19T08:06:32Z</time>
      </trkpt>
      <trkpt lat="45.50948" lon="4.76111">
        <ele>413</ele>
        <time>2012-05-19T08:06:33Z</time>
      </trkpt>
      <trkpt lat="45.50948" lon="4.76118">
        <ele>412</ele>
        <time>2012-05-19T08:06:34Z</time>
      </trkpt>
      <trkpt lat="45.50948" lon="4.76124">
        <ele>412</ele>
        <time>2012-05-19T08:06:35Z</time>
      </trkpt>
      <trkpt lat="45.50948" lon="4.76138">
        <ele>411</ele>
        <time>2012-05-19T08:06:37Z</time>
      </trkpt>
      <trkpt lat="45.5095" lon="4.76145">
        <ele>409</ele>
        <time>2012-05-19T08:06:38Z</time>
      </trkpt>
      <trkpt lat="45.50959" lon="4.76179">
        <ele>406</ele>
        <time>2012-05-19T08:06:43Z</time>
      </trkpt>
      <trkpt lat="45.50962" lon="4.76198">
        <ele>404</ele>
        <time>2012-05-19T08:06:46Z</time>
      </trkpt>
      <trkpt lat="45.50964" lon="4.76205">
        <ele>403</ele>
        <time>2012-05-19T08:06:47Z</time>
      </trkpt>
      <trkpt lat="45.50966" lon="4.7621">
        <ele>402</ele>
        <time>2012-05-19T08:06:48Z</time>
      </trkpt>
      <trkpt lat="45.50969" lon="4.76215">
        <ele>401</ele>
        <time>2012-05-19T08:06:49Z</time>
      </trkpt>
      <trkpt lat="45.50971" lon="4.76218">
        <ele>400</ele>
        <time>2012-05-19T08:06:50Z</time>
      </trkpt>
      <trkpt lat="45.50974" lon="4.7622">
        <ele>399</ele>
        <time>2012-05-19T08:06:51Z</time>
      </trkpt>
      <trkpt lat="45.50976" lon="4.76223">
        <ele>399</ele>
        <time>2012-05-19T08:06:52Z</time>
      </trkpt>
      <trkpt lat="45.50977" lon="4.76225">
        <ele>398</ele>
        <time>2012-05-19T08:06:53Z</time>
      </trkpt>
      <trkpt lat="45.50978" lon="4.76227">
        <ele>398</ele>
        <time>2012-05-19T08:06:54Z</time>
      </trkpt>
      <trkpt lat="45.50979" lon="4.76228">
        <ele>397</ele>
        <time>2012-05-19T08:06:55Z</time>
      </trkpt>
      <trkpt lat="45.5098" lon="4.76229">
        <ele>397</ele>
        <time>2012-05-19T08:06:56Z</time>
      </trkpt>
      <trkpt lat="45.50981" lon="4.76231">
        <ele>396</ele>
        <time>2012-05-19T08:06:57Z</time>
      </trkpt>
      <trkpt lat="45.50981" lon="4.76232">
        <ele>396</ele>
        <time>2012-05-19T08:06:58Z</time>
      </trkpt>
      <trkpt lat="45.50984" lon="4.7624">
        <ele>394</ele>
        <time>2012-05-19T08:07:03Z</time>
      </trkpt>
      <trkpt lat="45.50988" lon="4.7625">
        <ele>392</ele>
        <time>2012-05-19T08:07:11Z</time>
      </trkpt>
      <trkpt lat="45.50989" lon="4.76253">
        <ele>391</ele>
        <time>2012-05-19T08:07:13Z</time>
      </trkpt>
      <trkpt lat="45.50989" lon="4.76255">
        <ele>392</ele>
        <time>2012-05-19T08:07:14Z</time>
      </trkpt>
      <trkpt lat="45.50989" lon="4.76257">
        <ele>391</ele>
        <time>2012-05-19T08:07:15Z</time>
      </trkpt>
      <trkpt lat="45.50989" lon="4.76259">
        <ele>391</ele>
        <time>2012-05-19T08:07:16Z</time>
      </trkpt>
      <trkpt lat="45.5099" lon="4.76262">
        <ele>391</ele>
        <time>2012-05-19T08:07:17Z</time>
      </trkpt>
      <trkpt lat="45.5099" lon="4.76264">
        <ele>391</ele>
        <time>2012-05-19T08:07:18Z</time>
      </trkpt>
      <trkpt lat="45.50993" lon="4.76272">
        <ele>388</ele>
        <time>2012-05-19T08:07:23Z</time>
      </trkpt>
      <trkpt lat="45.50995" lon="4.76276">
        <ele>387</ele>
        <time>2012-05-19T08:07:25Z</time>
      </trkpt>
      <trkpt lat="45.50999" lon="4.76276">
        <ele>386</ele>
        <time>2012-05-19T08:07:29Z</time>
      </trkpt>
      <trkpt lat="45.51002" lon="4.76291">
        <ele>384</ele>
        <time>2012-05-19T08:07:34Z</time>
      </trkpt>
      <trkpt lat="45.51003" lon="4.76304">
        <ele>381</ele>
        <time>2012-05-19T08:07:37Z</time>
      </trkpt>
      <trkpt lat="45.51003" lon="4.76309">
        <ele>381</ele>
        <time>2012-05-19T08:07:38Z</time>
      </trkpt>
      <trkpt lat="45.51005" lon="4.76319">
        <ele>380</ele>
        <time>2012-05-19T08:07:41Z</time>
      </trkpt>
      <trkpt lat="45.51013" lon="4.76334">
        <ele>375</ele>
        <time>2012-05-19T08:07:45Z</time>
      </trkpt>
      <trkpt lat="45.51017" lon="4.76336">
        <ele>374</ele>
        <time>2012-05-19T08:07:46Z</time>
      </trkpt>
      <trkpt lat="45.51027" lon="4.76346">
        <ele>370</ele>
        <time>2012-05-19T08:07:49Z</time>
      </trkpt>
      <trkpt lat="45.51032" lon="4.76356">
        <ele>369</ele>
        <time>2012-05-19T08:07:51Z</time>
      </trkpt>
      <trkpt lat="45.51034" lon="4.76366">
        <ele>367</ele>
        <time>2012-05-19T08:07:54Z</time>
      </trkpt>
      <trkpt lat="45.51033" lon="4.76378">
        <ele>367</ele>
        <time>2012-05-19T08:07:59Z</time>
      </trkpt>
      <trkpt lat="45.51029" lon="4.76385">
        <ele>369</ele>
        <time>2012-05-19T08:08:06Z</time>
      </trkpt>
      <trkpt lat="45.51029" lon="4.76387">
        <ele>369</ele>
        <time>2012-05-19T08:08:13Z</time>
      </trkpt>
      <trkpt lat="45.51028" lon="4.76396">
        <ele>369</ele>
        <time>2012-05-19T08:08:17Z</time>
      </trkpt>
      <trkpt lat="45.51026" lon="4.7641">
        <ele>370</ele>
        <time>2012-05-19T08:08:25Z</time>
      </trkpt>
      <trkpt lat="45.5102" lon="4.76431">
        <ele>370</ele>
        <time>2012-05-19T08:08:33Z</time>
      </trkpt>
      <trkpt lat="45.51011" lon="4.76454">
        <ele>372</ele>
        <time>2012-05-19T08:08:40Z</time>
      </trkpt>
      <trkpt lat="45.50998" lon="4.76476">
        <ele>373</ele>
        <time>2012-05-19T08:08:48Z</time>
      </trkpt>
      <trkpt lat="45.50992" lon="4.76487">
        <ele>373</ele>
        <time>2012-05-19T08:08:53Z</time>
      </trkpt>
      <trkpt lat="45.50987" lon="4.76495">
        <ele>373</ele>
        <time>2012-05-19T08:08:57Z</time>
      </trkpt>
      <trkpt lat="45.50985" lon="4.76501">
        <ele>374</ele>
        <time>2012-05-19T08:09:03Z</time>
      </trkpt>
      <trkpt lat="45.50983" lon="4.76506">
        <ele>374</ele>
        <time>2012-05-19T08:09:09Z</time>
      </trkpt>
      <trkpt lat="45.50981" lon="4.76514">
        <ele>375</ele>
        <time>2012-05-19T08:09:15Z</time>
      </trkpt>
      <trkpt lat="45.50979" lon="4.76519">
        <ele>375</ele>
        <time>2012-05-19T08:09:23Z</time>
      </trkpt>
      <trkpt lat="45.5098" lon="4.7652">
        <ele>376</ele>
        <time>2012-05-19T08:09:30Z</time>
      </trkpt>
      <trkpt lat="45.50979" lon="4.76524">
        <ele>376</ele>
        <time>2012-05-19T08:09:35Z</time>
      </trkpt>
      <trkpt lat="45.50974" lon="4.76542">
        <ele>376</ele>
        <time>2012-05-19T08:09:43Z</time>
      </trkpt>
      <trkpt lat="45.5097" lon="4.76553">
        <ele>377</ele>
        <time>2012-05-19T08:09:50Z</time>
      </trkpt>
      <trkpt lat="45.5097" lon="4.76555">
        <ele>378</ele>
        <time>2012-05-19T08:09:51Z</time>
      </trkpt>
      <trkpt lat="45.50968" lon="4.76567">
        <ele>380</ele>
        <time>2012-05-19T08:09:59Z</time>
      </trkpt>
      <trkpt lat="45.50967" lon="4.76573">
        <ele>381</ele>
        <time>2012-05-19T08:10:02Z</time>
      </trkpt>
      <trkpt lat="45.50957" lon="4.76592">
        <ele>382</ele>
        <time>2012-05-19T08:10:11Z</time>
      </trkpt>
      <trkpt lat="45.50947" lon="4.7661">
        <ele>384</ele>
        <time>2012-05-19T08:10:19Z</time>
      </trkpt>
      <trkpt lat="45.5094" lon="4.76624">
        <ele>385</ele>
        <time>2012-05-19T08:10:25Z</time>
      </trkpt>
      <trkpt lat="45.50936" lon="4.76631">
        <ele>386</ele>
        <time>2012-05-19T08:10:29Z</time>
      </trkpt>
      <trkpt lat="45.50933" lon="4.76637">
        <ele>386</ele>
        <time>2012-05-19T08:10:32Z</time>
      </trkpt>
      <trkpt lat="45.50927" lon="4.76652">
        <ele>388</ele>
        <time>2012-05-19T08:10:40Z</time>
      </trkpt>
      <trkpt lat="45.50918" lon="4.76669">
        <ele>390</ele>
        <time>2012-05-19T08:10:48Z</time>
      </trkpt>
      <trkpt lat="45.5091" lon="4.76685">
        <ele>391</ele>
        <time>2012-05-19T08:10:55Z</time>
      </trkpt>
      <trkpt lat="45.50903" lon="4.76701">
        <ele>392</ele>
        <time>2012-05-19T08:11:02Z</time>
      </trkpt>
      <trkpt lat="45.50893" lon="4.76729">
        <ele>394</ele>
        <time>2012-05-19T08:11:13Z</time>
      </trkpt>
      <trkpt lat="45.5089" lon="4.76746">
        <ele>395</ele>
        <time>2012-05-19T08:11:20Z</time>
      </trkpt>
      <trkpt lat="45.5089" lon="4.76749">
        <ele>395</ele>
        <time>2012-05-19T08:11:21Z</time>
      </trkpt>
      <trkpt lat="45.50885" lon="4.7676">
        <ele>396</ele>
        <time>2012-05-19T08:11:26Z</time>
      </trkpt>
      <trkpt lat="45.50877" lon="4.76786">
        <ele>396</ele>
        <time>2012-05-19T08:11:35Z</time>
      </trkpt>
      <trkpt lat="45.50866" lon="4.76814">
        <ele>397</ele>
        <time>2012-05-19T08:11:43Z</time>
      </trkpt>
      <trkpt lat="45.50862" lon="4.76835">
        <ele>397</ele>
        <time>2012-05-19T08:11:49Z</time>
      </trkpt>
      <trkpt lat="45.5086" lon="4.76857">
        <ele>397</ele>
        <time>2012-05-19T08:11:55Z</time>
      </trkpt>
      <trkpt lat="45.50854" lon="4.76885">
        <ele>398</ele>
        <time>2012-05-19T08:12:03Z</time>
      </trkpt>
      <trkpt lat="45.50852" lon="4.76905">
        <ele>400</ele>
        <time>2012-05-19T08:12:09Z</time>
      </trkpt>
      <trkpt lat="45.50848" lon="4.7693">
        <ele>401</ele>
        <time>2012-05-19T08:12:16Z</time>
      </trkpt>
      <trkpt lat="45.50848" lon="4.7694">
        <ele>403</ele>
        <time>2012-05-19T08:12:19Z</time>
      </trkpt>
      <trkpt lat="45.50845" lon="4.76965">
        <ele>405</ele>
        <time>2012-05-19T08:12:26Z</time>
      </trkpt>
      <trkpt lat="45.50839" lon="4.76986">
        <ele>406</ele>
        <time>2012-05-19T08:12:33Z</time>
      </trkpt>
      <trkpt lat="45.50833" lon="4.77003">
        <ele>408</ele>
        <time>2012-05-19T08:12:39Z</time>
      </trkpt>
      <trkpt lat="45.5083" lon="4.77013">
        <ele>408</ele>
        <time>2012-05-19T08:12:43Z</time>
      </trkpt>
      <trkpt lat="45.50838" lon="4.77018">
        <ele>409</ele>
        <time>2012-05-19T08:12:49Z</time>
      </trkpt>
      <trkpt lat="45.50845" lon="4.77015">
        <ele>410</ele>
        <time>2012-05-19T08:12:52Z</time>
      </trkpt>
      <trkpt lat="45.5087" lon="4.77008">
        <ele>411</ele>
        <time>2012-05-19T08:13:03Z</time>
      </trkpt>
      <trkpt lat="45.5089" lon="4.76995">
        <ele>412</ele>
        <time>2012-05-19T08:13:12Z</time>
      </trkpt>
      <trkpt lat="45.50906" lon="4.76977">
        <ele>414</ele>
        <time>2012-05-19T08:13:21Z</time>
      </trkpt>
      <trkpt lat="45.50917" lon="4.7696">
        <ele>415</ele>
        <time>2012-05-19T08:13:28Z</time>
      </trkpt>
      <trkpt lat="45.50925" lon="4.76946">
        <ele>416</ele>
        <time>2012-05-19T08:13:34Z</time>
      </trkpt>
      <trkpt lat="45.50944" lon="4.76916">
        <ele>416</ele>
        <time>2012-05-19T08:13:43Z</time>
      </trkpt>
      <trkpt lat="45.50958" lon="4.76899">
        <ele>416</ele>
        <time>2012-05-19T08:13:49Z</time>
      </trkpt>
      <trkpt lat="45.50983" lon="4.7688">
        <ele>417</ele>
        <time>2012-05-19T08:13:57Z</time>
      </trkpt>
      <trkpt lat="45.51007" lon="4.76869">
        <ele>419</ele>
        <time>2012-05-19T08:14:04Z</time>
      </trkpt>
      <trkpt lat="45.51025" lon="4.76853">
        <ele>420</ele>
        <time>2012-05-19T08:14:11Z</time>
      </trkpt>
      <trkpt lat="45.51038" lon="4.76827">
        <ele>422</ele>
        <time>2012-05-19T08:14:19Z</time>
      </trkpt>
      <trkpt lat="45.51045" lon="4.76816">
        <ele>423</ele>
        <time>2012-05-19T08:14:24Z</time>
      </trkpt>
      <trkpt lat="45.51062" lon="4.76801">
        <ele>426</ele>
        <time>2012-05-19T08:14:33Z</time>
      </trkpt>
      <trkpt lat="45.51081" lon="4.76792">
        <ele>426</ele>
        <time>2012-05-19T08:14:42Z</time>
      </trkpt>
      <trkpt lat="45.51096" lon="4.76787">
        <ele>427</ele>
        <time>2012-05-19T08:14:49Z</time>
      </trkpt>
      <trkpt lat="45.51116" lon="4.76782">
        <ele>429</ele>
        <time>2012-05-19T08:14:58Z</time>
      </trkpt>
      <trkpt lat="45.51139" lon="4.76777">
        <ele>431</ele>
        <time>2012-05-19T08:15:09Z</time>
      </trkpt>
      <trkpt lat="45.5116" lon="4.76777">
        <ele>432</ele>
        <time>2012-05-19T08:15:18Z</time>
      </trkpt>
      <trkpt lat="45.51179" lon="4.76779">
        <ele>434</ele>
        <time>2012-05-19T08:15:27Z</time>
      </trkpt>
      <trkpt lat="45.51189" lon="4.76793">
        <ele>433</ele>
        <time>2012-05-19T08:15:32Z</time>
      </trkpt>
      <trkpt lat="45.51199" lon="4.76813">
        <ele>434</ele>
        <time>2012-05-19T08:15:38Z</time>
      </trkpt>
      <trkpt lat="45.5121" lon="4.76829">
        <ele>434</ele>
        <time>2012-05-19T08:15:43Z</time>
      </trkpt>
      <trkpt lat="45.51219" lon="4.7684">
        <ele>434</ele>
        <time>2012-05-19T08:15:46Z</time>
      </trkpt>
      <trkpt lat="45.51223" lon="4.76842">
        <ele>434</ele>
        <time>2012-05-19T08:15:47Z</time>
      </trkpt>
      <trkpt lat="45.51226" lon="4.76846">
        <ele>434</ele>
        <time>2012-05-19T08:15:48Z</time>
      </trkpt>
      <trkpt lat="45.5123" lon="4.76857">
        <ele>433</ele>
        <time>2012-05-19T08:15:50Z</time>
      </trkpt>
      <trkpt lat="45.51232" lon="4.76862">
        <ele>434</ele>
        <time>2012-05-19T08:15:51Z</time>
      </trkpt>
      <trkpt lat="45.51233" lon="4.76866">
        <ele>433</ele>
        <time>2012-05-19T08:15:52Z</time>
      </trkpt>
      <trkpt lat="45.5124" lon="4.76889">
        <ele>434</ele>
        <time>2012-05-19T08:15:57Z</time>
      </trkpt>
      <trkpt lat="45.51244" lon="4.76893">
        <ele>434</ele>
        <time>2012-05-19T08:15:58Z</time>
      </trkpt>
      <trkpt lat="45.51265" lon="4.76923">
        <ele>434</ele>
        <time>2012-05-19T08:16:05Z</time>
      </trkpt>
      <trkpt lat="45.51288" lon="4.76943">
        <ele>434</ele>
        <time>2012-05-19T08:16:11Z</time>
      </trkpt>
      <trkpt lat="45.51304" lon="4.76962">
        <ele>435</ele>
        <time>2012-05-19T08:16:17Z</time>
      </trkpt>
      <trkpt lat="45.5132" lon="4.76983">
        <ele>437</ele>
        <time>2012-05-19T08:16:24Z</time>
      </trkpt>
      <trkpt lat="45.51334" lon="4.77001">
        <ele>437</ele>
        <time>2012-05-19T08:16:30Z</time>
      </trkpt>
      <trkpt lat="45.51351" lon="4.77016">
        <ele>437</ele>
        <time>2012-05-19T08:16:36Z</time>
      </trkpt>
      <trkpt lat="45.51355" lon="4.77021">
        <ele>437</ele>
        <time>2012-05-19T08:16:38Z</time>
      </trkpt>
      <trkpt lat="45.51356" lon="4.77024">
        <ele>437</ele>
        <time>2012-05-19T08:16:39Z</time>
      </trkpt>
      <trkpt lat="45.51372" lon="4.77054">
        <ele>438</ele>
        <time>2012-05-19T08:16:47Z</time>
      </trkpt>
      <trkpt lat="45.51383" lon="4.77076">
        <ele>438</ele>
        <time>2012-05-19T08:16:53Z</time>
      </trkpt>
      <trkpt lat="45.51391" lon="4.77097">
        <ele>438</ele>
        <time>2012-05-19T08:16:59Z</time>
      </trkpt>
      <trkpt lat="45.51401" lon="4.77117">
        <ele>438</ele>
        <time>2012-05-19T08:17:05Z</time>
      </trkpt>
      <trkpt lat="45.51415" lon="4.77138">
        <ele>438</ele>
        <time>2012-05-19T08:17:11Z</time>
      </trkpt>
      <trkpt lat="45.51429" lon="4.77159">
        <ele>437</ele>
        <time>2012-05-19T08:17:17Z</time>
      </trkpt>
      <trkpt lat="45.51444" lon="4.77172">
        <ele>437</ele>
        <time>2012-05-19T08:17:22Z</time>
      </trkpt>
      <trkpt lat="45.51465" lon="4.77198">
        <ele>436</ele>
        <time>2012-05-19T08:17:29Z</time>
      </trkpt>
      <trkpt lat="45.51481" lon="4.77214">
        <ele>436</ele>
        <time>2012-05-19T08:17:34Z</time>
      </trkpt>
      <trkpt lat="45.51502" lon="4.77232">
        <ele>435</ele>
        <time>2012-05-19T08:17:40Z</time>
      </trkpt>
      <trkpt lat="45.51523" lon="4.77252">
        <ele>434</ele>
        <time>2012-05-19T08:17:46Z</time>
      </trkpt>
      <trkpt lat="45.51528" lon="4.77253">
        <ele>434</ele>
        <time>2012-05-19T08:17:47Z</time>
      </trkpt>
      <trkpt lat="45.51533" lon="4.77254">
        <ele>434</ele>
        <time>2012-05-19T08:17:48Z</time>
      </trkpt>
      <trkpt lat="45.51539" lon="4.77253">
        <ele>433</ele>
        <time>2012-05-19T08:17:49Z</time>
      </trkpt>
      <trkpt lat="45.51547" lon="4.77251">
        <ele>433</ele>
        <time>2012-05-19T08:17:50Z</time>
      </trkpt>
      <trkpt lat="45.51552" lon="4.77252">
        <ele>433</ele>
        <time>2012-05-19T08:17:51Z</time>
      </trkpt>
      <trkpt lat="45.51558" lon="4.77254">
        <ele>432</ele>
        <time>2012-05-19T08:17:52Z</time>
      </trkpt>
      <trkpt lat="45.51564" lon="4.77256">
        <ele>432</ele>
        <time>2012-05-19T08:17:53Z</time>
      </trkpt>
      <trkpt lat="45.51569" lon="4.77259">
        <ele>432</ele>
        <time>2012-05-19T08:17:54Z</time>
      </trkpt>
      <trkpt lat="45.51604" lon="4.77277">
        <ele>431</ele>
        <time>2012-05-19T08:18:01Z</time>
      </trkpt>
      <trkpt lat="45.51625" lon="4.77284">
        <ele>430</ele>
        <time>2012-05-19T08:18:05Z</time>
      </trkpt>
      <trkpt lat="45.5163" lon="4.77286">
        <ele>430</ele>
        <time>2012-05-19T08:18:06Z</time>
      </trkpt>
      <trkpt lat="45.51634" lon="4.77289">
        <ele>430</ele>
        <time>2012-05-19T08:18:07Z</time>
      </trkpt>
      <trkpt lat="45.51638" lon="4.77291">
        <ele>430</ele>
        <time>2012-05-19T08:18:08Z</time>
      </trkpt>
      <trkpt lat="45.51641" lon="4.77292">
        <ele>429</ele>
        <time>2012-05-19T08:18:09Z</time>
      </trkpt>
      <trkpt lat="45.51662" lon="4.773">
        <ele>429</ele>
        <time>2012-05-19T08:18:15Z</time>
      </trkpt>
      <trkpt lat="45.51666" lon="4.77303">
        <ele>429</ele>
        <time>2012-05-19T08:18:16Z</time>
      </trkpt>
      <trkpt lat="45.51674" lon="4.7731">
        <ele>429</ele>
        <time>2012-05-19T08:18:18Z</time>
      </trkpt>
      <trkpt lat="45.51678" lon="4.77312">
        <ele>428</ele>
        <time>2012-05-19T08:18:19Z</time>
      </trkpt>
      <trkpt lat="45.51683" lon="4.77314">
        <ele>428</ele>
        <time>2012-05-19T08:18:20Z</time>
      </trkpt>
      <trkpt lat="45.51688" lon="4.77315">
        <ele>428</ele>
        <time>2012-05-19T08:18:21Z</time>
      </trkpt>
      <trkpt lat="45.51694" lon="4.77316">
        <ele>428</ele>
        <time>2012-05-19T08:18:22Z</time>
      </trkpt>
      <trkpt lat="45.51734" lon="4.77322">
        <ele>427</ele>
        <time>2012-05-19T08:18:31Z</time>
      </trkpt>
      <trkpt lat="45.51738" lon="4.77321">
        <ele>428</ele>
        <time>2012-05-19T08:18:32Z</time>
      </trkpt>
      <trkpt lat="45.51743" lon="4.77322">
        <ele>428</ele>
        <time>2012-05-19T08:18:33Z</time>
      </trkpt>
      <trkpt lat="45.51773" lon="4.77322">
        <ele>428</ele>
        <time>2012-05-19T08:18:40Z</time>
      </trkpt>
      <trkpt lat="45.51777" lon="4.7732">
        <ele>428</ele>
        <time>2012-05-19T08:18:41Z</time>
      </trkpt>
      <trkpt lat="45.51793" lon="4.77309">
        <ele>428</ele>
        <time>2012-05-19T08:18:45Z</time>
      </trkpt>
      <trkpt lat="45.51797" lon="4.77306">
        <ele>428</ele>
        <time>2012-05-19T08:18:46Z</time>
      </trkpt>
      <trkpt lat="45.518" lon="4.77302">
        <ele>428</ele>
        <time>2012-05-19T08:18:47Z</time>
      </trkpt>
      <trkpt lat="45.51809" lon="4.77288">
        <ele>429</ele>
        <time>2012-05-19T08:18:50Z</time>
      </trkpt>
      <trkpt lat="45.51812" lon="4.77284">
        <ele>428</ele>
        <time>2012-05-19T08:18:51Z</time>
      </trkpt>
      <trkpt lat="45.51815" lon="4.77279">
        <ele>429</ele>
        <time>2012-05-19T08:18:52Z</time>
      </trkpt>
      <trkpt lat="45.51822" lon="4.77264">
        <ele>429</ele>
        <time>2012-05-19T08:18:55Z</time>
      </trkpt>
      <trkpt lat="45.51837" lon="4.77225">
        <ele>430</ele>
        <time>2012-05-19T08:19:02Z</time>
      </trkpt>
      <trkpt lat="45.51838" lon="4.7722">
        <ele>430</ele>
        <time>2012-05-19T08:19:03Z</time>
      </trkpt>
      <trkpt lat="45.5185" lon="4.77174">
        <ele>431</ele>
        <time>2012-05-19T08:19:12Z</time>
      </trkpt>
      <trkpt lat="45.5185" lon="4.77141">
        <ele>432</ele>
        <time>2012-05-19T08:19:19Z</time>
      </trkpt>
      <trkpt lat="45.51848" lon="4.77097">
        <ele>435</ele>
        <time>2012-05-19T08:19:29Z</time>
      </trkpt>
      <trkpt lat="45.51855" lon="4.77068">
        <ele>436</ele>
        <time>2012-05-19T08:19:36Z</time>
      </trkpt>
      <trkpt lat="45.51868" lon="4.77051">
        <ele>438</ele>
        <time>2012-05-19T08:19:42Z</time>
      </trkpt>
      <trkpt lat="45.5187" lon="4.77048">
        <ele>438</ele>
        <time>2012-05-19T08:19:44Z</time>
      </trkpt>
      <trkpt lat="45.51872" lon="4.77047">
        <ele>438</ele>
        <time>2012-05-19T08:19:45Z</time>
      </trkpt>
      <trkpt lat="45.51874" lon="4.77047">
        <ele>438</ele>
        <time>2012-05-19T08:19:46Z</time>
      </trkpt>
      <trkpt lat="45.51876" lon="4.77046">
        <ele>438</ele>
        <time>2012-05-19T08:19:47Z</time>
      </trkpt>
      <trkpt lat="45.51878" lon="4.77044">
        <ele>438</ele>
        <time>2012-05-19T08:19:48Z</time>
      </trkpt>
      <trkpt lat="45.51881" lon="4.77043">
        <ele>439</ele>
        <time>2012-05-19T08:19:49Z</time>
      </trkpt>
      <trkpt lat="45.51883" lon="4.77043">
        <ele>439</ele>
        <time>2012-05-19T08:19:50Z</time>
      </trkpt>
      <trkpt lat="45.51885" lon="4.77042">
        <ele>439</ele>
        <time>2012-05-19T08:19:51Z</time>
      </trkpt>
      <trkpt lat="45.51887" lon="4.77042">
        <ele>439</ele>
        <time>2012-05-19T08:19:52Z</time>
      </trkpt>
      <trkpt lat="45.51906" lon="4.77039">
        <ele>441</ele>
        <time>2012-05-19T08:20:00Z</time>
      </trkpt>
      <trkpt lat="45.51922" lon="4.77034">
        <ele>442</ele>
        <time>2012-05-19T08:20:07Z</time>
      </trkpt>
      <trkpt lat="45.51933" lon="4.77018">
        <ele>443</ele>
        <time>2012-05-19T08:20:14Z</time>
      </trkpt>
      <trkpt lat="45.51937" lon="4.76993">
        <ele>445</ele>
        <time>2012-05-19T08:20:22Z</time>
      </trkpt>
      <trkpt lat="45.51939" lon="4.76967">
        <ele>446</ele>
        <time>2012-05-19T08:20:30Z</time>
      </trkpt>
      <trkpt lat="45.51941" lon="4.76937">
        <ele>448</ele>
        <time>2012-05-19T08:20:39Z</time>
      </trkpt>
      <trkpt lat="45.51948" lon="4.7692">
        <ele>449</ele>
        <time>2012-05-19T08:20:45Z</time>
      </trkpt>
      <trkpt lat="45.51962" lon="4.7691">
        <ele>450</ele>
        <time>2012-05-19T08:20:52Z</time>
      </trkpt>
      <trkpt lat="45.51988" lon="4.769">
        <ele>451</ele>
        <time>2012-05-19T08:21:03Z</time>
      </trkpt>
      <trkpt lat="45.52009" lon="4.76894">
        <ele>453</ele>
        <time>2012-05-19T08:21:12Z</time>
      </trkpt>
      <trkpt lat="45.52034" lon="4.76885">
        <ele>453</ele>
        <time>2012-05-19T08:21:22Z</time>
      </trkpt>
      <trkpt lat="45.52055" lon="4.76876">
        <ele>454</ele>
        <time>2012-05-19T08:21:30Z</time>
      </trkpt>
      <trkpt lat="45.5208" lon="4.76865">
        <ele>455</ele>
        <time>2012-05-19T08:21:38Z</time>
      </trkpt>
      <trkpt lat="45.52107" lon="4.76853">
        <ele>457</ele>
        <time>2012-05-19T08:21:47Z</time>
      </trkpt>
      <trkpt lat="45.52134" lon="4.76838">
        <ele>457</ele>
        <time>2012-05-19T08:21:55Z</time>
      </trkpt>
      <trkpt lat="45.52166" lon="4.76812">
        <ele>457</ele>
        <time>2012-05-19T08:22:04Z</time>
      </trkpt>
      <trkpt lat="45.52177" lon="4.768">
        <ele>456</ele>
        <time>2012-05-19T08:22:07Z</time>
      </trkpt>
      <trkpt lat="45.52208" lon="4.76757">
        <ele>454</ele>
        <time>2012-05-19T08:22:15Z</time>
      </trkpt>
      <trkpt lat="45.52213" lon="4.76753">
        <ele>454</ele>
        <time>2012-05-19T08:22:16Z</time>
      </trkpt>
      <trkpt lat="45.52218" lon="4.7675">
        <ele>454</ele>
        <time>2012-05-19T08:22:17Z</time>
      </trkpt>
      <trkpt lat="45.52224" lon="4.76748">
        <ele>454</ele>
        <time>2012-05-19T08:22:18Z</time>
      </trkpt>
      <trkpt lat="45.52229" lon="4.76748">
        <ele>454</ele>
        <time>2012-05-19T08:22:19Z</time>
      </trkpt>
      <trkpt lat="45.52233" lon="4.76749">
        <ele>455</ele>
        <time>2012-05-19T08:22:20Z</time>
      </trkpt>
      <trkpt lat="45.52238" lon="4.76751">
        <ele>454</ele>
        <time>2012-05-19T08:22:21Z</time>
      </trkpt>
      <trkpt lat="45.52242" lon="4.76754">
        <ele>455</ele>
        <time>2012-05-19T08:22:22Z</time>
      </trkpt>
      <trkpt lat="45.52245" lon="4.76758">
        <ele>455</ele>
        <time>2012-05-19T08:22:23Z</time>
      </trkpt>
      <trkpt lat="45.52248" lon="4.76762">
        <ele>455</ele>
        <time>2012-05-19T08:22:24Z</time>
      </trkpt>
      <trkpt lat="45.52251" lon="4.76766">
        <ele>455</ele>
        <time>2012-05-19T08:22:25Z</time>
      </trkpt>
      <trkpt lat="45.52254" lon="4.76771">
        <ele>456</ele>
        <time>2012-05-19T08:22:26Z</time>
      </trkpt>
      <trkpt lat="45.52276" lon="4.76802">
        <ele>457</ele>
        <time>2012-05-19T08:22:34Z</time>
      </trkpt>
      <trkpt lat="45.52279" lon="4.76805">
        <ele>458</ele>
        <time>2012-05-19T08:22:35Z</time>
      </trkpt>
      <trkpt lat="45.52305" lon="4.76817">
        <ele>459</ele>
        <time>2012-05-19T08:22:43Z</time>
      </trkpt>
      <trkpt lat="45.52337" lon="4.76824">
        <ele>460</ele>
        <time>2012-05-19T08:22:53Z</time>
      </trkpt>
      <trkpt lat="45.52359" lon="4.76825">
        <ele>460</ele>
        <time>2012-05-19T08:22:59Z</time>
      </trkpt>
      <trkpt lat="45.52364" lon="4.76825">
        <ele>459</ele>
        <time>2012-05-19T08:23:00Z</time>
      </trkpt>
      <trkpt lat="45.52367" lon="4.76827">
        <ele>459</ele>
        <time>2012-05-19T08:23:01Z</time>
      </trkpt>
      <trkpt lat="45.5237" lon="4.76832">
        <ele>459</ele>
        <time>2012-05-19T08:23:02Z</time>
      </trkpt>
      <trkpt lat="45.52371" lon="4.76838">
        <ele>459</ele>
        <time>2012-05-19T08:23:03Z</time>
      </trkpt>
      <trkpt lat="45.5237" lon="4.76845">
        <ele>459</ele>
        <time>2012-05-19T08:23:04Z</time>
      </trkpt>
      <trkpt lat="45.5237" lon="4.76852">
        <ele>459</ele>
        <time>2012-05-19T08:23:05Z</time>
      </trkpt>
      <trkpt lat="45.5237" lon="4.76859">
        <ele>458</ele>
        <time>2012-05-19T08:23:06Z</time>
      </trkpt>
      <trkpt lat="45.52371" lon="4.76898">
        <ele>457</ele>
        <time>2012-05-19T08:23:11Z</time>
      </trkpt>
      <trkpt lat="45.52372" lon="4.76924">
        <ele>457</ele>
        <time>2012-05-19T08:23:14Z</time>
      </trkpt>
      <trkpt lat="45.52373" lon="4.76932">
        <ele>456</ele>
        <time>2012-05-19T08:23:15Z</time>
      </trkpt>
      <trkpt lat="45.52374" lon="4.76941">
        <ele>456</ele>
        <time>2012-05-19T08:23:16Z</time>
      </trkpt>
      <trkpt lat="45.52378" lon="4.77005">
        <ele>455</ele>
        <time>2012-05-19T08:23:24Z</time>
      </trkpt>
      <trkpt lat="45.52381" lon="4.77049">
        <ele>456</ele>
        <time>2012-05-19T08:23:30Z</time>
      </trkpt>
      <trkpt lat="45.52382" lon="4.77056">
        <ele>455</ele>
        <time>2012-05-19T08:23:31Z</time>
      </trkpt>
      <trkpt lat="45.52383" lon="4.77077">
        <ele>456</ele>
        <time>2012-05-19T08:23:34Z</time>
      </trkpt>
      <trkpt lat="45.52388" lon="4.77147">
        <ele>457</ele>
        <time>2012-05-19T08:23:44Z</time>
      </trkpt>
      <trkpt lat="45.52394" lon="4.77225">
        <ele>459</ele>
        <time>2012-05-19T08:23:55Z</time>
      </trkpt>
      <trkpt lat="45.52399" lon="4.77292">
        <ele>461</ele>
        <time>2012-05-19T08:24:05Z</time>
      </trkpt>
      <trkpt lat="45.52403" lon="4.77345">
        <ele>463</ele>
        <time>2012-05-19T08:24:14Z</time>
      </trkpt>
      <trkpt lat="45.52406" lon="4.77387">
        <ele>464</ele>
        <time>2012-05-19T08:24:21Z</time>
      </trkpt>
      <trkpt lat="45.52408" lon="4.77392">
        <ele>464</ele>
        <time>2012-05-19T08:24:22Z</time>
      </trkpt>
      <trkpt lat="45.5241" lon="4.77396">
        <ele>464</ele>
        <time>2012-05-19T08:24:23Z</time>
      </trkpt>
      <trkpt lat="45.52413" lon="4.77399">
        <ele>464</ele>
        <time>2012-05-19T08:24:24Z</time>
      </trkpt>
      <trkpt lat="45.52416" lon="4.774">
        <ele>464</ele>
        <time>2012-05-19T08:24:25Z</time>
      </trkpt>
      <trkpt lat="45.5242" lon="4.774">
        <ele>464</ele>
        <time>2012-05-19T08:24:26Z</time>
      </trkpt>
      <trkpt lat="45.52424" lon="4.77399">
        <ele>464</ele>
        <time>2012-05-19T08:24:27Z</time>
      </trkpt>
      <trkpt lat="45.52429" lon="4.77397">
        <ele>464</ele>
        <time>2012-05-19T08:24:28Z</time>
      </trkpt>
      <trkpt lat="45.52434" lon="4.77395">
        <ele>463</ele>
        <time>2012-05-19T08:24:29Z</time>
      </trkpt>
      <trkpt lat="45.52473" lon="4.77388">
        <ele>460</ele>
        <time>2012-05-19T08:24:34Z</time>
      </trkpt>
      <trkpt lat="45.52503" lon="4.77387">
        <ele>456</ele>
        <time>2012-05-19T08:24:37Z</time>
      </trkpt>
      <trkpt lat="45.52536" lon="4.77389">
        <ele>452</ele>
        <time>2012-05-19T08:24:40Z</time>
      </trkpt>
      <trkpt lat="45.52557" lon="4.77387">
        <ele>450</ele>
        <time>2012-05-19T08:24:42Z</time>
      </trkpt>
      <trkpt lat="45.52587" lon="4.77378">
        <ele>446</ele>
        <time>2012-05-19T08:24:45Z</time>
      </trkpt>
      <trkpt lat="45.52614" lon="4.77365">
        <ele>443</ele>
        <time>2012-05-19T08:24:48Z</time>
      </trkpt>
      <trkpt lat="45.52624" lon="4.77362">
        <ele>443</ele>
        <time>2012-05-19T08:24:49Z</time>
      </trkpt>
      <trkpt lat="45.52654" lon="4.77356">
        <ele>439</ele>
        <time>2012-05-19T08:24:52Z</time>
      </trkpt>
      <trkpt lat="45.52664" lon="4.77355">
        <ele>439</ele>
        <time>2012-05-19T08:24:53Z</time>
      </trkpt>
      <trkpt lat="45.52694" lon="4.7735">
        <ele>436</ele>
        <time>2012-05-19T08:24:56Z</time>
      </trkpt>
      <trkpt lat="45.52724" lon="4.77341">
        <ele>432</ele>
        <time>2012-05-19T08:24:59Z</time>
      </trkpt>
      <trkpt lat="45.52753" lon="4.77334">
        <ele>428</ele>
        <time>2012-05-19T08:25:02Z</time>
      </trkpt>
      <trkpt lat="45.52763" lon="4.77332">
        <ele>427</ele>
        <time>2012-05-19T08:25:03Z</time>
      </trkpt>
      <trkpt lat="45.52772" lon="4.77328">
        <ele>426</ele>
        <time>2012-05-19T08:25:04Z</time>
      </trkpt>
      <trkpt lat="45.52781" lon="4.77321">
        <ele>426</ele>
        <time>2012-05-19T08:25:05Z</time>
      </trkpt>
      <trkpt lat="45.5279" lon="4.77312">
        <ele>424</ele>
        <time>2012-05-19T08:25:06Z</time>
      </trkpt>
      <trkpt lat="45.52798" lon="4.77303">
        <ele>422</ele>
        <time>2012-05-19T08:25:07Z</time>
      </trkpt>
      <trkpt lat="45.52819" lon="4.77278">
        <ele>418</ele>
        <time>2012-05-19T08:25:10Z</time>
      </trkpt>
      <trkpt lat="45.52826" lon="4.77273">
        <ele>417</ele>
        <time>2012-05-19T08:25:11Z</time>
      </trkpt>
      <trkpt lat="45.52834" lon="4.77271">
        <ele>415</ele>
        <time>2012-05-19T08:25:12Z</time>
      </trkpt>
      <trkpt lat="45.52842" lon="4.77271">
        <ele>414</ele>
        <time>2012-05-19T08:25:13Z</time>
      </trkpt>
      <trkpt lat="45.5285" lon="4.77271">
        <ele>413</ele>
        <time>2012-05-19T08:25:14Z</time>
      </trkpt>
      <trkpt lat="45.52858" lon="4.7727">
        <ele>413</ele>
        <time>2012-05-19T08:25:15Z</time>
      </trkpt>
      <trkpt lat="45.52865" lon="4.77269">
        <ele>412</ele>
        <time>2012-05-19T08:25:16Z</time>
      </trkpt>
      <trkpt lat="45.52872" lon="4.7727">
        <ele>411</ele>
        <time>2012-05-19T08:25:17Z</time>
      </trkpt>
      <trkpt lat="45.52877" lon="4.77274">
        <ele>411</ele>
        <time>2012-05-19T08:25:18Z</time>
      </trkpt>
      <trkpt lat="45.52882" lon="4.7728">
        <ele>410</ele>
        <time>2012-05-19T08:25:19Z</time>
      </trkpt>
      <trkpt lat="45.52885" lon="4.77288">
        <ele>409</ele>
        <time>2012-05-19T08:25:20Z</time>
      </trkpt>
      <trkpt lat="45.52886" lon="4.77297">
        <ele>409</ele>
        <time>2012-05-19T08:25:21Z</time>
      </trkpt>
      <trkpt lat="45.52888" lon="4.77307">
        <ele>408</ele>
        <time>2012-05-19T08:25:22Z</time>
      </trkpt>
      <trkpt lat="45.5289" lon="4.77318">
        <ele>407</ele>
        <time>2012-05-19T08:25:23Z</time>
      </trkpt>
      <trkpt lat="45.52893" lon="4.77328">
        <ele>405</ele>
        <time>2012-05-19T08:25:24Z</time>
      </trkpt>
      <trkpt lat="45.52897" lon="4.7734">
        <ele>403</ele>
        <time>2012-05-19T08:25:25Z</time>
      </trkpt>
      <trkpt lat="45.52911" lon="4.77377">
        <ele>400</ele>
        <time>2012-05-19T08:25:28Z</time>
      </trkpt>
      <trkpt lat="45.52918" lon="4.77387">
        <ele>399</ele>
        <time>2012-05-19T08:25:29Z</time>
      </trkpt>
      <trkpt lat="45.52925" lon="4.77394">
        <ele>399</ele>
        <time>2012-05-19T08:25:30Z</time>
      </trkpt>
      <trkpt lat="45.52944" lon="4.77406">
        <ele>399</ele>
        <time>2012-05-19T08:25:33Z</time>
      </trkpt>
      <trkpt lat="45.52948" lon="4.77406">
        <ele>399</ele>
        <time>2012-05-19T08:25:34Z</time>
      </trkpt>
      <trkpt lat="45.52952" lon="4.77406">
        <ele>400</ele>
        <time>2012-05-19T08:25:35Z</time>
      </trkpt>
      <trkpt lat="45.52956" lon="4.77404">
        <ele>400</ele>
        <time>2012-05-19T08:25:36Z</time>
      </trkpt>
      <trkpt lat="45.5296" lon="4.77402">
        <ele>400</ele>
        <time>2012-05-19T08:25:37Z</time>
      </trkpt>
      <trkpt lat="45.52964" lon="4.77398">
        <ele>400</ele>
        <time>2012-05-19T08:25:38Z</time>
      </trkpt>
      <trkpt lat="45.52978" lon="4.77387">
        <ele>399</ele>
        <time>2012-05-19T08:25:41Z</time>
      </trkpt>
      <trkpt lat="45.53" lon="4.77377">
        <ele>398</ele>
        <time>2012-05-19T08:25:45Z</time>
      </trkpt>
      <trkpt lat="45.53009" lon="4.77371">
        <ele>397</ele>
        <time>2012-05-19T08:25:47Z</time>
      </trkpt>
      <trkpt lat="45.53023" lon="4.77357">
        <ele>396</ele>
        <time>2012-05-19T08:25:50Z</time>
      </trkpt>
      <trkpt lat="45.53027" lon="4.77352">
        <ele>396</ele>
        <time>2012-05-19T08:25:51Z</time>
      </trkpt>
      <trkpt lat="45.53031" lon="4.77348">
        <ele>397</ele>
        <time>2012-05-19T08:25:52Z</time>
      </trkpt>
      <trkpt lat="45.53035" lon="4.77343">
        <ele>396</ele>
        <time>2012-05-19T08:25:53Z</time>
      </trkpt>
      <trkpt lat="45.53039" lon="4.77339">
        <ele>396</ele>
        <time>2012-05-19T08:25:54Z</time>
      </trkpt>
      <trkpt lat="45.53051" lon="4.77326">
        <ele>396</ele>
        <time>2012-05-19T08:25:57Z</time>
      </trkpt>
      <trkpt lat="45.53066" lon="4.77311">
        <ele>395</ele>
        <time>2012-05-19T08:26:01Z</time>
      </trkpt>
      <trkpt lat="45.53069" lon="4.77308">
        <ele>395</ele>
        <time>2012-05-19T08:26:02Z</time>
      </trkpt>
      <trkpt lat="45.53071" lon="4.77304">
        <ele>395</ele>
        <time>2012-05-19T08:26:03Z</time>
      </trkpt>
      <trkpt lat="45.53068" lon="4.77294">
        <ele>396</ele>
        <time>2012-05-19T08:26:06Z</time>
      </trkpt>
      <trkpt lat="45.53066" lon="4.7729">
        <ele>396</ele>
        <time>2012-05-19T08:26:08Z</time>
      </trkpt>
      <trkpt lat="45.53064" lon="4.77286">
        <ele>397</ele>
        <time>2012-05-19T08:26:10Z</time>
      </trkpt>
      <trkpt lat="45.53056" lon="4.77272">
        <ele>395</ele>
        <time>2012-05-19T08:26:16Z</time>
      </trkpt>
      <trkpt lat="45.53053" lon="4.77264">
        <ele>394</ele>
        <time>2012-05-19T08:26:18Z</time>
      </trkpt>
      <trkpt lat="45.53051" lon="4.77252">
        <ele>393</ele>
        <time>2012-05-19T08:26:20Z</time>
      </trkpt>
      <trkpt lat="45.53052" lon="4.77245">
        <ele>392</ele>
        <time>2012-05-19T08:26:21Z</time>
      </trkpt>
      <trkpt lat="45.53052" lon="4.77239">
        <ele>391</ele>
        <time>2012-05-19T08:26:22Z</time>
      </trkpt>
      <trkpt lat="45.53054" lon="4.77228">
        <ele>390</ele>
        <time>2012-05-19T08:26:24Z</time>
      </trkpt>
      <trkpt lat="45.53057" lon="4.77217">
        <ele>389</ele>
        <time>2012-05-19T08:26:26Z</time>
      </trkpt>
      <trkpt lat="45.53058" lon="4.77194">
        <ele>388</ele>
        <time>2012-05-19T08:26:29Z</time>
      </trkpt>
      <trkpt lat="45.53059" lon="4.77177">
        <ele>386</ele>
        <time>2012-05-19T08:26:32Z</time>
      </trkpt>
      <trkpt lat="45.53054" lon="4.77176">
        <ele>385</ele>
        <time>2012-05-19T08:26:34Z</time>
      </trkpt>
      <trkpt lat="45.53048" lon="4.77185">
        <ele>383</ele>
        <time>2012-05-19T08:26:37Z</time>
      </trkpt>
      <trkpt lat="45.53044" lon="4.77174">
        <ele>381</ele>
        <time>2012-05-19T08:26:40Z</time>
      </trkpt>
      <trkpt lat="45.53043" lon="4.77157">
        <ele>379</ele>
        <time>2012-05-19T08:26:42Z</time>
      </trkpt>
      <trkpt lat="45.53042" lon="4.77126">
        <ele>376</ele>
        <time>2012-05-19T08:26:45Z</time>
      </trkpt>
      <trkpt lat="45.53048" lon="4.77091">
        <ele>373</ele>
        <time>2012-05-19T08:26:49Z</time>
      </trkpt>
      <trkpt lat="45.53064" lon="4.77061">
        <ele>370</ele>
        <time>2012-05-19T08:26:53Z</time>
      </trkpt>
      <trkpt lat="45.53066" lon="4.77043">
        <ele>369</ele>
        <time>2012-05-19T08:26:55Z</time>
      </trkpt>
      <trkpt lat="45.53068" lon="4.77034">
        <ele>367</ele>
        <time>2012-05-19T08:26:56Z</time>
      </trkpt>
      <trkpt lat="45.53072" lon="4.77019">
        <ele>366</ele>
        <time>2012-05-19T08:26:58Z</time>
      </trkpt>
      <trkpt lat="45.53083" lon="4.76991">
        <ele>363</ele>
        <time>2012-05-19T08:27:03Z</time>
      </trkpt>
      <trkpt lat="45.53091" lon="4.76977">
        <ele>360</ele>
        <time>2012-05-19T08:27:05Z</time>
      </trkpt>
      <trkpt lat="45.53098" lon="4.76969">
        <ele>359</ele>
        <time>2012-05-19T08:27:07Z</time>
      </trkpt>
      <trkpt lat="45.53111" lon="4.76952">
        <ele>357</ele>
        <time>2012-05-19T08:27:10Z</time>
      </trkpt>
      <trkpt lat="45.53123" lon="4.76919">
        <ele>355</ele>
        <time>2012-05-19T08:27:15Z</time>
      </trkpt>
      <trkpt lat="45.53134" lon="4.76907">
        <ele>353</ele>
        <time>2012-05-19T08:27:18Z</time>
      </trkpt>
      <trkpt lat="45.53146" lon="4.76908">
        <ele>352</ele>
        <time>2012-05-19T08:27:21Z</time>
      </trkpt>
      <trkpt lat="45.53176" lon="4.76908">
        <ele>352</ele>
        <time>2012-05-19T08:27:28Z</time>
      </trkpt>
      <trkpt lat="45.53196" lon="4.7691">
        <ele>351</ele>
        <time>2012-05-19T08:27:33Z</time>
      </trkpt>
      <trkpt lat="45.5322" lon="4.76905">
        <ele>348</ele>
        <time>2012-05-19T08:27:39Z</time>
      </trkpt>
      <trkpt lat="45.53228" lon="4.76904">
        <ele>347</ele>
        <time>2012-05-19T08:27:41Z</time>
      </trkpt>
      <trkpt lat="45.53239" lon="4.76902">
        <ele>346</ele>
        <time>2012-05-19T08:27:44Z</time>
      </trkpt>
      <trkpt lat="45.5325" lon="4.76901">
        <ele>344</ele>
        <time>2012-05-19T08:27:48Z</time>
      </trkpt>
      <trkpt lat="45.53265" lon="4.76903">
        <ele>343</ele>
        <time>2012-05-19T08:27:53Z</time>
      </trkpt>
      <trkpt lat="45.53287" lon="4.76906">
        <ele>342</ele>
        <time>2012-05-19T08:28:00Z</time>
      </trkpt>
      <trkpt lat="45.533" lon="4.76908">
        <ele>342</ele>
        <time>2012-05-19T08:28:05Z</time>
      </trkpt>
      <trkpt lat="45.53305" lon="4.76907">
        <ele>341</ele>
        <time>2012-05-19T08:28:07Z</time>
      </trkpt>
      <trkpt lat="45.53315" lon="4.76908">
        <ele>341</ele>
        <time>2012-05-19T08:28:11Z</time>
      </trkpt>
      <trkpt lat="45.5333" lon="4.76909">
        <ele>340</ele>
        <time>2012-05-19T08:28:17Z</time>
      </trkpt>
      <trkpt lat="45.5334" lon="4.76909">
        <ele>341</ele>
        <time>2012-05-19T08:28:22Z</time>
      </trkpt>
      <trkpt lat="45.53349" lon="4.76913">
        <ele>340</ele>
        <time>2012-05-19T08:28:29Z</time>
      </trkpt>
      <trkpt lat="45.53353" lon="4.76914">
        <ele>339</ele>
        <time>2012-05-19T08:28:32Z</time>
      </trkpt>
      <trkpt lat="45.53358" lon="4.76915">
        <ele>338</ele>
        <time>2012-05-19T08:28:35Z</time>
      </trkpt>
      <trkpt lat="45.5337" lon="4.76929">
        <ele>337</ele>
        <time>2012-05-19T08:28:41Z</time>
      </trkpt>
      <trkpt lat="45.53383" lon="4.76936">
        <ele>336</ele>
        <time>2012-05-19T08:28:45Z</time>
      </trkpt>
      <trkpt lat="45.534" lon="4.76949">
        <ele>335</ele>
        <time>2012-05-19T08:28:51Z</time>
      </trkpt>
      <trkpt lat="45.53404" lon="4.76952">
        <ele>335</ele>
        <time>2012-05-19T08:28:52Z</time>
      </trkpt>
      <trkpt lat="45.53414" lon="4.76961">
        <ele>334</ele>
        <time>2012-05-19T08:28:56Z</time>
      </trkpt>
      <trkpt lat="45.53443" lon="4.76963">
        <ele>332</ele>
        <time>2012-05-19T08:29:04Z</time>
      </trkpt>
      <trkpt lat="45.53453" lon="4.76966">
        <ele>331</ele>
        <time>2012-05-19T08:29:11Z</time>
      </trkpt>
      <trkpt lat="45.53453" lon="4.76967">
        <ele>331</ele>
        <time>2012-05-19T08:29:24Z</time>
      </trkpt>
      <trkpt lat="45.5346" lon="4.76974">
        <ele>329</ele>
        <time>2012-05-19T08:29:30Z</time>
      </trkpt>
      <trkpt lat="45.53461" lon="4.76975">
        <ele>329</ele>
        <time>2012-05-19T08:29:31Z</time>
      </trkpt>
      <trkpt lat="45.53465" lon="4.76977">
        <ele>328</ele>
        <time>2012-05-19T08:29:33Z</time>
      </trkpt>
      <trkpt lat="45.53471" lon="4.76976">
        <ele>328</ele>
        <time>2012-05-19T08:29:39Z</time>
      </trkpt>
      <trkpt lat="45.53489" lon="4.76971">
        <ele>329</ele>
        <time>2012-05-19T08:29:45Z</time>
      </trkpt>
      <trkpt lat="45.53497" lon="4.76969">
        <ele>332</ele>
        <time>2012-05-19T08:29:52Z</time>
      </trkpt>
      <trkpt lat="45.53497" lon="4.76967">
        <ele>331</ele>
        <time>2012-05-19T08:30:00Z</time>
      </trkpt>
      <trkpt lat="45.53498" lon="4.76968">
        <ele>331</ele>
        <time>2012-05-19T08:30:05Z</time>
      </trkpt>
      <trkpt lat="45.53498" lon="4.76967">
        <ele>331</ele>
        <time>2012-05-19T08:30:11Z</time>
      </trkpt>
      <trkpt lat="45.53498" lon="4.76967">
        <ele>331</ele>
        <time>2012-05-19T08:30:20Z</time>
      </trkpt>
      <trkpt lat="45.53498" lon="4.76967">
        <ele>331</ele>
        <time>2012-05-19T08:30:38Z</time>
      </trkpt>
      <trkpt lat="45.53499" lon="4.76966">
        <ele>331</ele>
        <time>2012-05-19T08:30:56Z</time>
      </trkpt>
      <trkpt lat="45.53498" lon="4.76965">
        <ele>332</ele>
        <time>2012-05-19T08:31:15Z</time>
      </trkpt>
      <trkpt lat="45.53499" lon="4.76964">
        <ele>332</ele>
        <time>2012-05-19T08:31:35Z</time>
      </trkpt>
      <trkpt lat="45.535" lon="4.76965">
        <ele>332</ele>
        <time>2012-05-19T08:31:52Z</time>
      </trkpt>
      <trkpt lat="45.53501" lon="4.76967">
        <ele>332</ele>
        <time>2012-05-19T08:32:08Z</time>
      </trkpt>
      <trkpt lat="45.53501" lon="4.76967">
        <ele>332</ele>
        <time>2012-05-19T08:32:25Z</time>
      </trkpt>
      <trkpt lat="45.53499" lon="4.76965">
        <ele>332</ele>
        <time>2012-05-19T08:32:43Z</time>
      </trkpt>
      <trkpt lat="45.53498" lon="4.76964">
        <ele>332</ele>
        <time>2012-05-19T08:33:03Z</time>
      </trkpt>
      <trkpt lat="45.53497" lon="4.76963">
        <ele>332</ele>
        <time>2012-05-19T08:33:22Z</time>
      </trkpt>
      <trkpt lat="45.53497" lon="4.76963">
        <ele>332</ele>
        <time>2012-05-19T08:33:38Z</time>
      </trkpt>
      <trkpt lat="45.53497" lon="4.76964">
        <ele>332</ele>
        <time>2012-05-19T08:33:56Z</time>
      </trkpt>
      <trkpt lat="45.53497" lon="4.76963">
        <ele>333</ele>
        <time>2012-05-19T08:34:14Z</time>
      </trkpt>
      <trkpt lat="45.53499" lon="4.76965">
        <ele>333</ele>
        <time>2012-05-19T08:34:37Z</time>
      </trkpt>
      <trkpt lat="45.53499" lon="4.76965">
        <ele>333</ele>
        <time>2012-05-19T08:34:53Z</time>
      </trkpt>
      <trkpt lat="45.535" lon="4.76964">
        <ele>333</ele>
        <time>2012-05-19T08:35:10Z</time>
      </trkpt>
      <trkpt lat="45.535" lon="4.76964">
        <ele>332</ele>
        <time>2012-05-19T08:35:30Z</time>
      </trkpt>
      <trkpt lat="45.53499" lon="4.76966">
        <ele>332</ele>
        <time>2012-05-19T08:35:47Z</time>
      </trkpt>
      <trkpt lat="45.53499" lon="4.76967">
        <ele>332</ele>
        <time>2012-05-19T08:36:07Z</time>
      </trkpt>
      <trkpt lat="45.53498" lon="4.76967">
        <ele>333</ele>
        <time>2012-05-19T08:36:23Z</time>
      </trkpt>
      <trkpt lat="45.535" lon="4.76968">
        <ele>333</ele>
        <time>2012-05-19T08:36:40Z</time>
      </trkpt>
      <trkpt lat="45.535" lon="4.76968">
        <ele>333</ele>
        <time>2012-05-19T08:36:57Z</time>
      </trkpt>
      <trkpt lat="45.535" lon="4.76968">
        <ele>333</ele>
        <time>2012-05-19T08:37:13Z</time>
      </trkpt>
      <trkpt lat="45.53501" lon="4.76969">
        <ele>333</ele>
        <time>2012-05-19T08:37:26Z</time>
      </trkpt>
      <trkpt lat="45.53501" lon="4.76969">
        <ele>333</ele>
        <time>2012-05-19T08:37:40Z</time>
      </trkpt>
      <trkpt lat="45.53502" lon="4.76968">
        <ele>333</ele>
        <time>2012-05-19T08:37:55Z</time>
      </trkpt>
      <trkpt lat="45.53502" lon="4.76968">
        <ele>333</ele>
        <time>2012-05-19T08:38:13Z</time>
      </trkpt>
      <trkpt lat="45.53501" lon="4.76968">
        <ele>333</ele>
        <time>2012-05-19T08:38:32Z</time>
      </trkpt>
      <trkpt lat="45.53501" lon="4.76967">
        <ele>333</ele>
        <time>2012-05-19T08:38:49Z</time>
      </trkpt>
      <trkpt lat="45.53501" lon="4.76967">
        <ele>333</ele>
        <time>2012-05-19T08:39:06Z</time>
      </trkpt>
      <trkpt lat="45.53501" lon="4.76967">
        <ele>333</ele>
        <time>2012-05-19T08:39:21Z</time>
      </trkpt>
      <trkpt lat="45.535" lon="4.76966">
        <ele>333</ele>
        <time>2012-05-19T08:39:39Z</time>
      </trkpt>
      <trkpt lat="45.535" lon="4.76965">
        <ele>333</ele>
        <time>2012-05-19T08:39:58Z</time>
      </trkpt>
      <trkpt lat="45.535" lon="4.76965">
        <ele>333</ele>
        <time>2012-05-19T08:40:15Z</time>
      </trkpt>
      <trkpt lat="45.53499" lon="4.76966">
        <ele>333</ele>
        <time>2012-05-19T08:40:33Z</time>
      </trkpt>
      <trkpt lat="45.53499" lon="4.76966">
        <ele>333</ele>
        <time>2012-05-19T08:40:53Z</time>
      </trkpt>
      <trkpt lat="45.53499" lon="4.76967">
        <ele>333</ele>
        <time>2012-05-19T08:41:01Z</time>
      </trkpt>
      <trkpt lat="45.535" lon="4.7697">
        <ele>333</ele>
        <time>2012-05-19T08:41:06Z</time>
      </trkpt>
      <trkpt lat="45.53501" lon="4.76971">
        <ele>333</ele>
        <time>2012-05-19T08:41:08Z</time>
      </trkpt>
      <trkpt lat="45.53503" lon="4.76972">
        <ele>333</ele>
        <time>2012-05-19T08:41:11Z</time>
      </trkpt>
      <trkpt lat="45.5351" lon="4.76967">
        <ele>334</ele>
        <time>2012-05-19T08:41:17Z</time>
      </trkpt>
      <trkpt lat="45.53512" lon="4.76966">
        <ele>334</ele>
        <time>2012-05-19T08:41:19Z</time>
      </trkpt>
      <trkpt lat="45.53524" lon="4.76955">
        <ele>336</ele>
        <time>2012-05-19T08:41:26Z</time>
      </trkpt>
      <trkpt lat="45.53537" lon="4.76946">
        <ele>338</ele>
        <time>2012-05-19T08:41:35Z</time>
      </trkpt>
      <trkpt lat="45.53545" lon="4.76939">
        <ele>339</ele>
        <time>2012-05-19T08:41:42Z</time>
      </trkpt>
      <trkpt lat="45.53553" lon="4.76932">
        <ele>340</ele>
        <time>2012-05-19T08:41:48Z</time>
      </trkpt>
      <trkpt lat="45.53564" lon="4.76925">
        <ele>342</ele>
        <time>2012-05-19T08:41:56Z</time>
      </trkpt>
      <trkpt lat="45.53569" lon="4.76921">
        <ele>343</ele>
        <time>2012-05-19T08:42:02Z</time>
      </trkpt>
      <trkpt lat="45.53575" lon="4.7692">
        <ele>342</ele>
        <time>2012-05-19T08:42:07Z</time>
      </trkpt>
      <trkpt lat="45.53592" lon="4.76905">
        <ele>342</ele>
        <time>2012-05-19T08:42:14Z</time>
      </trkpt>
      <trkpt lat="45.53599" lon="4.76902">
        <ele>342</ele>
        <time>2012-05-19T08:42:21Z</time>
      </trkpt>
      <trkpt lat="45.53606" lon="4.76905">
        <ele>342</ele>
        <time>2012-05-19T08:42:28Z</time>
      </trkpt>
      <trkpt lat="45.53607" lon="4.76906">
        <ele>343</ele>
        <time>2012-05-19T08:42:34Z</time>
      </trkpt>
      <trkpt lat="45.53606" lon="4.76908">
        <ele>344</ele>
        <time>2012-05-19T08:42:40Z</time>
      </trkpt>
      <trkpt lat="45.53605" lon="4.76911">
        <ele>344</ele>
        <time>2012-05-19T08:42:42Z</time>
      </trkpt>
      <trkpt lat="45.53596" lon="4.76922">
        <ele>345</ele>
        <time>2012-05-19T08:42:50Z</time>
      </trkpt>
      <trkpt lat="45.53595" lon="4.76923">
        <ele>345</ele>
        <time>2012-05-19T08:42:51Z</time>
      </trkpt>
      <trkpt lat="45.53587" lon="4.7693">
        <ele>346</ele>
        <time>2012-05-19T08:42:56Z</time>
      </trkpt>
      <trkpt lat="45.53577" lon="4.76941">
        <ele>347</ele>
        <time>2012-05-19T08:43:03Z</time>
      </trkpt>
      <trkpt lat="45.53571" lon="4.76953">
        <ele>348</ele>
        <time>2012-05-19T08:43:09Z</time>
      </trkpt>
      <trkpt lat="45.53567" lon="4.76965">
        <ele>350</ele>
        <time>2012-05-19T08:43:14Z</time>
      </trkpt>
      <trkpt lat="45.53561" lon="4.76978">
        <ele>349</ele>
        <time>2012-05-19T08:43:19Z</time>
      </trkpt>
      <trkpt lat="45.53559" lon="4.77004">
        <ele>347</ele>
        <time>2012-05-19T08:43:25Z</time>
      </trkpt>
      <trkpt lat="45.53564" lon="4.7704">
        <ele>344</ele>
        <time>2012-05-19T08:43:32Z</time>
      </trkpt>
      <trkpt lat="45.53569" lon="4.77063">
        <ele>340</ele>
        <time>2012-05-19T08:43:36Z</time>
      </trkpt>
      <trkpt lat="45.53571" lon="4.7709">
        <ele>336</ele>
        <time>2012-05-19T08:43:40Z</time>
      </trkpt>
      <trkpt lat="45.53575" lon="4.77112">
        <ele>332</ele>
        <time>2012-05-19T08:43:45Z</time>
      </trkpt>
      <trkpt lat="45.53577" lon="4.77119">
        <ele>332</ele>
        <time>2012-05-19T08:43:47Z</time>
      </trkpt>
      <trkpt lat="45.53578" lon="4.77122">
        <ele>331</ele>
        <time>2012-05-19T08:43:48Z</time>
      </trkpt>
      <trkpt lat="45.5358" lon="4.77127">
        <ele>330</ele>
        <time>2012-05-19T08:43:50Z</time>
      </trkpt>
      <trkpt lat="45.53582" lon="4.77132">
        <ele>329</ele>
        <time>2012-05-19T08:43:53Z</time>
      </trkpt>
      <trkpt lat="45.53575" lon="4.77148">
        <ele>327</ele>
        <time>2012-05-19T08:43:57Z</time>
      </trkpt>
      <trkpt lat="45.5357" lon="4.77148">
        <ele>325</ele>
        <time>2012-05-19T08:44:03Z</time>
      </trkpt>
      <trkpt lat="45.5357" lon="4.77149">
        <ele>325</ele>
        <time>2012-05-19T08:44:12Z</time>
      </trkpt>
      <trkpt lat="45.5357" lon="4.77151">
        <ele>325</ele>
        <time>2012-05-19T08:44:21Z</time>
      </trkpt>
      <trkpt lat="45.53568" lon="4.77152">
        <ele>325</ele>
        <time>2012-05-19T08:44:30Z</time>
      </trkpt>
      <trkpt lat="45.5357" lon="4.77154">
        <ele>326</ele>
        <time>2012-05-19T08:44:34Z</time>
      </trkpt>
      <trkpt lat="45.53573" lon="4.77155">
        <ele>327</ele>
        <time>2012-05-19T08:44:41Z</time>
      </trkpt>
      <trkpt lat="45.53573" lon="4.77156">
        <ele>326</ele>
        <time>2012-05-19T08:44:51Z</time>
      </trkpt>
      <trkpt lat="45.53577" lon="4.77163">
        <ele>328</ele>
        <time>2012-05-19T08:44:56Z</time>
      </trkpt>
      <trkpt lat="45.53581" lon="4.77172">
        <ele>327</ele>
        <time>2012-05-19T08:45:02Z</time>
      </trkpt>
      <trkpt lat="45.53584" lon="4.77177">
        <ele>325</ele>
        <time>2012-05-19T08:45:07Z</time>
      </trkpt>
      <trkpt lat="45.53585" lon="4.77181">
        <ele>324</ele>
        <time>2012-05-19T08:45:09Z</time>
      </trkpt>
      <trkpt lat="45.53588" lon="4.77201">
        <ele>324</ele>
        <time>2012-05-19T08:45:16Z</time>
      </trkpt>
      <trkpt lat="45.53595" lon="4.77215">
        <ele>324</ele>
        <time>2012-05-19T08:45:23Z</time>
      </trkpt>
      <trkpt lat="45.53598" lon="4.77217">
        <ele>324</ele>
        <time>2012-05-19T08:45:24Z</time>
      </trkpt>
      <trkpt lat="45.53607" lon="4.77224">
        <ele>324</ele>
        <time>2012-05-19T08:45:27Z</time>
      </trkpt>
      <trkpt lat="45.53614" lon="4.77241">
        <ele>323</ele>
        <time>2012-05-19T08:45:33Z</time>
      </trkpt>
      <trkpt lat="45.53626" lon="4.77269">
        <ele>322</ele>
        <time>2012-05-19T08:45:42Z</time>
      </trkpt>
      <trkpt lat="45.53627" lon="4.77272">
        <ele>323</ele>
        <time>2012-05-19T08:45:43Z</time>
      </trkpt>
      <trkpt lat="45.53632" lon="4.77279">
        <ele>321</ele>
        <time>2012-05-19T08:45:49Z</time>
      </trkpt>
      <trkpt lat="45.53639" lon="4.77289">
        <ele>320</ele>
        <time>2012-05-19T08:45:55Z</time>
      </trkpt>
      <trkpt lat="45.5364" lon="4.77295">
        <ele>321</ele>
        <time>2012-05-19T08:46:03Z</time>
      </trkpt>
      <trkpt lat="45.53644" lon="4.77299">
        <ele>320</ele>
        <time>2012-05-19T08:46:10Z</time>
      </trkpt>
      <trkpt lat="45.53648" lon="4.77301">
        <ele>320</ele>
        <time>2012-05-19T08:46:21Z</time>
      </trkpt>
      <trkpt lat="45.5365" lon="4.77304">
        <ele>319</ele>
        <time>2012-05-19T08:46:23Z</time>
      </trkpt>
      <trkpt lat="45.53655" lon="4.77311">
        <ele>319</ele>
        <time>2012-05-19T08:46:28Z</time>
      </trkpt>
      <trkpt lat="45.53658" lon="4.77315">
        <ele>319</ele>
        <time>2012-05-19T08:46:30Z</time>
      </trkpt>
      <trkpt lat="45.53665" lon="4.77331">
        <ele>319</ele>
        <time>2012-05-19T08:46:37Z</time>
      </trkpt>
      <trkpt lat="45.53672" lon="4.77342">
        <ele>318</ele>
        <time>2012-05-19T08:46:42Z</time>
      </trkpt>
      <trkpt lat="45.5368" lon="4.77348">
        <ele>318</ele>
        <time>2012-05-19T08:46:46Z</time>
      </trkpt>
      <trkpt lat="45.53691" lon="4.77362">
        <ele>318</ele>
        <time>2012-05-19T08:46:53Z</time>
      </trkpt>
      <trkpt lat="45.53705" lon="4.77374">
        <ele>317</ele>
        <time>2012-05-19T08:46:58Z</time>
      </trkpt>
      <trkpt lat="45.53717" lon="4.77383">
        <ele>317</ele>
        <time>2012-05-19T08:47:03Z</time>
      </trkpt>
      <trkpt lat="45.5373" lon="4.77396">
        <ele>317</ele>
        <time>2012-05-19T08:47:09Z</time>
      </trkpt>
      <trkpt lat="45.53745" lon="4.77413">
        <ele>317</ele>
        <time>2012-05-19T08:47:16Z</time>
      </trkpt>
      <trkpt lat="45.53755" lon="4.77435">
        <ele>316</ele>
        <time>2012-05-19T08:47:22Z</time>
      </trkpt>
      <trkpt lat="45.53757" lon="4.77447">
        <ele>315</ele>
        <time>2012-05-19T08:47:25Z</time>
      </trkpt>
      <trkpt lat="45.53762" lon="4.77464">
        <ele>315</ele>
        <time>2012-05-19T08:47:32Z</time>
      </trkpt>
      <trkpt lat="45.53765" lon="4.77469">
        <ele>314</ele>
        <time>2012-05-19T08:47:38Z</time>
      </trkpt>
      <trkpt lat="45.53768" lon="4.77471">
        <ele>314</ele>
        <time>2012-05-19T08:47:44Z</time>
      </trkpt>
      <trkpt lat="45.53769" lon="4.77472">
        <ele>314</ele>
        <time>2012-05-19T08:47:47Z</time>
      </trkpt>
      <trkpt lat="45.53771" lon="4.77473">
        <ele>314</ele>
        <time>2012-05-19T08:47:49Z</time>
      </trkpt>
      <trkpt lat="45.53777" lon="4.7748">
        <ele>313</ele>
        <time>2012-05-19T08:47:56Z</time>
      </trkpt>
      <trkpt lat="45.53778" lon="4.77481">
        <ele>314</ele>
        <time>2012-05-19T08:48:04Z</time>
      </trkpt>
      <trkpt lat="45.53782" lon="4.77482">
        <ele>313</ele>
        <time>2012-05-19T08:48:14Z</time>
      </trkpt>
      <trkpt lat="45.53785" lon="4.77483">
        <ele>313</ele>
        <time>2012-05-19T08:48:26Z</time>
      </trkpt>
      <trkpt lat="45.53785" lon="4.77483">
        <ele>313</ele>
        <time>2012-05-19T08:48:27Z</time>
      </trkpt>
      <trkpt lat="45.53789" lon="4.77484">
        <ele>312</ele>
        <time>2012-05-19T08:48:34Z</time>
      </trkpt>
      <trkpt lat="45.5379" lon="4.77484">
        <ele>314</ele>
        <time>2012-05-19T08:48:41Z</time>
      </trkpt>
      <trkpt lat="45.53791" lon="4.77484">
        <ele>313</ele>
        <time>2012-05-19T08:48:45Z</time>
      </trkpt>
      <trkpt lat="45.53799" lon="4.77491">
        <ele>313</ele>
        <time>2012-05-19T08:48:51Z</time>
      </trkpt>
      <trkpt lat="45.53806" lon="4.77498">
        <ele>313</ele>
        <time>2012-05-19T08:48:55Z</time>
      </trkpt>
      <trkpt lat="45.53817" lon="4.77504">
        <ele>312</ele>
        <time>2012-05-19T08:48:59Z</time>
      </trkpt>
      <trkpt lat="45.53825" lon="4.77506">
        <ele>311</ele>
        <time>2012-05-19T08:49:04Z</time>
      </trkpt>
      <trkpt lat="45.53835" lon="4.77509">
        <ele>312</ele>
        <time>2012-05-19T08:49:11Z</time>
      </trkpt>
      <trkpt lat="45.5384" lon="4.77512">
        <ele>313</ele>
        <time>2012-05-19T08:49:13Z</time>
      </trkpt>
      <trkpt lat="45.53853" lon="4.7752">
        <ele>312</ele>
        <time>2012-05-19T08:49:19Z</time>
      </trkpt>
      <trkpt lat="45.53855" lon="4.77523">
        <ele>312</ele>
        <time>2012-05-19T08:49:21Z</time>
      </trkpt>
      <trkpt lat="45.53858" lon="4.77531">
        <ele>309</ele>
        <time>2012-05-19T08:49:25Z</time>
      </trkpt>
      <trkpt lat="45.53863" lon="4.7754">
        <ele>308</ele>
        <time>2012-05-19T08:49:30Z</time>
      </trkpt>
      <trkpt lat="45.53867" lon="4.77545">
        <ele>309</ele>
        <time>2012-05-19T08:49:36Z</time>
      </trkpt>
      <trkpt lat="45.53868" lon="4.77546">
        <ele>309</ele>
        <time>2012-05-19T08:49:37Z</time>
      </trkpt>
      <trkpt lat="45.53871" lon="4.7755">
        <ele>309</ele>
        <time>2012-05-19T08:49:43Z</time>
      </trkpt>
      <trkpt lat="45.53874" lon="4.77557">
        <ele>311</ele>
        <time>2012-05-19T08:49:50Z</time>
      </trkpt>
      <trkpt lat="45.53876" lon="4.77559">
        <ele>311</ele>
        <time>2012-05-19T08:49:56Z</time>
      </trkpt>
      <trkpt lat="45.53877" lon="4.7756">
        <ele>311</ele>
        <time>2012-05-19T08:49:59Z</time>
      </trkpt>
      <trkpt lat="45.53886" lon="4.77573">
        <ele>310</ele>
        <time>2012-05-19T08:50:05Z</time>
      </trkpt>
      <trkpt lat="45.53904" lon="4.77594">
        <ele>309</ele>
        <time>2012-05-19T08:50:11Z</time>
      </trkpt>
      <trkpt lat="45.53909" lon="4.77602">
        <ele>309</ele>
        <time>2012-05-19T08:50:13Z</time>
      </trkpt>
      <trkpt lat="45.53914" lon="4.77616">
        <ele>311</ele>
        <time>2012-05-19T08:50:18Z</time>
      </trkpt>
      <trkpt lat="45.53919" lon="4.77621">
        <ele>312</ele>
        <time>2012-05-19T08:50:23Z</time>
      </trkpt>
      <trkpt lat="45.5393" lon="4.77627">
        <ele>311</ele>
        <time>2012-05-19T08:50:29Z</time>
      </trkpt>
      <trkpt lat="45.53935" lon="4.77633">
        <ele>311</ele>
        <time>2012-05-19T08:50:32Z</time>
      </trkpt>
      <trkpt lat="45.53942" lon="4.77638">
        <ele>310</ele>
        <time>2012-05-19T08:50:38Z</time>
      </trkpt>
      <trkpt lat="45.53944" lon="4.77642">
        <ele>310</ele>
        <time>2012-05-19T08:50:44Z</time>
      </trkpt>
      <trkpt lat="45.53947" lon="4.77643">
        <ele>310</ele>
        <time>2012-05-19T08:50:49Z</time>
      </trkpt>
      <trkpt lat="45.53948" lon="4.77644">
        <ele>309</ele>
        <time>2012-05-19T08:50:58Z</time>
      </trkpt>
      <trkpt lat="45.53949" lon="4.77644">
        <ele>309</ele>
        <time>2012-05-19T08:50:59Z</time>
      </trkpt>
      <trkpt lat="45.53954" lon="4.77649">
        <ele>307</ele>
        <time>2012-05-19T08:51:02Z</time>
      </trkpt>
      <trkpt lat="45.53959" lon="4.77655">
        <ele>307</ele>
        <time>2012-05-19T08:51:07Z</time>
      </trkpt>
      <trkpt lat="45.53974" lon="4.77665">
        <ele>307</ele>
        <time>2012-05-19T08:51:13Z</time>
      </trkpt>
      <trkpt lat="45.53981" lon="4.77672">
        <ele>306</ele>
        <time>2012-05-19T08:51:16Z</time>
      </trkpt>
      <trkpt lat="45.53991" lon="4.7768">
        <ele>306</ele>
        <time>2012-05-19T08:51:22Z</time>
      </trkpt>
      <trkpt lat="45.53998" lon="4.77679">
        <ele>306</ele>
        <time>2012-05-19T08:51:26Z</time>
      </trkpt>
      <trkpt lat="45.54008" lon="4.77682">
        <ele>304</ele>
        <time>2012-05-19T08:51:32Z</time>
      </trkpt>
      <trkpt lat="45.54014" lon="4.77684">
        <ele>303</ele>
        <time>2012-05-19T08:51:36Z</time>
      </trkpt>
      <trkpt lat="45.54031" lon="4.77695">
        <ele>304</ele>
        <time>2012-05-19T08:51:43Z</time>
      </trkpt>
      <trkpt lat="45.54052" lon="4.77707">
        <ele>305</ele>
        <time>2012-05-19T08:51:50Z</time>
      </trkpt>
      <trkpt lat="45.5407" lon="4.77717">
        <ele>304</ele>
        <time>2012-05-19T08:51:55Z</time>
      </trkpt>
      <trkpt lat="45.54083" lon="4.77729">
        <ele>304</ele>
        <time>2012-05-19T08:52:00Z</time>
      </trkpt>
      <trkpt lat="45.541" lon="4.77744">
        <ele>303</ele>
        <time>2012-05-19T08:52:06Z</time>
      </trkpt>
      <trkpt lat="45.54116" lon="4.77759">
        <ele>302</ele>
        <time>2012-05-19T08:52:11Z</time>
      </trkpt>
      <trkpt lat="45.54137" lon="4.77782">
        <ele>301</ele>
        <time>2012-05-19T08:52:18Z</time>
      </trkpt>
      <trkpt lat="45.54148" lon="4.77793">
        <ele>301</ele>
        <time>2012-05-19T08:52:22Z</time>
      </trkpt>
      <trkpt lat="45.54168" lon="4.77814">
        <ele>300</ele>
        <time>2012-05-19T08:52:28Z</time>
      </trkpt>
      <trkpt lat="45.54174" lon="4.77821">
        <ele>300</ele>
        <time>2012-05-19T08:52:30Z</time>
      </trkpt>
      <trkpt lat="45.54195" lon="4.77839">
        <ele>300</ele>
        <time>2012-05-19T08:52:36Z</time>
      </trkpt>
      <trkpt lat="45.5421" lon="4.77857">
        <ele>300</ele>
        <time>2012-05-19T08:52:41Z</time>
      </trkpt>
      <trkpt lat="45.54212" lon="4.7787">
        <ele>300</ele>
        <time>2012-05-19T08:52:45Z</time>
      </trkpt>
      <trkpt lat="45.54217" lon="4.77874">
        <ele>299</ele>
        <time>2012-05-19T08:52:50Z</time>
      </trkpt>
      <trkpt lat="45.54226" lon="4.77885">
        <ele>299</ele>
        <time>2012-05-19T08:52:55Z</time>
      </trkpt>
      <trkpt lat="45.54231" lon="4.77894">
        <ele>299</ele>
        <time>2012-05-19T08:52:59Z</time>
      </trkpt>
      <trkpt lat="45.54239" lon="4.77904">
        <ele>298</ele>
        <time>2012-05-19T08:53:03Z</time>
      </trkpt>
      <trkpt lat="45.54249" lon="4.77913">
        <ele>296</ele>
        <time>2012-05-19T08:53:08Z</time>
      </trkpt>
      <trkpt lat="45.54252" lon="4.77913">
        <ele>297</ele>
        <time>2012-05-19T08:53:12Z</time>
      </trkpt>
      <trkpt lat="45.54254" lon="4.77914">
        <ele>299</ele>
        <time>2012-05-19T08:53:15Z</time>
      </trkpt>
      <trkpt lat="45.54257" lon="4.77914">
        <ele>299</ele>
        <time>2012-05-19T08:53:21Z</time>
      </trkpt>
      <trkpt lat="45.5426" lon="4.77916">
        <ele>299</ele>
        <time>2012-05-19T08:53:25Z</time>
      </trkpt>
      <trkpt lat="45.54266" lon="4.77919">
        <ele>299</ele>
        <time>2012-05-19T08:53:28Z</time>
      </trkpt>
      <trkpt lat="45.54271" lon="4.77925">
        <ele>298</ele>
        <time>2012-05-19T08:53:32Z</time>
      </trkpt>
      <trkpt lat="45.54278" lon="4.77931">
        <ele>298</ele>
        <time>2012-05-19T08:53:35Z</time>
      </trkpt>
      <trkpt lat="45.54293" lon="4.77938">
        <ele>296</ele>
        <time>2012-05-19T08:53:40Z</time>
      </trkpt>
      <trkpt lat="45.54307" lon="4.77946">
        <ele>296</ele>
        <time>2012-05-19T08:53:45Z</time>
      </trkpt>
      <trkpt lat="45.54318" lon="4.77956">
        <ele>296</ele>
        <time>2012-05-19T08:53:50Z</time>
      </trkpt>
      <trkpt lat="45.54324" lon="4.77969">
        <ele>296</ele>
        <time>2012-05-19T08:53:54Z</time>
      </trkpt>
      <trkpt lat="45.5433" lon="4.77992">
        <ele>298</ele>
        <time>2012-05-19T08:54:00Z</time>
      </trkpt>
      <trkpt lat="45.54339" lon="4.78016">
        <ele>299</ele>
        <time>2012-05-19T08:54:07Z</time>
      </trkpt>
      <trkpt lat="45.5435" lon="4.78034">
        <ele>299</ele>
        <time>2012-05-19T08:54:13Z</time>
      </trkpt>
      <trkpt lat="45.54366" lon="4.78053">
        <ele>299</ele>
        <time>2012-05-19T08:54:20Z</time>
      </trkpt>
      <trkpt lat="45.54381" lon="4.78061">
        <ele>301</ele>
        <time>2012-05-19T08:54:26Z</time>
      </trkpt>
      <trkpt lat="45.54383" lon="4.78062">
        <ele>301</ele>
        <time>2012-05-19T08:54:27Z</time>
      </trkpt>
      <trkpt lat="45.54403" lon="4.78069">
        <ele>303</ele>
        <time>2012-05-19T08:54:34Z</time>
      </trkpt>
      <trkpt lat="45.54406" lon="4.7807">
        <ele>303</ele>
        <time>2012-05-19T08:54:35Z</time>
      </trkpt>
      <trkpt lat="45.54418" lon="4.78069">
        <ele>304</ele>
        <time>2012-05-19T08:54:39Z</time>
      </trkpt>
      <trkpt lat="45.54433" lon="4.78072">
        <ele>305</ele>
        <time>2012-05-19T08:54:45Z</time>
      </trkpt>
      <trkpt lat="45.54444" lon="4.78076">
        <ele>305</ele>
        <time>2012-05-19T08:54:50Z</time>
      </trkpt>
      <trkpt lat="45.54448" lon="4.78079">
        <ele>305</ele>
        <time>2012-05-19T08:54:53Z</time>
      </trkpt>
      <trkpt lat="45.54461" lon="4.78088">
        <ele>308</ele>
        <time>2012-05-19T08:55:02Z</time>
      </trkpt>
      <trkpt lat="45.5447" lon="4.78094">
        <ele>309</ele>
        <time>2012-05-19T08:55:09Z</time>
      </trkpt>
      <trkpt lat="45.54481" lon="4.78101">
        <ele>311</ele>
        <time>2012-05-19T08:55:17Z</time>
      </trkpt>
      <trkpt lat="45.54491" lon="4.78108">
        <ele>313</ele>
        <time>2012-05-19T08:55:26Z</time>
      </trkpt>
      <trkpt lat="45.54495" lon="4.78109">
        <ele>313</ele>
        <time>2012-05-19T08:55:30Z</time>
      </trkpt>
      <trkpt lat="45.545" lon="4.78113">
        <ele>314</ele>
        <time>2012-05-19T08:55:35Z</time>
      </trkpt>
      <trkpt lat="45.54507" lon="4.78117">
        <ele>316</ele>
        <time>2012-05-19T08:55:42Z</time>
      </trkpt>
      <trkpt lat="45.54516" lon="4.78124">
        <ele>316</ele>
        <time>2012-05-19T08:55:49Z</time>
      </trkpt>
      <trkpt lat="45.54529" lon="4.78132">
        <ele>318</ele>
        <time>2012-05-19T08:55:59Z</time>
      </trkpt>
      <trkpt lat="45.54534" lon="4.78136">
        <ele>318</ele>
        <time>2012-05-19T08:56:03Z</time>
      </trkpt>
      <trkpt lat="45.54542" lon="4.78141">
        <ele>319</ele>
        <time>2012-05-19T08:56:09Z</time>
      </trkpt>
      <trkpt lat="45.54554" lon="4.78147">
        <ele>322</ele>
        <time>2012-05-19T08:56:18Z</time>
      </trkpt>
      <trkpt lat="45.54565" lon="4.78152">
        <ele>323</ele>
        <time>2012-05-19T08:56:27Z</time>
      </trkpt>
      <trkpt lat="45.54575" lon="4.78157">
        <ele>324</ele>
        <time>2012-05-19T08:56:35Z</time>
      </trkpt>
      <trkpt lat="45.54585" lon="4.78162">
        <ele>326</ele>
        <time>2012-05-19T08:56:43Z</time>
      </trkpt>
      <trkpt lat="45.54595" lon="4.78169">
        <ele>328</ele>
        <time>2012-05-19T08:56:51Z</time>
      </trkpt>
      <trkpt lat="45.54604" lon="4.78176">
        <ele>330</ele>
        <time>2012-05-19T08:56:59Z</time>
      </trkpt>
      <trkpt lat="45.54612" lon="4.78173">
        <ele>332</ele>
        <time>2012-05-19T08:57:06Z</time>
      </trkpt>
      <trkpt lat="45.54617" lon="4.78169">
        <ele>332</ele>
        <time>2012-05-19T08:57:11Z</time>
      </trkpt>
      <trkpt lat="45.54618" lon="4.78166">
        <ele>333</ele>
        <time>2012-05-19T08:57:13Z</time>
      </trkpt>
      <trkpt lat="45.54623" lon="4.78158">
        <ele>334</ele>
        <time>2012-05-19T08:57:20Z</time>
      </trkpt>
      <trkpt lat="45.5463" lon="4.78149">
        <ele>335</ele>
        <time>2012-05-19T08:57:29Z</time>
      </trkpt>
      <trkpt lat="45.54634" lon="4.78143">
        <ele>336</ele>
        <time>2012-05-19T08:57:35Z</time>
      </trkpt>
      <trkpt lat="45.54639" lon="4.78137">
        <ele>337</ele>
        <time>2012-05-19T08:57:41Z</time>
      </trkpt>
      <trkpt lat="45.54649" lon="4.78121">
        <ele>339</ele>
        <time>2012-05-19T08:57:50Z</time>
      </trkpt>
      <trkpt lat="45.54652" lon="4.78118">
        <ele>341</ele>
        <time>2012-05-19T08:57:55Z</time>
      </trkpt>
      <trkpt lat="45.54657" lon="4.78117">
        <ele>341</ele>
        <time>2012-05-19T08:57:58Z</time>
      </trkpt>
      <trkpt lat="45.54661" lon="4.7813">
        <ele>342</ele>
        <time>2012-05-19T08:58:07Z</time>
      </trkpt>
      <trkpt lat="45.54667" lon="4.78149">
        <ele>342</ele>
        <time>2012-05-19T08:58:13Z</time>
      </trkpt>
      <trkpt lat="45.54671" lon="4.78164">
        <ele>340</ele>
        <time>2012-05-19T08:58:19Z</time>
      </trkpt>
      <trkpt lat="45.54671" lon="4.78165">
        <ele>340</ele>
        <time>2012-05-19T08:58:20Z</time>
      </trkpt>
      <trkpt lat="45.54677" lon="4.78188">
        <ele>339</ele>
        <time>2012-05-19T08:58:26Z</time>
      </trkpt>
      <trkpt lat="45.54681" lon="4.78199">
        <ele>339</ele>
        <time>2012-05-19T08:58:28Z</time>
      </trkpt>
      <trkpt lat="45.54685" lon="4.78205">
        <ele>338</ele>
        <time>2012-05-19T08:58:29Z</time>
      </trkpt>
      <trkpt lat="45.54708" lon="4.78234">
        <ele>337</ele>
        <time>2012-05-19T08:58:35Z</time>
      </trkpt>
      <trkpt lat="45.5471" lon="4.78239">
        <ele>337</ele>
        <time>2012-05-19T08:58:36Z</time>
      </trkpt>
      <trkpt lat="45.54712" lon="4.78244">
        <ele>337</ele>
        <time>2012-05-19T08:58:37Z</time>
      </trkpt>
      <trkpt lat="45.54713" lon="4.7825">
        <ele>336</ele>
        <time>2012-05-19T08:58:38Z</time>
      </trkpt>
      <trkpt lat="45.54714" lon="4.78257">
        <ele>336</ele>
        <time>2012-05-19T08:58:39Z</time>
      </trkpt>
      <trkpt lat="45.54714" lon="4.78264">
        <ele>335</ele>
        <time>2012-05-19T08:58:40Z</time>
      </trkpt>
      <trkpt lat="45.54712" lon="4.78272">
        <ele>335</ele>
        <time>2012-05-19T08:58:41Z</time>
      </trkpt>
      <trkpt lat="45.5471" lon="4.7828">
        <ele>334</ele>
        <time>2012-05-19T08:58:42Z</time>
      </trkpt>
      <trkpt lat="45.54708" lon="4.78288">
        <ele>333</ele>
        <time>2012-05-19T08:58:43Z</time>
      </trkpt>
      <trkpt lat="45.54704" lon="4.7831">
        <ele>331</ele>
        <time>2012-05-19T08:58:46Z</time>
      </trkpt>
      <trkpt lat="45.54703" lon="4.78324">
        <ele>330</ele>
        <time>2012-05-19T08:58:48Z</time>
      </trkpt>
      <trkpt lat="45.54701" lon="4.78331">
        <ele>329</ele>
        <time>2012-05-19T08:58:49Z</time>
      </trkpt>
      <trkpt lat="45.54698" lon="4.78339">
        <ele>328</ele>
        <time>2012-05-19T08:58:50Z</time>
      </trkpt>
      <trkpt lat="45.54695" lon="4.78346">
        <ele>327</ele>
        <time>2012-05-19T08:58:51Z</time>
      </trkpt>
      <trkpt lat="45.54692" lon="4.78353">
        <ele>326</ele>
        <time>2012-05-19T08:58:52Z</time>
      </trkpt>
      <trkpt lat="45.54685" lon="4.78366">
        <ele>325</ele>
        <time>2012-05-19T08:58:54Z</time>
      </trkpt>
      <trkpt lat="45.54684" lon="4.78373">
        <ele>324</ele>
        <time>2012-05-19T08:58:55Z</time>
      </trkpt>
      <trkpt lat="45.54684" lon="4.7838">
        <ele>324</ele>
        <time>2012-05-19T08:58:56Z</time>
      </trkpt>
      <trkpt lat="45.54685" lon="4.78387">
        <ele>322</ele>
        <time>2012-05-19T08:58:57Z</time>
      </trkpt>
      <trkpt lat="45.54693" lon="4.7841">
        <ele>319</ele>
        <time>2012-05-19T08:59:00Z</time>
      </trkpt>
      <trkpt lat="45.54696" lon="4.78419">
        <ele>317</ele>
        <time>2012-05-19T08:59:01Z</time>
      </trkpt>
      <trkpt lat="45.54699" lon="4.78428">
        <ele>316</ele>
        <time>2012-05-19T08:59:02Z</time>
      </trkpt>
      <trkpt lat="45.54703" lon="4.78437">
        <ele>316</ele>
        <time>2012-05-19T08:59:03Z</time>
      </trkpt>
      <trkpt lat="45.54707" lon="4.78445">
        <ele>314</ele>
        <time>2012-05-19T08:59:04Z</time>
      </trkpt>
      <trkpt lat="45.5471" lon="4.78453">
        <ele>313</ele>
        <time>2012-05-19T08:59:05Z</time>
      </trkpt>
      <trkpt lat="45.54715" lon="4.78468">
        <ele>311</ele>
        <time>2012-05-19T08:59:07Z</time>
      </trkpt>
      <trkpt lat="45.54718" lon="4.78476">
        <ele>309</ele>
        <time>2012-05-19T08:59:08Z</time>
      </trkpt>
      <trkpt lat="45.54721" lon="4.78484">
        <ele>308</ele>
        <time>2012-05-19T08:59:09Z</time>
      </trkpt>
      <trkpt lat="45.54727" lon="4.78502">
        <ele>306</ele>
        <time>2012-05-19T08:59:11Z</time>
      </trkpt>
      <trkpt lat="45.54731" lon="4.78511">
        <ele>304</ele>
        <time>2012-05-19T08:59:12Z</time>
      </trkpt>
      <trkpt lat="45.54735" lon="4.78519">
        <ele>304</ele>
        <time>2012-05-19T08:59:13Z</time>
      </trkpt>
      <trkpt lat="45.54747" lon="4.78543">
        <ele>301</ele>
        <time>2012-05-19T08:59:16Z</time>
      </trkpt>
      <trkpt lat="45.54749" lon="4.7855">
        <ele>301</ele>
        <time>2012-05-19T08:59:17Z</time>
      </trkpt>
      <trkpt lat="45.5475" lon="4.78557">
        <ele>300</ele>
        <time>2012-05-19T08:59:18Z</time>
      </trkpt>
      <trkpt lat="45.5475" lon="4.78563">
        <ele>300</ele>
        <time>2012-05-19T08:59:19Z</time>
      </trkpt>
      <trkpt lat="45.54749" lon="4.78568">
        <ele>300</ele>
        <time>2012-05-19T08:59:20Z</time>
      </trkpt>
      <trkpt lat="45.54747" lon="4.78571">
        <ele>300</ele>
        <time>2012-05-19T08:59:21Z</time>
      </trkpt>
      <trkpt lat="45.54745" lon="4.78573">
        <ele>299</ele>
        <time>2012-05-19T08:59:22Z</time>
      </trkpt>
      <trkpt lat="45.54744" lon="4.78577">
        <ele>298</ele>
        <time>2012-05-19T08:59:24Z</time>
      </trkpt>
      <trkpt lat="45.54744" lon="4.7858">
        <ele>297</ele>
        <time>2012-05-19T08:59:25Z</time>
      </trkpt>
      <trkpt lat="45.54743" lon="4.78583">
        <ele>297</ele>
        <time>2012-05-19T08:59:26Z</time>
      </trkpt>
      <trkpt lat="45.54742" lon="4.78588">
        <ele>296</ele>
        <time>2012-05-19T08:59:28Z</time>
      </trkpt>
      <trkpt lat="45.54742" lon="4.78591">
        <ele>295</ele>
        <time>2012-05-19T08:59:29Z</time>
      </trkpt>
      <trkpt lat="45.54742" lon="4.78593">
        <ele>295</ele>
        <time>2012-05-19T08:59:30Z</time>
      </trkpt>
      <trkpt lat="45.54742" lon="4.78596">
        <ele>295</ele>
        <time>2012-05-19T08:59:31Z</time>
      </trkpt>
      <trkpt lat="45.54742" lon="4.78599">
        <ele>294</ele>
        <time>2012-05-19T08:59:32Z</time>
      </trkpt>
      <trkpt lat="45.54742" lon="4.78601">
        <ele>293</ele>
        <time>2012-05-19T08:59:33Z</time>
      </trkpt>
      <trkpt lat="45.54742" lon="4.78603">
        <ele>293</ele>
        <time>2012-05-19T08:59:34Z</time>
      </trkpt>
      <trkpt lat="45.54741" lon="4.78605">
        <ele>292</ele>
        <time>2012-05-19T08:59:35Z</time>
      </trkpt>
      <trkpt lat="45.5474" lon="4.78609">
        <ele>292</ele>
        <time>2012-05-19T08:59:36Z</time>
      </trkpt>
      <trkpt lat="45.54739" lon="4.78613">
        <ele>291</ele>
        <time>2012-05-19T08:59:37Z</time>
      </trkpt>
      <trkpt lat="45.54738" lon="4.78617">
        <ele>290</ele>
        <time>2012-05-19T08:59:38Z</time>
      </trkpt>
      <trkpt lat="45.54737" lon="4.7862">
        <ele>289</ele>
        <time>2012-05-19T08:59:39Z</time>
      </trkpt>
      <trkpt lat="45.54736" lon="4.78623">
        <ele>289</ele>
        <time>2012-05-19T08:59:40Z</time>
      </trkpt>
      <trkpt lat="45.54734" lon="4.78624">
        <ele>287</ele>
        <time>2012-05-19T08:59:41Z</time>
      </trkpt>
      <trkpt lat="45.54732" lon="4.78623">
        <ele>287</ele>
        <time>2012-05-19T08:59:42Z</time>
      </trkpt>
      <trkpt lat="45.5473" lon="4.78622">
        <ele>287</ele>
        <time>2012-05-19T08:59:43Z</time>
      </trkpt>
      <trkpt lat="45.54717" lon="4.78611">
        <ele>281</ele>
        <time>2012-05-19T08:59:50Z</time>
      </trkpt>
      <trkpt lat="45.54709" lon="4.78605">
        <ele>278</ele>
        <time>2012-05-19T08:59:54Z</time>
      </trkpt>
      <trkpt lat="45.54707" lon="4.78602">
        <ele>278</ele>
        <time>2012-05-19T08:59:55Z</time>
      </trkpt>
      <trkpt lat="45.54697" lon="4.78595">
        <ele>275</ele>
        <time>2012-05-19T08:59:59Z</time>
      </trkpt>
      <trkpt lat="45.54691" lon="4.78588">
        <ele>273</ele>
        <time>2012-05-19T09:00:02Z</time>
      </trkpt>
      <trkpt lat="45.54689" lon="4.78585">
        <ele>272</ele>
        <time>2012-05-19T09:00:04Z</time>
      </trkpt>
      <trkpt lat="45.54686" lon="4.78585">
        <ele>271</ele>
        <time>2012-05-19T09:00:06Z</time>
      </trkpt>
      <trkpt lat="45.54687" lon="4.78586">
        <ele>271</ele>
        <time>2012-05-19T09:00:12Z</time>
      </trkpt>
      <trkpt lat="45.54681" lon="4.78589">
        <ele>271</ele>
        <time>2012-05-19T09:00:25Z</time>
      </trkpt>
      <trkpt lat="45.54679" lon="4.78587">
        <ele>271</ele>
        <time>2012-05-19T09:00:35Z</time>
      </trkpt>
      <trkpt lat="45.5468" lon="4.78586">
        <ele>271</ele>
        <time>2012-05-19T09:00:45Z</time>
      </trkpt>
      <trkpt lat="45.5468" lon="4.78586">
        <ele>272</ele>
        <time>2012-05-19T09:00:52Z</time>
      </trkpt>
      <trkpt lat="45.54679" lon="4.78591">
        <ele>273</ele>
        <time>2012-05-19T09:01:01Z</time>
      </trkpt>
      <trkpt lat="45.54678" lon="4.78595">
        <ele>273</ele>
        <time>2012-05-19T09:01:11Z</time>
      </trkpt>
      <trkpt lat="45.54675" lon="4.78598">
        <ele>274</ele>
        <time>2012-05-19T09:01:25Z</time>
      </trkpt>
      <trkpt lat="45.54674" lon="4.78599">
        <ele>274</ele>
        <time>2012-05-19T09:01:38Z</time>
      </trkpt>
      <trkpt lat="45.54675" lon="4.78598">
        <ele>274</ele>
        <time>2012-05-19T09:01:47Z</time>
      </trkpt>
      <trkpt lat="45.54675" lon="4.78598">
        <ele>273</ele>
        <time>2012-05-19T09:01:51Z</time>
      </trkpt>
      <trkpt lat="45.54677" lon="4.78607">
        <ele>273</ele>
        <time>2012-05-19T09:01:56Z</time>
      </trkpt>
      <trkpt lat="45.54681" lon="4.78614">
        <ele>273</ele>
        <time>2012-05-19T09:02:02Z</time>
      </trkpt>
      <trkpt lat="45.54685" lon="4.78617">
        <ele>273</ele>
        <time>2012-05-19T09:02:12Z</time>
      </trkpt>
      <trkpt lat="45.54686" lon="4.78619">
        <ele>272</ele>
        <time>2012-05-19T09:02:21Z</time>
      </trkpt>
      <trkpt lat="45.54687" lon="4.78624">
        <ele>272</ele>
        <time>2012-05-19T09:02:24Z</time>
      </trkpt>
      <trkpt lat="45.54691" lon="4.78634">
        <ele>272</ele>
        <time>2012-05-19T09:02:29Z</time>
      </trkpt>
      <trkpt lat="45.54701" lon="4.78648">
        <ele>271</ele>
        <time>2012-05-19T09:02:35Z</time>
      </trkpt>
      <trkpt lat="45.54702" lon="4.7865">
        <ele>271</ele>
        <time>2012-05-19T09:02:36Z</time>
      </trkpt>
      <trkpt lat="45.54704" lon="4.78663">
        <ele>272</ele>
        <time>2012-05-19T09:02:41Z</time>
      </trkpt>
      <trkpt lat="45.54712" lon="4.7868">
        <ele>271</ele>
        <time>2012-05-19T09:02:47Z</time>
      </trkpt>
      <trkpt lat="45.54714" lon="4.78683">
        <ele>272</ele>
        <time>2012-05-19T09:02:48Z</time>
      </trkpt>
      <trkpt lat="45.54716" lon="4.7869">
        <ele>272</ele>
        <time>2012-05-19T09:02:50Z</time>
      </trkpt>
      <trkpt lat="45.54737" lon="4.78711">
        <ele>273</ele>
        <time>2012-05-19T09:02:57Z</time>
      </trkpt>
      <trkpt lat="45.54761" lon="4.78727">
        <ele>273</ele>
        <time>2012-05-19T09:03:04Z</time>
      </trkpt>
      <trkpt lat="45.54774" lon="4.78737">
        <ele>272</ele>
        <time>2012-05-19T09:03:10Z</time>
      </trkpt>
      <trkpt lat="45.54778" lon="4.7874">
        <ele>272</ele>
        <time>2012-05-19T09:03:12Z</time>
      </trkpt>
      <trkpt lat="45.54789" lon="4.78751">
        <ele>271</ele>
        <time>2012-05-19T09:03:19Z</time>
      </trkpt>
      <trkpt lat="45.54799" lon="4.78757">
        <ele>269</ele>
        <time>2012-05-19T09:03:23Z</time>
      </trkpt>
      <trkpt lat="45.54817" lon="4.78765">
        <ele>266</ele>
        <time>2012-05-19T09:03:28Z</time>
      </trkpt>
      <trkpt lat="45.54829" lon="4.78773">
        <ele>264</ele>
        <time>2012-05-19T09:03:33Z</time>
      </trkpt>
      <trkpt lat="45.54833" lon="4.78776">
        <ele>264</ele>
        <time>2012-05-19T09:03:34Z</time>
      </trkpt>
      <trkpt lat="45.54837" lon="4.78779">
        <ele>264</ele>
        <time>2012-05-19T09:03:35Z</time>
      </trkpt>
      <trkpt lat="45.54842" lon="4.78781">
        <ele>264</ele>
        <time>2012-05-19T09:03:36Z</time>
      </trkpt>
      <trkpt lat="45.54847" lon="4.78783">
        <ele>264</ele>
        <time>2012-05-19T09:03:37Z</time>
      </trkpt>
      <trkpt lat="45.54852" lon="4.78784">
        <ele>263</ele>
        <time>2012-05-19T09:03:38Z</time>
      </trkpt>
      <trkpt lat="45.54857" lon="4.78785">
        <ele>264</ele>
        <time>2012-05-19T09:03:39Z</time>
      </trkpt>
      <trkpt lat="45.54879" lon="4.78789">
        <ele>263</ele>
        <time>2012-05-19T09:03:45Z</time>
      </trkpt>
      <trkpt lat="45.54903" lon="4.78795">
        <ele>264</ele>
        <time>2012-05-19T09:03:51Z</time>
      </trkpt>
      <trkpt lat="45.54921" lon="4.78807">
        <ele>264</ele>
        <time>2012-05-19T09:03:57Z</time>
      </trkpt>
      <trkpt lat="45.54936" lon="4.78817">
        <ele>264</ele>
        <time>2012-05-19T09:04:02Z</time>
      </trkpt>
      <trkpt lat="45.54951" lon="4.78825">
        <ele>264</ele>
        <time>2012-05-19T09:04:08Z</time>
      </trkpt>
      <trkpt lat="45.54957" lon="4.78828">
        <ele>265</ele>
        <time>2012-05-19T09:04:12Z</time>
      </trkpt>
      <trkpt lat="45.54958" lon="4.78831">
        <ele>265</ele>
        <time>2012-05-19T09:04:13Z</time>
      </trkpt>
      <trkpt lat="45.5496" lon="4.78834">
        <ele>265</ele>
        <time>2012-05-19T09:04:14Z</time>
      </trkpt>
      <trkpt lat="45.54965" lon="4.78839">
        <ele>265</ele>
        <time>2012-05-19T09:04:16Z</time>
      </trkpt>
      <trkpt lat="45.54968" lon="4.78841">
        <ele>266</ele>
        <time>2012-05-19T09:04:17Z</time>
      </trkpt>
      <trkpt lat="45.5497" lon="4.78842">
        <ele>266</ele>
        <time>2012-05-19T09:04:18Z</time>
      </trkpt>
      <trkpt lat="45.54984" lon="4.78852">
        <ele>268</ele>
        <time>2012-05-19T09:04:23Z</time>
      </trkpt>
      <trkpt lat="45.54987" lon="4.78854">
        <ele>269</ele>
        <time>2012-05-19T09:04:24Z</time>
      </trkpt>
      <trkpt lat="45.54989" lon="4.78855">
        <ele>268</ele>
        <time>2012-05-19T09:04:25Z</time>
      </trkpt>
      <trkpt lat="45.54991" lon="4.78855">
        <ele>268</ele>
        <time>2012-05-19T09:04:26Z</time>
      </trkpt>
      <trkpt lat="45.54994" lon="4.78855">
        <ele>269</ele>
        <time>2012-05-19T09:04:27Z</time>
      </trkpt>
      <trkpt lat="45.54997" lon="4.78856">
        <ele>269</ele>
        <time>2012-05-19T09:04:28Z</time>
      </trkpt>
      <trkpt lat="45.54999" lon="4.78856">
        <ele>268</ele>
        <time>2012-05-19T09:04:29Z</time>
      </trkpt>
      <trkpt lat="45.55001" lon="4.78857">
        <ele>268</ele>
        <time>2012-05-19T09:04:30Z</time>
      </trkpt>
      <trkpt lat="45.55003" lon="4.78857">
        <ele>268</ele>
        <time>2012-05-19T09:04:31Z</time>
      </trkpt>
      <trkpt lat="45.55007" lon="4.78859">
        <ele>268</ele>
        <time>2012-05-19T09:04:32Z</time>
      </trkpt>
      <trkpt lat="45.55021" lon="4.78859">
        <ele>270</ele>
        <time>2012-05-19T09:04:37Z</time>
      </trkpt>
      <trkpt lat="45.55035" lon="4.78862">
        <ele>268</ele>
        <time>2012-05-19T09:04:42Z</time>
      </trkpt>
      <trkpt lat="45.55046" lon="4.78865">
        <ele>266</ele>
        <time>2012-05-19T09:04:44Z</time>
      </trkpt>
      <trkpt lat="45.55053" lon="4.78868">
        <ele>266</ele>
        <time>2012-05-19T09:04:45Z</time>
      </trkpt>
      <trkpt lat="45.55059" lon="4.78872">
        <ele>265</ele>
        <time>2012-05-19T09:04:46Z</time>
      </trkpt>
      <trkpt lat="45.55064" lon="4.78877">
        <ele>265</ele>
        <time>2012-05-19T09:04:47Z</time>
      </trkpt>
      <trkpt lat="45.55071" lon="4.7888">
        <ele>265</ele>
        <time>2012-05-19T09:04:48Z</time>
      </trkpt>
      <trkpt lat="45.55077" lon="4.78883">
        <ele>264</ele>
        <time>2012-05-19T09:04:49Z</time>
      </trkpt>
      <trkpt lat="45.55089" lon="4.78888">
        <ele>263</ele>
        <time>2012-05-19T09:04:51Z</time>
      </trkpt>
      <trkpt lat="45.551" lon="4.78893">
        <ele>261</ele>
        <time>2012-05-19T09:04:53Z</time>
      </trkpt>
      <trkpt lat="45.55105" lon="4.78895">
        <ele>260</ele>
        <time>2012-05-19T09:04:54Z</time>
      </trkpt>
      <trkpt lat="45.5511" lon="4.78896">
        <ele>259</ele>
        <time>2012-05-19T09:04:55Z</time>
      </trkpt>
      <trkpt lat="45.55116" lon="4.78896">
        <ele>258</ele>
        <time>2012-05-19T09:04:56Z</time>
      </trkpt>
      <trkpt lat="45.55123" lon="4.78896">
        <ele>257</ele>
        <time>2012-05-19T09:04:57Z</time>
      </trkpt>
      <trkpt lat="45.55129" lon="4.78896">
        <ele>255</ele>
        <time>2012-05-19T09:04:58Z</time>
      </trkpt>
      <trkpt lat="45.55133" lon="4.78899">
        <ele>253</ele>
        <time>2012-05-19T09:04:59Z</time>
      </trkpt>
      <trkpt lat="45.55137" lon="4.789">
        <ele>254</ele>
        <time>2012-05-19T09:05:00Z</time>
      </trkpt>
      <trkpt lat="45.55149" lon="4.78907">
        <ele>252</ele>
        <time>2012-05-19T09:05:07Z</time>
      </trkpt>
      <trkpt lat="45.55154" lon="4.7891">
        <ele>252</ele>
        <time>2012-05-19T09:05:16Z</time>
      </trkpt>
      <trkpt lat="45.55158" lon="4.78912">
        <ele>252</ele>
        <time>2012-05-19T09:05:22Z</time>
      </trkpt>
      <trkpt lat="45.5516" lon="4.78913">
        <ele>253</ele>
        <time>2012-05-19T09:05:24Z</time>
      </trkpt>
      <trkpt lat="45.55163" lon="4.78915">
        <ele>253</ele>
        <time>2012-05-19T09:05:29Z</time>
      </trkpt>
      <trkpt lat="45.55166" lon="4.78918">
        <ele>253</ele>
        <time>2012-05-19T09:05:35Z</time>
      </trkpt>
      <trkpt lat="45.55172" lon="4.78924">
        <ele>253</ele>
        <time>2012-05-19T09:05:41Z</time>
      </trkpt>
      <trkpt lat="45.55173" lon="4.78926">
        <ele>253</ele>
        <time>2012-05-19T09:05:42Z</time>
      </trkpt>
      <trkpt lat="45.55175" lon="4.7893">
        <ele>252</ele>
        <time>2012-05-19T09:05:43Z</time>
      </trkpt>
      <trkpt lat="45.55177" lon="4.78933">
        <ele>252</ele>
        <time>2012-05-19T09:05:44Z</time>
      </trkpt>
      <trkpt lat="45.55178" lon="4.78936">
        <ele>253</ele>
        <time>2012-05-19T09:05:45Z</time>
      </trkpt>
      <trkpt lat="45.5518" lon="4.78938">
        <ele>252</ele>
        <time>2012-05-19T09:05:46Z</time>
      </trkpt>
      <trkpt lat="45.55183" lon="4.78942">
        <ele>253</ele>
        <time>2012-05-19T09:05:47Z</time>
      </trkpt>
      <trkpt lat="45.55186" lon="4.78944">
        <ele>253</ele>
        <time>2012-05-19T09:05:48Z</time>
      </trkpt>
      <trkpt lat="45.55189" lon="4.78946">
        <ele>253</ele>
        <time>2012-05-19T09:05:49Z</time>
      </trkpt>
      <trkpt lat="45.55192" lon="4.78949">
        <ele>253</ele>
        <time>2012-05-19T09:05:50Z</time>
      </trkpt>
      <trkpt lat="45.55195" lon="4.78952">
        <ele>253</ele>
        <time>2012-05-19T09:05:51Z</time>
      </trkpt>
      <trkpt lat="45.55197" lon="4.78955">
        <ele>253</ele>
        <time>2012-05-19T09:05:52Z</time>
      </trkpt>
      <trkpt lat="45.552" lon="4.78957">
        <ele>253</ele>
        <time>2012-05-19T09:05:53Z</time>
      </trkpt>
      <trkpt lat="45.55216" lon="4.78973">
        <ele>254</ele>
        <time>2012-05-19T09:05:59Z</time>
      </trkpt>
      <trkpt lat="45.55223" lon="4.78997">
        <ele>256</ele>
        <time>2012-05-19T09:06:04Z</time>
      </trkpt>
      <trkpt lat="45.55232" lon="4.79018">
        <ele>257</ele>
        <time>2012-05-19T09:06:10Z</time>
      </trkpt>
      <trkpt lat="45.55246" lon="4.79032">
        <ele>258</ele>
        <time>2012-05-19T09:06:17Z</time>
      </trkpt>
      <trkpt lat="45.55256" lon="4.79039">
        <ele>259</ele>
        <time>2012-05-19T09:06:22Z</time>
      </trkpt>
      <trkpt lat="45.55268" lon="4.79046">
        <ele>260</ele>
        <time>2012-05-19T09:06:28Z</time>
      </trkpt>
      <trkpt lat="45.55274" lon="4.79053">
        <ele>261</ele>
        <time>2012-05-19T09:06:34Z</time>
      </trkpt>
      <trkpt lat="45.55283" lon="4.79058">
        <ele>263</ele>
        <time>2012-05-19T09:06:41Z</time>
      </trkpt>
      <trkpt lat="45.55293" lon="4.79063">
        <ele>264</ele>
        <time>2012-05-19T09:06:48Z</time>
      </trkpt>
      <trkpt lat="45.55303" lon="4.79065">
        <ele>265</ele>
        <time>2012-05-19T09:06:54Z</time>
      </trkpt>
      <trkpt lat="45.55305" lon="4.79066">
        <ele>265</ele>
        <time>2012-05-19T09:06:55Z</time>
      </trkpt>
      <trkpt lat="45.55306" lon="4.79067">
        <ele>265</ele>
        <time>2012-05-19T09:06:56Z</time>
      </trkpt>
      <trkpt lat="45.55313" lon="4.79069">
        <ele>266</ele>
        <time>2012-05-19T09:07:02Z</time>
      </trkpt>
      <trkpt lat="45.55319" lon="4.79071">
        <ele>266</ele>
        <time>2012-05-19T09:07:05Z</time>
      </trkpt>
      <trkpt lat="45.55322" lon="4.79071">
        <ele>267</ele>
        <time>2012-05-19T09:07:06Z</time>
      </trkpt>
      <trkpt lat="45.55331" lon="4.79078">
        <ele>267</ele>
        <time>2012-05-19T09:07:12Z</time>
      </trkpt>
      <trkpt lat="45.55335" lon="4.79081">
        <ele>267</ele>
        <time>2012-05-19T09:07:14Z</time>
      </trkpt>
      <trkpt lat="45.55336" lon="4.79084">
        <ele>267</ele>
        <time>2012-05-19T09:07:15Z</time>
      </trkpt>
      <trkpt lat="45.55339" lon="4.79088">
        <ele>267</ele>
        <time>2012-05-19T09:07:16Z</time>
      </trkpt>
      <trkpt lat="45.55341" lon="4.79092">
        <ele>267</ele>
        <time>2012-05-19T09:07:17Z</time>
      </trkpt>
      <trkpt lat="45.55343" lon="4.79097">
        <ele>266</ele>
        <time>2012-05-19T09:07:18Z</time>
      </trkpt>
      <trkpt lat="45.55354" lon="4.79107">
        <ele>266</ele>
        <time>2012-05-19T09:07:22Z</time>
      </trkpt>
      <trkpt lat="45.5537" lon="4.79119">
        <ele>266</ele>
        <time>2012-05-19T09:07:28Z</time>
      </trkpt>
      <trkpt lat="45.55382" lon="4.79133">
        <ele>266</ele>
        <time>2012-05-19T09:07:34Z</time>
      </trkpt>
      <trkpt lat="45.55387" lon="4.7914">
        <ele>267</ele>
        <time>2012-05-19T09:07:37Z</time>
      </trkpt>
      <trkpt lat="45.55387" lon="4.79142">
        <ele>266</ele>
        <time>2012-05-19T09:07:38Z</time>
      </trkpt>
      <trkpt lat="45.55388" lon="4.79144">
        <ele>266</ele>
        <time>2012-05-19T09:07:39Z</time>
      </trkpt>
      <trkpt lat="45.55389" lon="4.79148">
        <ele>267</ele>
        <time>2012-05-19T09:07:40Z</time>
      </trkpt>
      <trkpt lat="45.55389" lon="4.79152">
        <ele>267</ele>
        <time>2012-05-19T09:07:41Z</time>
      </trkpt>
      <trkpt lat="45.55389" lon="4.79155">
        <ele>267</ele>
        <time>2012-05-19T09:07:42Z</time>
      </trkpt>
      <trkpt lat="45.55389" lon="4.7916">
        <ele>267</ele>
        <time>2012-05-19T09:07:43Z</time>
      </trkpt>
      <trkpt lat="45.55389" lon="4.79164">
        <ele>268</ele>
        <time>2012-05-19T09:07:44Z</time>
      </trkpt>
      <trkpt lat="45.5539" lon="4.79168">
        <ele>268</ele>
        <time>2012-05-19T09:07:45Z</time>
      </trkpt>
      <trkpt lat="45.55392" lon="4.79171">
        <ele>268</ele>
        <time>2012-05-19T09:07:46Z</time>
      </trkpt>
      <trkpt lat="45.55393" lon="4.79175">
        <ele>269</ele>
        <time>2012-05-19T09:07:47Z</time>
      </trkpt>
      <trkpt lat="45.554" lon="4.79184">
        <ele>270</ele>
        <time>2012-05-19T09:07:52Z</time>
      </trkpt>
      <trkpt lat="45.55406" lon="4.792">
        <ele>271</ele>
        <time>2012-05-19T09:07:59Z</time>
      </trkpt>
      <trkpt lat="45.55414" lon="4.79213">
        <ele>272</ele>
        <time>2012-05-19T09:08:06Z</time>
      </trkpt>
      <trkpt lat="45.55421" lon="4.7922">
        <ele>273</ele>
        <time>2012-05-19T09:08:11Z</time>
      </trkpt>
      <trkpt lat="45.55433" lon="4.79231">
        <ele>275</ele>
        <time>2012-05-19T09:08:19Z</time>
      </trkpt>
      <trkpt lat="45.55441" lon="4.7924">
        <ele>276</ele>
        <time>2012-05-19T09:08:25Z</time>
      </trkpt>
      <trkpt lat="45.55442" lon="4.79242">
        <ele>276</ele>
        <time>2012-05-19T09:08:26Z</time>
      </trkpt>
      <trkpt lat="45.55443" lon="4.79243">
        <ele>276</ele>
        <time>2012-05-19T09:08:27Z</time>
      </trkpt>
      <trkpt lat="45.55444" lon="4.79245">
        <ele>276</ele>
        <time>2012-05-19T09:08:28Z</time>
      </trkpt>
      <trkpt lat="45.55445" lon="4.79247">
        <ele>277</ele>
        <time>2012-05-19T09:08:29Z</time>
      </trkpt>
      <trkpt lat="45.55447" lon="4.79249">
        <ele>277</ele>
        <time>2012-05-19T09:08:30Z</time>
      </trkpt>
      <trkpt lat="45.55455" lon="4.79265">
        <ele>278</ele>
        <time>2012-05-19T09:08:37Z</time>
      </trkpt>
      <trkpt lat="45.55456" lon="4.79267">
        <ele>279</ele>
        <time>2012-05-19T09:08:38Z</time>
      </trkpt>
      <trkpt lat="45.5546" lon="4.79273">
        <ele>279</ele>
        <time>2012-05-19T09:08:41Z</time>
      </trkpt>
      <trkpt lat="45.55462" lon="4.79274">
        <ele>279</ele>
        <time>2012-05-19T09:08:42Z</time>
      </trkpt>
      <trkpt lat="45.55464" lon="4.79274">
        <ele>280</ele>
        <time>2012-05-19T09:08:43Z</time>
      </trkpt>
      <trkpt lat="45.55467" lon="4.79273">
        <ele>280</ele>
        <time>2012-05-19T09:08:44Z</time>
      </trkpt>
      <trkpt lat="45.55469" lon="4.79272">
        <ele>280</ele>
        <time>2012-05-19T09:08:45Z</time>
      </trkpt>
      <trkpt lat="45.55471" lon="4.79272">
        <ele>281</ele>
        <time>2012-05-19T09:08:46Z</time>
      </trkpt>
      <trkpt lat="45.55473" lon="4.79271">
        <ele>281</ele>
        <time>2012-05-19T09:08:47Z</time>
      </trkpt>
      <trkpt lat="45.55474" lon="4.79269">
        <ele>281</ele>
        <time>2012-05-19T09:08:48Z</time>
      </trkpt>
      <trkpt lat="45.55476" lon="4.79268">
        <ele>281</ele>
        <time>2012-05-19T09:08:49Z</time>
      </trkpt>
      <trkpt lat="45.55477" lon="4.79268">
        <ele>281</ele>
        <time>2012-05-19T09:08:54Z</time>
      </trkpt>
      <trkpt lat="45.55478" lon="4.79268">
        <ele>282</ele>
        <time>2012-05-19T09:09:02Z</time>
      </trkpt>
      <trkpt lat="45.55478" lon="4.79268">
        <ele>282</ele>
        <time>2012-05-19T09:09:16Z</time>
      </trkpt>
      <trkpt lat="45.55481" lon="4.79265">
        <ele>282</ele>
        <time>2012-05-19T09:09:27Z</time>
      </trkpt>
      <trkpt lat="45.55495" lon="4.79248">
        <ele>281</ele>
        <time>2012-05-19T09:09:32Z</time>
      </trkpt>
      <trkpt lat="45.55512" lon="4.79228">
        <ele>279</ele>
        <time>2012-05-19T09:09:36Z</time>
      </trkpt>
      <trkpt lat="45.55525" lon="4.7921">
        <ele>279</ele>
        <time>2012-05-19T09:09:41Z</time>
      </trkpt>
      <trkpt lat="45.55535" lon="4.79198">
        <ele>280</ele>
        <time>2012-05-19T09:09:47Z</time>
      </trkpt>
      <trkpt lat="45.55542" lon="4.79189">
        <ele>282</ele>
        <time>2012-05-19T09:09:52Z</time>
      </trkpt>
      <trkpt lat="45.55553" lon="4.79188">
        <ele>282</ele>
        <time>2012-05-19T09:09:58Z</time>
      </trkpt>
      <trkpt lat="45.5557" lon="4.792">
        <ele>282</ele>
        <time>2012-05-19T09:10:05Z</time>
      </trkpt>
      <trkpt lat="45.55574" lon="4.79201">
        <ele>282</ele>
        <time>2012-05-19T09:10:07Z</time>
      </trkpt>
      <trkpt lat="45.55577" lon="4.79203">
        <ele>283</ele>
        <time>2012-05-19T09:10:08Z</time>
      </trkpt>
      <trkpt lat="45.5558" lon="4.79205">
        <ele>282</ele>
        <time>2012-05-19T09:10:09Z</time>
      </trkpt>
      <trkpt lat="45.55591" lon="4.79214">
        <ele>282</ele>
        <time>2012-05-19T09:10:12Z</time>
      </trkpt>
      <trkpt lat="45.55596" lon="4.79217">
        <ele>281</ele>
        <time>2012-05-19T09:10:13Z</time>
      </trkpt>
      <trkpt lat="45.55605" lon="4.7922">
        <ele>280</ele>
        <time>2012-05-19T09:10:15Z</time>
      </trkpt>
      <trkpt lat="45.55627" lon="4.79227">
        <ele>276</ele>
        <time>2012-05-19T09:10:19Z</time>
      </trkpt>
      <trkpt lat="45.55632" lon="4.7923">
        <ele>275</ele>
        <time>2012-05-19T09:10:20Z</time>
      </trkpt>
      <trkpt lat="45.55648" lon="4.79239">
        <ele>271</ele>
        <time>2012-05-19T09:10:23Z</time>
      </trkpt>
      <trkpt lat="45.55667" lon="4.79248">
        <ele>267</ele>
        <time>2012-05-19T09:10:26Z</time>
      </trkpt>
      <trkpt lat="45.55674" lon="4.7925">
        <ele>267</ele>
        <time>2012-05-19T09:10:27Z</time>
      </trkpt>
      <trkpt lat="45.55681" lon="4.79251">
        <ele>266</ele>
        <time>2012-05-19T09:10:28Z</time>
      </trkpt>
      <trkpt lat="45.55687" lon="4.79252">
        <ele>264</ele>
        <time>2012-05-19T09:10:29Z</time>
      </trkpt>
      <trkpt lat="45.55699" lon="4.79257">
        <ele>263</ele>
        <time>2012-05-19T09:10:31Z</time>
      </trkpt>
      <trkpt lat="45.55711" lon="4.79262">
        <ele>260</ele>
        <time>2012-05-19T09:10:33Z</time>
      </trkpt>
      <trkpt lat="45.55718" lon="4.79264">
        <ele>260</ele>
        <time>2012-05-19T09:10:34Z</time>
      </trkpt>
      <trkpt lat="45.55723" lon="4.79266">
        <ele>259</ele>
        <time>2012-05-19T09:10:35Z</time>
      </trkpt>
      <trkpt lat="45.55727" lon="4.79268">
        <ele>258</ele>
        <time>2012-05-19T09:10:36Z</time>
      </trkpt>
      <trkpt lat="45.5573" lon="4.79268">
        <ele>258</ele>
        <time>2012-05-19T09:10:37Z</time>
      </trkpt>
      <trkpt lat="45.55734" lon="4.79266">
        <ele>257</ele>
        <time>2012-05-19T09:10:38Z</time>
      </trkpt>
      <trkpt lat="45.55738" lon="4.79265">
        <ele>257</ele>
        <time>2012-05-19T09:10:39Z</time>
      </trkpt>
      <trkpt lat="45.55742" lon="4.79263">
        <ele>257</ele>
        <time>2012-05-19T09:10:40Z</time>
      </trkpt>
      <trkpt lat="45.55747" lon="4.7926">
        <ele>256</ele>
        <time>2012-05-19T09:10:41Z</time>
      </trkpt>
      <trkpt lat="45.55751" lon="4.79256">
        <ele>256</ele>
        <time>2012-05-19T09:10:42Z</time>
      </trkpt>
      <trkpt lat="45.55756" lon="4.79252">
        <ele>255</ele>
        <time>2012-05-19T09:10:43Z</time>
      </trkpt>
      <trkpt lat="45.55764" lon="4.79244">
        <ele>254</ele>
        <time>2012-05-19T09:10:45Z</time>
      </trkpt>
      <trkpt lat="45.55774" lon="4.79231">
        <ele>253</ele>
        <time>2012-05-19T09:10:48Z</time>
      </trkpt>
      <trkpt lat="45.55781" lon="4.79222">
        <ele>252</ele>
        <time>2012-05-19T09:10:50Z</time>
      </trkpt>
      <trkpt lat="45.55785" lon="4.79218">
        <ele>252</ele>
        <time>2012-05-19T09:10:51Z</time>
      </trkpt>
      <trkpt lat="45.55788" lon="4.79213">
        <ele>251</ele>
        <time>2012-05-19T09:10:52Z</time>
      </trkpt>
      <trkpt lat="45.55792" lon="4.79209">
        <ele>251</ele>
        <time>2012-05-19T09:10:53Z</time>
      </trkpt>
      <trkpt lat="45.55796" lon="4.79204">
        <ele>250</ele>
        <time>2012-05-19T09:10:54Z</time>
      </trkpt>
      <trkpt lat="45.55804" lon="4.79194">
        <ele>250</ele>
        <time>2012-05-19T09:10:56Z</time>
      </trkpt>
      <trkpt lat="45.55811" lon="4.79183">
        <ele>249</ele>
        <time>2012-05-19T09:10:58Z</time>
      </trkpt>
      <trkpt lat="45.55813" lon="4.79177">
        <ele>249</ele>
        <time>2012-05-19T09:10:59Z</time>
      </trkpt>
      <trkpt lat="45.55815" lon="4.79174">
        <ele>250</ele>
        <time>2012-05-19T09:11:00Z</time>
      </trkpt>
      <trkpt lat="45.55833" lon="4.79165">
        <ele>249</ele>
        <time>2012-05-19T09:11:06Z</time>
      </trkpt>
      <trkpt lat="45.55847" lon="4.79163">
        <ele>248</ele>
        <time>2012-05-19T09:11:09Z</time>
      </trkpt>
      <trkpt lat="45.55852" lon="4.79163">
        <ele>248</ele>
        <time>2012-05-19T09:11:10Z</time>
      </trkpt>
      <trkpt lat="45.55858" lon="4.79164">
        <ele>247</ele>
        <time>2012-05-19T09:11:11Z</time>
      </trkpt>
      <trkpt lat="45.55863" lon="4.79164">
        <ele>247</ele>
        <time>2012-05-19T09:11:12Z</time>
      </trkpt>
      <trkpt lat="45.55867" lon="4.79162">
        <ele>246</ele>
        <time>2012-05-19T09:11:13Z</time>
      </trkpt>
      <trkpt lat="45.5587" lon="4.79159">
        <ele>246</ele>
        <time>2012-05-19T09:11:14Z</time>
      </trkpt>
      <trkpt lat="45.55872" lon="4.79154">
        <ele>246</ele>
        <time>2012-05-19T09:11:15Z</time>
      </trkpt>
      <trkpt lat="45.55873" lon="4.79148">
        <ele>245</ele>
        <time>2012-05-19T09:11:16Z</time>
      </trkpt>
      <trkpt lat="45.55875" lon="4.7914">
        <ele>245</ele>
        <time>2012-05-19T09:11:17Z</time>
      </trkpt>
      <trkpt lat="45.55879" lon="4.79132">
        <ele>244</ele>
        <time>2012-05-19T09:11:18Z</time>
      </trkpt>
      <trkpt lat="45.55885" lon="4.79115">
        <ele>242</ele>
        <time>2012-05-19T09:11:20Z</time>
      </trkpt>
      <trkpt lat="45.55885" lon="4.79104">
        <ele>242</ele>
        <time>2012-05-19T09:11:21Z</time>
      </trkpt>
      <trkpt lat="45.55884" lon="4.79094">
        <ele>241</ele>
        <time>2012-05-19T09:11:22Z</time>
      </trkpt>
      <trkpt lat="45.55882" lon="4.79083">
        <ele>240</ele>
        <time>2012-05-19T09:11:23Z</time>
      </trkpt>
      <trkpt lat="45.55879" lon="4.79072">
        <ele>240</ele>
        <time>2012-05-19T09:11:24Z</time>
      </trkpt>
      <trkpt lat="45.55876" lon="4.79062">
        <ele>240</ele>
        <time>2012-05-19T09:11:25Z</time>
      </trkpt>
      <trkpt lat="45.55873" lon="4.79051">
        <ele>239</ele>
        <time>2012-05-19T09:11:26Z</time>
      </trkpt>
      <trkpt lat="45.5587" lon="4.7904">
        <ele>239</ele>
        <time>2012-05-19T09:11:27Z</time>
      </trkpt>
      <trkpt lat="45.55867" lon="4.79029">
        <ele>239</ele>
        <time>2012-05-19T09:11:28Z</time>
      </trkpt>
      <trkpt lat="45.55865" lon="4.79018">
        <ele>238</ele>
        <time>2012-05-19T09:11:29Z</time>
      </trkpt>
      <trkpt lat="45.55866" lon="4.79007">
        <ele>238</ele>
        <time>2012-05-19T09:11:30Z</time>
      </trkpt>
      <trkpt lat="45.55868" lon="4.78999">
        <ele>237</ele>
        <time>2012-05-19T09:11:31Z</time>
      </trkpt>
      <trkpt lat="45.55869" lon="4.78992">
        <ele>238</ele>
        <time>2012-05-19T09:11:32Z</time>
      </trkpt>
      <trkpt lat="45.55869" lon="4.78987">
        <ele>238</ele>
        <time>2012-05-19T09:11:33Z</time>
      </trkpt>
      <trkpt lat="45.55869" lon="4.78983">
        <ele>239</ele>
        <time>2012-05-19T09:11:34Z</time>
      </trkpt>
      <trkpt lat="45.55869" lon="4.78982">
        <ele>239</ele>
        <time>2012-05-19T09:11:35Z</time>
      </trkpt>
      <trkpt lat="45.55869" lon="4.7898">
        <ele>239</ele>
        <time>2012-05-19T09:11:36Z</time>
      </trkpt>
      <trkpt lat="45.55868" lon="4.78978">
        <ele>240</ele>
        <time>2012-05-19T09:11:37Z</time>
      </trkpt>
      <trkpt lat="45.55867" lon="4.78976">
        <ele>240</ele>
        <time>2012-05-19T09:11:38Z</time>
      </trkpt>
      <trkpt lat="45.55867" lon="4.78975">
        <ele>240</ele>
        <time>2012-05-19T09:11:39Z</time>
      </trkpt>
      <trkpt lat="45.55866" lon="4.78973">
        <ele>240</ele>
        <time>2012-05-19T09:11:40Z</time>
      </trkpt>
      <trkpt lat="45.55863" lon="4.78961">
        <ele>242</ele>
        <time>2012-05-19T09:11:47Z</time>
      </trkpt>
      <trkpt lat="45.55861" lon="4.78955">
        <ele>243</ele>
        <time>2012-05-19T09:11:50Z</time>
      </trkpt>
      <trkpt lat="45.55859" lon="4.78951">
        <ele>244</ele>
        <time>2012-05-19T09:11:52Z</time>
      </trkpt>
      <trkpt lat="45.55858" lon="4.7895">
        <ele>244</ele>
        <time>2012-05-19T09:11:53Z</time>
      </trkpt>
      <trkpt lat="45.55857" lon="4.78948">
        <ele>245</ele>
        <time>2012-05-19T09:11:54Z</time>
      </trkpt>
      <trkpt lat="45.55856" lon="4.78946">
        <ele>244</ele>
        <time>2012-05-19T09:11:55Z</time>
      </trkpt>
      <trkpt lat="45.55855" lon="4.78944">
        <ele>245</ele>
        <time>2012-05-19T09:11:56Z</time>
      </trkpt>
      <trkpt lat="45.55854" lon="4.78942">
        <ele>245</ele>
        <time>2012-05-19T09:11:57Z</time>
      </trkpt>
      <trkpt lat="45.55853" lon="4.78941">
        <ele>245</ele>
        <time>2012-05-19T09:11:58Z</time>
      </trkpt>
      <trkpt lat="45.55852" lon="4.78939">
        <ele>246</ele>
        <time>2012-05-19T09:11:59Z</time>
      </trkpt>
      <trkpt lat="45.55851" lon="4.78936">
        <ele>246</ele>
        <time>2012-05-19T09:12:00Z</time>
      </trkpt>
      <trkpt lat="45.5585" lon="4.78934">
        <ele>246</ele>
        <time>2012-05-19T09:12:01Z</time>
      </trkpt>
      <trkpt lat="45.55842" lon="4.78921">
        <ele>247</ele>
        <time>2012-05-19T09:12:08Z</time>
      </trkpt>
      <trkpt lat="45.55835" lon="4.78906">
        <ele>249</ele>
        <time>2012-05-19T09:12:15Z</time>
      </trkpt>
      <trkpt lat="45.5583" lon="4.78889">
        <ele>249</ele>
        <time>2012-05-19T09:12:22Z</time>
      </trkpt>
      <trkpt lat="45.55822" lon="4.7887">
        <ele>249</ele>
        <time>2012-05-19T09:12:29Z</time>
      </trkpt>
      <trkpt lat="45.55805" lon="4.78846">
        <ele>248</ele>
        <time>2012-05-19T09:12:36Z</time>
      </trkpt>
      <trkpt lat="45.55799" lon="4.78837">
        <ele>247</ele>
        <time>2012-05-19T09:12:38Z</time>
      </trkpt>
      <trkpt lat="45.55783" lon="4.78815">
        <ele>247</ele>
        <time>2012-05-19T09:12:43Z</time>
      </trkpt>
      <trkpt lat="45.55781" lon="4.78809">
        <ele>247</ele>
        <time>2012-05-19T09:12:44Z</time>
      </trkpt>
      <trkpt lat="45.55777" lon="4.78786">
        <ele>247</ele>
        <time>2012-05-19T09:12:48Z</time>
      </trkpt>
      <trkpt lat="45.55775" lon="4.78764">
        <ele>248</ele>
        <time>2012-05-19T09:12:53Z</time>
      </trkpt>
      <trkpt lat="45.55778" lon="4.78745">
        <ele>249</ele>
        <time>2012-05-19T09:12:59Z</time>
      </trkpt>
      <trkpt lat="45.55776" lon="4.78717">
        <ele>248</ele>
        <time>2012-05-19T09:13:05Z</time>
      </trkpt>
      <trkpt lat="45.55764" lon="4.78678">
        <ele>245</ele>
        <time>2012-05-19T09:13:10Z</time>
      </trkpt>
      <trkpt lat="45.55749" lon="4.78642">
        <ele>241</ele>
        <time>2012-05-19T09:13:14Z</time>
      </trkpt>
      <trkpt lat="45.55744" lon="4.78633">
        <ele>241</ele>
        <time>2012-05-19T09:13:15Z</time>
      </trkpt>
      <trkpt lat="45.55738" lon="4.78625">
        <ele>240</ele>
        <time>2012-05-19T09:13:16Z</time>
      </trkpt>
      <trkpt lat="45.55732" lon="4.7862">
        <ele>239</ele>
        <time>2012-05-19T09:13:17Z</time>
      </trkpt>
      <trkpt lat="45.55725" lon="4.78617">
        <ele>239</ele>
        <time>2012-05-19T09:13:18Z</time>
      </trkpt>
      <trkpt lat="45.55718" lon="4.78614">
        <ele>239</ele>
        <time>2012-05-19T09:13:19Z</time>
      </trkpt>
      <trkpt lat="45.55712" lon="4.7861">
        <ele>238</ele>
        <time>2012-05-19T09:13:20Z</time>
      </trkpt>
      <trkpt lat="45.55707" lon="4.78605">
        <ele>238</ele>
        <time>2012-05-19T09:13:21Z</time>
      </trkpt>
      <trkpt lat="45.55704" lon="4.78599">
        <ele>238</ele>
        <time>2012-05-19T09:13:22Z</time>
      </trkpt>
      <trkpt lat="45.55703" lon="4.78594">
        <ele>238</ele>
        <time>2012-05-19T09:13:23Z</time>
      </trkpt>
      <trkpt lat="45.55703" lon="4.78589">
        <ele>238</ele>
        <time>2012-05-19T09:13:24Z</time>
      </trkpt>
      <trkpt lat="45.55703" lon="4.78586">
        <ele>239</ele>
        <time>2012-05-19T09:13:25Z</time>
      </trkpt>
      <trkpt lat="45.55704" lon="4.78583">
        <ele>239</ele>
        <time>2012-05-19T09:13:26Z</time>
      </trkpt>
      <trkpt lat="45.55705" lon="4.78581">
        <ele>239</ele>
        <time>2012-05-19T09:13:27Z</time>
      </trkpt>
      <trkpt lat="45.55704" lon="4.78567">
        <ele>241</ele>
        <time>2012-05-19T09:13:34Z</time>
      </trkpt>
      <trkpt lat="45.55704" lon="4.78547">
        <ele>242</ele>
        <time>2012-05-19T09:13:42Z</time>
      </trkpt>
      <trkpt lat="45.55704" lon="4.78546">
        <ele>242</ele>
        <time>2012-05-19T09:13:43Z</time>
      </trkpt>
      <trkpt lat="45.55705" lon="4.78532">
        <ele>243</ele>
        <time>2012-05-19T09:13:49Z</time>
      </trkpt>
      <trkpt lat="45.55704" lon="4.78521">
        <ele>246</ele>
        <time>2012-05-19T09:13:55Z</time>
      </trkpt>
      <trkpt lat="45.55703" lon="4.78509">
        <ele>247</ele>
        <time>2012-05-19T09:14:01Z</time>
      </trkpt>
      <trkpt lat="45.55702" lon="4.78507">
        <ele>247</ele>
        <time>2012-05-19T09:14:02Z</time>
      </trkpt>
      <trkpt lat="45.55701" lon="4.78506">
        <ele>247</ele>
        <time>2012-05-19T09:14:03Z</time>
      </trkpt>
      <trkpt lat="45.557" lon="4.78504">
        <ele>247</ele>
        <time>2012-05-19T09:14:04Z</time>
      </trkpt>
      <trkpt lat="45.557" lon="4.78502">
        <ele>247</ele>
        <time>2012-05-19T09:14:05Z</time>
      </trkpt>
      <trkpt lat="45.55698" lon="4.785">
        <ele>247</ele>
        <time>2012-05-19T09:14:06Z</time>
      </trkpt>
      <trkpt lat="45.55697" lon="4.78498">
        <ele>247</ele>
        <time>2012-05-19T09:14:07Z</time>
      </trkpt>
      <trkpt lat="45.55692" lon="4.78476">
        <ele>247</ele>
        <time>2012-05-19T09:14:15Z</time>
      </trkpt>
      <trkpt lat="45.55688" lon="4.78466">
        <ele>247</ele>
        <time>2012-05-19T09:14:18Z</time>
      </trkpt>
      <trkpt lat="45.55685" lon="4.78462">
        <ele>247</ele>
        <time>2012-05-19T09:14:19Z</time>
      </trkpt>
      <trkpt lat="45.5567" lon="4.78437">
        <ele>247</ele>
        <time>2012-05-19T09:14:26Z</time>
      </trkpt>
      <trkpt lat="45.55662" lon="4.78414">
        <ele>248</ele>
        <time>2012-05-19T09:14:32Z</time>
      </trkpt>
      <trkpt lat="45.55655" lon="4.78383">
        <ele>248</ele>
        <time>2012-05-19T09:14:38Z</time>
      </trkpt>
      <trkpt lat="45.55646" lon="4.78361">
        <ele>248</ele>
        <time>2012-05-19T09:14:44Z</time>
      </trkpt>
      <trkpt lat="45.55642" lon="4.78349">
        <ele>249</ele>
        <time>2012-05-19T09:14:48Z</time>
      </trkpt>
      <trkpt lat="45.55642" lon="4.78347">
        <ele>249</ele>
        <time>2012-05-19T09:14:49Z</time>
      </trkpt>
      <trkpt lat="45.55641" lon="4.78344">
        <ele>249</ele>
        <time>2012-05-19T09:14:50Z</time>
      </trkpt>
      <trkpt lat="45.5564" lon="4.78338">
        <ele>250</ele>
        <time>2012-05-19T09:14:52Z</time>
      </trkpt>
      <trkpt lat="45.55638" lon="4.78333">
        <ele>250</ele>
        <time>2012-05-19T09:14:54Z</time>
      </trkpt>
      <trkpt lat="45.55639" lon="4.7833">
        <ele>251</ele>
        <time>2012-05-19T09:14:55Z</time>
      </trkpt>
      <trkpt lat="45.55638" lon="4.78327">
        <ele>251</ele>
        <time>2012-05-19T09:14:56Z</time>
      </trkpt>
      <trkpt lat="45.55637" lon="4.78324">
        <ele>251</ele>
        <time>2012-05-19T09:14:57Z</time>
      </trkpt>
      <trkpt lat="45.55636" lon="4.78322">
        <ele>251</ele>
        <time>2012-05-19T09:14:58Z</time>
      </trkpt>
      <trkpt lat="45.55629" lon="4.78304">
        <ele>252</ele>
        <time>2012-05-19T09:15:03Z</time>
      </trkpt>
      <trkpt lat="45.55623" lon="4.78288">
        <ele>253</ele>
        <time>2012-05-19T09:15:08Z</time>
      </trkpt>
      <trkpt lat="45.55622" lon="4.78283">
        <ele>253</ele>
        <time>2012-05-19T09:15:10Z</time>
      </trkpt>
      <trkpt lat="45.55621" lon="4.7828">
        <ele>253</ele>
        <time>2012-05-19T09:15:11Z</time>
      </trkpt>
      <trkpt lat="45.5562" lon="4.78277">
        <ele>254</ele>
        <time>2012-05-19T09:15:12Z</time>
      </trkpt>
      <trkpt lat="45.55613" lon="4.7826">
        <ele>254</ele>
        <time>2012-05-19T09:15:17Z</time>
      </trkpt>
      <trkpt lat="45.55612" lon="4.78257">
        <ele>255</ele>
        <time>2012-05-19T09:15:18Z</time>
      </trkpt>
      <trkpt lat="45.55612" lon="4.78254">
        <ele>255</ele>
        <time>2012-05-19T09:15:19Z</time>
      </trkpt>
      <trkpt lat="45.55611" lon="4.78251">
        <ele>255</ele>
        <time>2012-05-19T09:15:20Z</time>
      </trkpt>
      <trkpt lat="45.55606" lon="4.78238">
        <ele>255</ele>
        <time>2012-05-19T09:15:24Z</time>
      </trkpt>
      <trkpt lat="45.55605" lon="4.78235">
        <ele>255</ele>
        <time>2012-05-19T09:15:25Z</time>
      </trkpt>
      <trkpt lat="45.55598" lon="4.7822">
        <ele>256</ele>
        <time>2012-05-19T09:15:30Z</time>
      </trkpt>
      <trkpt lat="45.55591" lon="4.78197">
        <ele>256</ele>
        <time>2012-05-19T09:15:36Z</time>
      </trkpt>
      <trkpt lat="45.55584" lon="4.78169">
        <ele>255</ele>
        <time>2012-05-19T09:15:42Z</time>
      </trkpt>
      <trkpt lat="45.55577" lon="4.78148">
        <ele>255</ele>
        <time>2012-05-19T09:15:47Z</time>
      </trkpt>
      <trkpt lat="45.55561" lon="4.78125">
        <ele>254</ele>
        <time>2012-05-19T09:15:54Z</time>
      </trkpt>
      <trkpt lat="45.5555" lon="4.78108">
        <ele>255</ele>
        <time>2012-05-19T09:15:59Z</time>
      </trkpt>
      <trkpt lat="45.55543" lon="4.78087">
        <ele>254</ele>
        <time>2012-05-19T09:16:04Z</time>
      </trkpt>
      <trkpt lat="45.55541" lon="4.78082">
        <ele>254</ele>
        <time>2012-05-19T09:16:05Z</time>
      </trkpt>
      <trkpt lat="45.55538" lon="4.78077">
        <ele>253</ele>
        <time>2012-05-19T09:16:06Z</time>
      </trkpt>
      <trkpt lat="45.55536" lon="4.78071">
        <ele>253</ele>
        <time>2012-05-19T09:16:07Z</time>
      </trkpt>
      <trkpt lat="45.55535" lon="4.78066">
        <ele>252</ele>
        <time>2012-05-19T09:16:08Z</time>
      </trkpt>
      <trkpt lat="45.55531" lon="4.78057">
        <ele>251</ele>
        <time>2012-05-19T09:16:09Z</time>
      </trkpt>
      <trkpt lat="45.55528" lon="4.7805">
        <ele>251</ele>
        <time>2012-05-19T09:16:10Z</time>
      </trkpt>
      <trkpt lat="45.55525" lon="4.78043">
        <ele>251</ele>
        <time>2012-05-19T09:16:11Z</time>
      </trkpt>
      <trkpt lat="45.55521" lon="4.78035">
        <ele>251</ele>
        <time>2012-05-19T09:16:12Z</time>
      </trkpt>
      <trkpt lat="45.55517" lon="4.78026">
        <ele>249</ele>
        <time>2012-05-19T09:16:13Z</time>
      </trkpt>
      <trkpt lat="45.55506" lon="4.77998">
        <ele>249</ele>
        <time>2012-05-19T09:16:16Z</time>
      </trkpt>
      <trkpt lat="45.55502" lon="4.77988">
        <ele>248</ele>
        <time>2012-05-19T09:16:17Z</time>
      </trkpt>
      <trkpt lat="45.55499" lon="4.77978">
        <ele>247</ele>
        <time>2012-05-19T09:16:18Z</time>
      </trkpt>
      <trkpt lat="45.55496" lon="4.77966">
        <ele>245</ele>
        <time>2012-05-19T09:16:19Z</time>
      </trkpt>
      <trkpt lat="45.55493" lon="4.77956">
        <ele>245</ele>
        <time>2012-05-19T09:16:20Z</time>
      </trkpt>
      <trkpt lat="45.55489" lon="4.77945">
        <ele>244</ele>
        <time>2012-05-19T09:16:21Z</time>
      </trkpt>
      <trkpt lat="45.55484" lon="4.77938">
        <ele>243</ele>
        <time>2012-05-19T09:16:22Z</time>
      </trkpt>
      <trkpt lat="45.55479" lon="4.77934">
        <ele>242</ele>
        <time>2012-05-19T09:16:23Z</time>
      </trkpt>
      <trkpt lat="45.55473" lon="4.7793">
        <ele>242</ele>
        <time>2012-05-19T09:16:24Z</time>
      </trkpt>
      <trkpt lat="45.55468" lon="4.77926">
        <ele>241</ele>
        <time>2012-05-19T09:16:25Z</time>
      </trkpt>
      <trkpt lat="45.55464" lon="4.7792">
        <ele>241</ele>
        <time>2012-05-19T09:16:26Z</time>
      </trkpt>
      <trkpt lat="45.55461" lon="4.77913">
        <ele>240</ele>
        <time>2012-05-19T09:16:27Z</time>
      </trkpt>
      <trkpt lat="45.55455" lon="4.77897">
        <ele>240</ele>
        <time>2012-05-19T09:16:29Z</time>
      </trkpt>
      <trkpt lat="45.55453" lon="4.77889">
        <ele>240</ele>
        <time>2012-05-19T09:16:30Z</time>
      </trkpt>
      <trkpt lat="45.55453" lon="4.77882">
        <ele>240</ele>
        <time>2012-05-19T09:16:31Z</time>
      </trkpt>
      <trkpt lat="45.55454" lon="4.77876">
        <ele>240</ele>
        <time>2012-05-19T09:16:32Z</time>
      </trkpt>
      <trkpt lat="45.55457" lon="4.77869">
        <ele>240</ele>
        <time>2012-05-19T09:16:33Z</time>
      </trkpt>
      <trkpt lat="45.55461" lon="4.77852">
        <ele>240</ele>
        <time>2012-05-19T09:16:36Z</time>
      </trkpt>
      <trkpt lat="45.55461" lon="4.77845">
        <ele>240</ele>
        <time>2012-05-19T09:16:37Z</time>
      </trkpt>
      <trkpt lat="45.55461" lon="4.77837">
        <ele>239</ele>
        <time>2012-05-19T09:16:38Z</time>
      </trkpt>
      <trkpt lat="45.55462" lon="4.77828">
        <ele>237</ele>
        <time>2012-05-19T09:16:39Z</time>
      </trkpt>
      <trkpt lat="45.55463" lon="4.77822">
        <ele>236</ele>
        <time>2012-05-19T09:16:40Z</time>
      </trkpt>
      <trkpt lat="45.55465" lon="4.77824">
        <ele>234</ele>
        <time>2012-05-19T09:16:42Z</time>
      </trkpt>
      <trkpt lat="45.55467" lon="4.7783">
        <ele>234</ele>
        <time>2012-05-19T09:16:43Z</time>
      </trkpt>
      <trkpt lat="45.55468" lon="4.77836">
        <ele>234</ele>
        <time>2012-05-19T09:16:44Z</time>
      </trkpt>
      <trkpt lat="45.5547" lon="4.77843">
        <ele>234</ele>
        <time>2012-05-19T09:16:45Z</time>
      </trkpt>
      <trkpt lat="45.55473" lon="4.77851">
        <ele>233</ele>
        <time>2012-05-19T09:16:46Z</time>
      </trkpt>
      <trkpt lat="45.55476" lon="4.77858">
        <ele>233</ele>
        <time>2012-05-19T09:16:47Z</time>
      </trkpt>
      <trkpt lat="45.55486" lon="4.77871">
        <ele>230</ele>
        <time>2012-05-19T09:16:51Z</time>
      </trkpt>
      <trkpt lat="45.55498" lon="4.77874">
        <ele>227</ele>
        <time>2012-05-19T09:16:55Z</time>
      </trkpt>
      <trkpt lat="45.55506" lon="4.7788">
        <ele>228</ele>
        <time>2012-05-19T09:17:00Z</time>
      </trkpt>
      <trkpt lat="45.55509" lon="4.77885">
        <ele>229</ele>
        <time>2012-05-19T09:17:03Z</time>
      </trkpt>
      <trkpt lat="45.55512" lon="4.7789">
        <ele>230</ele>
        <time>2012-05-19T09:17:07Z</time>
      </trkpt>
      <trkpt lat="45.55514" lon="4.77899">
        <ele>232</ele>
        <time>2012-05-19T09:17:12Z</time>
      </trkpt>
      <trkpt lat="45.55517" lon="4.77904">
        <ele>232</ele>
        <time>2012-05-19T09:17:15Z</time>
      </trkpt>
      <trkpt lat="45.55521" lon="4.77907">
        <ele>232</ele>
        <time>2012-05-19T09:17:18Z</time>
      </trkpt>
      <trkpt lat="45.55528" lon="4.77919">
        <ele>234</ele>
        <time>2012-05-19T09:17:26Z</time>
      </trkpt>
      <trkpt lat="45.55533" lon="4.77925">
        <ele>234</ele>
        <time>2012-05-19T09:17:29Z</time>
      </trkpt>
      <trkpt lat="45.55538" lon="4.77933">
        <ele>234</ele>
        <time>2012-05-19T09:17:33Z</time>
      </trkpt>
      <trkpt lat="45.55548" lon="4.77941">
        <ele>234</ele>
        <time>2012-05-19T09:17:40Z</time>
      </trkpt>
      <trkpt lat="45.5555" lon="4.77945">
        <ele>234</ele>
        <time>2012-05-19T09:17:49Z</time>
      </trkpt>
      <trkpt lat="45.55549" lon="4.77948">
        <ele>234</ele>
        <time>2012-05-19T09:18:06Z</time>
      </trkpt>
      <trkpt lat="45.55548" lon="4.77951">
        <ele>233</ele>
        <time>2012-05-19T09:18:27Z</time>
      </trkpt>
      <trkpt lat="45.55549" lon="4.77953">
        <ele>233</ele>
        <time>2012-05-19T09:18:46Z</time>
      </trkpt>
      <trkpt lat="45.55551" lon="4.77956">
        <ele>234</ele>
        <time>2012-05-19T09:19:01Z</time>
      </trkpt>
      <trkpt lat="45.55551" lon="4.77957">
        <ele>234</ele>
        <time>2012-05-19T09:19:07Z</time>
      </trkpt>
      <trkpt lat="45.55554" lon="4.77954">
        <ele>234</ele>
        <time>2012-05-19T09:19:17Z</time>
      </trkpt>
      <trkpt lat="45.55554" lon="4.77954">
        <ele>234</ele>
        <time>2012-05-19T09:19:19Z</time>
      </trkpt>
      <trkpt lat="45.55563" lon="4.77964">
        <ele>234</ele>
        <time>2012-05-19T09:19:27Z</time>
      </trkpt>
      <trkpt lat="45.55574" lon="4.77974">
        <ele>233</ele>
        <time>2012-05-19T09:19:33Z</time>
      </trkpt>
      <trkpt lat="45.5558" lon="4.77979">
        <ele>234</ele>
        <time>2012-05-19T09:19:36Z</time>
      </trkpt>
      <trkpt lat="45.55591" lon="4.77997">
        <ele>234</ele>
        <time>2012-05-19T09:19:42Z</time>
      </trkpt>
      <trkpt lat="45.55593" lon="4.78">
        <ele>233</ele>
        <time>2012-05-19T09:19:43Z</time>
      </trkpt>
      <trkpt lat="45.55601" lon="4.78012">
        <ele>232</ele>
        <time>2012-05-19T09:19:46Z</time>
      </trkpt>
      <trkpt lat="45.55604" lon="4.78019">
        <ele>232</ele>
        <time>2012-05-19T09:19:47Z</time>
      </trkpt>
      <trkpt lat="45.55615" lon="4.78042">
        <ele>228</ele>
        <time>2012-05-19T09:19:50Z</time>
      </trkpt>
      <trkpt lat="45.55619" lon="4.78051">
        <ele>227</ele>
        <time>2012-05-19T09:19:51Z</time>
      </trkpt>
      <trkpt lat="45.55626" lon="4.7807">
        <ele>226</ele>
        <time>2012-05-19T09:19:53Z</time>
      </trkpt>
      <trkpt lat="45.5563" lon="4.78079">
        <ele>224</ele>
        <time>2012-05-19T09:19:54Z</time>
      </trkpt>
      <trkpt lat="45.55635" lon="4.78089">
        <ele>224</ele>
        <time>2012-05-19T09:19:55Z</time>
      </trkpt>
      <trkpt lat="45.5564" lon="4.78099">
        <ele>223</ele>
        <time>2012-05-19T09:19:56Z</time>
      </trkpt>
      <trkpt lat="45.55645" lon="4.78109">
        <ele>222</ele>
        <time>2012-05-19T09:19:57Z</time>
      </trkpt>
      <trkpt lat="45.5565" lon="4.78118">
        <ele>221</ele>
        <time>2012-05-19T09:19:58Z</time>
      </trkpt>
      <trkpt lat="45.55665" lon="4.78144">
        <ele>218</ele>
        <time>2012-05-19T09:20:01Z</time>
      </trkpt>
      <trkpt lat="45.55671" lon="4.7815">
        <ele>218</ele>
        <time>2012-05-19T09:20:02Z</time>
      </trkpt>
      <trkpt lat="45.55691" lon="4.78172">
        <ele>217</ele>
        <time>2012-05-19T09:20:06Z</time>
      </trkpt>
      <trkpt lat="45.55695" lon="4.78177">
        <ele>217</ele>
        <time>2012-05-19T09:20:07Z</time>
      </trkpt>
      <trkpt lat="45.55698" lon="4.78182">
        <ele>217</ele>
        <time>2012-05-19T09:20:08Z</time>
      </trkpt>
      <trkpt lat="45.557" lon="4.78187">
        <ele>217</ele>
        <time>2012-05-19T09:20:09Z</time>
      </trkpt>
      <trkpt lat="45.55703" lon="4.78192">
        <ele>216</ele>
        <time>2012-05-19T09:20:10Z</time>
      </trkpt>
      <trkpt lat="45.55706" lon="4.78199">
        <ele>216</ele>
        <time>2012-05-19T09:20:11Z</time>
      </trkpt>
      <trkpt lat="45.55708" lon="4.78207">
        <ele>215</ele>
        <time>2012-05-19T09:20:12Z</time>
      </trkpt>
      <trkpt lat="45.55709" lon="4.78213">
        <ele>215</ele>
        <time>2012-05-19T09:20:13Z</time>
      </trkpt>
      <trkpt lat="45.55709" lon="4.78218">
        <ele>215</ele>
        <time>2012-05-19T09:20:14Z</time>
      </trkpt>
      <trkpt lat="45.5571" lon="4.78222">
        <ele>214</ele>
        <time>2012-05-19T09:20:15Z</time>
      </trkpt>
      <trkpt lat="45.55711" lon="4.7823">
        <ele>214</ele>
        <time>2012-05-19T09:20:16Z</time>
      </trkpt>
      <trkpt lat="45.55713" lon="4.78237">
        <ele>213</ele>
        <time>2012-05-19T09:20:17Z</time>
      </trkpt>
      <trkpt lat="45.55715" lon="4.78243">
        <ele>213</ele>
        <time>2012-05-19T09:20:18Z</time>
      </trkpt>
      <trkpt lat="45.55723" lon="4.78262">
        <ele>211</ele>
        <time>2012-05-19T09:20:23Z</time>
      </trkpt>
      <trkpt lat="45.55728" lon="4.78277">
        <ele>209</ele>
        <time>2012-05-19T09:20:29Z</time>
      </trkpt>
      <trkpt lat="45.55734" lon="4.78285">
        <ele>209</ele>
        <time>2012-05-19T09:20:35Z</time>
      </trkpt>
      <trkpt lat="45.55735" lon="4.78287">
        <ele>209</ele>
        <time>2012-05-19T09:20:36Z</time>
      </trkpt>
      <trkpt lat="45.55736" lon="4.7829">
        <ele>209</ele>
        <time>2012-05-19T09:20:37Z</time>
      </trkpt>
      <trkpt lat="45.55737" lon="4.78293">
        <ele>209</ele>
        <time>2012-05-19T09:20:38Z</time>
      </trkpt>
      <trkpt lat="45.55738" lon="4.78297">
        <ele>208</ele>
        <time>2012-05-19T09:20:39Z</time>
      </trkpt>
      <trkpt lat="45.5574" lon="4.783">
        <ele>209</ele>
        <time>2012-05-19T09:20:40Z</time>
      </trkpt>
      <trkpt lat="45.55744" lon="4.78317">
        <ele>210</ele>
        <time>2012-05-19T09:20:44Z</time>
      </trkpt>
      <trkpt lat="45.55745" lon="4.7832">
        <ele>210</ele>
        <time>2012-05-19T09:20:45Z</time>
      </trkpt>
      <trkpt lat="45.55747" lon="4.78323">
        <ele>211</ele>
        <time>2012-05-19T09:20:46Z</time>
      </trkpt>
      <trkpt lat="45.55749" lon="4.78327">
        <ele>211</ele>
        <time>2012-05-19T09:20:47Z</time>
      </trkpt>
      <trkpt lat="45.55751" lon="4.78329">
        <ele>211</ele>
        <time>2012-05-19T09:20:48Z</time>
      </trkpt>
      <trkpt lat="45.55765" lon="4.78351">
        <ele>211</ele>
        <time>2012-05-19T09:20:54Z</time>
      </trkpt>
      <trkpt lat="45.55777" lon="4.78371">
        <ele>212</ele>
        <time>2012-05-19T09:20:59Z</time>
      </trkpt>
      <trkpt lat="45.55782" lon="4.78382">
        <ele>212</ele>
        <time>2012-05-19T09:21:01Z</time>
      </trkpt>
      <trkpt lat="45.55786" lon="4.78388">
        <ele>211</ele>
        <time>2012-05-19T09:21:02Z</time>
      </trkpt>
      <trkpt lat="45.55789" lon="4.78395">
        <ele>210</ele>
        <time>2012-05-19T09:21:03Z</time>
      </trkpt>
      <trkpt lat="45.55796" lon="4.78405">
        <ele>210</ele>
        <time>2012-05-19T09:21:05Z</time>
      </trkpt>
      <trkpt lat="45.55798" lon="4.78412">
        <ele>210</ele>
        <time>2012-05-19T09:21:06Z</time>
      </trkpt>
      <trkpt lat="45.55802" lon="4.78423">
        <ele>210</ele>
        <time>2012-05-19T09:21:08Z</time>
      </trkpt>
      <trkpt lat="45.55802" lon="4.78429">
        <ele>210</ele>
        <time>2012-05-19T09:21:09Z</time>
      </trkpt>
      <trkpt lat="45.55803" lon="4.78436">
        <ele>210</ele>
        <time>2012-05-19T09:21:10Z</time>
      </trkpt>
      <trkpt lat="45.55803" lon="4.78441">
        <ele>210</ele>
        <time>2012-05-19T09:21:11Z</time>
      </trkpt>
      <trkpt lat="45.55805" lon="4.78446">
        <ele>210</ele>
        <time>2012-05-19T09:21:12Z</time>
      </trkpt>
      <trkpt lat="45.55819" lon="4.78475">
        <ele>210</ele>
        <time>2012-05-19T09:21:18Z</time>
      </trkpt>
      <trkpt lat="45.55821" lon="4.7848">
        <ele>210</ele>
        <time>2012-05-19T09:21:19Z</time>
      </trkpt>
      <trkpt lat="45.55831" lon="4.78498">
        <ele>209</ele>
        <time>2012-05-19T09:21:22Z</time>
      </trkpt>
      <trkpt lat="45.55837" lon="4.78516">
        <ele>206</ele>
        <time>2012-05-19T09:21:24Z</time>
      </trkpt>
      <trkpt lat="45.55848" lon="4.78552">
        <ele>203</ele>
        <time>2012-05-19T09:21:27Z</time>
      </trkpt>
      <trkpt lat="45.5586" lon="4.786">
        <ele>201</ele>
        <time>2012-05-19T09:21:31Z</time>
      </trkpt>
      <trkpt lat="45.5586" lon="4.7864">
        <ele>200</ele>
        <time>2012-05-19T09:21:35Z</time>
      </trkpt>
      <trkpt lat="45.55863" lon="4.78649">
        <ele>200</ele>
        <time>2012-05-19T09:21:36Z</time>
      </trkpt>
      <trkpt lat="45.55868" lon="4.78655">
        <ele>200</ele>
        <time>2012-05-19T09:21:37Z</time>
      </trkpt>
      <trkpt lat="45.55879" lon="4.78664">
        <ele>200</ele>
        <time>2012-05-19T09:21:39Z</time>
      </trkpt>
      <trkpt lat="45.55885" lon="4.78668">
        <ele>200</ele>
        <time>2012-05-19T09:21:40Z</time>
      </trkpt>
      <trkpt lat="45.55901" lon="4.7868">
        <ele>200</ele>
        <time>2012-05-19T09:21:43Z</time>
      </trkpt>
      <trkpt lat="45.55906" lon="4.78684">
        <ele>200</ele>
        <time>2012-05-19T09:21:44Z</time>
      </trkpt>
      <trkpt lat="45.55911" lon="4.78687">
        <ele>200</ele>
        <time>2012-05-19T09:21:45Z</time>
      </trkpt>
      <trkpt lat="45.55927" lon="4.78697">
        <ele>199</ele>
        <time>2012-05-19T09:21:48Z</time>
      </trkpt>
      <trkpt lat="45.55931" lon="4.78701">
        <ele>200</ele>
        <time>2012-05-19T09:21:49Z</time>
      </trkpt>
      <trkpt lat="45.55935" lon="4.78706">
        <ele>199</ele>
        <time>2012-05-19T09:21:50Z</time>
      </trkpt>
      <trkpt lat="45.55938" lon="4.78713">
        <ele>199</ele>
        <time>2012-05-19T09:21:51Z</time>
      </trkpt>
      <trkpt lat="45.55941" lon="4.78721">
        <ele>199</ele>
        <time>2012-05-19T09:21:52Z</time>
      </trkpt>
      <trkpt lat="45.55943" lon="4.78729">
        <ele>199</ele>
        <time>2012-05-19T09:21:53Z</time>
      </trkpt>
      <trkpt lat="45.55945" lon="4.78736">
        <ele>199</ele>
        <time>2012-05-19T09:21:54Z</time>
      </trkpt>
      <trkpt lat="45.55946" lon="4.78744">
        <ele>199</ele>
        <time>2012-05-19T09:21:55Z</time>
      </trkpt>
      <trkpt lat="45.55948" lon="4.78758">
        <ele>199</ele>
        <time>2012-05-19T09:21:57Z</time>
      </trkpt>
      <trkpt lat="45.55951" lon="4.78764">
        <ele>199</ele>
        <time>2012-05-19T09:21:58Z</time>
      </trkpt>
      <trkpt lat="45.55953" lon="4.78771">
        <ele>198</ele>
        <time>2012-05-19T09:21:59Z</time>
      </trkpt>
      <trkpt lat="45.55956" lon="4.78779">
        <ele>198</ele>
        <time>2012-05-19T09:22:00Z</time>
      </trkpt>
      <trkpt lat="45.55959" lon="4.78787">
        <ele>198</ele>
        <time>2012-05-19T09:22:01Z</time>
      </trkpt>
      <trkpt lat="45.55961" lon="4.78795">
        <ele>197</ele>
        <time>2012-05-19T09:22:02Z</time>
      </trkpt>
      <trkpt lat="45.55964" lon="4.78803">
        <ele>197</ele>
        <time>2012-05-19T09:22:03Z</time>
      </trkpt>
      <trkpt lat="45.55966" lon="4.78811">
        <ele>197</ele>
        <time>2012-05-19T09:22:04Z</time>
      </trkpt>
      <trkpt lat="45.55969" lon="4.78818">
        <ele>197</ele>
        <time>2012-05-19T09:22:05Z</time>
      </trkpt>
      <trkpt lat="45.55972" lon="4.78825">
        <ele>196</ele>
        <time>2012-05-19T09:22:06Z</time>
      </trkpt>
      <trkpt lat="45.55974" lon="4.78832">
        <ele>196</ele>
        <time>2012-05-19T09:22:07Z</time>
      </trkpt>
      <trkpt lat="45.55975" lon="4.78839">
        <ele>196</ele>
        <time>2012-05-19T09:22:08Z</time>
      </trkpt>
      <trkpt lat="45.55976" lon="4.78846">
        <ele>196</ele>
        <time>2012-05-19T09:22:09Z</time>
      </trkpt>
      <trkpt lat="45.55977" lon="4.78854">
        <ele>196</ele>
        <time>2012-05-19T09:22:10Z</time>
      </trkpt>
      <trkpt lat="45.55978" lon="4.78864">
        <ele>195</ele>
        <time>2012-05-19T09:22:11Z</time>
      </trkpt>
      <trkpt lat="45.5598" lon="4.78873">
        <ele>195</ele>
        <time>2012-05-19T09:22:12Z</time>
      </trkpt>
      <trkpt lat="45.55982" lon="4.78882">
        <ele>195</ele>
        <time>2012-05-19T09:22:13Z</time>
      </trkpt>
      <trkpt lat="45.55984" lon="4.78892">
        <ele>195</ele>
        <time>2012-05-19T09:22:14Z</time>
      </trkpt>
      <trkpt lat="45.55989" lon="4.7891">
        <ele>193</ele>
        <time>2012-05-19T09:22:16Z</time>
      </trkpt>
      <trkpt lat="45.55992" lon="4.78919">
        <ele>193</ele>
        <time>2012-05-19T09:22:17Z</time>
      </trkpt>
      <trkpt lat="45.56003" lon="4.78943">
        <ele>192</ele>
        <time>2012-05-19T09:22:20Z</time>
      </trkpt>
      <trkpt lat="45.56016" lon="4.78978">
        <ele>192</ele>
        <time>2012-05-19T09:22:24Z</time>
      </trkpt>
      <trkpt lat="45.56021" lon="4.78993">
        <ele>191</ele>
        <time>2012-05-19T09:22:26Z</time>
      </trkpt>
      <trkpt lat="45.56024" lon="4.79">
        <ele>192</ele>
        <time>2012-05-19T09:22:27Z</time>
      </trkpt>
      <trkpt lat="45.5603" lon="4.79014">
        <ele>191</ele>
        <time>2012-05-19T09:22:29Z</time>
      </trkpt>
      <trkpt lat="45.56033" lon="4.7902">
        <ele>191</ele>
        <time>2012-05-19T09:22:30Z</time>
      </trkpt>
      <trkpt lat="45.56036" lon="4.79028">
        <ele>190</ele>
        <time>2012-05-19T09:22:31Z</time>
      </trkpt>
      <trkpt lat="45.56036" lon="4.79037">
        <ele>190</ele>
        <time>2012-05-19T09:22:32Z</time>
      </trkpt>
      <trkpt lat="45.56033" lon="4.79045">
        <ele>190</ele>
        <time>2012-05-19T09:22:33Z</time>
      </trkpt>
      <trkpt lat="45.5603" lon="4.79053">
        <ele>190</ele>
        <time>2012-05-19T09:22:34Z</time>
      </trkpt>
      <trkpt lat="45.56027" lon="4.79061">
        <ele>190</ele>
        <time>2012-05-19T09:22:35Z</time>
      </trkpt>
      <trkpt lat="45.56024" lon="4.79069">
        <ele>190</ele>
        <time>2012-05-19T09:22:36Z</time>
      </trkpt>
      <trkpt lat="45.56021" lon="4.79077">
        <ele>190</ele>
        <time>2012-05-19T09:22:37Z</time>
      </trkpt>
      <trkpt lat="45.56018" lon="4.79093">
        <ele>189</ele>
        <time>2012-05-19T09:22:39Z</time>
      </trkpt>
      <trkpt lat="45.56018" lon="4.791">
        <ele>190</ele>
        <time>2012-05-19T09:22:40Z</time>
      </trkpt>
      <trkpt lat="45.5602" lon="4.79107">
        <ele>190</ele>
        <time>2012-05-19T09:22:41Z</time>
      </trkpt>
      <trkpt lat="45.56029" lon="4.79131">
        <ele>190</ele>
        <time>2012-05-19T09:22:44Z</time>
      </trkpt>
      <trkpt lat="45.56032" lon="4.79139">
        <ele>190</ele>
        <time>2012-05-19T09:22:45Z</time>
      </trkpt>
      <trkpt lat="45.56047" lon="4.79188">
        <ele>189</ele>
        <time>2012-05-19T09:22:51Z</time>
      </trkpt>
      <trkpt lat="45.5605" lon="4.79195">
        <ele>190</ele>
        <time>2012-05-19T09:22:52Z</time>
      </trkpt>
      <trkpt lat="45.56053" lon="4.79203">
        <ele>189</ele>
        <time>2012-05-19T09:22:53Z</time>
      </trkpt>
      <trkpt lat="45.56056" lon="4.79211">
        <ele>189</ele>
        <time>2012-05-19T09:22:54Z</time>
      </trkpt>
      <trkpt lat="45.56059" lon="4.79218">
        <ele>189</ele>
        <time>2012-05-19T09:22:55Z</time>
      </trkpt>
      <trkpt lat="45.56062" lon="4.79226">
        <ele>188</ele>
        <time>2012-05-19T09:22:56Z</time>
      </trkpt>
      <trkpt lat="45.56064" lon="4.79233">
        <ele>188</ele>
        <time>2012-05-19T09:22:57Z</time>
      </trkpt>
      <trkpt lat="45.56067" lon="4.7924">
        <ele>189</ele>
        <time>2012-05-19T09:22:58Z</time>
      </trkpt>
      <trkpt lat="45.56076" lon="4.79262">
        <ele>187</ele>
        <time>2012-05-19T09:23:01Z</time>
      </trkpt>
      <trkpt lat="45.56078" lon="4.7927">
        <ele>188</ele>
        <time>2012-05-19T09:23:02Z</time>
      </trkpt>
      <trkpt lat="45.56094" lon="4.79321">
        <ele>188</ele>
        <time>2012-05-19T09:23:09Z</time>
      </trkpt>
      <trkpt lat="45.56097" lon="4.79333">
        <ele>188</ele>
        <time>2012-05-19T09:23:11Z</time>
      </trkpt>
      <trkpt lat="45.56103" lon="4.79363">
        <ele>189</ele>
        <time>2012-05-19T09:23:15Z</time>
      </trkpt>
      <trkpt lat="45.56106" lon="4.7937">
        <ele>189</ele>
        <time>2012-05-19T09:23:16Z</time>
      </trkpt>
      <trkpt lat="45.56108" lon="4.79377">
        <ele>189</ele>
        <time>2012-05-19T09:23:17Z</time>
      </trkpt>
      <trkpt lat="45.56111" lon="4.79383">
        <ele>189</ele>
        <time>2012-05-19T09:23:18Z</time>
      </trkpt>
      <trkpt lat="45.56113" lon="4.79389">
        <ele>189</ele>
        <time>2012-05-19T09:23:19Z</time>
      </trkpt>
      <trkpt lat="45.56116" lon="4.79395">
        <ele>188</ele>
        <time>2012-05-19T09:23:20Z</time>
      </trkpt>
      <trkpt lat="45.56118" lon="4.79401">
        <ele>189</ele>
        <time>2012-05-19T09:23:21Z</time>
      </trkpt>
      <trkpt lat="45.5612" lon="4.79407">
        <ele>189</ele>
        <time>2012-05-19T09:23:22Z</time>
      </trkpt>
      <trkpt lat="45.56126" lon="4.79433">
        <ele>190</ele>
        <time>2012-05-19T09:23:27Z</time>
      </trkpt>
      <trkpt lat="45.56129" lon="4.79457">
        <ele>191</ele>
        <time>2012-05-19T09:23:34Z</time>
      </trkpt>
      <trkpt lat="45.5613" lon="4.79498">
        <ele>193</ele>
        <time>2012-05-19T09:23:45Z</time>
      </trkpt>
      <trkpt lat="45.56129" lon="4.7952">
        <ele>195</ele>
        <time>2012-05-19T09:23:52Z</time>
      </trkpt>
      <trkpt lat="45.56129" lon="4.79521">
        <ele>195</ele>
        <time>2012-05-19T09:23:53Z</time>
      </trkpt>
      <trkpt lat="45.56129" lon="4.79536">
        <ele>197</ele>
        <time>2012-05-19T09:24:00Z</time>
      </trkpt>
      <trkpt lat="45.56127" lon="4.79551">
        <ele>198</ele>
        <time>2012-05-19T09:24:07Z</time>
      </trkpt>
      <trkpt lat="45.56127" lon="4.79553">
        <ele>198</ele>
        <time>2012-05-19T09:24:08Z</time>
      </trkpt>
      <trkpt lat="45.56128" lon="4.79555">
        <ele>198</ele>
        <time>2012-05-19T09:24:09Z</time>
      </trkpt>
      <trkpt lat="45.56128" lon="4.79558">
        <ele>198</ele>
        <time>2012-05-19T09:24:10Z</time>
      </trkpt>
      <trkpt lat="45.56125" lon="4.79582">
        <ele>200</ele>
        <time>2012-05-19T09:24:20Z</time>
      </trkpt>
      <trkpt lat="45.56123" lon="4.79599">
        <ele>201</ele>
        <time>2012-05-19T09:24:27Z</time>
      </trkpt>
      <trkpt lat="45.56124" lon="4.79602">
        <ele>202</ele>
        <time>2012-05-19T09:24:28Z</time>
      </trkpt>
      <trkpt lat="45.56125" lon="4.79604">
        <ele>202</ele>
        <time>2012-05-19T09:24:29Z</time>
      </trkpt>
      <trkpt lat="45.56126" lon="4.79607">
        <ele>202</ele>
        <time>2012-05-19T09:24:30Z</time>
      </trkpt>
      <trkpt lat="45.56127" lon="4.79609">
        <ele>201</ele>
        <time>2012-05-19T09:24:31Z</time>
      </trkpt>
      <trkpt lat="45.56132" lon="4.79616">
        <ele>202</ele>
        <time>2012-05-19T09:24:36Z</time>
      </trkpt>
      <trkpt lat="45.56133" lon="4.79618">
        <ele>202</ele>
        <time>2012-05-19T09:24:37Z</time>
      </trkpt>
      <trkpt lat="45.56134" lon="4.79619">
        <ele>202</ele>
        <time>2012-05-19T09:24:38Z</time>
      </trkpt>
      <trkpt lat="45.56135" lon="4.79622">
        <ele>202</ele>
        <time>2012-05-19T09:24:39Z</time>
      </trkpt>
      <trkpt lat="45.56137" lon="4.79624">
        <ele>201</ele>
        <time>2012-05-19T09:24:40Z</time>
      </trkpt>
      <trkpt lat="45.56139" lon="4.79626">
        <ele>202</ele>
        <time>2012-05-19T09:24:41Z</time>
      </trkpt>
      <trkpt lat="45.56142" lon="4.79628">
        <ele>201</ele>
        <time>2012-05-19T09:24:42Z</time>
      </trkpt>
      <trkpt lat="45.56144" lon="4.79629">
        <ele>202</ele>
        <time>2012-05-19T09:24:43Z</time>
      </trkpt>
      <trkpt lat="45.56165" lon="4.79638">
        <ele>201</ele>
        <time>2012-05-19T09:24:49Z</time>
      </trkpt>
      <trkpt lat="45.56184" lon="4.79647">
        <ele>201</ele>
        <time>2012-05-19T09:24:54Z</time>
      </trkpt>
      <trkpt lat="45.56191" lon="4.79653">
        <ele>200</ele>
        <time>2012-05-19T09:24:56Z</time>
      </trkpt>
      <trkpt lat="45.56194" lon="4.79657">
        <ele>200</ele>
        <time>2012-05-19T09:24:57Z</time>
      </trkpt>
      <trkpt lat="45.56197" lon="4.79663">
        <ele>200</ele>
        <time>2012-05-19T09:24:58Z</time>
      </trkpt>
      <trkpt lat="45.56199" lon="4.79669">
        <ele>199</ele>
        <time>2012-05-19T09:24:59Z</time>
      </trkpt>
      <trkpt lat="45.56201" lon="4.79676">
        <ele>199</ele>
        <time>2012-05-19T09:25:00Z</time>
      </trkpt>
      <trkpt lat="45.56202" lon="4.79684">
        <ele>199</ele>
        <time>2012-05-19T09:25:01Z</time>
      </trkpt>
      <trkpt lat="45.56202" lon="4.79692">
        <ele>198</ele>
        <time>2012-05-19T09:25:02Z</time>
      </trkpt>
      <trkpt lat="45.56203" lon="4.797">
        <ele>199</ele>
        <time>2012-05-19T09:25:03Z</time>
      </trkpt>
      <trkpt lat="45.56204" lon="4.79708">
        <ele>198</ele>
        <time>2012-05-19T09:25:04Z</time>
      </trkpt>
      <trkpt lat="45.56203" lon="4.79715">
        <ele>197</ele>
        <time>2012-05-19T09:25:05Z</time>
      </trkpt>
      <trkpt lat="45.56201" lon="4.79722">
        <ele>197</ele>
        <time>2012-05-19T09:25:06Z</time>
      </trkpt>
      <trkpt lat="45.56198" lon="4.79728">
        <ele>197</ele>
        <time>2012-05-19T09:25:07Z</time>
      </trkpt>
      <trkpt lat="45.56194" lon="4.79733">
        <ele>196</ele>
        <time>2012-05-19T09:25:08Z</time>
      </trkpt>
      <trkpt lat="45.56191" lon="4.79739">
        <ele>196</ele>
        <time>2012-05-19T09:25:09Z</time>
      </trkpt>
      <trkpt lat="45.56188" lon="4.79744">
        <ele>195</ele>
        <time>2012-05-19T09:25:10Z</time>
      </trkpt>
      <trkpt lat="45.56185" lon="4.79749">
        <ele>195</ele>
        <time>2012-05-19T09:25:11Z</time>
      </trkpt>
      <trkpt lat="45.56184" lon="4.79753">
        <ele>194</ele>
        <time>2012-05-19T09:25:12Z</time>
      </trkpt>
      <trkpt lat="45.56184" lon="4.79756">
        <ele>194</ele>
        <time>2012-05-19T09:25:13Z</time>
      </trkpt>
      <trkpt lat="45.56186" lon="4.7976">
        <ele>194</ele>
        <time>2012-05-19T09:25:14Z</time>
      </trkpt>
      <trkpt lat="45.56189" lon="4.79765">
        <ele>193</ele>
        <time>2012-05-19T09:25:15Z</time>
      </trkpt>
      <trkpt lat="45.56192" lon="4.79769">
        <ele>193</ele>
        <time>2012-05-19T09:25:16Z</time>
      </trkpt>
      <trkpt lat="45.56215" lon="4.79796">
        <ele>191</ele>
        <time>2012-05-19T09:25:21Z</time>
      </trkpt>
      <trkpt lat="45.56242" lon="4.79824">
        <ele>188</ele>
        <time>2012-05-19T09:25:25Z</time>
      </trkpt>
      <trkpt lat="45.56274" lon="4.79857">
        <ele>185</ele>
        <time>2012-05-19T09:25:29Z</time>
      </trkpt>
      <trkpt lat="45.56297" lon="4.7988">
        <ele>181</ele>
        <time>2012-05-19T09:25:32Z</time>
      </trkpt>
      <trkpt lat="45.56303" lon="4.79886">
        <ele>180</ele>
        <time>2012-05-19T09:25:33Z</time>
      </trkpt>
      <trkpt lat="45.56306" lon="4.79894">
        <ele>178</ele>
        <time>2012-05-19T09:25:34Z</time>
      </trkpt>
      <trkpt lat="45.56309" lon="4.79901">
        <ele>177</ele>
        <time>2012-05-19T09:25:35Z</time>
      </trkpt>
      <trkpt lat="45.5631" lon="4.7991">
        <ele>177</ele>
        <time>2012-05-19T09:25:36Z</time>
      </trkpt>
      <trkpt lat="45.56309" lon="4.7992">
        <ele>177</ele>
        <time>2012-05-19T09:25:37Z</time>
      </trkpt>
      <trkpt lat="45.56307" lon="4.79931">
        <ele>175</ele>
        <time>2012-05-19T09:25:38Z</time>
      </trkpt>
      <trkpt lat="45.56296" lon="4.7998">
        <ele>172</ele>
        <time>2012-05-19T09:25:42Z</time>
      </trkpt>
      <trkpt lat="45.5629" lon="4.80007">
        <ele>171</ele>
        <time>2012-05-19T09:25:44Z</time>
      </trkpt>
      <trkpt lat="45.56278" lon="4.80062">
        <ele>168</ele>
        <time>2012-05-19T09:25:48Z</time>
      </trkpt>
      <trkpt lat="45.56275" lon="4.80075">
        <ele>167</ele>
        <time>2012-05-19T09:25:49Z</time>
      </trkpt>
      <trkpt lat="45.56258" lon="4.80144">
        <ele>166</ele>
        <time>2012-05-19T09:25:55Z</time>
      </trkpt>
      <trkpt lat="45.56256" lon="4.80152">
        <ele>165</ele>
        <time>2012-05-19T09:25:56Z</time>
      </trkpt>
      <trkpt lat="45.56255" lon="4.80159">
        <ele>165</ele>
        <time>2012-05-19T09:25:57Z</time>
      </trkpt>
      <trkpt lat="45.56255" lon="4.80165">
        <ele>164</ele>
        <time>2012-05-19T09:25:58Z</time>
      </trkpt>
      <trkpt lat="45.56257" lon="4.80171">
        <ele>165</ele>
        <time>2012-05-19T09:25:59Z</time>
      </trkpt>
      <trkpt lat="45.56261" lon="4.80175">
        <ele>164</ele>
        <time>2012-05-19T09:26:00Z</time>
      </trkpt>
      <trkpt lat="45.56265" lon="4.80178">
        <ele>165</ele>
        <time>2012-05-19T09:26:01Z</time>
      </trkpt>
      <trkpt lat="45.56269" lon="4.80181">
        <ele>164</ele>
        <time>2012-05-19T09:26:02Z</time>
      </trkpt>
      <trkpt lat="45.56273" lon="4.80184">
        <ele>165</ele>
        <time>2012-05-19T09:26:03Z</time>
      </trkpt>
      <trkpt lat="45.56277" lon="4.80186">
        <ele>165</ele>
        <time>2012-05-19T09:26:04Z</time>
      </trkpt>
      <trkpt lat="45.56281" lon="4.8019">
        <ele>164</ele>
        <time>2012-05-19T09:26:05Z</time>
      </trkpt>
      <trkpt lat="45.56284" lon="4.80193">
        <ele>163</ele>
        <time>2012-05-19T09:26:06Z</time>
      </trkpt>
      <trkpt lat="45.56309" lon="4.80225">
        <ele>163</ele>
        <time>2012-05-19T09:26:14Z</time>
      </trkpt>
      <trkpt lat="45.56317" lon="4.80245">
        <ele>163</ele>
        <time>2012-05-19T09:26:19Z</time>
      </trkpt>
      <trkpt lat="45.56317" lon="4.8025">
        <ele>163</ele>
        <time>2012-05-19T09:26:20Z</time>
      </trkpt>
      <trkpt lat="45.56314" lon="4.80253">
        <ele>163</ele>
        <time>2012-05-19T09:26:21Z</time>
      </trkpt>
      <trkpt lat="45.56312" lon="4.80256">
        <ele>163</ele>
        <time>2012-05-19T09:26:22Z</time>
      </trkpt>
      <trkpt lat="45.56309" lon="4.80259">
        <ele>163</ele>
        <time>2012-05-19T09:26:23Z</time>
      </trkpt>
      <trkpt lat="45.56287" lon="4.80289">
        <ele>163</ele>
        <time>2012-05-19T09:26:31Z</time>
      </trkpt>
      <trkpt lat="45.56278" lon="4.80319">
        <ele>163</ele>
        <time>2012-05-19T09:26:37Z</time>
      </trkpt>
      <trkpt lat="45.56274" lon="4.80349">
        <ele>163</ele>
        <time>2012-05-19T09:26:42Z</time>
      </trkpt>
      <trkpt lat="45.5627" lon="4.80376">
        <ele>163</ele>
        <time>2012-05-19T09:26:47Z</time>
      </trkpt>
      <trkpt lat="45.56268" lon="4.80382">
        <ele>162</ele>
        <time>2012-05-19T09:26:48Z</time>
      </trkpt>
      <trkpt lat="45.56266" lon="4.80387">
        <ele>163</ele>
        <time>2012-05-19T09:26:49Z</time>
      </trkpt>
      <trkpt lat="45.56264" lon="4.80392">
        <ele>162</ele>
        <time>2012-05-19T09:26:50Z</time>
      </trkpt>
      <trkpt lat="45.56262" lon="4.80398">
        <ele>162</ele>
        <time>2012-05-19T09:26:51Z</time>
      </trkpt>
      <trkpt lat="45.56259" lon="4.80403">
        <ele>163</ele>
        <time>2012-05-19T09:26:52Z</time>
      </trkpt>
      <trkpt lat="45.56257" lon="4.80408">
        <ele>162</ele>
        <time>2012-05-19T09:26:53Z</time>
      </trkpt>
      <trkpt lat="45.56249" lon="4.80422">
        <ele>163</ele>
        <time>2012-05-19T09:26:56Z</time>
      </trkpt>
      <trkpt lat="45.56242" lon="4.80429">
        <ele>162</ele>
        <time>2012-05-19T09:26:58Z</time>
      </trkpt>
      <trkpt lat="45.56238" lon="4.80432">
        <ele>163</ele>
        <time>2012-05-19T09:26:59Z</time>
      </trkpt>
      <trkpt lat="45.56233" lon="4.80434">
        <ele>162</ele>
        <time>2012-05-19T09:27:00Z</time>
      </trkpt>
      <trkpt lat="45.56229" lon="4.80435">
        <ele>162</ele>
        <time>2012-05-19T09:27:01Z</time>
      </trkpt>
      <trkpt lat="45.56225" lon="4.80434">
        <ele>163</ele>
        <time>2012-05-19T09:27:02Z</time>
      </trkpt>
      <trkpt lat="45.5622" lon="4.80433">
        <ele>162</ele>
        <time>2012-05-19T09:27:03Z</time>
      </trkpt>
      <trkpt lat="45.56216" lon="4.80431">
        <ele>163</ele>
        <time>2012-05-19T09:27:04Z</time>
      </trkpt>
      <trkpt lat="45.56212" lon="4.80431">
        <ele>163</ele>
        <time>2012-05-19T09:27:05Z</time>
      </trkpt>
      <trkpt lat="45.56208" lon="4.80431">
        <ele>162</ele>
        <time>2012-05-19T09:27:06Z</time>
      </trkpt>
      <trkpt lat="45.56204" lon="4.80434">
        <ele>162</ele>
        <time>2012-05-19T09:27:07Z</time>
      </trkpt>
      <trkpt lat="45.562" lon="4.80437">
        <ele>163</ele>
        <time>2012-05-19T09:27:08Z</time>
      </trkpt>
      <trkpt lat="45.56196" lon="4.8044">
        <ele>163</ele>
        <time>2012-05-19T09:27:09Z</time>
      </trkpt>
      <trkpt lat="45.56165" lon="4.8046">
        <ele>163</ele>
        <time>2012-05-19T09:27:18Z</time>
      </trkpt>
      <trkpt lat="45.56154" lon="4.80472">
        <ele>162</ele>
        <time>2012-05-19T09:27:23Z</time>
      </trkpt>
      <trkpt lat="45.56153" lon="4.80476">
        <ele>162</ele>
        <time>2012-05-19T09:27:24Z</time>
      </trkpt>
      <trkpt lat="45.56153" lon="4.8048">
        <ele>162</ele>
        <time>2012-05-19T09:27:25Z</time>
      </trkpt>
      <trkpt lat="45.56154" lon="4.80482">
        <ele>162</ele>
        <time>2012-05-19T09:27:26Z</time>
      </trkpt>
      <trkpt lat="45.56156" lon="4.80484">
        <ele>162</ele>
        <time>2012-05-19T09:27:27Z</time>
      </trkpt>
      <trkpt lat="45.56157" lon="4.80484">
        <ele>162</ele>
        <time>2012-05-19T09:27:28Z</time>
      </trkpt>
      <trkpt lat="45.56159" lon="4.80484">
        <ele>161</ele>
        <time>2012-05-19T09:27:29Z</time>
      </trkpt>
      <trkpt lat="45.5616" lon="4.80485">
        <ele>162</ele>
        <time>2012-05-19T09:27:35Z</time>
      </trkpt>
      <trkpt lat="45.56161" lon="4.80485">
        <ele>162</ele>
        <time>2012-05-19T09:27:45Z</time>
      </trkpt>
      <trkpt lat="45.56161" lon="4.80485">
        <ele>162</ele>
        <time>2012-05-19T09:28:02Z</time>
      </trkpt>
      <trkpt lat="45.56161" lon="4.80485">
        <ele>159</ele>
        <time>2012-05-19T09:28:11Z</time>
      </trkpt>
    </trkseg>
  </trk>
</gpx>